# Wetter Temperatur Luftdruck Luftfeuchtigkeit Sichtweite Windgeschwindigkeit Windrichtung Zeit
1 Clouds 26 1013 70 10000 5.04 255 09:34 14.08.2022
2 Clouds 25 1012 79 10000 4.34 255 06:54 14.08.2022
3 Clouds 26 1012 79 10000 4 251 05:45 14.08.2022
4 Clouds 27 1013 71 10000 3.61 258 01:43 14.08.2022
5 Clouds 27 1013 74 10000 4.81 237 23:22 13.08.2022
6 Clouds 27 1012 72 10000 3.89 250 22:28 13.08.2022
7 Clouds 28 1011 69 10000 4.34 260 20:51 13.08.2022
8 Clouds 31 1010 63 10000 3.98 242 19:49 13.08.2022
9 Clouds 31 1010 58 10000 4.16 247 19:18 13.08.2022
10 Clouds 31 1011 56 10000 3.26 251 17:21 13.08.2022
11 Clouds 33 1011 52 10000 2.38 48 14:51 13.08.2022
12 Clouds 32 1012 54 10000 1.85 58 14:24 13.08.2022
13 Clouds 33 1012 56 10000 0.82 284 13:34 13.08.2022
14 Clear 29 1012 57 10000 1.72 110 11:33 13.08.2022
15 Clear 26 1012 77 10000 2.14 77 09:26 13.08.2022
16 Clouds 26 1012 85 10000 2.13 74 07:43 13.08.2022
17 Clouds 26 1013 87 10000 4.87 73 01:52 13.08.2022
18 Clouds 25 1014 90 10000 3.74 77 23:32 12.08.2022
19 Clear 26 1013 90 10000 4.88 66 21:39 12.08.2022
20 Clouds 26 1012 77 10000 5.46 74 19:49 12.08.2022
21 Clouds 28 1012 75 10000 5.2 76 19:24 12.08.2022
22 Clouds 29 1013 74 10000 5.02 83 18:29 12.08.2022
23 Clear 29 1013 70 10000 6.13 83 16:27 12.08.2022
24 Clear 28 1013 71 10000 6.44 78 15:21 12.08.2022
25 Clouds 28 1014 71 10000 5.71 78 13:47 12.08.2022
26 Clouds 27 1014 74 10000 5.99 77 12:38 12.08.2022
27 Clouds 24 1014 89 10000 4.39 75 08:57 12.08.2022
28 Clouds 26 1014 93 10000 3.38 75 07:46 12.08.2022
29 Clouds 24 1013 94 10000 3.72 72 06:23 12.08.2022
30 Clouds 25 1015 93 10000 3.34 82 00:32 12.08.2022
31 Clear 25 1015 91 10000 3.21 42 23:58 11.08.2022
32 Clear 25 1015 91 10000 1.96 53 23:25 11.08.2022
33 Clear 27 1014 90 10000 2.39 54 21:53 11.08.2022
34 Clear 27 1014 86 10000 2.06 42 21:28 11.08.2022
35 Clear 27 1014 86 10000 2.06 42 21:28 11.08.2022
36 Clear 28 1014 86 10000 2.06 42 20:31 11.08.2022
37 Clear 28 1014 86 10000 2.06 42 20:31 11.08.2022
38 Clear 29 1013 79 10000 1.91 52 19:33 11.08.2022
39 Clouds 28 1013 75 10000 2.01 85 18:56 11.08.2022
40 Clouds 28 1013 77 10000 1.51 61 16:47 11.08.2022
41 Clouds 28 1014 78 2658 0.79 50 15:43 11.08.2022
42 Clouds 28 1014 79 2321 0.18 175 14:40 11.08.2022
43 Clouds 25 1015 76 10000 0.75 216 11:59 11.08.2022
44 Clouds 24 1014 84 10000 1.82 287 09:22 11.08.2022
45 Clouds 24 1014 86 10000 2.2 285 06:49 11.08.2022
46 Clouds 24 1014 88 10000 2.46 276 02:38 11.08.2022
47 Clouds 24 1015 88 10000 3.59 272 23:41 10.08.2022
48 Clouds 25 1014 87 10000 3.9 269 21:49 10.08.2022
49 Clouds 25 1013 84 10000 3.91 262 21:18 10.08.2022
50 Clouds 26 1013 84 10000 3.91 262 20:35 10.08.2022
51 Clouds 27 1013 80 10000 3.3 262 18:53 10.08.2022
52 Clouds 26 1014 78 10000 2.32 261 17:27 10.08.2022
53 Clouds 26 1014 78 2091 2.03 254 14:53 10.08.2022
54 Clouds 25 1015 79 10000 1.75 243 13:33 10.08.2022
55 Clouds 25 1015 80 10000 2.56 257 10:50 10.08.2022
56 Clouds 24 1015 88 10000 2.63 268 08:39 10.08.2022
57 Clouds 24 1015 90 10000 3.02 266 07:35 10.08.2022
58 Clouds 25 1014 91 10000 2.92 267 04:50 10.08.2022
59 Clouds 25 1015 91 10000 0.51 265 01:33 10.08.2022
60 Clouds 25 1015 92 10000 0.86 52 23:31 09.08.2022
61 Clouds 26 1014 91 10000 2.61 42 21:58 09.08.2022
62 Clouds 26 1014 88 10000 2.6 34 21:23 09.08.2022
63 Clouds 27 1013 80 10000 1.97 35 19:18 09.08.2022
64 Clouds 28 1013 78 10000 2.35 57 17:37 09.08.2022
65 Clouds 28 1014 76 10000 2.81 73 17:19 09.08.2022
66 Clouds 28 1014 76 10000 2.95 73 16:22 09.08.2022
67 Clouds 28 1015 75 10000 2.28 74 15:23 09.08.2022
68 Clear 25 1016 69 10000 1.53 77 11:30 09.08.2022
69 Clear 23 1015 75 10000 0.85 86 08:53 09.08.2022
70 Clear 23 1015 79 10000 0.77 57 07:58 09.08.2022
71 Clouds 23 1015 80 10000 2.21 270 05:24 09.08.2022
72 Clouds 24 1016 75 10000 1.73 284 00:59 09.08.2022
73 Clear 25 1015 78 10000 3.37 290 23:24 08.08.2022
74 Clear 25 1015 78 10000 3.37 290 22:42 08.08.2022
75 Clear 26 1015 78 10000 3.7 270 21:44 08.08.2022
76 Clear 27 1014 74 10000 3.95 271 20:39 08.08.2022
77 Clear 27 1014 68 10000 4.41 268 19:35 08.08.2022
78 Clear 28 1014 63 10000 4.77 260 18:18 08.08.2022
79 Clear 27 1015 62 10000 4.87 258 15:48 08.08.2022
80 Clear 27 1016 61 10000 4.88 259 15:28 08.08.2022
81 Clouds 27 1016 62 10000 4.42 267 12:30 08.08.2022
82 Clouds 24 1016 72 10000 4.05 253 10:28 08.08.2022
83 Clouds 22 1016 85 10000 3.58 254 07:59 08.08.2022
84 Clear 22 1015 84 10000 4.22 260 03:45 08.08.2022
85 Clear 25 1015 81 10000 4.08 269 23:28 07.08.2022
86 Clear 27 1015 79 10000 4.2 269 21:41 07.08.2022
87 Clear 26 1015 75 10000 4.56 268 20:55 07.08.2022
88 Clear 26 1014 69 10000 5.03 266 20:18 07.08.2022
89 Clear 27 1014 69 10000 5.03 266 19:51 07.08.2022
90 Clear 28 1014 66 10000 5.25 263 18:49 07.08.2022
91 Clear 28 1014 65 10000 5.04 260 17:22 07.08.2022
92 Clear 28 1014 65 10000 5.04 260 16:51 07.08.2022
93 Clear 25 1015 68 10000 4.19 254 15:29 07.08.2022
94 Clouds 27 1015 64 10000 3.76 254 13:55 07.08.2022
95 Clouds 27 1016 67 10000 3.11 256 12:40 07.08.2022
96 Clouds 25 1016 79 10000 2.04 252 10:48 07.08.2022
97 Clouds 24 1016 82 10000 1.57 244 09:56 07.08.2022
98 Clouds 25 1016 92 10000 0.4 312 04:33 07.08.2022
99 Clear 25 1016 90 10000 0.63 327 01:59 07.08.2022
100 Clear 26 1016 90 10000 1.01 27 22:33 06.08.2022
101 Clear 27 1016 89 10000 1.18 21 21:48 06.08.2022
102 Clear 29 1015 78 10000 1.14 78 19:43 06.08.2022
103 Clear 29 1015 75 10000 0.5 60 18:35 06.08.2022
104 Clear 28 1015 73 6697 1.1 76 17:44 06.08.2022
105 Clear 29 1016 70 10000 4.39 77 15:21 06.08.2022
106 Clouds 27 1016 71 10000 4.88 80 13:50 06.08.2022
107 Clouds 28 1016 73 10000 4.05 79 12:21 06.08.2022
108 Clouds 26 1016 74 10000 3.84 81 10:40 06.08.2022
109 Clouds 25 1016 78 10000 3.61 84 09:31 06.08.2022
110 Clouds 25 1015 92 10000 2.32 61 04:38 06.08.2022
111 Clear 25 1016 92 10000 1.21 54 00:46 06.08.2022
112 Clear 27 1015 91 10000 1.42 43 22:35 05.08.2022
113 Clear 27 1014 83 10000 0.98 49 20:37 05.08.2022
114 Clear 29 1013 75 10000 2.59 75 18:55 05.08.2022
115 Clear 29 1013 75 10000 2.59 75 18:36 05.08.2022
116 Clear 29 1013 69 10000 5.24 74 16:52 05.08.2022
117 Clear 29 1014 72 10000 6.07 79 15:24 05.08.2022
118 Clear 29 1014 72 10000 6.07 79 14:34 05.08.2022
119 Clouds 28 1015 75 10000 4.54 85 13:26 05.08.2022
120 Clouds 28 1015 75 10000 4.54 85 12:59 05.08.2022
121 Clouds 27 1014 79 10000 2.91 83 11:20 05.08.2022
122 Clouds 25 1014 87 10000 2.55 71 08:46 05.08.2022
123 Clouds 25 1013 92 10000 2.34 74 07:34 05.08.2022
124 Clear 25 1013 93 10000 2.83 75 02:33 05.08.2022
125 Clear 25 1014 91 10000 3.04 59 22:43 04.08.2022
126 Clear 26 1012 86 10000 2.74 62 21:28 04.08.2022
127 Clear 26 1012 86 10000 2.74 62 20:53 04.08.2022
128 Clear 26 1012 86 10000 2.74 62 20:33 04.08.2022
129 Clear 28 1011 74 10000 3.2 72 18:57 04.08.2022
130 Clear 28 1011 74 10000 3.2 72 18:33 04.08.2022
131 Clear 29 1013 74 10000 2.75 71 14:50 04.08.2022
132 Clear 27 1013 76 10000 2.43 82 13:26 04.08.2022
133 Clear 27 1013 76 10000 1.54 78 11:39 04.08.2022
134 Clear 23 1013 80 10000 0.47 58 10:20 04.08.2022
135 Clear 25 1012 91 10000 0.31 39 07:44 04.08.2022
136 Clear 26 1012 90 10000 2.73 76 02:46 04.08.2022
137 Clear 25 1013 87 10000 2.36 67 23:58 03.08.2022
138 Clear 25 1013 87 10000 2.36 67 23:36 03.08.2022
139 Clear 26 1011 79 10000 3.07 58 21:26 03.08.2022
140 Clear 27 1011 71 10000 4.14 74 20:20 03.08.2022
141 Clear 27 1010 67 10000 5.19 80 18:53 03.08.2022
142 Clear 28 1011 64 10000 6.4 81 16:27 03.08.2022
143 Clear 27 1011 64 10000 6.4 81 15:53 03.08.2022
144 Clear 27 1013 67 10000 6.26 81 13:38 03.08.2022
145 Clear 25 1013 75 10000 5.85 82 10:44 03.08.2022
146 Clear 22 1012 90 10000 4.86 80 07:21 03.08.2022
147 Clear 23 1012 91 10000 5.22 74 04:22 03.08.2022
148 Clear 23 1012 91 10000 5.44 73 03:22 03.08.2022
149 Clear 24 1013 90 10000 5.75 74 00:46 03.08.2022
150 Clear 24 1014 89 10000 5.71 74 22:33 02.08.2022
151 Clear 24 1013 87 10000 6.07 77 21:50 02.08.2022
152 Clear 25 1013 73 10000 6.77 80 20:27 02.08.2022
153 Clear 27 1013 66 10000 7.48 83 16:52 02.08.2022
154 Clear 27 1014 67 10000 7.22 81 14:33 02.08.2022
155 Clouds 24 1015 75 10000 6.72 84 10:44 02.08.2022
156 Clouds 23 1015 89 10000 6.27 80 08:38 02.08.2022
157 Clouds 22 1014 93 10000 6.44 80 07:51 02.08.2022
158 Clouds 22 1014 93 10000 6.22 77 04:57 02.08.2022
159 Clouds 22 1015 93 10000 6.21 78 03:30 02.08.2022
160 Clouds 24 1015 93 10000 5.23 75 23:26 01.08.2022
161 Clouds 25 1015 91 10000 5.25 74 21:49 01.08.2022
162 Clear 26 1014 81 10000 6.09 77 20:27 01.08.2022
163 Clear 27 1014 77 10000 6.55 81 18:56 01.08.2022
164 Clear 27 1014 72 10000 7.17 83 16:59 01.08.2022
165 Clear 27 1014 72 10000 7.17 83 16:39 01.08.2022
166 Clear 26 1014 72 10000 7.37 81 15:45 01.08.2022
167 Clear 26 1015 73 10000 7.49 81 14:57 01.08.2022
168 Clouds 26 1015 74 10000 7.4 80 13:32 01.08.2022
169 Clouds 23 1016 80 10000 7.37 81 11:18 01.08.2022
170 Clouds 23 1015 89 10000 6.78 76 08:55 01.08.2022
171 Clouds 22 1015 92 10000 6.83 73 07:37 01.08.2022
172 Clouds 23 1014 93 10000 6.73 77 04:37 01.08.2022
173 Clouds 22 1016 95 10000 6.28 71 01:33 01.08.2022
174 Clouds 23 1015 93 10000 5.69 72 22:47 31.07.2022
175 Clouds 24 1014 92 10000 5.74 76 22:29 31.07.2022
176 Clouds 25 1014 86 10000 5.89 77 20:39 31.07.2022
177 Clouds 28 1014 79 10000 6.54 81 18:40 31.07.2022
178 Clouds 28 1015 76 10000 7.12 80 17:29 31.07.2022
179 Clouds 26 1016 78 10000 7.34 78 14:43 31.07.2022
180 Clouds 26 1016 79 10000 7.04 77 12:59 31.07.2022
181 Clouds 25 1016 81 10000 6.98 77 11:39 31.07.2022
182 Clouds 23 1015 89 10000 6.18 75 08:47 31.07.2022
183 Clouds 23 1014 93 10000 6.18 74 05:38 31.07.2022
184 Clouds 23 1016 93 10000 7.51 77 01:21 31.07.2022
185 Clouds 24 1016 93 10000 6.82 76 22:49 30.07.2022
186 Clouds 23 1015 93 10000 6.43 78 21:52 30.07.2022
187 Clouds 23 1015 93 10000 6.43 78 21:33 30.07.2022
188 Clear 23 1014 90 10000 6.56 80 20:38 30.07.2022
189 Clear 25 1013 84 10000 7.35 78 19:50 30.07.2022
190 Clear 27 1014 80 10000 7.43 77 18:19 30.07.2022
191 Clear 25 1014 79 10000 7.95 81 16:38 30.07.2022
192 Clear 26 1014 77 10000 8.46 83 15:33 30.07.2022
193 Clouds 24 1016 68 10000 6.59 80 13:23 30.07.2022
194 Clouds 25 1016 64 10000 5.75 75 12:22 30.07.2022
195 Clouds 25 1016 64 10000 5.75 75 11:51 30.07.2022
196 Clouds 25 1015 70 10000 4.58 76 10:20 30.07.2022
197 Rain 24 1015 72 10000 4.02 74 08:55 30.07.2022
198 Rain 23 1015 76 10000 3.54 78 07:33 30.07.2022
199 Clouds 23 1014 73 10000 2.41 82 02:33 30.07.2022
200 Clouds 24 1015 75 10000 0.64 111 00:30 30.07.2022
201 Clouds 26 1013 74 10000 1.88 64 21:38 29.07.2022
202 Clear 27 1013 69 10000 1.98 53 20:50 29.07.2022
203 Clear 28 1013 62 10000 2.38 77 19:46 29.07.2022
204 Clear 29 1013 58 10000 0.47 173 17:25 29.07.2022
205 Clear 27 1013 59 10000 2.3 256 14:48 29.07.2022
206 Clear 27 1014 59 10000 2.99 264 12:42 29.07.2022
207 Clear 23 1013 72 10000 2.44 264 08:52 29.07.2022
208 Clear 23 1013 78 10000 2.5 254 08:23 29.07.2022
209 Clear 25 1012 77 10000 3.03 256 05:19 29.07.2022
210 Clear 26 1013 76 10000 3.59 246 23:59 28.07.2022
211 Clear 27 1012 71 10000 3.57 261 21:41 28.07.2022
212 Clear 28 1011 65 10000 3.93 255 20:54 28.07.2022
213 Clear 29 1011 59 10000 4 254 20:18 28.07.2022
214 Clear 29 1010 59 10000 4.15 261 19:40 28.07.2022
215 Clear 29 1011 55 10000 4.58 259 18:19 28.07.2022
216 Clear 29 1011 55 10000 4.58 259 17:36 28.07.2022
217 Clear 28 1011 55 10000 4.7 261 16:41 28.07.2022
218 Clear 28 1013 61 10000 4.89 258 14:28 28.07.2022
219 Clear 28 1013 65 10000 4.83 264 12:41 28.07.2022
220 Clear 22 1013 80 10000 4.6 246 09:21 28.07.2022
221 Clear 22 1013 84 10000 4.84 245 05:41 28.07.2022
222 Clear 22 1013 83 10000 5.33 246 05:21 28.07.2022
223 Clear 25 1014 78 10000 5.14 260 23:41 27.07.2022
224 Clear 27 1013 78 10000 5.18 263 21:31 27.07.2022
225 Clear 27 1013 65 10000 5.42 264 20:19 27.07.2022
226 Clear 28 1013 58 10000 5.69 265 19:26 27.07.2022
227 Clear 30 1014 56 10000 5.77 267 16:32 27.07.2022
228 Clear 30 1014 57 10000 5.59 266 15:51 27.07.2022
229 Clear 29 1015 58 10000 5.61 269 14:42 27.07.2022
230 Clear 27 1015 59 10000 5.91 271 13:45 27.07.2022
231 Clear 25 1015 66 10000 5.66 266 10:39 27.07.2022
232 Clear 24 1015 85 10000 5.83 262 07:53 27.07.2022
233 Clear 25 1014 85 10000 6.72 239 04:54 27.07.2022
234 Clear 28 1015 79 10000 4.15 252 23:25 26.07.2022
235 Clear 30 1015 78 10000 4.29 258 22:19 26.07.2022
236 Clear 30 1014 69 10000 4.75 258 20:58 26.07.2022
237 Clear 33 1014 64 10000 5.06 261 19:32 26.07.2022
238 Clear 33 1014 59 10000 5.28 258 18:40 26.07.2022
239 Clear 35 1015 56 10000 5.38 254 17:54 26.07.2022
240 Clear 32 1015 55 10000 6.03 251 15:46 26.07.2022
241 Clear 36 1016 55 10000 6.07 254 14:43 26.07.2022
242 Clear 33 1016 54 10000 6.09 255 12:33 26.07.2022
243 Clear 30 1015 46 10000 4.31 257 10:20 26.07.2022
244 Clear 28 1014 44 10000 3.15 268 08:27 26.07.2022
245 Clear 31 1015 61 10000 4.38 253 01:55 26.07.2022
246 Clear 32 1016 56 10000 3.85 233 00:20 26.07.2022
247 Clear 33 1015 52 10000 3.47 243 22:40 25.07.2022
248 Clear 26 1014 49 10000 2.97 242 21:43 25.07.2022
249 Clear 26 1014 50 10000 2.18 229 20:43 25.07.2022
250 Clear 26 1013 47 10000 1.55 228 20:24 25.07.2022
251 Clear 27 1013 46 10000 1.38 240 19:25 25.07.2022
252 Clouds 27 1014 48 10000 0.14 177 17:56 25.07.2022
253 Clouds 27 1014 49 10000 0.9 73 17:20 25.07.2022
254 Clouds 24 1016 52 10000 3.56 88 13:27 25.07.2022
255 Clouds 23 1016 55 10000 2.67 92 10:54 25.07.2022
256 Clouds 25 1015 70 10000 2.78 75 07:59 25.07.2022
257 Clouds 24 1016 75 10000 3.57 83 01:36 25.07.2022
258 Clouds 25 1016 74 10000 3.94 69 23:45 24.07.2022
259 Clouds 25 1016 77 10000 4.08 69 22:47 24.07.2022
260 Clouds 25 1015 78 10000 4.62 79 21:42 24.07.2022
261 Clouds 26 1015 73 10000 4.39 79 21:18 24.07.2022
262 Clouds 26 1015 73 10000 4.38 80 20:44 24.07.2022
263 Clouds 28 1014 64 10000 5.05 82 19:23 24.07.2022
264 Clouds 27 1014 60 10000 5.58 79 18:26 24.07.2022
265 Clouds 26 1015 59 10000 6.86 80 15:55 24.07.2022
266 Clouds 26 1016 61 10000 6.77 80 14:57 24.07.2022
267 Clouds 26 1016 59 10000 6.72 79 13:50 24.07.2022
268 Clouds 25 1017 64 10000 6.45 79 12:28 24.07.2022
269 Clouds 25 1017 64 10000 6.44 79 11:31 24.07.2022
270 Clouds 24 1017 72 10000 6.44 77 09:55 24.07.2022
271 Clear 23 1016 87 10000 5.6 70 08:22 24.07.2022
272 Clear 23 1016 85 10000 5.31 68 07:41 24.07.2022
273 Clear 24 1017 87 10000 4.79 65 03:18 24.07.2022
274 Clear 25 1017 82 10000 5.06 72 23:25 23.07.2022
275 Clear 26 1016 75 10000 5.3 75 20:49 23.07.2022
276 Clear 27 1015 64 10000 5.68 74 19:30 23.07.2022
277 Clear 26 1015 61 10000 5.81 78 18:40 23.07.2022
278 Clear 27 1015 57 10000 6.53 83 17:27 23.07.2022
279 Clear 26 1015 56 10000 6.52 85 16:29 23.07.2022
280 Clear 27 1016 56 10000 6.43 84 15:22 23.07.2022
281 Clear 27 1016 56 10000 6.43 84 14:55 23.07.2022
282 Clear 27 1016 57 10000 6.05 81 14:23 23.07.2022
283 Clear 26 1016 61 10000 5.06 80 11:56 23.07.2022
284 Clear 25 1016 66 10000 4.98 77 10:44 23.07.2022
285 Clear 24 1016 72 10000 4.84 77 09:44 23.07.2022
286 Clear 22 1015 87 10000 5.05 73 07:37 23.07.2022
287 Clear 23 1015 90 10000 4.97 69 03:37 23.07.2022
288 Clear 24 1016 89 10000 4.72 65 00:37 23.07.2022
289 Clear 25 1015 86 10000 5.6 79 21:36 22.07.2022
290 Clear 25 1015 78 10000 5.81 82 20:31 22.07.2022
291 Clear 31 1014 67 10000 5.95 81 18:42 22.07.2022
292 Clear 27 1015 66 10000 6.73 86 17:40 22.07.2022
293 Clear 27 1015 63 10000 7.24 80 15:48 22.07.2022
294 Clear 25 1016 70 10000 7.03 80 12:47 22.07.2022
295 Clouds 23 1016 83 10000 6.32 80 10:22 22.07.2022
296 Clouds 23 1016 90 10000 6.27 77 09:21 22.07.2022
297 Clouds 24 1015 94 10000 6.04 77 07:57 22.07.2022
298 Clouds 23 1016 93 10000 6.23 77 04:23 22.07.2022
299 Clouds 23 1017 93 10000 6.46 72 23:43 21.07.2022
300 Clouds 29 1016 93 10000 6.34 72 21:51 21.07.2022
301 Clear 26 1015 83 10000 7.42 82 19:45 21.07.2022
302 Clouds 27 1015 79 10000 8.05 82 18:36 21.07.2022
303 Clouds 27 1016 75 10000 7.75 78 17:22 21.07.2022
304 Clouds 26 1017 74 10000 8.2 79 16:23 21.07.2022
305 Clouds 27 1017 74 10000 8.02 80 14:46 21.07.2022
306 Clouds 26 1018 74 10000 7.66 82 13:53 21.07.2022
307 Clouds 25 1018 79 10000 7.75 82 11:58 21.07.2022
308 Clouds 24 1017 86 10000 7.63 79 10:20 21.07.2022
309 Clouds 23 1017 89 10000 7.34 79 08:53 21.07.2022
310 Clouds 23 1017 93 10000 6.56 78 07:50 21.07.2022
311 Clouds 24 1016 95 10000 5.75 76 06:27 21.07.2022
312 Clear 24 1016 92 10000 5.56 73 02:49 21.07.2022
313 Clear 24 1016 85 10000 4.71 68 22:47 20.07.2022
314 Clear 24 1015 82 10000 4.69 68 22:19 20.07.2022
315 Clear 24 1015 76 10000 4.57 68 20:46 20.07.2022
316 Clear 25 1014 71 10000 5.23 75 19:46 20.07.2022
317 Clear 24 1014 68 10000 5.47 78 18:54 20.07.2022
318 Clear 25 1014 68 10000 5.47 78 18:31 20.07.2022
319 Clear 26 1015 62 10000 6.42 85 17:25 20.07.2022
320 Clear 26 1015 63 10000 6.14 81 15:33 20.07.2022
321 Clear 27 1016 64 10000 5.89 84 14:36 20.07.2022
322 Clear 24 1016 64 10000 3.38 81 12:54 20.07.2022
323 Clear 24 1016 59 10000 2.23 93 10:57 20.07.2022
324 Clear 22 1015 74 10000 2.49 258 06:21 20.07.2022
325 Clear 25 1016 71 10000 2.76 236 01:40 20.07.2022
326 Clear 25 1016 69 10000 2.43 256 00:41 20.07.2022
327 Clear 26 1016 68 10000 2.48 263 22:36 19.07.2022
328 Clear 26 1015 67 10000 2.7 261 21:54 19.07.2022
329 Clear 27 1015 60 10000 2.9 254 20:49 19.07.2022
330 Clear 27 1014 54 10000 3.12 250 19:22 19.07.2022
331 Clear 27 1014 54 10000 3.11 250 18:41 19.07.2022
332 Clear 29 1015 57 10000 3.39 256 17:54 19.07.2022
333 Clear 28 1016 62 10000 2.89 258 15:49 19.07.2022
334 Clear 27 1017 62 10000 2.97 254 13:37 19.07.2022
335 Clear 24 1018 62 10000 2.33 250 11:33 19.07.2022
336 Clear 23 1018 72 10000 1.97 264 09:52 19.07.2022
337 Clear 21 1017 79 10000 1.58 258 08:47 19.07.2022
338 Clear 21 1017 85 10000 1.45 264 07:46 19.07.2022
339 Clear 22 1017 86 10000 1.52 252 07:18 19.07.2022
340 Clear 22 1017 87 10000 0.41 279 05:18 19.07.2022
341 Clear 23 1017 87 10000 0.26 51 03:40 19.07.2022
342 Clear 24 1017 87 10000 1.75 36 23:57 18.07.2022
343 Clear 24 1017 88 10000 1.93 39 23:20 18.07.2022
344 Clear 25 1016 87 10000 1.98 39 22:27 18.07.2022
345 Clear 24 1016 82 10000 2.45 40 21:24 18.07.2022
346 Clear 26 1016 82 10000 2.45 40 20:34 18.07.2022
347 Clear 27 1015 73 10000 4.21 73 18:32 18.07.2022
348 Clear 27 1016 68 10000 5.64 73 16:34 18.07.2022
349 Clear 27 1017 68 10000 6.22 79 15:28 18.07.2022
350 Clear 27 1017 69 10000 6.31 79 13:32 18.07.2022
351 Clear 25 1017 74 10000 4.91 87 11:44 18.07.2022
352 Clear 25 1017 78 10000 4.2 91 09:55 18.07.2022
353 Clear 25 1017 78 10000 4.2 91 09:55 18.07.2022
354 Clouds 24 1017 91 10000 3.13 89 07:59 18.07.2022
355 Clouds 24 1017 92 10000 3.39 90 05:35 18.07.2022
356 Clear 25 1016 86 10000 6.6 81 23:19 17.07.2022
357 Clear 26 1016 86 10000 6.6 81 22:32 17.07.2022
358 Clear 26 1016 85 10000 6.54 80 21:40 17.07.2022
359 Clear 27 1015 77 10000 6.78 84 20:46 17.07.2022
360 Clear 27 1015 70 10000 7.19 83 19:50 17.07.2022
361 Clear 28 1015 66 10000 7.61 83 19:24 17.07.2022
362 Clear 28 1015 64 10000 7.97 82 17:54 17.07.2022
363 Clear 28 1015 64 10000 7.97 82 17:36 17.07.2022
364 Clouds 27 1016 62 10000 8.78 83 16:33 17.07.2022
365 Clouds 27 1016 62 10000 8.78 82 15:50 17.07.2022
366 Clouds 26 1017 63 10000 7.94 83 13:51 17.07.2022
367 Clouds 26 1017 65 10000 7.2 82 12:56 17.07.2022
368 Clouds 27 1016 72 10000 6.23 86 10:21 17.07.2022
369 Clear 26 1016 86 10000 4.64 83 07:31 17.07.2022
370 Clear 25 1015 86 10000 5.35 103 02:35 17.07.2022
371 Clear 25 1015 86 10000 7.25 80 23:28 16.07.2022
372 Clear 25 1015 86 10000 7.25 80 22:43 16.07.2022
373 Clear 26 1014 77 10000 7.18 81 20:45 16.07.2022
374 Clear 27 1013 64 10000 8.45 82 18:58 16.07.2022
375 Clear 28 1014 62 10000 8.91 82 17:47 16.07.2022
376 Clear 27 1014 61 10000 9.09 83 16:22 16.07.2022
377 Clear 26 1016 64 10000 8.16 85 13:26 16.07.2022
378 Clear 26 1015 75 10000 7.1 84 10:29 16.07.2022
379 Clear 26 1015 83 10000 6.43 84 09:26 16.07.2022
380 Clear 25 1015 83 10000 6.42 84 08:41 16.07.2022
381 Clear 24 1014 89 10000 5.96 81 07:23 16.07.2022
382 Clear 24 1014 87 10000 6.87 85 03:35 16.07.2022
383 Clear 24 1015 87 10000 7.84 82 00:45 16.07.2022
384 Clear 24 1014 89 10000 8.01 81 22:56 15.07.2022
385 Clear 24 1014 88 10000 7.87 81 22:24 15.07.2022
386 Clear 24 1014 82 10000 8.01 82 20:41 15.07.2022
387 Clear 25 1013 75 10000 8.25 82 19:34 15.07.2022
388 Clear 26 1013 67 10000 9.44 80 18:23 15.07.2022
389 Clear 26 1013 65 10000 9.75 80 16:53 15.07.2022
390 Clear 26 1014 63 10000 10.11 83 14:19 15.07.2022
391 Clear 26 1015 64 10000 9.92 80 12:28 15.07.2022
392 Clear 24 1014 67 10000 9.51 79 10:52 15.07.2022
393 Clear 24 1013 87 10000 7.41 78 07:48 15.07.2022
394 Clear 23 1013 88 10000 8 79 03:41 15.07.2022
395 Clear 24 1015 86 10000 7.68 78 00:40 15.07.2022
396 Clear 23 1015 86 10000 7.63 79 22:56 14.07.2022
397 Clear 24 1014 84 10000 7.83 78 22:19 14.07.2022
398 Clear 24 1014 84 10000 7.83 78 21:39 14.07.2022
399 Clear 24 1014 78 10000 8.09 78 21:19 14.07.2022
400 Clear 25 1014 78 10000 8.09 78 20:42 14.07.2022
401 Clear 24 1014 71 10000 8.29 81 20:18 14.07.2022
402 Clear 25 1014 66 10000 9.93 82 17:59 14.07.2022
403 Clear 27 1016 62 10000 9.96 81 16:19 14.07.2022
404 Clear 26 1016 63 10000 9.87 81 14:55 14.07.2022
405 Clear 26 1017 63 10000 9.45 81 13:51 14.07.2022
406 Clear 25 1017 62 10000 9.34 81 12:34 14.07.2022
407 Clear 25 1017 67 10000 8.32 81 11:26 14.07.2022
408 Clear 24 1017 67 10000 8.32 81 10:51 14.07.2022
409 Clear 24 1017 79 10000 7.69 82 08:45 14.07.2022
410 Clear 24 1017 88 10000 7.06 79 04:18 14.07.2022
411 Clear 25 1018 86 10000 8.34 82 00:55 14.07.2022
412 Clear 25 1018 86 10000 8.45 81 00:18 14.07.2022
413 Clear 24 1018 84 10000 8.6 81 22:28 13.07.2022
414 Clear 24 1018 84 10000 8.6 81 21:38 13.07.2022
415 Clear 23 1017 79 10000 8.81 81 20:38 13.07.2022
416 Clear 26 1017 65 10000 9.78 81 18:26 13.07.2022
417 Clear 27 1018 64 10000 10.16 81 17:22 13.07.2022
418 Clear 26 1018 65 10000 10.58 81 16:18 13.07.2022
419 Clear 25 1019 67 10000 10.88 81 13:50 13.07.2022
420 Clear 25 1019 71 10000 10.65 82 11:33 13.07.2022
421 Clear 25 1018 74 10000 10.53 83 10:44 13.07.2022
422 Clear 24 1018 80 10000 10.07 81 09:29 13.07.2022
423 Clouds 24 1017 83 10000 9.78 80 08:24 13.07.2022
424 Clouds 24 1017 82 10000 10.03 79 04:50 13.07.2022
425 Clear 24 1018 82 10000 8.15 82 00:47 13.07.2022
426 Clear 23 1018 83 10000 9.72 79 22:47 12.07.2022
427 Clear 24 1017 84 10000 9.61 77 21:49 12.07.2022
428 Clear 24 1016 81 10000 9.31 78 20:53 12.07.2022
429 Clouds 24 1016 77 10000 9.82 80 19:54 12.07.2022
430 Clouds 25 1015 73 10000 10.07 81 18:43 12.07.2022
431 Clouds 25 1016 70 10000 10.79 83 16:36 12.07.2022
432 Clouds 25 1016 71 10000 12.06 83 14:32 12.07.2022
433 Clouds 25 1017 72 10000 11.78 85 13:43 12.07.2022
434 Clouds 24 1015 73 10000 12.93 82 11:54 12.07.2022
435 Clouds 24 1014 78 10000 12.46 82 10:27 12.07.2022
436 Clouds 23 1014 82 10000 12.1 79 08:57 12.07.2022
437 Clouds 23 1013 85 10000 11.34 77 07:48 12.07.2022
438 Clouds 24 1012 87 10000 11.38 79 05:47 12.07.2022
439 Clouds 23 1012 86 10000 11.25 78 05:29 12.07.2022
440 Clouds 23 1013 87 10000 10.53 79 01:31 12.07.2022
441 Clear 24 1013 90 10000 9.54 79 22:43 11.07.2022
442 Clear 24 1012 89 10000 9.61 80 21:34 11.07.2022
443 Clear 25 1011 84 10000 9.95 79 20:32 11.07.2022
444 Clear 25 1011 68 10000 10.4 81 19:18 11.07.2022
445 Clear 25 1011 63 10000 10.73 81 18:29 11.07.2022
446 Clear 26 1012 61 10000 10.91 83 16:30 11.07.2022
447 Clear 25 1012 63 10000 10.86 84 15:28 11.07.2022
448 Clear 25 1013 66 10000 10.42 83 13:19 11.07.2022
449 Clear 24 1013 72 10000 9.84 85 11:23 11.07.2022
450 Clear 24 1012 77 10000 9.33 82 09:55 11.07.2022
451 Clear 23 1012 85 10000 8.48 82 09:27 11.07.2022
452 Clear 23 1012 91 10000 7.48 80 08:31 11.07.2022
453 Clouds 22 1015 91 10000 7.91 80 01:20 11.07.2022
454 Clouds 22 1015 92 10000 7.83 80 23:54 10.07.2022
455 Clouds 23 1015 92 10000 7.87 77 22:45 10.07.2022
456 Clear 24 1014 84 10000 7.57 81 20:56 10.07.2022
457 Clear 24 1014 84 10000 7.57 81 20:36 10.07.2022
458 Clear 24 1013 75 10000 8.47 84 19:30 10.07.2022
459 Clear 24 1013 75 10000 8.47 84 19:30 10.07.2022
460 Clear 23 1014 67 10000 10.04 80 18:25 10.07.2022
461 Clear 24 1014 67 10000 10.04 80 17:35 10.07.2022
462 Clear 24 1015 65 10000 10.5 80 16:21 10.07.2022
463 Clear 25 1015 65 10000 10.67 80 14:47 10.07.2022
464 Clear 24 1016 67 10000 10.34 79 13:31 10.07.2022
465 Clear 24 1016 71 10000 9.78 79 11:57 10.07.2022
466 Clear 23 1016 77 10000 8.58 78 09:46 10.07.2022
467 Clear 22 1016 84 10000 7.95 79 08:44 10.07.2022
468 Clear 22 1016 87 10000 7.32 77 07:20 10.07.2022
469 Clear 22 1018 86 10000 8.23 82 23:53 09.07.2022
470 Clear 30 1018 86 10000 8.4 79 22:26 09.07.2022
471 Clear 24 1018 86 10000 8.4 79 21:47 09.07.2022
472 Clear 25 1017 73 10000 9.35 79 19:57 09.07.2022
473 Clear 24 1017 70 10000 10.24 80 18:32 09.07.2022
474 Clear 25 1017 67 10000 10.78 81 17:32 09.07.2022
475 Clear 26 1018 66 10000 11.19 82 16:36 09.07.2022
476 Clear 26 1018 65 10000 11.6 83 15:39 09.07.2022
477 Clear 26 1019 64 10000 11.95 82 14:24 09.07.2022
478 Clear 25 1019 64 10000 11.95 82 13:48 09.07.2022
479 Clear 25 1019 66 10000 11.48 80 12:29 09.07.2022
480 Clear 25 1019 68 10000 11.33 80 10:42 09.07.2022
481 Clear 25 1019 71 10000 10.8 80 10:21 09.07.2022
482 Clear 23 1019 81 10000 9.36 77 07:44 09.07.2022
483 Clear 23 1019 81 10000 9.36 77 07:44 09.07.2022
484 Clear 23 1018 84 10000 8.67 77 04:53 09.07.2022
485 Clear 23 1019 85 10000 9.09 79 00:43 09.07.2022
486 Clear 23 1019 86 10000 8.75 77 22:41 08.07.2022
487 Clear 22 1019 85 10000 8.63 78 21:31 08.07.2022
488 Clear 22 1019 80 10000 8.74 81 20:40 08.07.2022
489 Clear 23 1018 76 10000 9.19 83 19:48 08.07.2022
490 Clear 24 1018 70 10000 9.5 83 17:57 08.07.2022
491 Clear 25 1019 69 10000 9.48 83 16:37 08.07.2022
492 Clear 24 1019 72 10000 9.7 81 14:51 08.07.2022
493 Clear 25 1020 74 10000 9.21 81 13:24 08.07.2022
494 Clear 25 1020 74 10000 9.21 81 13:24 08.07.2022
495 Clouds 24 1020 78 10000 8.34 84 11:25 08.07.2022
496 Clouds 24 1020 82 10000 8.09 82 10:26 08.07.2022
497 Clouds 23 1020 92 10000 7.2 78 08:24 08.07.2022
498 Clouds 23 1019 93 10000 7.38 77 06:47 08.07.2022
499 Clouds 22 1020 94 10000 6.84 75 01:19 08.07.2022
500 Clouds 24 1020 94 10000 6.65 76 22:57 07.07.2022
501 Clouds 24 1020 94 10000 6.65 76 22:57 07.07.2022
502 Clouds 24 1020 94 10000 6.6 75 21:57 07.07.2022
503 Clouds 23 1019 87 10000 7.42 80 19:47 07.07.2022
504 Clouds 23 1019 81 10000 7.86 80 18:18 07.07.2022
505 Clouds 26 1019 80 10000 8.2 81 16:43 07.07.2022
506 Clouds 26 1020 78 10000 8.3 82 14:32 07.07.2022
507 Clear 26 1020 76 10000 8.01 80 12:46 07.07.2022
508 Clear 25 1020 73 10000 7.25 78 12:23 07.07.2022
509 Clear 25 1020 73 10000 7.25 78 11:34 07.07.2022
510 Clear 23 1020 69 10000 6.8 75 10:46 07.07.2022
511 Clear 23 1020 68 10000 6.01 76 10:28 07.07.2022
512 Clear 23 1020 68 10000 6.03 76 09:52 07.07.2022
513 Clear 20 1019 83 10000 4.77 73 06:32 07.07.2022
514 Clear 21 1019 79 10000 0.49 299 00:31 07.07.2022
515 Clear 21 1019 80 10000 1.44 236 23:36 06.07.2022
516 Clear 23 1019 83 10000 2.02 232 23:18 06.07.2022
517 Clear 23 1019 83 10000 2.02 232 22:52 06.07.2022
518 Clear 23 1019 83 10000 2.02 232 22:33 06.07.2022
519 Clear 23 1019 83 10000 2.02 232 22:33 06.07.2022
520 Clear 25 1016 69 10000 3.8 248 20:23 06.07.2022
521 Clear 27 1016 69 10000 2.87 243 19:32 06.07.2022
522 Clear 27 1017 57 10000 4.13 257 17:21 06.07.2022
523 Clear 27 1018 57 10000 4.31 259 15:57 06.07.2022
524 Clear 25 1019 61 10000 4.15 257 12:44 06.07.2022
525 Clear 25 1020 64 10000 3.76 259 11:52 06.07.2022
526 Clear 22 1019 69 10000 3.61 263 10:54 06.07.2022
527 Clouds 20 1019 84 10000 3.47 258 09:25 06.07.2022
528 Clear 19 1019 89 10000 2.28 277 07:44 06.07.2022
529 Clear 19 1019 89 10000 2.29 276 07:44 06.07.2022
530 Clouds 19 1018 89 10000 2.49 278 06:44 06.07.2022
531 Clear 21 1020 89 10000 4.92 263 00:24 06.07.2022
532 Clear 22 1019 89 10000 4.78 265 22:43 05.07.2022
533 Clear 25 1018 81 10000 4.64 263 20:49 05.07.2022
534 Clear 25 1017 77 10000 5.14 253 20:21 05.07.2022
535 Clouds 25 1017 77 10000 5.03 256 19:37 05.07.2022
536 Clear 26 1016 70 10000 5.3 258 17:50 05.07.2022
537 Clear 26 1017 68 10000 5.4 260 17:19 05.07.2022
538 Clear 25 1017 66 10000 5.49 261 16:18 05.07.2022
539 Clear 26 1017 66 10000 5.2 259 14:54 05.07.2022
540 Clear 27 1018 66 10000 5.22 258 13:34 05.07.2022
541 Clear 24 1018 68 10000 5.09 263 12:22 05.07.2022
542 Clear 23 1018 70 10000 4.9 262 10:45 05.07.2022
543 Clear 22 1018 73 10000 4.41 264 09:52 05.07.2022
544 Clear 20 1017 86 10000 3.57 255 08:21 05.07.2022
545 Clear 20 1017 88 10000 3 249 06:48 05.07.2022
546 Clear 21 1017 88 10000 3.45 280 04:35 05.07.2022
547 Clouds 23 1019 89 10000 4.89 260 01:25 05.07.2022
548 Clouds 23 1018 88 10000 4.97 269 23:37 04.07.2022
549 Clouds 25 1018 87 10000 5.2 267 22:55 04.07.2022
550 Clouds 24 1017 85 10000 4.83 263 21:56 04.07.2022
551 Clouds 25 1016 78 10000 5.02 260 20:56 04.07.2022
552 Clouds 25 1016 78 10000 5.02 260 20:35 04.07.2022
553 Clouds 25 1015 72 10000 5.27 260 19:56 04.07.2022
554 Clouds 25 1016 71 10000 5.14 258 19:37 04.07.2022
555 Clouds 25 1015 67 10000 5.27 257 18:34 04.07.2022
556 Clouds 25 1016 62 10000 5.99 264 16:42 04.07.2022
557 Clouds 25 1016 62 10000 5.76 263 15:34 04.07.2022
558 Clear 25 1017 63 10000 5.3 256 13:41 04.07.2022
559 Clear 24 1018 63 10000 4.76 257 12:38 04.07.2022
560 Clear 23 1019 69 10000 3.58 261 10:39 04.07.2022
561 Clear 22 1019 74 10000 3.01 268 10:20 04.07.2022
562 Clouds 20 1018 83 10000 2.84 278 08:31 04.07.2022
563 Clouds 20 1018 88 10000 3.42 277 05:36 04.07.2022
564 Clear 21 1019 90 10000 4.5 274 00:43 04.07.2022
565 Clear 23 1019 89 10000 4.66 269 23:27 03.07.2022
566 Clear 21 1018 87 10000 4.47 266 22:23 03.07.2022
567 Clear 24 1018 82 10000 4.37 258 20:42 03.07.2022
568 Clear 25 1017 76 10000 4.87 262 19:42 03.07.2022
569 Clear 25 1016 72 10000 5.23 262 19:23 03.07.2022
570 Clear 26 1017 68 10000 5.45 256 17:45 03.07.2022
571 Clear 26 1017 66 10000 5.2 260 16:58 03.07.2022
572 Clear 26 1018 67 10000 4.68 258 15:25 03.07.2022
573 Clear 26 1018 67 10000 4.68 258 14:37 03.07.2022
574 Clouds 25 1019 67 10000 4.85 264 13:49 03.07.2022
575 Clouds 24 1019 68 10000 4.88 270 12:41 03.07.2022
576 Clouds 24 1019 70 10000 4.46 268 11:40 03.07.2022
577 Clouds 22 1019 74 10000 4.09 257 10:40 03.07.2022
578 Clouds 21 1019 79 10000 3.65 251 09:59 03.07.2022
579 Clouds 22 1019 90 10000 2.83 252 07:37 03.07.2022
580 Clouds 22 1018 89 10000 2.67 245 05:22 03.07.2022
581 Clouds 23 1019 95 10000 2.31 80 00:24 03.07.2022
582 Clouds 23 1018 96 10000 2.04 81 22:36 02.07.2022
583 Clouds 24 1017 95 10000 2.35 88 21:38 02.07.2022
584 Clouds 25 1016 87 10000 4.69 86 19:53 02.07.2022
585 Clouds 25 1016 87 10000 4.69 86 19:31 02.07.2022
586 Clouds 25 1016 85 10000 6.36 89 17:58 02.07.2022
587 Clouds 25 1016 86 10000 6.36 89 17:36 02.07.2022
588 Clouds 25 1017 90 10000 6.95 79 15:28 02.07.2022
589 Clouds 23 1017 90 10000 6.4 78 12:24 02.07.2022
590 Clouds 22 1017 91 10000 6.47 77 11:28 02.07.2022
591 Clouds 21 1017 91 10000 6.47 77 10:48 02.07.2022
592 Clouds 20 1016 91 10000 6.63 76 09:49 02.07.2022
593 Clouds 21 1016 92 10000 6.48 75 08:36 02.07.2022
594 Clouds 22 1015 94 10000 5.85 77 08:18 02.07.2022
595 Clouds 21 1014 90 10000 9.03 79 02:52 02.07.2022
596 Clouds 22 1015 91 10000 8.86 82 00:27 02.07.2022
597 Clear 22 1014 92 10000 8.97 80 22:59 01.07.2022
598 Clear 22 1013 91 10000 8.74 80 21:56 01.07.2022
599 Clear 22 1013 91 10000 8.74 80 21:37 01.07.2022
600 Clear 20 1013 86 10000 8.73 81 20:56 01.07.2022
601 Clear 21 1012 77 10000 8.72 81 19:47 01.07.2022
602 Clear 21 1013 64 10000 9.11 76 17:58 01.07.2022
603 Clear 21 1013 64 10000 8.54 72 16:24 01.07.2022
604 Clear 21 1014 66 10000 7.22 71 13:55 01.07.2022
605 Clear 24 1014 62 10000 4.43 68 12:59 01.07.2022
606 Clear 22 1014 54 10000 0.36 90 10:46 01.07.2022
607 Clear 22 1014 57 10000 0.94 319 10:18 01.07.2022
608 Clouds 21 1013 75 10000 4.43 242 05:27 01.07.2022
609 Clouds 21 1014 70 10000 5.3 249 01:27 01.07.2022
610 Clouds 24 1014 67 10000 4.8 263 23:26 30.06.2022
611 Clouds 24 1013 67 10000 4.82 263 22:44 30.06.2022
612 Clouds 25 1013 65 10000 4.86 266 22:26 30.06.2022
613 Clouds 25 1013 65 10000 4.86 266 21:48 30.06.2022
614 Clouds 25 1013 59 10000 5 264 20:30 30.06.2022
615 Clear 26 1012 56 10000 5.28 261 19:55 30.06.2022
616 Clear 27 1012 54 10000 5.79 263 19:26 30.06.2022
617 Clear 28 1012 54 10000 5.79 263 18:42 30.06.2022
618 Clear 26 1012 53 10000 5.93 260 17:44 30.06.2022
619 Clouds 26 1013 54 10000 6.08 262 16:55 30.06.2022
620 Clouds 26 1013 55 10000 6.28 262 15:44 30.06.2022
621 Clear 24 1014 56 10000 6.01 264 13:49 30.06.2022
622 Clear 24 1014 55 10000 6.49 272 12:36 30.06.2022
623 Clear 23 1014 55 10000 6.49 272 11:55 30.06.2022
624 Clear 22 1014 60 10000 5.44 256 09:55 30.06.2022
625 Clear 22 1014 60 10000 5.44 256 09:35 30.06.2022
626 Clear 20 1014 80 10000 4.67 255 08:19 30.06.2022
627 Clear 20 1013 85 10000 4.97 250 07:24 30.06.2022
628 Clear 23 1013 86 10000 5.1 235 02:38 30.06.2022
629 Clear 24 1014 84 10000 4.86 243 23:35 29.06.2022
630 Clear 25 1014 83 10000 4.53 249 22:41 29.06.2022
631 Clear 24 1013 79 10000 4.6 259 21:43 29.06.2022
632 Clear 25 1013 69 10000 5.38 265 20:34 29.06.2022
633 Clear 26 1012 61 10000 4.89 260 19:48 29.06.2022
634 Clear 27 1013 57 10000 5.04 255 17:54 29.06.2022
635 Clear 27 1014 58 10000 5.31 257 16:51 29.06.2022
636 Clear 26 1014 59 10000 5.52 259 15:32 29.06.2022
637 Clear 25 1015 63 10000 4.56 263 13:20 29.06.2022
638 Clear 23 1015 62 10000 3.99 261 11:57 29.06.2022
639 Clear 19 1016 58 10000 2.27 248 09:35 29.06.2022
640 Clear 18 1016 59 10000 1.55 225 08:46 29.06.2022
641 Clear 18 1015 68 10000 1.17 197 06:27 29.06.2022
642 Clear 20 1017 77 10000 2.38 86 02:21 29.06.2022
643 Clear 21 1017 78 10000 2.69 65 00:38 29.06.2022
644 Clear 21 1017 80 10000 3.05 54 23:55 28.06.2022
645 Clear 21 1017 81 10000 3.22 58 22:48 28.06.2022
646 Clear 21 1017 79 10000 3.24 61 21:55 28.06.2022
647 Clear 21 1017 79 10000 3.24 61 21:33 28.06.2022
648 Clear 21 1016 73 10000 3.28 61 20:55 28.06.2022
649 Clear 22 1016 66 10000 3.62 65 19:48 28.06.2022
650 Clear 22 1016 61 10000 5 75 19:24 28.06.2022
651 Clear 22 1016 58 10000 5.47 78 17:49 28.06.2022
652 Clear 22 1016 56 10000 6.5 80 16:29 28.06.2022
653 Clear 21 1016 56 10000 6.5 80 15:53 28.06.2022
654 Clear 22 1017 66 10000 6.44 72 14:22 28.06.2022
655 Clear 21 1017 67 10000 5.81 76 13:55 28.06.2022
656 Clear 21 1017 68 10000 5.03 72 13:26 28.06.2022
657 Clear 21 1018 69 10000 3.91 71 11:57 28.06.2022
658 Clear 21 1018 63 10000 1.55 59 09:46 28.06.2022
659 Clear 19 1018 64 10000 0.46 344 08:46 28.06.2022
660 Clear 19 1017 75 10000 0.73 279 07:58 28.06.2022
661 Clear 18 1017 79 10000 2.51 246 07:19 28.06.2022
662 Clear 21 1018 81 10000 5.35 229 01:36 28.06.2022
663 Clear 21 1018 79 10000 5.07 245 23:47 27.06.2022
664 Clear 21 1018 76 10000 4.86 255 22:55 27.06.2022
665 Clear 23 1018 72 10000 5.46 262 21:38 27.06.2022
666 Clear 23 1017 66 10000 5.87 263 20:55 27.06.2022
667 Clear 23 1017 60 10000 6.26 262 19:44 27.06.2022
668 Clear 25 1017 56 10000 6.48 264 18:40 27.06.2022
669 Clear 25 1017 54 10000 6.47 264 16:44 27.06.2022
670 Clear 25 1017 54 10000 6.73 266 15:42 27.06.2022
671 Clear 23 1018 55 10000 7.24 272 13:44 27.06.2022
672 Clear 23 1018 55 10000 7.99 271 12:57 27.06.2022
673 Clear 21 1017 55 10000 7.12 279 10:43 27.06.2022
674 Clear 19 1017 58 10000 6.51 284 09:37 27.06.2022
675 Clear 18 1017 59 10000 6.13 289 08:32 27.06.2022
676 Clear 18 1016 59 10000 5.64 287 07:38 27.06.2022
677 Clear 20 1014 69 10000 5.6 299 04:21 27.06.2022
678 Clear 21 1015 79 10000 6.86 242 01:19 27.06.2022
679 Clear 21 1014 73 10000 6.72 269 22:27 26.06.2022
680 Clear 23 1013 65 10000 6.9 273 20:55 26.06.2022
681 Clear 23 1013 57 10000 7.44 274 19:59 26.06.2022
682 Clear 25 1013 51 10000 7.47 272 18:32 26.06.2022
683 Clear 26 1013 49 10000 7.48 272 17:33 26.06.2022
684 Clear 25 1013 51 10000 7.7 275 15:31 26.06.2022
685 Clear 24 1014 54 10000 7.34 271 13:55 26.06.2022
686 Clear 24 1014 54 10000 7.84 269 13:23 26.06.2022
687 Clear 23 1013 49 10000 5.87 272 11:27 26.06.2022
688 Clear 22 1013 53 10000 5.8 274 10:28 26.06.2022
689 Clear 21 1013 53 10000 5.8 274 09:39 26.06.2022
690 Clear 20 1012 79 10000 5.17 272 07:45 26.06.2022
691 Clear 21 1012 89 10000 5.94 240 02:52 26.06.2022
692 Clear 20 1013 89 10000 5.67 260 00:21 26.06.2022
693 Clear 20 1013 88 10000 5.7 260 23:51 25.06.2022
694 Clear 21 1013 87 10000 5.56 264 23:24 25.06.2022
695 Clear 22 1012 83 10000 5.8 271 22:27 25.06.2022
696 Clear 23 1012 83 10000 5.8 271 21:46 25.06.2022
697 Clear 24 1012 75 10000 6.07 272 21:20 25.06.2022
698 Clear 26 1012 75 10000 6.07 272 20:30 25.06.2022
699 Clear 25 1012 69 10000 6.37 271 19:42 25.06.2022
700 Clear 28 1012 62 10000 6.41 271 18:19 25.06.2022
701 Clear 28 1012 62 10000 6.4 271 18:19 25.06.2022
702 Clear 25 1013 63 10000 6.66 273 17:24 25.06.2022
703 Clear 26 1013 63 10000 6.73 272 15:36 25.06.2022
704 Clear 24 1014 64 10000 6.29 271 13:41 25.06.2022
705 Clear 25 1014 65 10000 6.09 269 12:38 25.06.2022
706 Clear 23 1015 67 10000 5.59 266 10:45 25.06.2022
707 Clear 20 1015 72 10000 5.05 272 09:20 25.06.2022
708 Clear 20 1015 72 10000 5.05 272 08:41 25.06.2022
709 Clear 20 1015 79 10000 4.96 273 08:19 25.06.2022
710 Clear 20 1015 86 10000 4.94 247 04:18 25.06.2022
711 Clear 22 1016 85 10000 5.31 270 00:38 25.06.2022
712 Clear 23 1016 78 10000 5.27 274 22:55 24.06.2022
713 Clear 23 1016 74 10000 5.64 276 21:42 24.06.2022
714 Clear 24 1016 68 10000 5.83 275 20:48 24.06.2022
715 Clear 25 1015 64 10000 5.95 273 20:19 24.06.2022
716 Clear 26 1015 65 10000 6.17 272 19:21 24.06.2022
717 Clear 27 1015 65 10000 6.17 272 18:49 24.06.2022
718 Clear 27 1015 65 10000 6.17 272 18:30 24.06.2022
719 Clear 27 1016 65 10000 6.29 272 17:20 24.06.2022
720 Clear 27 1017 67 10000 6.39 268 15:29 24.06.2022
721 Clear 26 1018 68 10000 6.58 267 14:27 24.06.2022
722 Clear 25 1018 68 10000 6.58 267 13:55 24.06.2022
723 Clear 22 1018 69 10000 6.06 268 11:44 24.06.2022
724 Clear 22 1018 71 10000 5.48 274 10:55 24.06.2022
725 Clear 21 1018 73 10000 5.11 277 09:49 24.06.2022
726 Clear 20 1018 78 10000 4.67 280 09:28 24.06.2022
727 Clear 20 1018 78 10000 4.67 280 08:51 24.06.2022
728 Clear 19 1017 86 10000 4.59 282 06:48 24.06.2022
729 Clear 19 1017 86 10000 4.59 282 06:30 24.06.2022
730 Clear 19 1017 86 10000 4.52 286 05:52 24.06.2022
731 Clear 20 1019 85 10000 4.96 288 01:21 24.06.2022
732 Clear 22 1019 82 10000 5.02 288 22:44 23.06.2022
733 Clear 22 1018 79 10000 5.39 281 21:54 23.06.2022
734 Clear 24 1017 73 10000 5.67 279 20:54 23.06.2022
735 Clear 24 1017 73 10000 5.67 279 20:32 23.06.2022
736 Clear 25 1016 65 10000 6.3 278 18:44 23.06.2022
737 Clear 25 1016 63 10000 6.13 277 17:45 23.06.2022
738 Clear 25 1017 64 10000 6.45 276 16:36 23.06.2022
739 Clear 26 1017 64 10000 5.85 273 15:29 23.06.2022
740 Clear 26 1017 64 10000 5.85 273 14:59 23.06.2022
741 Clouds 23 1018 66 10000 5.62 266 12:39 23.06.2022
742 Clouds 21 1017 70 10000 5.15 262 11:19 23.06.2022
743 Clouds 20 1016 78 10000 4 254 09:20 23.06.2022
744 Clear 19 1015 85 10000 3.75 269 05:51 23.06.2022
745 Clear 20 1016 86 10000 4.67 269 01:22 23.06.2022
746 Clear 21 1016 86 10000 5.12 270 00:25 23.06.2022
747 Clear 21 1016 85 10000 5.02 274 23:22 22.06.2022
748 Clear 22 1016 82 10000 5.16 274 21:44 22.06.2022
749 Clear 23 1015 77 10000 5.71 270 20:52 22.06.2022
750 Clear 22 1015 72 10000 6.1 271 20:20 22.06.2022
751 Clear 23 1015 72 10000 6.12 271 19:44 22.06.2022
752 Clear 24 1015 67 10000 6.85 270 17:50 22.06.2022
753 Clear 24 1015 65 10000 7.08 271 16:43 22.06.2022
754 Clear 23 1016 62 10000 6.86 267 15:29 22.06.2022
755 Clear 24 1016 62 10000 6.86 267 14:57 22.06.2022
756 Clouds 23 1016 60 10000 6.67 261 13:49 22.06.2022
757 Clouds 22 1016 61 10000 6.56 255 13:24 22.06.2022
758 Clouds 23 1016 61 10000 6.56 255 12:31 22.06.2022
759 Clouds 22 1016 63 10000 6.59 260 11:45 22.06.2022
760 Clouds 22 1016 63 10000 6.59 260 11:45 22.06.2022
761 Clouds 20 1016 65 10000 6.39 261 10:47 22.06.2022
762 Clouds 19 1016 68 10000 5.29 262 09:40 22.06.2022
763 Clear 18 1015 77 10000 5.13 277 07:22 22.06.2022
764 Clear 20 1015 75 10000 7.03 274 02:39 22.06.2022
765 Clear 20 1016 74 10000 7.64 264 00:57 22.06.2022
766 Clear 20 1016 74 10000 7.64 264 00:57 22.06.2022
767 Clear 20 1016 76 10000 7 265 22:53 21.06.2022
768 Clear 22 1014 70 10000 7.67 273 20:58 21.06.2022
769 Clear 24 1013 66 10000 8.26 274 19:30 21.06.2022
770 Clear 24 1013 66 10000 8.26 274 19:30 21.06.2022
771 Clear 24 1013 61 10000 8.36 273 17:56 21.06.2022
772 Clear 25 1014 61 10000 8.38 275 16:47 21.06.2022
773 Clouds 21 1014 60 10000 6.55 269 11:59 21.06.2022
774 Clouds 22 1013 61 10000 5.81 272 10:46 21.06.2022
775 Clouds 20 1014 65 10000 4.89 277 09:35 21.06.2022
776 Clouds 20 1013 77 10000 4.66 279 07:49 21.06.2022
777 Clear 20 1013 80 10000 5.02 259 04:57 21.06.2022
778 Clear 20 1016 74 10000 6.88 270 00:23 21.06.2022
779 Clear 21 1015 70 10000 6.02 265 22:21 20.06.2022
780 Clear 21 1015 70 10000 6.02 265 21:40 20.06.2022
781 Clear 23 1014 62 10000 6.46 261 20:29 20.06.2022
782 Clouds 23 1014 64 10000 6.71 263 19:36 20.06.2022
783 Clouds 23 1013 63 10000 7.44 269 18:34 20.06.2022
784 Clouds 24 1013 62 10000 7.4 273 17:49 20.06.2022
785 Clouds 24 1013 62 10000 7.38 273 16:36 20.06.2022
786 Clouds 24 1014 64 10000 7.51 274 15:30 20.06.2022
787 Clouds 23 1015 70 10000 7.42 266 12:37 20.06.2022
788 Clouds 22 1014 74 10000 6.33 270 10:22 20.06.2022
789 Clouds 21 1014 79 10000 5.97 271 08:56 20.06.2022
790 Clouds 20 1013 84 10000 5.44 270 07:52 20.06.2022
791 Clouds 21 1012 89 10000 5.56 267 05:26 20.06.2022
792 Clear 21 1014 89 10000 4.8 269 01:33 20.06.2022
793 Clear 22 1014 89 10000 5.02 263 00:19 20.06.2022
794 Clear 22 1014 88 10000 5.2 263 22:43 19.06.2022
795 Clear 23 1013 86 10000 5.16 266 21:48 19.06.2022
796 Clear 23 1012 80 10000 5.2 266 21:29 19.06.2022
797 Clear 25 1012 81 10000 5.03 267 20:30 19.06.2022
798 Clear 26 1011 77 10000 5.5 270 19:46 19.06.2022
799 Clear 27 1011 74 10000 5.94 267 18:43 19.06.2022
800 Clear 25 1012 72 10000 6.17 267 17:48 19.06.2022
801 Clear 26 1012 71 10000 6.32 269 17:21 19.06.2022
802 Clear 25 1012 71 10000 6.32 269 16:34 19.06.2022
803 Clear 25 1013 70 10000 6.26 271 15:38 19.06.2022
804 Clouds 25 1013 69 10000 6.16 269 14:55 19.06.2022
805 Clouds 24 1014 68 10000 6.08 269 13:58 19.06.2022
806 Clouds 23 1014 69 10000 5.79 271 12:56 19.06.2022
807 Clouds 22 1014 73 10000 5.41 266 10:54 19.06.2022
808 Clouds 20 1014 76 10000 5.61 266 09:40 19.06.2022
809 Clouds 20 1014 81 10000 5.52 267 08:47 19.06.2022
810 Clouds 20 1014 87 10000 5.01 271 07:48 19.06.2022
811 Clear 20 1014 87 10000 5.42 271 04:41 19.06.2022
812 Clear 21 1016 87 10000 5.3 274 01:29 19.06.2022
813 Clear 22 1016 86 10000 5.27 268 00:24 19.06.2022
814 Clear 23 1016 84 10000 5.25 270 23:35 18.06.2022
815 Clear 24 1016 84 10000 5.25 270 22:36 18.06.2022
816 Clear 24 1015 74 10000 5.13 264 20:56 18.06.2022
817 Clear 22 1014 69 10000 5.67 264 20:28 18.06.2022
818 Clear 27 1013 72 10000 5.52 264 19:32 18.06.2022
819 Clear 27 1013 72 10000 5.55 261 18:44 18.06.2022
820 Clear 28 1014 72 10000 5.52 259 17:30 18.06.2022
821 Clear 28 1014 73 10000 5.36 258 16:37 18.06.2022
822 Clear 29 1015 72 10000 5.11 263 15:22 18.06.2022
823 Clear 28 1015 72 10000 5.11 263 14:42 18.06.2022
824 Clear 27 1016 70 10000 4.29 259 13:22 18.06.2022
825 Clear 25 1016 69 10000 3.95 262 11:34 18.06.2022
826 Clear 25 1016 70 10000 3.3 254 10:46 18.06.2022
827 Clear 23 1016 75 10000 2.9 265 09:20 18.06.2022
828 Clear 23 1016 75 10000 2.9 265 09:20 18.06.2022
829 Clouds 20 1016 78 10000 1.77 290 08:19 18.06.2022
830 Clouds 22 1015 80 10000 0.95 327 06:43 18.06.2022
831 Clouds 25 1016 77 10000 1.52 82 03:24 18.06.2022
832 Clouds 26 1017 86 10000 1.78 28 01:24 18.06.2022
833 Clouds 27 1017 86 10000 1.78 28 00:42 18.06.2022
834 Clouds 27 1018 85 10000 1.47 80 23:52 17.06.2022
835 Clouds 27 1018 85 10000 1.47 80 23:52 17.06.2022
836 Clouds 27 1017 83 10000 1.79 72 22:56 17.06.2022
837 Clouds 27 1015 76 10000 4.54 71 20:42 17.06.2022
838 Clouds 27 1015 71 10000 6.07 74 19:29 17.06.2022
839 Clouds 27 1015 71 10000 6.07 74 18:34 17.06.2022
840 Clouds 27 1016 68 10000 6.61 69 17:34 17.06.2022
841 Clouds 28 1016 67 10000 7.29 70 16:42 17.06.2022
842 Clouds 27 1016 65 10000 8.09 74 15:42 17.06.2022
843 Clouds 27 1017 64 10000 8.67 76 14:50 17.06.2022
844 Clouds 27 1017 63 10000 8.54 80 14:19 17.06.2022
845 Clouds 25 1017 64 10000 6.57 78 13:42 17.06.2022
846 Clouds 25 1018 65 10000 5.2 82 12:42 17.06.2022
847 Clouds 26 1018 64 10000 3.47 87 11:56 17.06.2022
848 Clouds 26 1018 64 10000 3.46 87 11:35 17.06.2022
849 Clouds 22 1017 72 10000 0.64 303 09:59 17.06.2022
850 Clouds 21 1017 85 10000 2.46 294 08:27 17.06.2022
851 Clouds 21 1017 86 10000 2.65 292 06:57 17.06.2022
852 Clouds 23 1017 86 10000 2.6 268 04:52 17.06.2022
853 Clouds 23 1018 84 10000 3.07 279 02:42 17.06.2022
854 Clouds 24 1018 79 10000 2.35 275 00:33 17.06.2022
855 Clouds 26 1018 81 10000 3.72 277 22:44 16.06.2022
856 Clouds 27 1016 77 10000 2.49 291 21:26 16.06.2022
857 Clouds 27 1016 77 10000 2.5 291 20:59 16.06.2022
858 Clouds 27 1016 77 10000 2.49 291 20:36 16.06.2022
859 Clouds 27 1015 72 10000 1.33 353 19:53 16.06.2022
860 Clouds 27 1015 68 10000 1.66 343 18:28 16.06.2022
861 Clouds 28 1015 68 10000 1.66 343 17:43 16.06.2022
862 Clouds 27 1016 69 10000 2.54 32 16:39 16.06.2022
863 Clouds 27 1017 70 10000 1.8 58 15:24 16.06.2022
864 Clouds 27 1017 70 10000 1.8 58 14:46 16.06.2022
865 Clouds 27 1017 71 10000 1.52 300 13:34 16.06.2022
866 Clouds 24 1017 71 10000 1.86 245 12:37 16.06.2022
867 Clouds 25 1016 72 10000 1.87 233 11:52 16.06.2022
868 Clouds 23 1016 76 10000 2.7 255 10:56 16.06.2022
869 Clouds 23 1016 83 10000 3.15 273 10:27 16.06.2022
870 Clouds 22 1016 89 10000 3.15 284 09:21 16.06.2022
871 Clouds 21 1016 89 10000 3.15 284 08:30 16.06.2022
872 Clouds 21 1016 92 10000 3.92 280 07:26 16.06.2022
873 Clouds 23 1017 92 10000 3.91 274 04:50 16.06.2022
874 Clouds 24 1018 94 10000 4.64 264 02:21 16.06.2022
875 Clouds 24 1018 94 10000 4.64 264 01:42 16.06.2022
876 Clouds 22 1018 91 10000 4.96 260 01:21 16.06.2022
877 Clouds 23 1017 84 10000 3.28 255 23:47 15.06.2022
878 Clouds 23 1017 84 10000 3.28 255 23:47 15.06.2022
879 Clouds 23 1018 87 10000 3.17 270 22:38 15.06.2022
880 Rain 23 1015 78 10000 3.55 290 21:22 15.06.2022
881 Clouds 24 1015 78 10000 3.55 291 20:44 15.06.2022
882 Clouds 24 1015 78 10000 3.55 290 20:44 15.06.2022
883 Clouds 24 1014 69 10000 0.2 118 20:25 15.06.2022
884 Clouds 26 1014 64 10000 2.68 72 19:29 15.06.2022
885 Clouds 25 1013 57 10000 6.21 83 17:56 15.06.2022
886 Clouds 24 1013 58 10000 6.8 81 17:25 15.06.2022
887 Clouds 24 1013 54 10000 6.83 81 15:38 15.06.2022
888 Clouds 25 1014 57 10000 6.84 76 14:23 15.06.2022
889 Clouds 25 1015 62 10000 7.13 73 12:54 15.06.2022
890 Clouds 26 1016 64 10000 6.75 78 11:58 15.06.2022
891 Clouds 24 1015 68 10000 7.17 77 10:24 15.06.2022
892 Clouds 24 1015 68 10000 7.17 77 10:24 15.06.2022
893 Clouds 22 1015 68 10000 7.17 77 09:43 15.06.2022
894 Clouds 21 1015 70 10000 5.93 79 08:40 15.06.2022
895 Clouds 21 1015 73 10000 4.17 72 06:34 15.06.2022
896 Clouds 23 1015 75 10000 1.08 64 04:34 15.06.2022
897 Clouds 22 1016 73 10000 2 81 01:54 15.06.2022
898 Clouds 24 1016 79 10000 0.68 237 00:50 15.06.2022
899 Clouds 23 1017 79 10000 1.16 169 23:39 14.06.2022
900 Clouds 23 1016 75 10000 2.44 176 23:21 14.06.2022
901 Clouds 28 1013 71 10000 3.7 46 22:23 14.06.2022
902 Clouds 24 1013 71 10000 3.7 46 21:38 14.06.2022
903 Clouds 25 1013 71 10000 4.2 71 20:54 14.06.2022
904 Clear 24 1012 62 10000 4.17 79 20:28 14.06.2022
905 Clouds 25 1013 59 10000 3.16 100 19:18 14.06.2022
906 Clouds 25 1013 55 10000 4.33 80 17:54 14.06.2022
907 Clouds 26 1013 55 10000 5.67 83 16:44 14.06.2022
908 Clouds 25 1014 55 10000 6.08 82 15:50 14.06.2022
909 Clouds 25 1014 56 10000 5.52 82 15:24 14.06.2022
910 Clouds 26 1014 56 10000 5.52 82 14:33 14.06.2022
911 Clear 26 1015 52 10000 4.19 78 13:42 14.06.2022
912 Clear 26 1015 53 10000 2.75 85 12:45 14.06.2022
913 Clear 27 1015 54 10000 1.78 97 11:38 14.06.2022
914 Clear 23 1015 55 10000 1.96 96 10:47 14.06.2022
915 Clear 23 1015 61 10000 0.91 59 10:20 14.06.2022
916 Clear 21 1015 68 10000 1.05 335 08:48 14.06.2022
917 Clouds 21 1014 77 10000 2.65 93 07:34 14.06.2022
918 Clouds 21 1014 75 10000 2.39 98 05:28 14.06.2022
919 Clouds 21 1016 84 10000 2.57 98 02:58 14.06.2022
920 Clouds 22 1017 86 10000 2.05 110 00:53 14.06.2022
921 Clouds 22 1016 86 10000 4.13 129 23:39 13.06.2022
922 Clouds 26 1014 83 10000 7.09 84 22:26 13.06.2022
923 Clouds 23 1014 82 10000 7.09 84 21:50 13.06.2022
924 Clouds 24 1014 76 10000 7.38 81 20:42 13.06.2022
925 Clouds 24 1013 71 10000 7.89 80 19:34 13.06.2022
926 Clouds 25 1014 64 10000 7.77 78 18:25 13.06.2022
927 Clouds 25 1014 64 10000 7.77 78 17:46 13.06.2022
928 Clouds 25 1014 61 10000 7.65 77 16:52 13.06.2022
929 Clouds 24 1015 60 10000 7.84 78 15:38 13.06.2022
930 Clouds 27 1015 57 10000 7.28 78 14:43 13.06.2022
931 Clouds 27 1016 58 10000 7.1 79 13:53 13.06.2022
932 Clouds 27 1016 59 10000 7.19 79 12:48 13.06.2022
933 Clouds 27 1016 59 10000 7.19 79 12:48 13.06.2022
934 Clouds 25 1016 59 10000 7.69 79 11:26 13.06.2022
935 Clouds 25 1016 63 10000 7.41 78 10:27 13.06.2022
936 Clouds 23 1016 63 10000 7.41 78 09:38 13.06.2022
937 Clouds 23 1016 72 10000 6.6 80 07:51 13.06.2022
938 Clouds 23 1016 71 10000 6.69 81 05:49 13.06.2022
939 Clouds 22 1017 75 10000 6.49 80 02:55 13.06.2022
940 Clouds 23 1018 76 10000 6.17 83 01:37 13.06.2022
941 Clouds 23 1018 83 10000 5.75 79 00:21 13.06.2022
942 Clouds 22 1018 84 10000 5.56 71 23:25 12.06.2022
943 Clouds 27 1018 83 10000 6.05 111 22:22 12.06.2022
944 Clouds 22 1016 77 10000 9.05 76 21:27 12.06.2022
945 Clouds 23 1015 75 10000 8.67 78 20:33 12.06.2022
946 Clear 23 1015 65 10000 9.72 79 19:30 12.06.2022
947 Clear 24 1015 63 10000 10.26 79 17:54 12.06.2022
948 Clear 24 1016 62 10000 10.58 77 16:34 12.06.2022
949 Clear 23 1017 66 10000 11.13 81 15:18 12.06.2022
950 Clouds 23 1017 66 10000 11.13 80 14:29 12.06.2022
951 Clouds 24 1017 66 10000 10.55 80 13:55 12.06.2022
952 Clouds 24 1017 68 10000 10.58 80 12:43 12.06.2022
953 Clouds 23 1017 68 10000 10.56 83 11:40 12.06.2022
954 Clouds 22 1017 69 10000 10.53 83 10:38 12.06.2022
955 Clear 21 1017 77 10000 10.71 81 09:19 12.06.2022
956 Clear 21 1017 77 10000 10.71 81 08:45 12.06.2022
957 Clouds 25 1017 80 10000 9.02 78 07:38 12.06.2022
958 Clouds 22 1016 76 10000 9.77 79 04:52 12.06.2022
959 Clouds 22 1017 77 10000 9.16 74 03:29 12.06.2022
960 Clouds 23 1017 77 10000 9.41 78 01:42 12.06.2022
961 Clouds 23 1018 78 10000 8.14 80 00:58 12.06.2022
962 Clouds 21 1017 79 10000 8.36 76 00:21 12.06.2022
963 Clouds 21 1017 79 10000 8.36 76 23:44 11.06.2022
964 Clouds 21 1017 84 10000 8.73 74 22:39 11.06.2022
965 Clouds 21 1017 84 10000 8.46 78 21:53 11.06.2022
966 Clouds 22 1017 79 10000 9.68 100 20:38 11.06.2022
967 Clear 23 1015 75 10000 10.81 81 19:46 11.06.2022
968 Clear 24 1015 71 10000 11.44 85 19:26 11.06.2022
969 Clear 24 1015 71 10000 11.44 85 18:34 11.06.2022
970 Clear 24 1015 69 10000 11.66 83 17:51 11.06.2022
971 Clouds 25 1015 69 10000 11.64 82 17:27 11.06.2022
972 Clouds 25 1015 69 10000 11.63 82 16:56 11.06.2022
973 Clouds 25 1016 69 10000 11.42 83 16:29 11.06.2022
974 Clouds 25 1016 69 10000 11.42 83 15:42 11.06.2022
975 Clear 24 1016 70 10000 12.23 84 13:53 11.06.2022
976 Clouds 24 1017 71 10000 12.21 83 12:51 11.06.2022
977 Clouds 24 1016 73 10000 11.7 83 10:54 11.06.2022
978 Clouds 23 1016 79 10000 11.36 81 09:55 11.06.2022
979 Clouds 23 1016 83 10000 10.74 81 09:19 11.06.2022
980 Clouds 22 1016 86 10000 9.74 82 07:41 11.06.2022
981 Clouds 22 1015 86 10000 9.49 82 06:30 11.06.2022
982 Clouds 21 1015 86 10000 9.36 80 04:30 11.06.2022
983 Clear 22 1016 86 10000 9.27 77 01:53 11.06.2022
984 Clear 22 1016 86 10000 9.26 77 01:32 11.06.2022
985 Clear 21 1016 86 10000 9.76 78 23:49 10.06.2022
986 Clear 28 1016 87 10000 9.83 80 22:31 10.06.2022
987 Clear 22 1016 87 10000 9.8 78 21:52 10.06.2022
988 Clear 22 1016 84 10000 10.13 80 20:41 10.06.2022
989 Clear 23 1015 79 10000 10.5 80 20:21 10.06.2022
990 Clear 23 1015 75 10000 10.57 81 19:20 10.06.2022
991 Clear 23 1015 75 10000 10.57 81 18:55 10.06.2022
992 Clear 23 1015 73 10000 10.73 82 17:55 10.06.2022
993 Clear 23 1015 73 10000 10.73 82 17:33 10.06.2022
994 Clear 24 1016 71 10000 10.93 83 16:47 10.06.2022
995 Clear 24 1016 72 10000 11.17 83 15:40 10.06.2022
996 Clear 24 1016 72 10000 11.31 83 14:51 10.06.2022
997 Clouds 23 1017 75 10000 11.05 82 13:26 10.06.2022
998 Clouds 22 1017 76 10000 10.77 83 11:59 10.06.2022
999 Clouds 22 1016 78 10000 10.53 81 11:25 10.06.2022
1000 Clouds 21 1016 78 10000 10.53 81 10:35 10.06.2022
1001 Clouds 20 1016 85 10000 9.52 79 09:21 10.06.2022
1002 Clouds 20 1016 89 10000 8.41 79 07:51 10.06.2022
1003 Clouds 21 1015 89 10000 8.21 80 06:48 10.06.2022
1004 Clouds 21 1015 89 10000 8.1 80 06:28 10.06.2022
1005 Clouds 21 1015 89 10000 8.1 80 05:31 10.06.2022
1006 Clouds 20 1016 93 10000 7.6 76 02:46 10.06.2022
1007 Clouds 20 1016 93 10000 7.07 73 01:37 10.06.2022
1008 Clouds 20 1016 93 10000 6.74 70 23:58 09.06.2022
1009 Clouds 20 1016 93 10000 6.39 65 22:43 09.06.2022
1010 Clouds 22 1015 90 10000 5.94 61 21:43 09.06.2022
1011 Clouds 22 1015 85 10000 5.86 61 21:24 09.06.2022
1012 Clouds 22 1015 85 10000 5.84 61 20:38 09.06.2022
1013 Clouds 23 1014 80 10000 5.66 64 19:43 09.06.2022
1014 Clouds 23 1014 76 10000 5.04 71 18:37 09.06.2022
1015 Clouds 22 1015 68 10000 2.21 57 17:31 09.06.2022
1016 Clouds 23 1015 63 10000 1.21 281 16:28 09.06.2022
1017 Clouds 26 1015 63 10000 3.44 239 14:52 09.06.2022
1018 Clouds 27 1015 64 10000 3.78 236 14:27 09.06.2022
1019 Clouds 28 1015 64 10000 3.79 234 13:30 09.06.2022
1020 Clouds 29 1016 67 10000 3.44 254 12:55 09.06.2022
1021 Clouds 28 1016 71 10000 3.78 262 11:33 09.06.2022
1022 Clouds 25 1016 78 10000 4.09 251 09:55 09.06.2022
1023 Clouds 25 1016 78 10000 4.07 251 09:55 09.06.2022
1024 Clouds 25 1016 78 10000 4.09 251 09:37 09.06.2022
1025 Clouds 24 1016 84 10000 4.09 243 08:33 09.06.2022
1026 Clouds 23 1015 88 10000 4.19 244 07:24 09.06.2022
1027 Clouds 25 1016 87 10000 4.05 243 03:31 09.06.2022
1028 Clouds 24 1016 83 10000 4.22 248 00:34 09.06.2022
1029 Clouds 26 1017 85 10000 4.4 246 23:18 08.06.2022
1030 Clouds 26 1017 85 10000 4.4 246 22:42 08.06.2022
1031 Clouds 25 1017 87 10000 4.39 249 22:23 08.06.2022
1032 Clouds 25 1017 87 10000 4.43 249 21:32 08.06.2022
1033 Clouds 28 1016 79 10000 5.48 261 20:25 08.06.2022
1034 Clouds 29 1016 80 10000 5.22 260 19:40 08.06.2022
1035 Clouds 27 1016 77 10000 5.82 261 18:48 08.06.2022
1036 Clouds 30 1016 73 10000 6.05 258 17:38 08.06.2022
1037 Clouds 29 1017 72 10000 6.46 255 15:53 08.06.2022
1038 Clouds 27 1018 70 10000 6.46 261 14:31 08.06.2022
1039 Clouds 25 1018 70 10000 6.67 262 12:55 08.06.2022
1040 Clouds 24 1018 69 10000 6.73 262 11:36 08.06.2022
1041 Clouds 24 1018 70 10000 6.55 252 10:46 08.06.2022
1042 Clouds 23 1017 80 10000 6.02 250 09:28 08.06.2022
1043 Clouds 23 1017 80 10000 6.02 250 08:52 08.06.2022
1044 Clear 22 1017 87 10000 5.94 244 06:43 08.06.2022
1045 Clear 23 1016 88 10000 5.3 240 04:41 08.06.2022
1046 Clear 25 1017 87 10000 4.42 253 00:58 08.06.2022
1047 Clear 24 1018 88 10000 4.52 255 23:32 07.06.2022
1048 Clear 25 1018 87 10000 4.83 249 22:51 07.06.2022
1049 Clear 26 1018 87 10000 4.83 249 22:33 07.06.2022
1050 Clear 24 1017 84 10000 4.86 255 21:37 07.06.2022
1051 Clear 24 1016 77 10000 5 256 21:18 07.06.2022
1052 Clear 25 1016 77 10000 5 256 20:37 07.06.2022
1053 Clouds 28 1016 71 10000 5.38 260 19:49 07.06.2022
1054 Clouds 29 1016 59 10000 5.22 258 18:25 07.06.2022
1055 Clouds 29 1016 59 10000 5.22 258 17:31 07.06.2022
1056 Clouds 29 1017 57 10000 5.14 256 16:44 07.06.2022
1057 Clouds 29 1017 54 10000 4.96 256 15:57 07.06.2022
1058 Clouds 29 1018 56 10000 4.65 254 15:27 07.06.2022
1059 Clouds 29 1018 56 10000 4.65 254 14:52 07.06.2022
1060 Clouds 29 1018 56 10000 4.65 254 14:34 07.06.2022
1061 Clear 29 1018 57 10000 4.71 261 13:32 07.06.2022
1062 Clear 28 1018 60 10000 4.58 268 12:54 07.06.2022
1063 Clear 27 1018 61 10000 4.05 262 11:49 07.06.2022
1064 Clear 24 1019 63 10000 3.18 251 10:27 07.06.2022
1065 Clear 19 1018 66 10000 2.34 240 08:53 07.06.2022
1066 Clear 18 1018 75 10000 1.94 252 07:35 07.06.2022
1067 Clear 19 1017 77 10000 2.02 239 06:38 07.06.2022
1068 Clear 19 1017 77 10000 2.02 239 06:38 07.06.2022
1069 Clear 20 1018 72 10000 3.54 252 04:20 07.06.2022
1070 Clouds 20 1019 66 10000 3.36 256 01:27 07.06.2022
1071 Clouds 26 1019 66 10000 3.43 264 23:52 06.06.2022
1072 Clouds 26 1019 68 10000 3.27 257 22:54 06.06.2022
1073 Clouds 23 1018 68 10000 3.45 261 22:29 06.06.2022
1074 Clouds 29 1017 66 10000 3.5 248 20:43 06.06.2022
1075 Clear 27 1017 58 10000 4.53 255 19:24 06.06.2022
1076 Clear 27 1017 58 10000 4.53 255 18:48 06.06.2022
1077 Clear 28 1017 59 10000 4.71 257 17:59 06.06.2022
1078 Clear 29 1018 59 10000 5.07 262 16:57 06.06.2022
1079 Clear 27 1018 59 10000 4.78 260 15:57 06.06.2022
1080 Clear 27 1019 61 10000 4.29 253 14:59 06.06.2022
1081 Clear 28 1019 63 10000 3.95 254 14:26 06.06.2022
1082 Clear 27 1019 66 10000 3.97 258 13:20 06.06.2022
1083 Clear 25 1019 66 10000 3.97 258 12:35 06.06.2022
1084 Clear 25 1020 66 10000 3.74 262 11:49 06.06.2022
1085 Clear 19 1019 71 10000 2.44 248 09:53 06.06.2022
1086 Clouds 18 1019 76 10000 2.21 244 09:18 06.06.2022
1087 Clouds 18 1019 77 10000 2.84 242 08:31 06.06.2022
1088 Clouds 18 1018 84 10000 2.67 236 07:20 06.06.2022
1089 Clear 19 1018 83 10000 3.07 247 04:42 06.06.2022
1090 Clear 19 1019 79 10000 1.51 281 02:19 06.06.2022
1091 Clear 20 1019 82 10000 2.78 284 00:57 06.06.2022
1092 Clear 20 1019 82 10000 2.78 284 00:35 06.06.2022
1093 Clear 21 1019 81 10000 2.98 260 23:25 05.06.2022
1094 Clear 21 1019 80 10000 3.13 262 22:26 05.06.2022
1095 Clear 23 1018 72 10000 3.96 269 20:29 05.06.2022
1096 Clear 24 1018 70 10000 4.5 266 19:26 05.06.2022
1097 Clear 24 1018 67 10000 4.67 262 18:20 05.06.2022
1098 Clear 25 1018 67 10000 4.69 262 17:39 05.06.2022
1099 Clear 25 1019 66 10000 4.66 262 17:21 05.06.2022
1100 Clear 25 1019 66 10000 4.66 262 16:47 05.06.2022
1101 Clear 23 1019 65 10000 4.68 257 15:41 05.06.2022
1102 Clouds 23 1020 65 10000 5.17 246 14:21 05.06.2022
1103 Clouds 23 1020 68 10000 4.37 259 12:23 05.06.2022
1104 Clouds 22 1020 72 10000 4.14 267 10:51 05.06.2022
1105 Clouds 21 1020 78 10000 3.82 272 10:24 05.06.2022
1106 Clouds 20 1020 78 10000 3.82 272 09:44 05.06.2022
1107 Clouds 18 1020 88 10000 3.57 281 08:25 05.06.2022
1108 Clouds 19 1020 90 10000 3.72 281 06:47 05.06.2022
1109 Clouds 19 1019 89 10000 3.94 280 05:20 05.06.2022
1110 Clouds 19 1020 88 10000 4.12 284 02:57 05.06.2022
1111 Clouds 20 1020 87 10000 4.33 282 01:24 05.06.2022
1112 Clouds 20 1020 87 10000 4.33 282 01:24 05.06.2022
1113 Clear 20 1020 87 10000 4.36 273 23:43 04.06.2022
1114 Clear 22 1019 83 10000 4.91 280 21:31 04.06.2022
1115 Clear 24 1018 71 10000 5.63 276 19:46 04.06.2022
1116 Clear 25 1018 68 10000 6.87 277 17:28 04.06.2022
1117 Clear 25 1018 69 10000 6.51 274 16:22 04.06.2022
1118 Clear 24 1018 69 10000 6.51 274 15:51 04.06.2022
1119 Clear 24 1018 69 10000 6.44 270 14:22 04.06.2022
1120 Clear 22 1018 68 10000 5.63 267 11:45 04.06.2022
1121 Clear 21 1018 70 10000 5.45 265 10:55 04.06.2022
1122 Clear 21 1018 72 10000 5.09 268 10:19 04.06.2022
1123 Clear 19 1018 72 10000 5.09 268 09:39 04.06.2022
1124 Clouds 19 1018 77 10000 4.72 273 08:39 04.06.2022
1125 Clouds 18 1017 85 10000 4.43 281 07:18 04.06.2022
1126 Clouds 19 1016 86 10000 4.41 282 04:33 04.06.2022
1127 Clear 20 1017 89 10000 4.31 288 00:37 04.06.2022
1128 Clear 20 1017 89 10000 4.35 282 23:28 03.06.2022
1129 Clear 20 1016 86 10000 4.76 282 22:20 03.06.2022
1130 Clear 23 1016 79 10000 5 278 20:42 03.06.2022
1131 Clear 23 1016 79 10000 5 278 20:42 03.06.2022
1132 Clear 23 1015 73 10000 5.48 281 20:18 03.06.2022
1133 Clear 27 1016 69 10000 5.4 273 17:31 03.06.2022
1134 Clear 24 1016 67 10000 5.38 274 16:34 03.06.2022
1135 Clear 25 1016 65 10000 5.22 270 14:52 03.06.2022
1136 Clouds 23 1017 70 10000 4.39 276 12:28 03.06.2022
1137 Clouds 21 1016 79 10000 4.09 268 10:18 03.06.2022
1138 Clouds 20 1016 86 10000 3.42 265 09:29 03.06.2022
1139 Clouds 19 1016 91 10000 3.18 263 07:53 03.06.2022
1140 Clouds 19 1015 91 10000 3.44 263 07:19 03.06.2022
1141 Clouds 19 1015 91 10000 3.44 263 06:30 03.06.2022
1142 Clouds 19 1015 91 10000 3.01 265 04:35 03.06.2022
1143 Clouds 20 1016 90 10000 4 279 00:22 03.06.2022
1144 Clouds 21 1016 89 10000 3.78 283 22:35 02.06.2022
1145 Clouds 22 1015 80 10000 4.37 282 20:58 02.06.2022
1146 Clouds 22 1015 75 10000 5.27 279 19:59 02.06.2022
1147 Clouds 22 1015 74 10000 4.31 277 19:40 02.06.2022
1148 Clouds 23 1015 71 10000 4.63 273 18:59 02.06.2022
1149 Clouds 23 1015 68 10000 4.41 290 16:30 02.06.2022
1150 Clouds 24 1016 70 10000 4.9 279 15:58 02.06.2022
1151 Clouds 23 1016 69 10000 5.47 280 13:38 02.06.2022
1152 Clouds 23 1017 71 10000 5.53 274 13:20 02.06.2022
1153 Clouds 21 1017 77 10000 4.61 274 10:53 02.06.2022
1154 Clouds 20 1017 82 10000 4.46 280 09:45 02.06.2022
1155 Clouds 20 1016 88 10000 3.97 280 09:26 02.06.2022
1156 Clouds 20 1016 92 10000 3.97 283 08:23 02.06.2022
1157 Clouds 19 1016 93 10000 4.05 283 06:26 02.06.2022
1158 Clouds 20 1015 93 10000 3.5 276 03:53 02.06.2022
1159 Clouds 21 1016 92 10000 3.41 278 01:36 02.06.2022
1160 Clear 22 1017 91 10000 3.26 280 23:36 01.06.2022
1161 Clear 22 1016 90 10000 3.36 274 22:18 01.06.2022
1162 Clear 23 1016 83 10000 3.74 265 21:25 01.06.2022
1163 Clear 24 1016 83 10000 3.74 265 20:39 01.06.2022
1164 Clear 25 1015 79 10000 4.39 270 19:52 01.06.2022
1165 Clear 28 1015 75 10000 4.69 269 18:41 01.06.2022
1166 Clear 27 1015 72 10000 4.67 265 17:38 01.06.2022
1167 Clear 26 1016 73 10000 5 269 15:56 01.06.2022
1168 Clear 26 1016 72 10000 4.91 269 14:50 01.06.2022
1169 Clear 26 1017 72 10000 5.04 273 13:39 01.06.2022
1170 Clear 22 1017 75 10000 3.99 267 11:24 01.06.2022
1171 Clear 20 1017 85 10000 3.24 266 09:30 01.06.2022
1172 Clear 19 1016 91 10000 3 265 08:28 01.06.2022
1173 Clear 20 1016 92 10000 3.17 265 07:20 01.06.2022
1174 Clear 19 1016 93 10000 3.63 266 04:53 01.06.2022
1175 Clear 22 1016 82 10000 3.63 277 23:50 31.05.2022
1176 Clear 23 1016 79 10000 3.37 275 22:43 31.05.2022
1177 Clear 24 1015 79 10000 3.15 265 22:24 31.05.2022
1178 Clear 23 1015 79 10000 3.15 265 21:44 31.05.2022
1179 Clear 23 1014 74 10000 3.32 270 20:44 31.05.2022
1180 Clear 25 1014 66 10000 3.56 271 19:46 31.05.2022
1181 Clear 26 1013 63 10000 4.23 262 18:32 31.05.2022
1182 Clear 26 1013 61 10000 4.5 264 17:38 31.05.2022
1183 Clear 24 1013 57 10000 4.35 267 15:55 31.05.2022
1184 Clear 24 1013 57 10000 4.35 267 15:34 31.05.2022
1185 Clear 26 1015 64 10000 3.79 264 12:56 31.05.2022
1186 Clear 24 1015 67 10000 3.83 269 12:18 31.05.2022
1187 Clear 22 1015 68 10000 3.93 268 10:34 31.05.2022
1188 Clear 18 1013 80 10000 2.72 282 08:26 31.05.2022
1189 Clear 18 1013 83 10000 2.7 275 06:21 31.05.2022
1190 Clear 19 1012 83 10000 2.92 271 04:31 31.05.2022
1191 Clouds 21 1014 83 10000 3.43 270 23:45 30.05.2022
1192 Clouds 22 1014 82 10000 3.79 271 23:24 30.05.2022
1193 Clouds 22 1014 82 10000 3.79 271 22:42 30.05.2022
1194 Clouds 24 1013 81 10000 4.13 269 21:40 30.05.2022
1195 Clouds 24 1012 77 10000 4.15 266 20:52 30.05.2022
1196 Clouds 25 1012 71 10000 4.54 268 19:44 30.05.2022
1197 Clouds 24 1012 67 10000 5.02 275 18:18 30.05.2022
1198 Clouds 24 1012 67 10000 5.27 277 17:23 30.05.2022
1199 Clouds 23 1013 68 10000 5.45 275 16:22 30.05.2022
1200 Clouds 22 1013 68 10000 5.01 267 13:32 30.05.2022
1201 Clouds 21 1014 70 10000 6.31 262 11:40 30.05.2022
1202 Clouds 20 1013 73 10000 6.15 253 09:52 30.05.2022
1203 Clouds 18 1013 78 10000 5.57 256 07:51 30.05.2022
1204 Clouds 18 1012 77 10000 5.76 258 06:22 30.05.2022
1205 Clouds 19 1012 80 10000 4.83 271 04:46 30.05.2022
1206 Clouds 19 1013 84 10000 5.45 278 00:18 30.05.2022
1207 Clouds 20 1013 84 10000 5.4 278 22:40 29.05.2022
1208 Clouds 21 1012 82 10000 5.94 281 21:46 29.05.2022
1209 Clouds 22 1011 76 10000 5.89 276 20:23 29.05.2022
1210 Clouds 22 1011 74 10000 5.93 274 19:29 29.05.2022
1211 Clouds 22 1011 71 10000 6.2 274 17:57 29.05.2022
1212 Clouds 23 1011 68 10000 5.98 272 16:22 29.05.2022
1213 Clouds 22 1011 68 10000 5.98 272 15:43 29.05.2022
1214 Clouds 23 1012 70 10000 5.83 272 14:54 29.05.2022
1215 Clouds 21 1012 73 10000 5.81 274 12:33 29.05.2022
1216 Clouds 20 1012 77 10000 5.3 265 11:19 29.05.2022
1217 Clouds 20 1012 83 10000 4.91 266 10:29 29.05.2022
1218 Clouds 18 1011 94 10000 3.74 277 07:59 29.05.2022
1219 Clouds 19 1012 95 10000 4.18 269 04:58 29.05.2022
1220 Clouds 19 1012 95 10000 4.2 269 04:33 29.05.2022
1221 Clear 21 1014 91 10000 4.75 257 01:23 29.05.2022
1222 Clear 22 1014 90 10000 4.31 258 23:47 28.05.2022
1223 Clear 22 1014 89 10000 3.96 256 23:19 28.05.2022
1224 Clear 23 1013 81 10000 3.13 266 21:53 28.05.2022
1225 Clear 24 1013 75 10000 1.82 300 20:53 28.05.2022
1226 Clear 24 1012 58 10000 3.92 84 19:20 28.05.2022
1227 Clear 24 1012 57 10000 4.54 84 18:24 28.05.2022
1228 Clear 24 1012 57 10000 4.54 84 17:33 28.05.2022
1229 Clear 24 1014 56 10000 5.49 81 15:51 28.05.2022
1230 Clear 24 1014 58 10000 5.64 84 15:20 28.05.2022
1231 Clouds 24 1015 58 10000 6.01 84 13:36 28.05.2022
1232 Clouds 24 1015 60 10000 6.07 81 12:43 28.05.2022
1233 Clear 24 1015 65 10000 5.7 81 11:37 28.05.2022
1234 Clear 22 1015 70 10000 5.6 84 10:39 28.05.2022
1235 Clear 20 1015 71 10000 5.18 88 09:54 28.05.2022
1236 Clouds 18 1015 76 10000 5.34 83 08:24 28.05.2022
1237 Clouds 18 1015 78 10000 5.32 79 06:34 28.05.2022
1238 Clouds 18 1015 81 10000 5.15 75 05:18 28.05.2022
1239 Clear 19 1017 81 10000 5.28 88 02:26 28.05.2022
1240 Clear 19 1017 82 10000 6.56 81 23:57 27.05.2022
1241 Clear 21 1017 82 10000 6.52 84 22:38 27.05.2022
1242 Clear 21 1016 77 10000 6.76 84 21:28 27.05.2022
1243 Clear 21 1016 77 10000 6.76 84 20:44 27.05.2022
1244 Clear 21 1016 70 10000 7.5 83 20:19 27.05.2022
1245 Clear 21 1016 70 10000 7.35 83 19:38 27.05.2022
1246 Clear 22 1016 65 10000 7.88 83 19:19 27.05.2022
1247 Clear 22 1017 62 10000 8.16 83 17:19 27.05.2022
1248 Clear 23 1017 62 10000 8.18 85 15:56 27.05.2022
1249 Clear 22 1018 61 10000 8.34 85 14:57 27.05.2022
1250 Clear 22 1018 62 10000 8.35 85 13:40 27.05.2022
1251 Clear 22 1018 64 10000 8.77 81 12:20 27.05.2022
1252 Clear 21 1018 64 10000 8.77 81 11:30 27.05.2022
1253 Clear 20 1018 67 10000 9.05 82 10:41 27.05.2022
1254 Clear 20 1018 69 10000 9.1 80 09:59 27.05.2022
1255 Clear 20 1018 76 10000 9.09 78 09:29 27.05.2022
1256 Clear 18 1018 80 10000 8.99 77 07:39 27.05.2022
1257 Clear 18 1019 84 10000 9.73 77 03:59 27.05.2022
1258 Clear 19 1020 87 10000 10.57 80 01:27 27.05.2022
1259 Clear 19 1021 87 10000 10.51 81 23:23 26.05.2022
1260 Clear 19 1020 86 10000 10.39 80 21:57 26.05.2022
1261 Clear 19 1020 84 10000 10.41 83 21:27 26.05.2022
1262 Clear 20 1020 81 10000 10.55 84 19:34 26.05.2022
1263 Clear 20 1019 76 10000 10.8 86 18:46 26.05.2022
1264 Clear 20 1019 74 10000 11.2 85 17:36 26.05.2022
1265 Clear 20 1020 72 10000 12.21 83 16:18 26.05.2022
1266 Clear 21 1020 71 10000 12.71 83 15:24 26.05.2022
1267 Clear 20 1020 70 10000 13.05 84 13:58 26.05.2022
1268 Clear 20 1020 72 10000 12.77 81 12:18 26.05.2022
1269 Clouds 19 1020 74 10000 12.37 81 11:18 26.05.2022
1270 Clouds 19 1020 78 10000 11.73 80 09:38 26.05.2022
1271 Clouds 18 1019 82 10000 11.02 78 08:40 26.05.2022
1272 Clouds 18 1019 82 10000 11.02 78 08:40 26.05.2022
1273 Clouds 18 1019 88 10000 9.52 80 05:30 26.05.2022
1274 Clouds 18 1020 88 10000 7.94 71 02:23 26.05.2022
1275 Clouds 18 1020 89 10000 6.84 71 23:53 25.05.2022
1276 Clouds 18 1020 90 10000 6.68 72 22:52 25.05.2022
1277 Clouds 19 1019 92 10000 6.1 70 21:42 25.05.2022
1278 Clouds 19 1019 89 10000 6.08 70 20:49 25.05.2022
1279 Clouds 20 1018 82 10000 5.41 76 19:42 25.05.2022
1280 Clouds 20 1018 76 10000 5.39 81 18:47 25.05.2022
1281 Clouds 22 1017 56 10000 1.29 87 16:58 25.05.2022
1282 Clouds 24 1017 57 10000 1.87 209 16:27 25.05.2022
1283 Clouds 23 1017 57 10000 1.88 209 15:36 25.05.2022
1284 Clouds 23 1017 60 10000 2.88 235 14:50 25.05.2022
1285 Clouds 24 1017 60 10000 2.88 235 14:31 25.05.2022
1286 Clouds 23 1018 65 10000 5.04 271 13:23 25.05.2022
1287 Clouds 19 1018 67 10000 5.79 263 11:49 25.05.2022
1288 Clear 19 1017 73 10000 5.9 245 10:24 25.05.2022
1289 Clouds 18 1016 78 10000 5.97 238 09:29 25.05.2022
1290 Clouds 16 1015 79 10000 5.29 236 07:26 25.05.2022
1291 Clouds 19 1015 77 10000 5.59 235 05:41 25.05.2022
1292 Clouds 18 1015 83 10000 6.15 243 01:51 25.05.2022
1293 Clouds 20 1015 85 10000 6.5 233 23:48 24.05.2022
1294 Clouds 20 1015 83 10000 6.44 234 22:58 24.05.2022
1295 Clouds 19 1014 81 10000 6.57 242 21:47 24.05.2022
1296 Clouds 20 1014 75 10000 7.08 260 21:23 24.05.2022
1297 Clouds 21 1014 75 10000 7.08 260 20:59 24.05.2022
1298 Clear 22 1013 64 10000 7.99 266 19:20 24.05.2022
1299 Clear 22 1013 61 10000 7.59 258 17:50 24.05.2022
1300 Clear 22 1013 60 10000 7.99 269 16:36 24.05.2022
1301 Clear 23 1013 58 10000 7.74 269 15:31 24.05.2022
1302 Clear 23 1014 59 10000 7.28 268 14:37 24.05.2022
1303 Clear 23 1014 61 10000 8 274 13:35 24.05.2022
1304 Clear 23 1014 62 10000 7.52 272 12:19 24.05.2022
1305 Clear 21 1013 66 10000 6.18 265 09:51 24.05.2022
1306 Clear 20 1013 75 10000 5.81 268 08:51 24.05.2022
1307 Clouds 19 1013 85 10000 5.9 267 07:44 24.05.2022
1308 Clouds 19 1012 85 10000 5.85 262 06:34 24.05.2022
1309 Clouds 21 1012 90 10000 5.73 241 03:38 24.05.2022
1310 Clouds 20 1012 90 10000 4.92 246 01:46 24.05.2022
1311 Clear 22 1013 90 10000 4.91 244 00:30 24.05.2022
1312 Clear 19 1012 91 10000 5.11 260 22:24 23.05.2022
1313 Clear 25 1012 91 10000 5.11 260 21:50 23.05.2022
1314 Clear 26 1011 85 10000 5.44 264 20:46 23.05.2022
1315 Clear 25 1011 79 10000 5.44 265 19:51 23.05.2022
1316 Clear 26 1011 76 10000 5.67 261 19:24 23.05.2022
1317 Clear 25 1011 76 10000 5.67 261 18:41 23.05.2022
1318 Clear 27 1011 75 10000 5.78 260 17:56 23.05.2022
1319 Clear 27 1012 76 10000 5.76 259 16:29 23.05.2022
1320 Clouds 24 1013 79 10000 5.75 258 14:18 23.05.2022
1321 Clouds 23 1014 81 10000 5.46 257 11:53 23.05.2022
1322 Clouds 22 1014 84 10000 5.19 254 10:49 23.05.2022
1323 Clouds 20 1014 88 10000 5.19 249 09:48 23.05.2022
1324 Clouds 19 1014 92 10000 5.28 241 08:46 23.05.2022
1325 Clouds 19 1014 92 10000 5.28 241 08:46 23.05.2022
1326 Clouds 18 1014 94 10000 5.52 242 07:31 23.05.2022
1327 Clouds 18 1014 93 10000 5.46 244 06:40 23.05.2022
1328 Clouds 19 1015 92 10000 5.76 252 03:41 23.05.2022
1329 Clouds 19 1016 92 10000 6.14 251 01:52 23.05.2022
1330 Clouds 19 1016 92 10000 6.14 249 01:29 23.05.2022
1331 Clouds 20 1016 91 10000 5.58 255 23:18 22.05.2022
1332 Clear 19 1015 90 10000 5.58 259 22:27 22.05.2022
1333 Clear 20 1015 90 10000 5.58 259 21:52 22.05.2022
1334 Clouds 21 1015 86 10000 5.63 265 20:46 22.05.2022
1335 Clouds 22 1015 81 10000 6.07 267 20:22 22.05.2022
1336 Clouds 22 1014 82 10000 5.77 265 19:34 22.05.2022
1337 Clouds 22 1015 78 10000 6.05 268 18:50 22.05.2022
1338 Clouds 22 1015 77 10000 6.05 267 18:21 22.05.2022
1339 Clouds 23 1015 77 10000 5.82 263 16:57 22.05.2022
1340 Clouds 24 1016 78 10000 5.79 266 15:34 22.05.2022
1341 Clouds 24 1016 77 10000 6.01 267 14:47 22.05.2022
1342 Clouds 23 1017 77 10000 5.96 266 13:21 22.05.2022
1343 Clouds 23 1017 77 10000 5.96 266 12:45 22.05.2022
1344 Clouds 20 1017 82 10000 5.35 266 10:55 22.05.2022
1345 Clouds 19 1017 84 10000 5.1 266 09:38 22.05.2022
1346 Clouds 19 1016 92 10000 4.45 269 07:52 22.05.2022
1347 Clouds 19 1015 94 10000 4.41 273 07:20 22.05.2022
1348 Clouds 20 1016 95 10000 3.95 262 04:49 22.05.2022
1349 Clouds 21 1017 87 10000 1.42 229 01:20 22.05.2022
1350 Clouds 23 1018 86 10000 1.24 165 23:57 21.05.2022
1351 Clouds 23 1018 86 10000 1.23 165 23:32 21.05.2022
1352 Clouds 23 1017 84 10000 2.43 82 22:22 21.05.2022
1353 Clouds 23 1017 84 10000 2.43 82 21:39 21.05.2022
1354 Clouds 22 1017 82 10000 3.54 68 20:48 21.05.2022
1355 Clouds 23 1016 78 10000 4.74 71 19:59 21.05.2022
1356 Clouds 23 1016 78 10000 4.69 76 19:24 21.05.2022
1357 Clouds 24 1016 78 10000 5.79 75 17:35 21.05.2022
1358 Clouds 24 1017 77 10000 6.63 81 15:37 21.05.2022
1359 Clouds 23 1017 76 10000 7.16 79 14:36 21.05.2022
1360 Clouds 23 1018 79 10000 6.52 85 13:36 21.05.2022
1361 Clouds 22 1018 78 10000 6.77 89 12:40 21.05.2022
1362 Clouds 24 1018 77 10000 7.4 82 11:52 21.05.2022
1363 Clouds 22 1018 84 10000 6.32 79 10:22 21.05.2022
1364 Clouds 22 1017 87 10000 5.24 73 09:18 21.05.2022
1365 Clouds 21 1017 87 10000 5.24 73 08:47 21.05.2022
1366 Clouds 19 1015 88 10000 8.1 71 06:22 21.05.2022
1367 Clouds 22 1017 85 10000 7.87 76 02:23 21.05.2022
1368 Clouds 20 1017 87 10000 8.75 69 23:42 20.05.2022
1369 Clouds 20 1018 86 10000 8.32 78 22:41 20.05.2022
1370 Clouds 22 1017 85 10000 7.85 87 22:18 20.05.2022
1371 Clouds 22 1016 85 10000 10.46 72 21:19 20.05.2022
1372 Clouds 21 1016 85 10000 10.46 73 20:51 20.05.2022
1373 Clouds 22 1016 83 10000 7.85 79 19:54 20.05.2022
1374 Clouds 23 1016 80 10000 8.14 86 18:58 20.05.2022
1375 Clouds 24 1015 77 10000 9.49 81 18:23 20.05.2022
1376 Clouds 24 1017 76 10000 10.45 78 16:28 20.05.2022
1377 Clouds 24 1017 76 10000 10.44 78 15:54 20.05.2022
1378 Clouds 23 1017 76 10000 10.44 78 15:32 20.05.2022
1379 Clouds 22 1017 77 10000 10.82 81 14:27 20.05.2022
1380 Clouds 22 1017 79 10000 10.96 82 12:45 20.05.2022
1381 Clouds 21 1017 82 10000 10.85 80 10:48 20.05.2022
1382 Clouds 20 1017 84 10000 10.78 78 09:31 20.05.2022
1383 Clouds 19 1016 86 10000 10.39 76 08:37 20.05.2022
1384 Clouds 19 1015 89 10000 10.08 79 06:44 20.05.2022
1385 Clouds 19 1015 89 10000 10.59 78 05:52 20.05.2022
1386 Clouds 19 1015 88 10000 10.67 77 02:52 20.05.2022
1387 Clouds 20 1016 87 10000 9.3 75 23:47 19.05.2022
1388 Clouds 21 1016 87 10000 9.28 76 22:37 19.05.2022
1389 Clouds 21 1016 87 10000 9.02 76 21:51 19.05.2022
1390 Clouds 22 1015 84 10000 8.86 76 21:24 19.05.2022
1391 Clouds 22 1015 84 10000 8.86 76 20:52 19.05.2022
1392 Clouds 22 1015 81 10000 8.57 76 19:54 19.05.2022
1393 Clouds 22 1014 77 10000 8.64 76 19:18 19.05.2022
1394 Clouds 23 1015 75 10000 8.96 74 17:46 19.05.2022
1395 Clouds 23 1016 70 10000 9.27 74 15:51 19.05.2022
1396 Clear 22 1016 69 10000 9.43 76 14:47 19.05.2022
1397 Clouds 22 1017 69 10000 9.59 76 14:20 19.05.2022
1398 Clouds 22 1017 69 10000 8.67 76 11:55 19.05.2022
1399 Clouds 20 1017 70 10000 8.38 77 10:31 19.05.2022
1400 Clouds 21 1017 84 10000 6.58 76 08:44 19.05.2022
1401 Clouds 21 1016 90 10000 5.26 76 07:18 19.05.2022
1402 Clouds 20 1015 87 10000 5.08 86 03:41 19.05.2022
1403 Clouds 21 1016 88 10000 5.06 75 00:57 19.05.2022
1404 Clouds 22 1016 88 10000 5.11 72 23:40 18.05.2022
1405 Clouds 22 1016 86 10000 4.99 72 22:43 18.05.2022
1406 Clouds 23 1016 85 10000 4.87 75 21:43 18.05.2022
1407 Clouds 23 1015 82 10000 5.27 83 21:23 18.05.2022
1408 Clouds 24 1015 75 10000 5.75 83 20:19 18.05.2022
1409 Clouds 24 1015 69 10000 5.88 83 18:53 18.05.2022
1410 Clouds 24 1015 69 10000 5.88 83 18:53 18.05.2022
1411 Clouds 24 1015 65 10000 5.99 82 17:42 18.05.2022
1412 Clouds 24 1015 63 10000 6.5 82 17:24 18.05.2022
1413 Clouds 24 1015 63 10000 6.5 82 16:53 18.05.2022
1414 Clouds 26 1016 61 10000 6.51 82 15:45 18.05.2022
1415 Clouds 24 1016 60 10000 6.28 83 15:20 18.05.2022
1416 Clouds 22 1016 60 10000 5.6 82 13:59 18.05.2022
1417 Clouds 22 1017 62 10000 5.25 82 12:53 18.05.2022
1418 Clouds 22 1017 63 10000 4.84 80 11:48 18.05.2022
1419 Clouds 23 1017 66 10000 4.38 79 11:29 18.05.2022
1420 Clouds 22 1017 66 10000 4.38 79 10:43 18.05.2022
1421 Clear 20 1016 82 10000 4.56 71 07:59 18.05.2022
1422 Clear 19 1015 83 10000 4.98 72 06:54 18.05.2022
1423 Clear 20 1016 80 10000 4.77 70 03:34 18.05.2022
1424 Clear 20 1017 69 10000 3.41 65 00:41 18.05.2022
1425 Clear 21 1018 70 10000 2.05 55 22:59 17.05.2022
1426 Clear 22 1017 72 10000 1.05 74 21:21 17.05.2022
1427 Clear 22 1017 72 10000 1.05 74 21:21 17.05.2022
1428 Clear 23 1017 72 10000 1.05 74 20:38 17.05.2022
1429 Clear 23 1017 66 10000 2.05 260 19:29 17.05.2022
1430 Clear 24 1017 66 10000 2.05 260 18:43 17.05.2022
1431 Clear 26 1017 64 10000 1.98 249 17:31 17.05.2022
1432 Clear 26 1018 63 10000 1.86 250 16:53 17.05.2022
1433 Clear 27 1018 63 10000 1.99 252 15:45 17.05.2022
1434 Clear 26 1019 63 10000 2.13 247 14:48 17.05.2022
1435 Clear 24 1019 63 10000 1.97 242 14:23 17.05.2022
1436 Clear 23 1020 65 10000 2.68 249 12:36 17.05.2022
1437 Clear 20 1020 71 10000 2.13 256 10:23 17.05.2022
1438 Clear 17 1020 75 10000 1.91 238 08:45 17.05.2022
1439 Clear 17 1019 78 10000 2.03 251 07:41 17.05.2022
1440 Clear 18 1019 80 10000 2.53 256 05:58 17.05.2022
1441 Clear 23 1020 80 10000 2.8 267 00:47 17.05.2022
1442 Clear 24 1020 81 10000 3.16 265 22:51 16.05.2022
1443 Clear 19 1020 81 10000 3.16 265 22:30 16.05.2022
1444 Clear 25 1019 79 10000 4.41 268 20:56 16.05.2022
1445 Clear 22 1018 75 10000 4.88 258 20:33 16.05.2022
1446 Clear 24 1018 70 10000 4.94 259 18:41 16.05.2022
1447 Clear 24 1020 68 10000 5.23 257 16:41 16.05.2022
1448 Clouds 25 1021 70 10000 5.67 262 14:48 16.05.2022
1449 Clear 23 1021 65 10000 4.39 249 13:27 16.05.2022
1450 Clear 22 1021 65 10000 4.39 249 12:34 16.05.2022
1451 Clear 20 1021 70 10000 3.38 268 10:34 16.05.2022
1452 Clouds 18 1020 88 10000 3.09 292 07:47 16.05.2022
1453 Clouds 18 1020 90 10000 3.44 278 05:40 16.05.2022
1454 Clouds 19 1021 89 10000 3.43 268 00:35 16.05.2022
1455 Clouds 21 1021 88 10000 3.65 271 22:42 15.05.2022
1456 Clouds 22 1020 87 10000 4.39 278 21:54 15.05.2022
1457 Clouds 22 1020 87 10000 4.4 278 21:34 15.05.2022
1458 Clouds 23 1019 84 10000 4.55 275 20:35 15.05.2022
1459 Clouds 23 1018 76 10000 5.21 271 18:30 15.05.2022
1460 Clouds 23 1018 72 10000 5.47 276 16:37 15.05.2022
1461 Clouds 23 1019 74 10000 5.22 273 14:26 15.05.2022
1462 Clouds 23 1019 73 10000 5.24 274 13:44 15.05.2022
1463 Clouds 21 1020 77 10000 4.01 269 11:55 15.05.2022
1464 Clouds 20 1019 80 10000 3.92 266 10:43 15.05.2022
1465 Clouds 18 1018 88 10000 3.33 271 08:57 15.05.2022
1466 Clouds 17 1018 96 10000 3.11 280 07:22 15.05.2022
1467 Clouds 17 1018 96 10000 3.11 280 06:42 15.05.2022
1468 Clouds 18 1017 91 10000 2.45 270 02:38 15.05.2022
1469 Clear 19 1018 87 10000 0.63 334 23:59 14.05.2022
1470 Clear 20 1018 87 10000 0.63 334 23:35 14.05.2022
1471 Clear 20 1018 87 10000 0.63 334 23:35 14.05.2022
1472 Clear 20 1017 86 10000 0.8 84 21:45 14.05.2022
1473 Clouds 21 1017 84 10000 0.2 18 21:24 14.05.2022
1474 Clouds 22 1017 79 10000 1.59 73 19:54 14.05.2022
1475 Clouds 21 1016 75 10000 2.46 84 19:20 14.05.2022
1476 Clouds 21 1016 75 10000 2.46 84 18:51 14.05.2022
1477 Clouds 21 1016 75 10000 2.46 84 18:51 14.05.2022
1478 Clouds 21 1016 73 10000 3.26 90 17:42 14.05.2022
1479 Clear 21 1017 69 10000 4.75 79 15:55 14.05.2022
1480 Clear 22 1017 70 10000 5.24 81 14:37 14.05.2022
1481 Clouds 21 1018 72 10000 5.1 82 12:51 14.05.2022
1482 Clouds 20 1019 74 10000 4.66 86 11:37 14.05.2022
1483 Clouds 20 1019 77 10000 4.42 94 10:39 14.05.2022
1484 Clouds 19 1018 81 10000 4.22 86 10:18 14.05.2022
1485 Clouds 19 1018 86 10000 4.18 91 09:19 14.05.2022
1486 Clouds 19 1017 90 10000 4.78 92 07:23 14.05.2022
1487 Clouds 19 1017 89 10000 6.97 82 03:45 14.05.2022
1488 Clouds 19 1019 88 10000 6.97 76 00:21 14.05.2022
1489 Clouds 19 1019 88 10000 6.68 78 23:24 13.05.2022
1490 Clouds 19 1019 88 10000 6.68 78 22:54 13.05.2022
1491 Clouds 19 1019 89 10000 6.44 78 22:20 13.05.2022
1492 Clouds 20 1019 86 10000 6.54 81 20:57 13.05.2022
1493 Clouds 20 1018 85 10000 6.43 83 20:30 13.05.2022
1494 Clouds 20 1018 79 10000 6.83 83 19:44 13.05.2022
1495 Clouds 20 1018 76 10000 7.1 84 18:47 13.05.2022
1496 Clouds 20 1018 72 10000 7.38 82 17:29 13.05.2022
1497 Clouds 20 1019 73 10000 7.38 82 16:29 13.05.2022
1498 Clouds 21 1019 73 10000 7.38 82 15:45 13.05.2022
1499 Clouds 21 1019 74 10000 7.47 83 14:29 13.05.2022
1500 Clear 20 1020 75 10000 7.03 80 12:47 13.05.2022
1501 Clear 20 1020 77 10000 6.9 81 11:39 13.05.2022
1502 Clear 18 1020 83 10000 6.36 79 09:43 13.05.2022
1503 Clouds 18 1019 89 10000 6.11 77 08:51 13.05.2022
1504 Clouds 18 1019 92 10000 6.15 71 07:50 13.05.2022
1505 Clouds 18 1019 93 10000 6.03 69 06:49 13.05.2022
1506 Clouds 18 1019 91 10000 5.32 84 04:54 13.05.2022
1507 Clouds 19 1021 90 10000 5.17 78 00:42 13.05.2022
1508 Clouds 18 1020 89 10000 6.51 80 22:47 12.05.2022
1509 Clouds 18 1019 88 10000 6.78 79 22:29 12.05.2022
1510 Clouds 20 1018 85 10000 6.74 74 20:41 12.05.2022
1511 Clouds 20 1018 78 10000 7.45 85 19:26 12.05.2022
1512 Clouds 21 1017 75 10000 8.07 77 18:19 12.05.2022
1513 Clouds 20 1018 73 10000 8.33 78 16:39 12.05.2022
1514 Clouds 22 1018 73 10000 8.82 76 14:52 12.05.2022
1515 Clouds 22 1019 73 10000 7.51 80 13:48 12.05.2022
1516 Clouds 21 1018 75 10000 8.41 85 11:31 12.05.2022
1517 Clouds 20 1018 81 10000 7.73 81 10:22 12.05.2022
1518 Clouds 20 1017 82 10000 7.36 80 08:52 12.05.2022
1519 Clouds 20 1017 82 10000 7.36 80 08:52 12.05.2022
1520 Clouds 20 1017 82 10000 7.36 80 08:52 12.05.2022
1521 Clouds 18 1017 82 10000 7.6 78 07:58 12.05.2022
1522 Clouds 18 1016 83 10000 7.91 76 06:58 12.05.2022
1523 Clouds 18 1016 81 10000 7.39 77 03:46 12.05.2022
1524 Clouds 19 1018 84 10000 6.91 77 00:50 12.05.2022
1525 Clouds 20 1018 84 10000 6.94 80 22:53 11.05.2022
1526 Clouds 20 1017 84 10000 7.04 78 21:59 11.05.2022
1527 Clouds 19 1017 82 10000 7.13 79 21:24 11.05.2022
1528 Clouds 20 1017 78 10000 7.29 81 19:57 11.05.2022
1529 Clouds 20 1016 70 10000 9.85 84 17:27 11.05.2022
1530 Clouds 21 1017 70 10000 10.34 85 16:19 11.05.2022
1531 Clouds 21 1017 70 10000 10.89 85 14:45 11.05.2022
1532 Clouds 21 1018 69 10000 11.16 86 14:24 11.05.2022
1533 Clouds 21 1018 73 10000 11.54 86 12:23 11.05.2022
1534 Clouds 21 1018 73 10000 11.54 86 11:47 11.05.2022
1535 Clouds 19 1017 78 10000 10.65 82 09:29 11.05.2022
1536 Clouds 18 1017 80 10000 10.22 77 06:27 11.05.2022
1537 Clear 19 1020 81 10000 8.94 77 01:29 11.05.2022
1538 Clear 19 1020 80 10000 8.66 81 22:56 10.05.2022
1539 Clear 19 1020 80 10000 8.78 79 22:21 10.05.2022
1540 Clear 19 1020 78 10000 8.87 79 21:21 10.05.2022
1541 Clouds 20 1020 74 10000 8.98 80 20:21 10.05.2022
1542 Clouds 21 1019 71 10000 9.6 81 18:36 10.05.2022
1543 Clouds 21 1019 67 10000 10.04 81 17:37 10.05.2022
1544 Clear 21 1020 66 10000 10.45 80 15:49 10.05.2022
1545 Clouds 21 1021 67 10000 10.28 81 12:51 10.05.2022
1546 Clouds 21 1022 68 10000 10.27 82 11:53 10.05.2022
1547 Clouds 20 1021 70 10000 10.41 81 11:28 10.05.2022
1548 Clouds 20 1021 70 10000 10.41 81 10:55 10.05.2022
1549 Clouds 19 1020 77 10000 9.38 77 09:27 10.05.2022
1550 Clouds 19 1020 79 10000 9.06 76 07:51 10.05.2022
1551 Clouds 19 1019 81 10000 8.64 75 05:43 10.05.2022
1552 Clouds 19 1020 86 10000 7.6 76 01:37 10.05.2022
1553 Clouds 19 1021 87 10000 6.67 77 23:42 09.05.2022
1554 Clouds 19 1021 87 10000 6.67 77 23:42 09.05.2022
1555 Clouds 19 1021 86 10000 6.76 78 22:33 09.05.2022
1556 Clouds 18 1020 85 10000 6.69 76 21:36 09.05.2022
1557 Clouds 20 1019 74 10000 6.77 80 19:52 09.05.2022
1558 Clouds 20 1019 74 10000 6.77 80 19:52 09.05.2022
1559 Clouds 21 1018 65 10000 7.76 79 18:25 09.05.2022
1560 Clouds 21 1018 64 10000 8.15 80 17:25 09.05.2022
1561 Clouds 21 1019 64 10000 8.39 81 15:54 09.05.2022
1562 Clouds 21 1019 64 10000 8.39 81 15:35 09.05.2022
1563 Clear 20 1019 65 10000 8.66 82 14:33 09.05.2022
1564 Clear 21 1019 65 10000 8.72 81 13:51 09.05.2022
1565 Clear 20 1019 65 10000 8.66 82 12:51 09.05.2022
1566 Clear 20 1019 65 10000 8.4 81 11:52 09.05.2022
1567 Clear 20 1019 66 10000 7.73 82 10:46 09.05.2022
1568 Clear 19 1019 71 10000 7.16 80 09:59 09.05.2022
1569 Clouds 18 1018 81 10000 6.27 76 07:56 09.05.2022
1570 Clouds 18 1018 81 10000 6.14 70 04:33 09.05.2022
1571 Clouds 18 1018 81 10000 6.14 70 04:33 09.05.2022
1572 Clear 18 1019 80 10000 5.11 70 00:23 09.05.2022
1573 Clear 18 1019 80 10000 5.06 71 22:58 08.05.2022
1574 Clear 19 1018 80 10000 5.02 73 22:29 08.05.2022
1575 Clear 19 1018 78 10000 5.03 74 20:53 08.05.2022
1576 Clear 19 1017 73 10000 5.12 78 20:18 08.05.2022
1577 Clear 19 1017 68 10000 5.54 81 19:27 08.05.2022
1578 Clear 19 1017 69 10000 5.54 81 19:27 08.05.2022
1579 Clear 19 1017 67 10000 5.59 84 18:25 08.05.2022
1580 Clear 19 1017 67 10000 5.8 85 17:21 08.05.2022
1581 Clear 20 1018 67 10000 5.89 83 15:44 08.05.2022
1582 Clear 20 1018 68 10000 5.95 80 15:20 08.05.2022
1583 Clear 19 1019 70 10000 5.89 81 12:45 08.05.2022
1584 Clear 18 1019 75 10000 5.83 79 10:46 08.05.2022
1585 Clouds 18 1019 81 10000 5.77 76 10:21 08.05.2022
1586 Clouds 18 1019 81 10000 5.77 76 09:46 08.05.2022
1587 Clouds 17 1018 89 10000 5.67 71 07:33 08.05.2022
1588 Clouds 17 1019 90 10000 5.24 66 04:24 08.05.2022
1589 Clouds 18 1019 89 10000 5.26 66 03:20 08.05.2022
1590 Clouds 18 1020 89 10000 4.84 67 00:29 08.05.2022
1591 Clouds 18 1020 89 10000 4.84 67 23:53 07.05.2022
1592 Clouds 19 1020 89 10000 4.8 67 22:57 07.05.2022
1593 Clouds 18 1020 89 10000 4.8 67 22:33 07.05.2022
1594 Clouds 18 1019 88 10000 4.89 72 21:43 07.05.2022
1595 Clouds 19 1019 84 10000 4.76 75 20:55 07.05.2022
1596 Clouds 19 1018 78 10000 5.05 78 19:58 07.05.2022
1597 Clouds 19 1018 73 10000 5.58 78 17:51 07.05.2022
1598 Clouds 20 1019 73 10000 5.88 83 15:53 07.05.2022
1599 Clear 20 1019 73 10000 5.88 83 14:44 07.05.2022
1600 Clouds 19 1019 72 10000 4.63 67 10:59 07.05.2022
1601 Clouds 17 1019 70 10000 4.19 70 09:38 07.05.2022
1602 Clouds 15 1018 69 10000 1 41 07:52 07.05.2022
1603 Clouds 20 1017 69 10000 0.79 14 06:44 07.05.2022
1604 Clouds 20 1018 71 10000 0.55 280 05:22 07.05.2022
1605 Clouds 20 1019 76 10000 1.34 279 02:21 07.05.2022
1606 Clouds 20 1020 75 10000 2.11 293 23:38 06.05.2022
1607 Clear 22 1020 73 10000 2.43 296 22:32 06.05.2022
1608 Clear 23 1020 70 10000 2.05 299 21:44 06.05.2022
1609 Clear 25 1019 70 10000 1.14 292 20:35 06.05.2022
1610 Clear 26 1019 67 10000 0.38 356 19:40 06.05.2022
1611 Clear 26 1019 61 10000 0.74 46 19:18 06.05.2022
1612 Clear 25 1019 61 10000 1.84 85 18:23 06.05.2022
1613 Clear 24 1019 60 10000 2.87 94 16:53 06.05.2022
1614 Clear 24 1020 60 10000 3.3 97 15:42 06.05.2022
1615 Clear 22 1020 61 10000 3.72 94 14:53 06.05.2022
1616 Clear 20 1021 62 10000 3.51 86 12:56 06.05.2022
1617 Clear 20 1021 62 10000 3.51 86 12:37 06.05.2022
1618 Clear 20 1021 65 10000 3.65 87 11:42 06.05.2022
1619 Clear 16 1022 68 10000 3.65 81 10:30 06.05.2022
1620 Clear 16 1022 72 10000 3.9 72 09:46 06.05.2022
1621 Clear 14 1022 78 10000 3.99 65 08:33 06.05.2022
1622 Clear 14 1021 84 10000 4.26 59 06:48 06.05.2022
1623 Clear 15 1021 85 10000 4.42 59 05:23 06.05.2022
1624 Clear 17 1022 86 10000 4.45 63 02:47 06.05.2022
1625 Clear 17 1023 84 10000 4.64 76 00:19 06.05.2022
1626 Clear 18 1022 82 10000 4.63 75 22:28 05.05.2022
1627 Clear 18 1022 79 10000 4.44 73 21:22 05.05.2022
1628 Clear 19 1021 73 10000 4.26 78 19:54 05.05.2022
1629 Clear 20 1020 69 10000 4.56 85 18:31 05.05.2022
1630 Clear 19 1021 67 10000 5.56 92 16:20 05.05.2022
1631 Clear 20 1021 69 10000 5.07 94 14:49 05.05.2022
1632 Clear 20 1021 71 10000 2.47 89 13:22 05.05.2022
1633 Clear 20 1021 73 10000 1.07 98 12:25 05.05.2022
1634 Clear 17 1020 76 10000 0.15 127 10:48 05.05.2022
1635 Clear 16 1020 80 10000 1.12 273 09:39 05.05.2022
1636 Clear 14 1019 86 10000 1.67 279 07:35 05.05.2022
1637 Clear 14 1018 84 10000 0.62 32 04:42 05.05.2022
1638 Clouds 15 1018 85 10000 1.07 85 01:53 05.05.2022
1639 Clouds 16 1018 84 10000 1.97 91 01:24 05.05.2022
1640 Clouds 16 1018 86 10000 2.21 96 23:47 04.05.2022
1641 Rain 16 1018 86 10000 0.91 80 22:30 04.05.2022
1642 Rain 17 1017 86 10000 0.74 233 21:49 04.05.2022
1643 Rain 17 1016 86 10000 1.15 254 21:26 04.05.2022
1644 Clouds 17 1015 83 10000 2.18 265 20:24 04.05.2022
1645 Clouds 17 1015 81 10000 1.46 266 19:53 04.05.2022
1646 Rain 17 1015 79 10000 2.53 272 18:54 04.05.2022
1647 Rain 18 1014 78 10000 2.73 269 18:22 04.05.2022
1648 Clouds 18 1014 78 10000 2.73 269 17:30 04.05.2022
1649 Clouds 18 1014 78 10000 2.8 277 15:38 04.05.2022
1650 Clouds 18 1014 78 10000 2.69 288 15:20 04.05.2022
1651 Clouds 18 1014 78 10000 3.22 282 14:20 04.05.2022
1652 Clouds 17 1015 73 10000 1.85 259 13:20 04.05.2022
1653 Clouds 16 1015 74 10000 1.88 247 12:29 04.05.2022
1654 Clouds 16 1015 76 10000 1.48 249 10:40 04.05.2022
1655 Clouds 15 1014 77 10000 1.48 255 09:40 04.05.2022
1656 Clouds 15 1014 78 10000 1.25 258 08:34 04.05.2022
1657 Clouds 14 1012 81 10000 2.13 233 05:53 04.05.2022
1658 Clouds 15 1012 78 10000 2.65 233 02:53 04.05.2022
1659 Clouds 15 1013 76 10000 3.77 253 23:58 03.05.2022
1660 Clouds 17 1012 76 10000 4.05 248 22:30 03.05.2022
1661 Clouds 17 1012 76 10000 3.9 260 21:36 03.05.2022
1662 Clouds 17 1012 74 10000 3.38 277 20:53 03.05.2022
1663 Clouds 19 1011 72 10000 3.55 269 19:45 03.05.2022
1664 Clouds 18 1011 71 10000 3.56 263 18:50 03.05.2022
1665 Clouds 18 1011 71 10000 3.56 263 18:50 03.05.2022
1666 Clouds 17 1010 72 10000 3.5 257 18:20 03.05.2022
1667 Clouds 21 1010 74 10000 4.25 258 16:37 03.05.2022
1668 Clouds 20 1010 74 10000 4.25 258 15:32 03.05.2022
1669 Clouds 18 1011 72 10000 4.22 261 12:47 03.05.2022
1670 Clouds 17 1011 75 10000 3.98 263 12:27 03.05.2022
1671 Clouds 16 1011 79 10000 2.69 270 10:57 03.05.2022
1672 Clouds 15 1011 86 10000 2.98 288 09:21 03.05.2022
1673 Clouds 16 1010 87 10000 3.57 266 06:46 03.05.2022
1674 Clouds 15 1010 87 10000 4.22 261 05:56 03.05.2022
1675 Clouds 17 1014 89 10000 7.32 251 00:19 03.05.2022
1676 Clouds 17 1014 89 10000 7.09 252 22:36 02.05.2022
1677 Clouds 17 1014 88 10000 7.7 255 21:51 02.05.2022
1678 Clouds 18 1014 88 10000 8.26 255 20:51 02.05.2022
1679 Clouds 19 1014 81 10000 8.01 263 18:37 02.05.2022
1680 Clouds 19 1014 78 10000 8.07 264 17:53 02.05.2022
1681 Clouds 19 1014 78 10000 8.08 264 17:33 02.05.2022
1682 Clouds 19 1015 73 10000 8.02 267 16:20 02.05.2022
1683 Clouds 19 1016 72 10000 7.95 269 15:19 02.05.2022
1684 Clouds 19 1016 73 10000 8.11 270 13:50 02.05.2022
1685 Clouds 17 1017 71 10000 7.86 271 12:18 02.05.2022
1686 Clouds 16 1017 74 10000 7.14 275 10:25 02.05.2022
1687 Clouds 16 1016 79 10000 6.64 278 08:46 02.05.2022
1688 Clear 17 1016 82 10000 6.41 281 07:39 02.05.2022
1689 Clear 17 1016 86 10000 4.64 251 02:51 02.05.2022
1690 Clear 22 1018 80 10000 3.76 245 00:24 02.05.2022
1691 Clear 22 1018 80 10000 3.76 245 23:47 01.05.2022
1692 Clear 22 1018 80 10000 3.68 263 22:20 01.05.2022
1693 Clear 24 1018 78 10000 3.88 260 20:58 01.05.2022
1694 Clouds 26 1018 73 10000 3.81 257 19:49 01.05.2022
1695 Clouds 24 1018 67 10000 4.3 263 18:55 01.05.2022
1696 Clouds 25 1018 60 10000 4.11 271 18:18 01.05.2022
1697 Clouds 26 1018 53 10000 3.26 284 16:55 01.05.2022
1698 Clouds 26 1019 49 10000 1.73 291 16:23 01.05.2022
1699 Clouds 26 1019 48 10000 0.36 108 15:23 01.05.2022
1700 Clouds 23 1020 50 10000 0.95 107 13:42 01.05.2022
1701 Clear 18 1021 56 10000 2.3 103 10:50 01.05.2022
1702 Clear 16 1021 62 10000 2.6 81 08:51 01.05.2022
1703 Clear 14 1020 61 10000 3 70 07:42 01.05.2022
1704 Clear 16 1021 78 10000 4.51 62 02:51 01.05.2022
1705 Clear 17 1022 83 10000 4.75 78 22:58 30.04.2022
1706 Clear 18 1022 84 10000 4.83 74 21:35 30.04.2022
1707 Clear 20 1021 81 10000 4.68 79 20:35 30.04.2022
1708 Clear 20 1021 69 10000 6.09 81 19:36 30.04.2022
1709 Clear 19 1021 68 10000 6.9 81 17:40 30.04.2022
1710 Clear 19 1021 69 10000 7.08 78 16:34 30.04.2022
1711 Clear 18 1022 73 10000 7.07 80 15:21 30.04.2022
1712 Clear 18 1022 73 10000 7.07 80 14:33 30.04.2022
1713 Clouds 18 1023 75 10000 7.19 80 12:36 30.04.2022
1714 Clouds 18 1023 75 10000 7.19 80 12:36 30.04.2022
1715 Clouds 17 1023 77 10000 7.82 79 11:32 30.04.2022
1716 Clouds 17 1023 80 10000 7.81 79 10:31 30.04.2022
1717 Clouds 16 1022 86 10000 6.98 75 08:54 30.04.2022
1718 Clear 16 1021 86 10000 6.71 71 05:38 30.04.2022
1719 Clear 16 1024 86 10000 6.35 67 00:35 30.04.2022
1720 Clouds 17 1023 88 10000 6.36 72 23:36 29.04.2022
1721 Clouds 17 1023 88 10000 6.37 72 22:30 29.04.2022
1722 Clear 17 1022 86 10000 6.53 85 21:27 29.04.2022
1723 Clear 18 1022 86 10000 6.53 85 20:38 29.04.2022
1724 Clouds 18 1022 82 10000 7.1 81 19:36 29.04.2022
1725 Clouds 19 1021 76 10000 8.99 88 17:48 29.04.2022
1726 Clouds 18 1021 74 10000 9.43 89 16:43 29.04.2022
1727 Clouds 18 1022 76 10000 8.94 91 14:50 29.04.2022
1728 Clear 19 1022 74 10000 9.41 89 14:19 29.04.2022
1729 Clear 18 1022 73 10000 8.99 84 12:41 29.04.2022
1730 Clear 17 1022 77 10000 9.21 82 10:58 29.04.2022
1731 Clouds 16 1021 86 10000 7.5 83 08:18 29.04.2022
1732 Clouds 16 1020 85 10000 6.91 82 07:27 29.04.2022
1733 Clouds 16 1020 85 10000 6.91 82 06:35 29.04.2022
1734 Clear 16 1020 87 10000 5.03 69 03:28 29.04.2022
1735 Clear 16 1021 84 10000 2.53 87 00:18 29.04.2022
1736 Clear 15 1021 82 10000 1.1 68 23:26 28.04.2022
1737 Clear 16 1021 82 10000 1.1 68 22:37 28.04.2022
1738 Clear 16 1020 81 10000 0.81 330 21:45 28.04.2022
1739 Clear 16 1019 81 10000 2.08 302 20:49 28.04.2022
1740 Clouds 17 1018 80 10000 3.12 318 19:57 28.04.2022
1741 Clouds 17 1018 80 10000 3.12 318 19:39 28.04.2022
1742 Clouds 17 1018 78 10000 2.45 267 19:19 28.04.2022
1743 Rain 16 1018 83 10000 0.18 19 17:56 28.04.2022
1744 Rain 15 1018 76 10000 1.85 318 16:58 28.04.2022
1745 Rain 18 1018 73 10000 3.92 276 16:21 28.04.2022
1746 Clouds 18 1018 73 10000 3.92 276 15:56 28.04.2022
1747 Clouds 19 1018 75 10000 5.04 260 15:21 28.04.2022
1748 Clear 18 1018 67 10000 4.97 252 13:43 28.04.2022
1749 Clear 18 1018 66 10000 4.09 260 12:32 28.04.2022
1750 Clear 17 1018 69 10000 3.66 266 11:50 28.04.2022
1751 Clear 15 1019 78 10000 2.89 244 10:29 28.04.2022
1752 Clear 15 1019 78 10000 2.89 244 09:50 28.04.2022
1753 Clouds 13 1019 86 10000 2.75 243 07:44 28.04.2022
1754 Clouds 11 1018 86 10000 2.68 238 06:53 28.04.2022
1755 Clouds 11 1018 87 10000 2.53 227 05:53 28.04.2022
1756 Clouds 14 1018 87 10000 2.7 226 04:43 28.04.2022
1757 Clouds 15 1018 87 10000 2.06 235 02:45 28.04.2022
1758 Clouds 16 1019 87 10000 1.88 285 23:36 27.04.2022
1759 Clear 17 1018 85 10000 3.19 286 22:25 27.04.2022
1760 Clear 17 1018 85 10000 3.19 286 21:47 27.04.2022
1761 Clear 18 1018 81 10000 4.2 269 20:47 27.04.2022
1762 Clear 19 1017 73 10000 4.42 266 20:29 27.04.2022
1763 Clear 19 1017 74 10000 4.48 270 19:36 27.04.2022
1764 Clear 21 1017 68 10000 5.11 279 18:42 27.04.2022
1765 Clear 21 1016 65 10000 5.67 274 18:21 27.04.2022
1766 Clear 21 1017 69 10000 6.16 273 16:20 27.04.2022
1767 Clouds 19 1017 75 10000 4.28 269 13:21 27.04.2022
1768 Clouds 17 1017 78 10000 3.22 252 11:26 27.04.2022
1769 Clouds 17 1017 78 10000 3.22 252 10:50 27.04.2022
1770 Clouds 14 1016 83 10000 2.32 246 08:28 27.04.2022
1771 Clouds 14 1015 82 10000 2.32 197 06:42 27.04.2022
1772 Clouds 14 1015 83 10000 1.2 11 02:35 27.04.2022
1773 Clouds 15 1016 83 10000 0.9 2 01:23 27.04.2022
1774 Clouds 15 1016 84 10000 0.73 2 00:27 27.04.2022
1775 Clouds 17 1016 85 10000 0.65 11 23:24 26.04.2022
1776 Clouds 17 1016 85 10000 0.65 11 22:45 26.04.2022
1777 Clouds 17 1015 83 10000 2.04 89 22:19 26.04.2022
1778 Clouds 17 1014 81 10000 2.64 80 21:19 26.04.2022
1779 Clouds 18 1014 81 10000 2.64 80 20:37 26.04.2022
1780 Clouds 18 1014 77 10000 1.79 57 19:45 26.04.2022
1781 Clouds 18 1014 71 10000 2.59 67 19:26 26.04.2022
1782 Clouds 19 1014 71 10000 2.59 67 18:39 26.04.2022
1783 Clouds 17 1013 70 10000 3.37 72 17:39 26.04.2022
1784 Clouds 17 1013 69 10000 4.84 82 15:32 26.04.2022
1785 Clouds 18 1014 69 10000 3.13 75 13:40 26.04.2022
1786 Clouds 17 1014 69 10000 3.06 76 12:47 26.04.2022
1787 Clouds 17 1014 77 10000 3.68 73 11:20 26.04.2022
1788 Clouds 16 1013 80 10000 3.59 61 10:30 26.04.2022
1789 Clouds 16 1014 77 10000 3.68 73 10:30 26.04.2022
1790 Clouds 16 1013 84 10000 3 65 08:32 26.04.2022
1791 Clouds 16 1012 84 10000 3.21 56 04:39 26.04.2022
1792 Clouds 15 1012 82 10000 2.98 57 03:59 26.04.2022
1793 Clouds 16 1013 80 10000 1.91 39 00:46 26.04.2022
1794 Clouds 16 1013 80 10000 1.88 29 23:48 25.04.2022
1795 Clouds 17 1012 80 10000 1.62 8 21:49 25.04.2022
1796 Clouds 17 1012 76 10000 1.06 24 21:23 25.04.2022
1797 Clouds 18 1011 72 10000 0.24 311 19:39 25.04.2022
1798 Clouds 19 1011 69 10000 0.72 191 18:25 25.04.2022
1799 Clouds 19 1011 69 10000 0.72 191 17:39 25.04.2022
1800 Clouds 18 1011 69 10000 0.51 244 16:30 25.04.2022
1801 Clouds 18 1012 69 10000 1.56 270 15:19 25.04.2022
1802 Clear 17 1013 69 10000 2.33 251 14:22 25.04.2022
1803 Clear 17 1013 70 10000 1.93 238 12:40 25.04.2022
1804 Clear 14 1013 76 10000 2.02 259 10:29 25.04.2022
1805 Clear 13 1013 76 10000 2.02 259 09:36 25.04.2022
1806 Clouds 13 1012 82 10000 2.25 268 07:34 25.04.2022
1807 Clouds 11 1012 82 10000 2.39 265 05:53 25.04.2022
1808 Clouds 16 1014 76 10000 2.72 284 01:24 25.04.2022
1809 Clouds 15 1014 75 10000 2.67 286 23:54 24.04.2022
1810 Clouds 17 1014 76 10000 2.89 290 23:20 24.04.2022
1811 Clouds 17 1014 76 10000 2.89 290 22:37 24.04.2022
1812 Clouds 15 1014 76 10000 2.73 288 21:54 24.04.2022
1813 Clouds 19 1013 76 10000 3.14 291 21:20 24.04.2022
1814 Clouds 20 1013 76 10000 3.14 291 20:39 24.04.2022
1815 Clouds 20 1013 74 10000 3.83 286 19:51 24.04.2022
1816 Clouds 19 1013 68 10000 4.26 269 18:28 24.04.2022
1817 Clouds 20 1013 68 10000 4.26 269 17:40 24.04.2022
1818 Clouds 19 1013 68 10000 4.57 265 17:19 24.04.2022
1819 Clouds 20 1013 68 10000 4.57 265 16:48 24.04.2022
1820 Clouds 21 1013 68 10000 4.3 258 16:20 24.04.2022
1821 Clouds 20 1013 68 10000 4.3 258 15:31 24.04.2022
1822 Clouds 19 1014 71 10000 3.53 267 14:19 24.04.2022
1823 Clouds 18 1015 74 10000 3.41 275 13:26 24.04.2022
1824 Clouds 18 1015 74 10000 3.41 275 13:26 24.04.2022
1825 Clouds 18 1015 74 10000 3.41 275 12:35 24.04.2022
1826 Clouds 17 1015 76 10000 3.41 261 11:34 24.04.2022
1827 Clouds 15 1015 79 10000 2.91 251 10:30 24.04.2022
1828 Clouds 14 1014 85 10000 1.93 251 09:29 24.04.2022
1829 Clouds 14 1014 85 10000 2.36 275 06:46 24.04.2022
1830 Clouds 14 1014 87 10000 4.32 260 03:57 24.04.2022
1831 Clouds 15 1015 86 10000 5.67 249 01:38 24.04.2022
1832 Clouds 15 1015 86 10000 5.69 249 01:38 24.04.2022
1833 Clouds 15 1015 84 10000 6.66 251 00:29 24.04.2022
1834 Clouds 15 1015 84 10000 6.66 251 23:45 23.04.2022
1835 Clouds 15 1015 82 10000 7.32 252 23:22 23.04.2022
1836 Clear 17 1014 81 10000 8.21 252 21:53 23.04.2022
1837 Clear 17 1014 81 10000 8.21 252 21:34 23.04.2022
1838 Clear 17 1013 79 10000 8.87 253 20:51 23.04.2022
1839 Clouds 17 1013 79 10000 9.33 257 19:47 23.04.2022
1840 Clouds 18 1012 76 10000 9.84 257 19:19 23.04.2022
1841 Clouds 18 1012 76 10000 9.84 257 18:52 23.04.2022
1842 Clouds 19 1012 73 10000 10.22 257 17:51 23.04.2022
1843 Clear 18 1012 71 10000 10.49 257 17:26 23.04.2022
1844 Clear 19 1012 71 10000 10.49 257 16:41 23.04.2022
1845 Clear 19 1012 67 10000 10 256 15:20 23.04.2022
1846 Clear 18 1012 64 10000 9.09 260 12:44 23.04.2022
1847 Clear 16 1011 67 10000 9.66 272 10:43 23.04.2022
1848 Clear 14 1010 68 10000 10.25 275 09:30 23.04.2022
1849 Clouds 15 1008 72 10000 11.71 273 06:31 23.04.2022
1850 Clouds 13 1006 81 10000 13.19 272 03:54 23.04.2022
1851 Clouds 15 1005 88 9701 13.01 253 00:57 23.04.2022
1852 Clouds 14 1005 87 10000 13.63 242 23:29 22.04.2022
1853 Clouds 15 1005 86 10000 14.13 238 22:20 22.04.2022
1854 Clouds 16 1005 86 10000 14.13 238 21:42 22.04.2022
1855 Clouds 15 1004 84 10000 14.21 236 20:46 22.04.2022
1856 Clouds 15 1004 84 10000 13.89 237 20:26 22.04.2022
1857 Clouds 17 1004 78 10000 13.01 237 19:18 22.04.2022
1858 Clouds 17 1004 78 10000 13.01 237 18:36 22.04.2022
1859 Clouds 17 1004 73 10000 13.19 234 17:39 22.04.2022
1860 Clouds 17 1004 73 10000 12.33 233 16:33 22.04.2022
1861 Clouds 17 1005 74 10000 11.79 234 15:32 22.04.2022
1862 Clouds 17 1006 78 10000 10.98 223 14:44 22.04.2022
1863 Clouds 17 1007 78 10000 11.25 219 13:43 22.04.2022
1864 Clouds 16 1007 74 10000 11.04 221 12:57 22.04.2022
1865 Clouds 16 1007 74 10000 11.08 217 11:43 22.04.2022
1866 Clouds 16 1007 76 10000 10.3 217 11:20 22.04.2022
1867 Clouds 15 1007 76 10000 10.3 217 10:47 22.04.2022
1868 Clouds 14 1007 77 10000 9.24 217 10:27 22.04.2022
1869 Clouds 14 1007 77 10000 9.24 217 09:42 22.04.2022
1870 Clouds 14 1007 79 10000 8.54 218 08:49 22.04.2022
1871 Clouds 13 1008 80 10000 7.63 224 06:56 22.04.2022
1872 Clouds 15 1010 81 10000 7.58 224 01:49 22.04.2022
1873 Clouds 16 1012 79 10000 7.4 238 23:53 21.04.2022
1874 Clouds 16 1012 78 10000 7.6 244 22:59 21.04.2022
1875 Clouds 16 1012 77 10000 7.76 251 21:56 21.04.2022
1876 Clouds 16 1012 77 10000 7.73 258 20:34 21.04.2022
1877 Clouds 17 1012 75 10000 7.73 267 19:51 21.04.2022
1878 Clouds 17 1012 66 10000 8.24 262 18:34 21.04.2022
1879 Clear 17 1012 63 10000 8.51 263 17:47 21.04.2022
1880 Clear 17 1013 64 10000 9.02 267 16:24 21.04.2022
1881 Clear 17 1013 65 10000 8.99 267 15:19 21.04.2022
1882 Clouds 17 1013 65 10000 9.2 269 14:38 21.04.2022
1883 Clouds 16 1014 68 10000 8.31 266 13:23 21.04.2022
1884 Clouds 16 1014 68 10000 8.31 266 12:36 21.04.2022
1885 Clouds 14 1014 75 10000 6.06 277 10:20 21.04.2022
1886 Clouds 14 1014 78 10000 5.63 283 08:53 21.04.2022
1887 Clear 14 1013 80 10000 5.57 286 06:55 21.04.2022
1888 Clear 15 1013 71 10000 4.71 285 04:34 21.04.2022
1889 Clear 15 1013 70 10000 4.24 313 03:24 21.04.2022
1890 Clear 15 1013 70 10000 4.24 313 02:46 21.04.2022
1891 Clouds 16 1013 70 10000 5.77 304 00:43 21.04.2022
1892 Clouds 16 1013 69 10000 5.28 286 23:48 20.04.2022
1893 Clouds 16 1013 68 10000 5.62 278 23:21 20.04.2022
1894 Clouds 17 1013 68 10000 5.62 278 22:45 20.04.2022
1895 Clouds 17 1012 68 10000 7.32 272 22:18 20.04.2022
1896 Clouds 17 1012 66 10000 8.33 267 21:23 20.04.2022
1897 Clouds 17 1011 63 10000 8.79 263 20:22 20.04.2022
1898 Clouds 18 1011 63 10000 8.77 263 19:47 20.04.2022
1899 Clouds 18 1011 60 10000 9.22 267 18:52 20.04.2022
1900 Clouds 17 1011 57 10000 9.03 275 17:53 20.04.2022
1901 Clouds 16 1011 54 10000 9.71 279 16:39 20.04.2022
1902 Clouds 16 1012 52 10000 10.6 280 15:39 20.04.2022
1903 Clouds 15 1013 59 10000 11.41 288 12:47 20.04.2022
1904 Clouds 14 1013 58 10000 11.42 293 11:42 20.04.2022
1905 Clouds 13 1013 60 10000 11.51 293 10:51 20.04.2022
1906 Clouds 12 1013 64 10000 9.75 300 09:34 20.04.2022
1907 Clouds 14 1013 66 10000 9.61 302 08:51 20.04.2022
1908 Clouds 13 1012 69 10000 9.33 299 08:19 20.04.2022
1909 Clouds 13 1012 74 10000 8.95 299 06:26 20.04.2022
1910 Clouds 15 1012 74 10000 7.48 306 02:58 20.04.2022
1911 Clouds 17 1013 74 10000 7.95 244 00:22 20.04.2022
1912 Clear 17 1013 78 10000 9.88 235 23:19 19.04.2022
1913 Clear 16 1013 77 10000 9.82 239 22:24 19.04.2022
1914 Clear 15 1013 77 10000 9.82 239 21:55 19.04.2022
1915 Clear 16 1013 73 10000 9.77 246 20:59 19.04.2022
1916 Clear 17 1013 73 10000 9.8 246 20:37 19.04.2022
1917 Clear 17 1012 70 10000 9.34 248 19:41 19.04.2022
1918 Clear 17 1012 70 10000 8.72 253 18:31 19.04.2022
1919 Clear 17 1013 70 10000 9.87 269 17:24 19.04.2022
1920 Clear 17 1013 70 10000 9.87 269 16:42 19.04.2022
1921 Clear 17 1013 70 10000 9.87 269 16:42 19.04.2022
1922 Clouds 17 1014 69 10000 9.71 270 16:20 19.04.2022
1923 Clouds 18 1014 69 10000 9.2 271 14:46 19.04.2022
1924 Clouds 18 1014 69 10000 9.18 271 14:46 19.04.2022
1925 Clouds 17 1015 72 10000 8.44 271 12:58 19.04.2022
1926 Clouds 17 1015 72 10000 8.46 271 12:36 19.04.2022
1927 Clouds 16 1016 73 10000 7.87 274 11:38 19.04.2022
1928 Clouds 17 1015 77 10000 7.01 285 09:52 19.04.2022
1929 Clouds 17 1014 80 10000 6.86 281 08:22 19.04.2022
1930 Clouds 18 1014 94 10000 5.84 239 04:26 19.04.2022
1931 Clouds 17 1014 93 10000 5.45 246 02:41 19.04.2022
1932 Clouds 19 1015 88 10000 4.08 247 00:23 19.04.2022
1933 Clouds 17 1015 84 10000 3.73 254 22:54 18.04.2022
1934 Clouds 21 1014 78 10000 3.24 263 21:28 18.04.2022
1935 Clouds 21 1014 78 10000 3.24 263 20:40 18.04.2022
1936 Clouds 21 1014 76 10000 2.59 257 20:22 18.04.2022
1937 Clouds 21 1013 77 10000 2.45 256 19:40 18.04.2022
1938 Clouds 23 1013 74 10000 1.44 239 18:52 18.04.2022
1939 Clouds 20 1013 72 10000 0.61 179 17:49 18.04.2022
1940 Clouds 20 1013 72 10000 0.61 179 17:49 18.04.2022
1941 Clouds 20 1013 72 10000 0.61 179 17:49 18.04.2022
1942 Clouds 19 1014 72 10000 1.2 96 17:20 18.04.2022
1943 Clouds 20 1014 72 10000 1.2 96 16:40 18.04.2022
1944 Clouds 20 1014 73 10000 2.45 82 15:41 18.04.2022
1945 Clouds 20 1015 74 10000 3.6 80 14:28 18.04.2022
1946 Clouds 19 1016 73 10000 3.23 83 13:25 18.04.2022
1947 Clouds 19 1016 75 10000 3.31 80 12:27 18.04.2022
1948 Clouds 20 1016 76 10000 3.15 77 10:59 18.04.2022
1949 Clouds 20 1015 79 10000 3.39 70 10:18 18.04.2022
1950 Clouds 18 1015 84 10000 3.79 64 09:30 18.04.2022
1951 Clouds 18 1014 84 10000 3.03 63 07:29 18.04.2022
1952 Clouds 18 1014 74 10000 0.21 307 03:51 18.04.2022
1953 Clouds 24 1016 71 10000 2.59 262 23:30 17.04.2022
1954 Clouds 25 1016 74 10000 2.48 265 22:37 17.04.2022
1955 Clouds 26 1016 76 10000 2.49 251 21:34 17.04.2022
1956 Clouds 26 1015 80 10000 2.57 253 20:53 17.04.2022
1957 Clouds 25 1015 81 10000 3.04 256 20:25 17.04.2022
1958 Clouds 26 1015 78 10000 3.42 258 19:20 17.04.2022
1959 Clouds 28 1015 72 10000 3.53 262 17:34 17.04.2022
1960 Clouds 28 1015 63 10000 3.26 251 15:37 17.04.2022
1961 Clouds 27 1016 55 10000 2.51 246 14:53 17.04.2022
1962 Clouds 27 1016 51 10000 2.21 257 13:41 17.04.2022
1963 Clouds 27 1017 52 10000 1.43 269 12:52 17.04.2022
1964 Clear 19 1017 60 10000 0.11 96 10:59 17.04.2022
1965 Clear 17 1017 60 10000 0.11 96 10:30 17.04.2022
1966 Clear 16 1017 62 10000 0.89 87 09:57 17.04.2022
1967 Clear 15 1017 63 10000 1.11 89 09:21 17.04.2022
1968 Clear 15 1017 63 10000 1.11 89 08:41 17.04.2022
1969 Clear 15 1016 59 10000 1.42 51 06:32 17.04.2022
1970 Clear 16 1018 58 10000 2.64 50 02:31 17.04.2022
1971 Clear 18 1019 58 10000 2.4 66 00:42 17.04.2022
1972 Clear 18 1019 59 10000 2.71 78 23:41 16.04.2022
1973 Clear 20 1019 62 10000 3.5 73 21:54 16.04.2022
1974 Clear 21 1019 64 10000 3.64 73 21:19 16.04.2022
1975 Clear 21 1019 64 10000 3.68 76 19:30 16.04.2022
1976 Clear 20 1018 58 10000 3.99 81 18:44 16.04.2022
1977 Clear 20 1019 54 10000 4.33 79 17:21 16.04.2022
1978 Clear 21 1020 54 10000 4.66 81 16:19 16.04.2022
1979 Clear 21 1020 55 10000 4.29 79 14:59 16.04.2022
1980 Clear 21 1020 55 10000 4.29 79 14:41 16.04.2022
1981 Clear 22 1021 56 10000 4.23 80 13:50 16.04.2022
1982 Clear 22 1021 58 10000 3.87 79 13:18 16.04.2022
1983 Clear 19 1021 59 10000 3.95 78 11:50 16.04.2022
1984 Clear 17 1021 62 10000 3.92 71 10:35 16.04.2022
1985 Clear 15 1021 66 10000 3.87 64 09:37 16.04.2022
1986 Clear 14 1020 71 10000 3.83 65 08:52 16.04.2022
1987 Clear 14 1020 72 10000 3.83 66 07:22 16.04.2022
1988 Clear 15 1020 74 10000 3.94 65 05:38 16.04.2022
1989 Clouds 17 1021 79 10000 4.45 67 01:49 16.04.2022
1990 Clear 19 1022 82 10000 4.74 63 23:52 15.04.2022
1991 Clear 17 1022 82 10000 4.51 65 22:51 15.04.2022
1992 Clear 17 1021 82 10000 4.19 72 22:29 15.04.2022
1993 Clear 17 1021 82 10000 4.24 78 21:25 15.04.2022
1994 Clear 18 1021 82 10000 4.24 78 20:38 15.04.2022
1995 Clear 19 1020 78 10000 4.48 84 19:45 15.04.2022
1996 Clear 19 1020 74 10000 5.26 80 18:59 15.04.2022
1997 Clear 19 1020 74 10000 5.26 80 18:41 15.04.2022
1998 Clear 19 1019 72 10000 5.38 81 18:21 15.04.2022
1999 Clear 18 1019 70 10000 5.13 82 17:26 15.04.2022
2000 Clear 18 1020 69 10000 5.06 86 16:25 15.04.2022
2001 Clear 18 1020 69 10000 5.06 86 15:46 15.04.2022
2002 Clear 18 1020 70 10000 4.19 87 14:18 15.04.2022
2003 Clear 18 1020 70 10000 3.02 88 12:52 15.04.2022
2004 Clear 19 1020 71 10000 1.99 93 12:26 15.04.2022
2005 Clear 19 1020 71 10000 1.99 93 11:51 15.04.2022
2006 Clear 16 1019 74 10000 1.63 101 10:46 15.04.2022
2007 Clear 15 1019 77 10000 1.36 93 10:20 15.04.2022
2008 Clear 15 1019 81 10000 1.43 79 09:22 15.04.2022
2009 Clear 14 1019 81 10000 1.43 79 08:40 15.04.2022
2010 Clear 12 1018 86 10000 1.92 49 06:50 15.04.2022
2011 Clear 15 1018 87 10000 2.81 58 04:49 15.04.2022
2012 Clouds 17 1019 85 10000 0.38 225 00:46 15.04.2022
2013 Clouds 17 1019 83 10000 2 259 23:26 14.04.2022
2014 Clouds 17 1019 83 10000 2.02 259 22:46 14.04.2022
2015 Clouds 17 1018 83 10000 2.72 252 22:27 14.04.2022
2016 Clouds 17 1018 83 10000 2.72 252 21:50 14.04.2022
2017 Clouds 19 1016 80 10000 1.38 209 19:41 14.04.2022
2018 Clouds 19 1016 78 10000 1.81 234 19:20 14.04.2022
2019 Clouds 21 1015 77 10000 2.93 234 17:45 14.04.2022
2020 Clouds 20 1015 75 10000 3.57 242 16:51 14.04.2022
2021 Clouds 20 1016 75 10000 4.47 242 15:52 14.04.2022
2022 Clear 22 1017 77 10000 5.35 262 13:54 14.04.2022
2023 Clear 21 1017 78 10000 5.64 261 13:21 14.04.2022
2024 Clear 20 1017 78 10000 5.64 261 12:32 14.04.2022
2025 Clear 19 1017 80 10000 6.57 259 11:47 14.04.2022
2026 Clouds 19 1016 82 10000 6.65 254 11:18 14.04.2022
2027 Clouds 17 1016 82 10000 6.65 254 10:31 14.04.2022
2028 Clouds 16 1016 85 10000 5.93 250 09:30 14.04.2022
2029 Clouds 15 1015 90 10000 5.38 243 08:24 14.04.2022
2030 Clouds 14 1014 91 10000 4.89 239 05:57 14.04.2022
2031 Clear 17 1016 87 10000 4.33 240 00:59 14.04.2022
2032 Clear 18 1016 84 10000 4.25 253 22:38 13.04.2022
2033 Clear 18 1016 84 10000 4.25 253 22:38 13.04.2022
2034 Clear 18 1016 83 10000 4.2 258 21:43 13.04.2022
2035 Clear 19 1015 81 10000 4.73 260 20:45 13.04.2022
2036 Clear 21 1014 77 10000 5.4 259 19:54 13.04.2022
2037 Clear 21 1013 72 10000 5.95 266 18:39 13.04.2022
2038 Clear 20 1013 69 10000 6.4 270 17:41 13.04.2022
2039 Clear 20 1013 69 10000 6.77 271 17:23 13.04.2022
2040 Clear 20 1014 68 10000 7.48 275 16:18 13.04.2022
2041 Clear 19 1014 68 10000 7.19 274 15:29 13.04.2022
2042 Clear 19 1014 68 10000 7.21 274 14:40 13.04.2022
2043 Clear 19 1014 68 10000 6.63 272 13:43 13.04.2022
2044 Clear 17 1015 69 10000 5.54 278 12:52 13.04.2022
2045 Clear 17 1015 71 10000 5.13 278 11:58 13.04.2022
2046 Clear 16 1015 74 10000 4.77 278 10:34 13.04.2022
2047 Clear 14 1014 82 10000 3.83 276 08:49 13.04.2022
2048 Clear 14 1013 83 10000 3.65 274 08:23 13.04.2022
2049 Clouds 14 1013 84 10000 3.66 267 06:49 13.04.2022
2050 Clouds 14 1012 84 10000 3.51 254 06:24 13.04.2022
2051 Clouds 15 1013 84 10000 3.56 262 02:24 13.04.2022
2052 Clouds 17 1014 85 10000 4.53 264 00:20 13.04.2022
2053 Clouds 17 1013 85 10000 4.78 260 22:34 12.04.2022
2054 Clouds 17 1013 85 10000 5.33 256 21:54 12.04.2022
2055 Clouds 17 1012 85 10000 5.28 258 20:48 12.04.2022
2056 Clouds 18 1012 82 10000 5.91 260 20:22 12.04.2022
2057 Clouds 18 1012 81 10000 5.83 264 19:40 12.04.2022
2058 Clouds 18 1011 77 10000 6.49 264 18:56 12.04.2022
2059 Clouds 19 1011 73 10000 6.87 260 17:39 12.04.2022
2060 Clouds 19 1011 70 10000 6.97 262 16:47 12.04.2022
2061 Clouds 18 1012 69 10000 7.47 260 15:34 12.04.2022
2062 Clouds 17 1012 71 10000 7.25 247 14:53 12.04.2022
2063 Clouds 18 1012 72 10000 7.39 239 13:50 12.04.2022
2064 Clouds 16 1012 75 10000 7.49 237 13:25 12.04.2022
2065 Clouds 17 1012 77 10000 7.29 237 12:18 12.04.2022
2066 Clouds 16 1012 77 10000 7.29 237 11:35 12.04.2022
2067 Clouds 15 1012 84 10000 5 229 09:47 12.04.2022
2068 Clouds 15 1012 85 10000 4.38 234 08:49 12.04.2022
2069 Clouds 16 1011 86 10000 4.45 244 06:47 12.04.2022
2070 Clouds 16 1011 86 10000 4.25 246 05:41 12.04.2022
2071 Clouds 17 1011 86 10000 4.97 253 02:37 12.04.2022
2072 Clouds 17 1011 83 10000 5.34 254 23:24 11.04.2022
2073 Clouds 18 1011 83 10000 5.34 254 22:32 11.04.2022
2074 Clouds 18 1009 86 10000 6.64 242 21:22 11.04.2022
2075 Clouds 18 1009 86 10000 6.64 242 20:35 11.04.2022
2076 Clouds 18 1009 83 10000 6.13 250 19:59 11.04.2022
2077 Clouds 17 1008 80 10000 5.47 244 19:27 11.04.2022
2078 Clouds 17 1008 80 10000 5.47 244 18:54 11.04.2022
2079 Clouds 18 1009 79 10000 3.61 233 17:58 11.04.2022
2080 Clouds 18 1009 79 10000 3.61 233 17:39 11.04.2022
2081 Clouds 18 1009 80 10000 2 218 16:33 11.04.2022
2082 Clouds 17 1010 79 10000 1.09 88 14:49 11.04.2022
2083 Clouds 17 1010 79 10000 3.45 73 13:36 11.04.2022
2084 Clouds 17 1011 80 10000 3.36 85 12:39 11.04.2022
2085 Clouds 17 1011 82 10000 3.08 92 12:20 11.04.2022
2086 Clouds 16 1011 84 10000 2.85 91 10:37 11.04.2022
2087 Clouds 16 1010 86 10000 3.52 93 09:49 11.04.2022
2088 Clouds 14 1010 88 10000 3.94 90 07:58 11.04.2022
2089 Clouds 16 1010 89 10000 5.13 84 04:18 11.04.2022
2090 Clouds 17 1012 91 10000 6.86 79 23:27 10.04.2022
2091 Clouds 17 1011 91 10000 7.05 79 22:26 10.04.2022
2092 Clouds 17 1011 91 10000 7.05 79 21:49 10.04.2022
2093 Clouds 17 1011 89 10000 7.48 78 20:50 10.04.2022
2094 Clouds 17 1011 89 10000 7.48 78 20:50 10.04.2022
2095 Clouds 18 1011 86 10000 7.53 80 19:54 10.04.2022
2096 Clouds 18 1011 86 10000 7.53 80 19:33 10.04.2022
2097 Clouds 18 1011 82 10000 7.98 83 18:46 10.04.2022
2098 Clouds 18 1011 77 10000 8.29 84 18:20 10.04.2022
2099 Clouds 18 1011 77 10000 8.29 84 17:41 10.04.2022
2100 Clouds 18 1011 74 10000 8.55 82 16:47 10.04.2022
2101 Clouds 18 1012 74 10000 8.73 81 15:37 10.04.2022
2102 Clouds 18 1012 73 10000 8.87 79 14:37 10.04.2022
2103 Clouds 17 1013 74 10000 8.22 77 12:50 10.04.2022
2104 Clouds 17 1014 76 10000 8.27 78 12:26 10.04.2022
2105 Clouds 16 1013 79 10000 8.13 79 11:29 10.04.2022
2106 Clouds 15 1013 79 10000 8.13 79 10:57 10.04.2022
2107 Clouds 15 1013 85 10000 7.15 78 10:20 10.04.2022
2108 Clouds 16 1013 85 10000 7.15 78 09:39 10.04.2022
2109 Clouds 15 1013 89 10000 5.75 77 08:24 10.04.2022
2110 Clouds 15 1013 88 10000 5.92 78 07:42 10.04.2022
2111 Clouds 11 1014 85 10000 4.95 80 05:57 10.04.2022
2112 Clouds 16 1015 85 10000 2.4 78 02:37 10.04.2022
2113 Clouds 18 1016 85 10000 0.6 123 00:34 10.04.2022
2114 Clouds 18 1017 86 10000 0.57 229 23:49 09.04.2022
2115 Clouds 14 1017 87 10000 1.37 274 22:50 09.04.2022
2116 Clouds 19 1017 87 10000 2.36 275 21:46 09.04.2022
2117 Clouds 16 1016 86 10000 2.68 263 20:50 09.04.2022
2118 Clouds 20 1016 83 10000 3.47 262 20:26 09.04.2022
2119 Clouds 20 1016 83 10000 3.07 263 19:42 09.04.2022
2120 Clouds 20 1016 78 10000 3.89 267 19:18 09.04.2022
2121 Clouds 22 1016 76 10000 3.69 257 18:21 09.04.2022
2122 Clouds 20 1016 76 10000 3.69 257 17:39 09.04.2022
2123 Clouds 21 1017 76 10000 4.13 259 16:52 09.04.2022
2124 Clear 21 1018 76 10000 4.48 255 15:55 09.04.2022
2125 Clear 20 1018 75 10000 4.88 253 15:30 09.04.2022
2126 Clear 20 1018 75 10000 4.9 253 14:44 09.04.2022
2127 Clear 20 1019 73 10000 4.62 255 14:23 09.04.2022
2128 Clear 20 1020 72 10000 4.02 262 13:18 09.04.2022
2129 Clear 19 1020 72 10000 4.02 262 12:41 09.04.2022
2130 Clear 18 1020 76 10000 4.64 271 11:22 09.04.2022
2131 Clear 16 1020 79 10000 4.27 271 10:21 09.04.2022
2132 Clear 15 1020 79 10000 4.27 271 09:38 09.04.2022
2133 Clear 12 1020 82 10000 3.75 275 08:53 09.04.2022
2134 Clouds 14 1019 85 10000 3.89 276 07:21 09.04.2022
2135 Clouds 14 1021 88 10000 3.96 271 02:20 09.04.2022
2136 Clouds 16 1022 85 10000 4 276 23:45 08.04.2022
2137 Clouds 17 1022 82 10000 4.71 279 21:58 08.04.2022
2138 Clouds 17 1021 81 10000 5.17 279 21:29 08.04.2022
2139 Clouds 18 1021 81 10000 5.17 279 20:38 08.04.2022
2140 Clouds 20 1021 73 10000 5.87 275 19:20 08.04.2022
2141 Clouds 20 1021 70 10000 5.96 272 18:29 08.04.2022
2142 Clouds 20 1021 70 10000 5.96 272 17:46 08.04.2022
2143 Clouds 22 1021 68 10000 6.19 273 17:22 08.04.2022
2144 Clouds 22 1021 68 10000 6.19 273 16:47 08.04.2022
2145 Clouds 21 1021 68 10000 6.36 275 15:57 08.04.2022
2146 Clouds 20 1022 67 10000 6.07 272 15:26 08.04.2022
2147 Clouds 20 1022 68 10000 5.87 273 14:26 08.04.2022
2148 Clouds 19 1022 68 10000 5.95 273 13:45 08.04.2022
2149 Clouds 19 1023 70 10000 5.78 270 13:27 08.04.2022
2150 Clear 18 1023 71 10000 5.38 270 11:54 08.04.2022
2151 Clear 16 1023 74 10000 5.27 270 10:33 08.04.2022
2152 Clear 14 1023 76 10000 4.62 265 09:37 08.04.2022
2153 Clear 14 1022 81 10000 4.5 271 08:34 08.04.2022
2154 Clear 10 1021 87 10000 3.99 254 06:54 08.04.2022
2155 Clear 10 1022 87 10000 3.67 266 04:58 08.04.2022
2156 Clear 15 1023 79 10000 2.97 286 01:26 08.04.2022
2157 Clear 16 1023 77 10000 3.02 281 00:22 08.04.2022
2158 Clear 14 1023 77 10000 3.13 279 22:59 07.04.2022
2159 Clear 17 1023 77 10000 3.13 280 22:39 07.04.2022
2160 Clear 17 1023 79 10000 3.37 275 22:20 07.04.2022
2161 Clear 18 1023 79 10000 3.37 275 21:49 07.04.2022
2162 Clear 19 1022 80 10000 3.73 275 20:58 07.04.2022
2163 Clear 19 1022 80 10000 3.73 275 20:30 07.04.2022
2164 Clear 22 1021 71 10000 4.73 269 18:29 07.04.2022
2165 Clear 20 1021 70 10000 4.65 262 17:25 07.04.2022
2166 Clear 20 1021 70 10000 4.64 263 16:44 07.04.2022
2167 Clear 19 1022 70 10000 4.41 258 16:21 07.04.2022
2168 Clear 19 1023 70 10000 4.15 258 14:42 07.04.2022
2169 Clear 19 1023 70 10000 4.23 270 13:42 07.04.2022
2170 Clear 18 1024 71 10000 4.17 269 12:41 07.04.2022
2171 Clear 16 1024 75 10000 3.37 259 11:29 07.04.2022
2172 Clear 14 1023 79 10000 2.99 258 09:37 07.04.2022
2173 Clear 13 1023 83 10000 2.73 258 08:37 07.04.2022
2174 Clear 14 1022 83 10000 2.83 271 06:42 07.04.2022
2175 Clear 14 1022 83 10000 3.46 267 02:47 07.04.2022
2176 Clear 14 1023 83 10000 3.61 263 02:18 07.04.2022
2177 Clouds 12 1023 83 10000 4.13 263 23:57 06.04.2022
2178 Clouds 15 1023 83 10000 4.1 266 22:48 06.04.2022
2179 Clear 15 1022 83 10000 4 270 22:25 06.04.2022
2180 Clear 16 1022 83 10000 4 270 21:32 06.04.2022
2181 Clear 17 1020 80 10000 4.43 274 20:28 06.04.2022
2182 Clear 17 1020 80 10000 4.43 274 19:53 06.04.2022
2183 Clouds 18 1019 77 10000 5.76 279 18:51 06.04.2022
2184 Clouds 18 1018 75 10000 5.62 278 17:57 06.04.2022
2185 Clouds 18 1018 75 10000 5.62 278 17:35 06.04.2022
2186 Clear 18 1018 74 10000 5.6 278 16:36 06.04.2022
2187 Clouds 18 1019 72 10000 5.8 279 15:48 06.04.2022
2188 Clouds 18 1019 70 10000 5.57 275 14:35 06.04.2022
2189 Clouds 16 1019 70 10000 5.18 274 12:58 06.04.2022
2190 Clouds 16 1019 71 10000 5.15 274 11:55 06.04.2022
2191 Clouds 14 1018 75 10000 5.02 271 10:45 06.04.2022
2192 Clouds 13 1017 79 10000 5.18 269 10:20 06.04.2022
2193 Clouds 13 1017 79 10000 5.18 269 09:40 06.04.2022
2194 Clouds 13 1016 82 10000 5.01 268 08:32 06.04.2022
2195 Clouds 13 1015 86 10000 2.89 252 07:47 06.04.2022
2196 Rain 14 1009 91 4531 8.99 62 03:37 06.04.2022
2197 Clouds 14 1011 83 10000 7.72 94 23:51 05.04.2022
2198 Clouds 14 1011 83 10000 7.05 94 22:30 05.04.2022
2199 Clouds 14 1010 79 10000 6.09 97 21:19 05.04.2022
2200 Clouds 15 1010 76 10000 5.23 99 20:25 05.04.2022
2201 Rain 14 1010 74 10000 2.5 93 19:41 05.04.2022
2202 Clouds 15 1010 72 10000 3.39 171 17:55 05.04.2022
2203 Clouds 14 1009 66 10000 3.37 140 16:54 05.04.2022
2204 Clouds 15 1010 63 10000 4.79 158 15:53 05.04.2022
2205 Clouds 15 1010 63 10000 4.79 158 15:33 05.04.2022
2206 Clouds 15 1010 62 10000 5.02 194 14:27 05.04.2022
2207 Clouds 14 1011 63 10000 3.07 165 12:56 05.04.2022
2208 Clouds 14 1011 64 10000 3.12 172 11:50 05.04.2022
2209 Clouds 13 1011 64 10000 3.12 172 11:32 05.04.2022
2210 Clouds 12 1010 73 10000 3.18 138 09:52 05.04.2022
2211 Clouds 12 1009 74 10000 3.85 152 08:52 05.04.2022
2212 Clouds 13 1008 89 3846 6.88 118 06:58 05.04.2022
2213 Clouds 12 1009 89 9281 11.61 104 01:51 05.04.2022
2214 Clouds 12 1008 85 10000 14.09 100 22:42 04.04.2022
2215 Clouds 12 1007 82 10000 15.08 97 22:22 04.04.2022
2216 Rain 12 1006 82 10000 15.97 102 21:21 04.04.2022
2217 Rain 12 1006 82 10000 15.94 102 21:21 04.04.2022
2218 Clouds 13 1006 82 10000 15.97 102 20:49 04.04.2022
2219 Rain 13 1006 87 6284 15.11 99 19:45 04.04.2022
2220 Rain 13 1005 86 8099 15.47 92 19:25 04.04.2022
2221 Rain 13 1004 85 10000 16.16 86 18:20 04.04.2022
2222 Rain 13 1004 84 10000 15.92 85 16:36 04.04.2022
2223 Rain 13 1005 82 10000 15.44 83 15:43 04.04.2022
2224 Rain 13 1005 84 10000 15.71 85 15:25 04.04.2022
2225 Rain 13 1005 84 10000 15.71 85 14:46 04.04.2022
2226 Rain 13 1005 86 10000 16.61 92 13:22 04.04.2022
2227 Rain 13 1005 79 10000 16.72 92 11:55 04.04.2022
2228 Rain 13 1005 78 10000 16.91 91 11:28 04.04.2022
2229 Clouds 14 1004 77 10000 16.86 92 08:36 04.04.2022
2230 Clouds 13 1006 73 10000 16.13 95 03:52 04.04.2022
2231 Clouds 14 1008 72 10000 15.33 97 00:41 04.04.2022
2232 Clouds 14 1008 71 10000 14.47 95 22:36 03.04.2022
2233 Clouds 14 1008 70 10000 14.1 96 21:44 03.04.2022
2234 Clouds 14 1007 69 10000 14.32 94 20:54 03.04.2022
2235 Clouds 15 1007 68 10000 14.02 93 19:49 03.04.2022
2236 Clouds 15 1007 68 10000 14.26 92 18:32 03.04.2022
2237 Clouds 15 1007 67 10000 14.19 93 17:47 03.04.2022
2238 Clouds 15 1008 66 10000 14.36 94 16:57 03.04.2022
2239 Clouds 15 1008 66 10000 14.36 94 16:39 03.04.2022
2240 Clouds 16 1008 65 10000 14.21 92 14:39 03.04.2022
2241 Clouds 15 1009 64 10000 14.41 92 13:51 03.04.2022
2242 Clouds 15 1009 63 10000 14.03 94 12:41 03.04.2022
2243 Clouds 15 1010 62 10000 14.07 92 10:58 03.04.2022
2244 Clouds 15 1009 63 10000 13.78 93 09:36 03.04.2022
2245 Clouds 14 1009 62 10000 13.1 90 08:27 03.04.2022
2246 Clouds 14 1010 65 10000 11.37 85 04:42 03.04.2022
2247 Clouds 14 1012 65 10000 10.76 85 01:53 03.04.2022
2248 Clouds 15 1014 66 10000 9.64 82 23:21 02.04.2022
2249 Clouds 14 1014 66 10000 9.43 82 21:58 02.04.2022
2250 Clouds 15 1014 66 10000 9.43 82 21:36 02.04.2022
2251 Clouds 15 1014 67 10000 9.33 83 21:18 02.04.2022
2252 Clouds 16 1013 69 10000 9.92 82 19:53 02.04.2022
2253 Clouds 16 1014 70 10000 11.04 84 18:23 02.04.2022
2254 Clouds 17 1014 70 10000 11.04 84 17:53 02.04.2022
2255 Clouds 16 1014 69 10000 11.73 82 16:25 02.04.2022
2256 Clouds 17 1015 72 10000 12.68 77 15:21 02.04.2022
2257 Clouds 17 1015 72 10000 12.68 77 14:49 02.04.2022
2258 Clouds 17 1015 71 10000 12.66 77 14:49 02.04.2022
2259 Clouds 17 1016 68 10000 12.01 74 13:35 02.04.2022
2260 Clouds 16 1016 70 10000 11.82 75 12:38 02.04.2022
2261 Clouds 16 1016 70 10000 11.31 73 11:31 02.04.2022
2262 Clouds 15 1015 78 10000 7.03 71 09:30 02.04.2022
2263 Clear 10 1014 84 10000 1.18 77 06:51 02.04.2022
2264 Clear 14 1015 82 10000 1.11 283 03:52 02.04.2022
2265 Clouds 12 1017 80 10000 3.44 272 23:57 01.04.2022
2266 Clouds 15 1017 80 10000 3.44 272 23:30 01.04.2022
2267 Clouds 16 1017 79 10000 3.64 261 21:42 01.04.2022
2268 Clouds 16 1016 79 10000 3.73 258 20:51 01.04.2022
2269 Clouds 17 1016 76 10000 3.97 265 20:28 01.04.2022
2270 Clouds 18 1016 76 10000 3.62 262 19:34 01.04.2022
2271 Clouds 18 1015 72 10000 4.38 266 18:48 01.04.2022
2272 Clouds 18 1015 69 10000 5.06 275 17:47 01.04.2022
2273 Clouds 18 1016 68 10000 6.06 281 16:53 01.04.2022
2274 Clouds 17 1016 69 10000 6.82 282 15:41 01.04.2022
2275 Clouds 17 1017 73 10000 7.18 281 14:25 01.04.2022
2276 Clouds 16 1017 73 10000 6.89 282 13:34 01.04.2022
2277 Clouds 15 1017 76 10000 5.67 290 12:32 01.04.2022
2278 Clouds 14 1017 76 10000 5.68 289 11:40 01.04.2022
2279 Clouds 14 1017 81 10000 5.59 304 10:19 01.04.2022
2280 Clouds 13 1016 84 10000 5.41 303 08:58 01.04.2022
2281 Clear 14 1015 80 10000 6.58 297 06:54 01.04.2022
2282 Clear 14 1015 80 10000 7.11 295 04:51 01.04.2022
2283 Clear 14 1015 80 10000 7.11 295 04:31 01.04.2022
2284 Clouds 15 1015 80 10000 7.83 289 01:56 01.04.2022
2285 Clouds 15 1014 77 10000 7.7 287 22:58 31.03.2022
2286 Clouds 15 1013 80 10000 9.68 278 21:51 31.03.2022
2287 Clouds 17 1013 80 10000 9.68 278 21:32 31.03.2022
2288 Clouds 18 1012 82 10000 10.73 270 20:29 31.03.2022
2289 Clouds 18 1012 82 10000 10.73 270 19:48 31.03.2022
2290 Clear 18 1011 82 10000 10.59 268 18:44 31.03.2022
2291 Clear 19 1011 81 10000 10.15 269 17:49 31.03.2022
2292 Clear 18 1011 79 10000 9.93 276 16:38 31.03.2022
2293 Clouds 17 1011 78 10000 10.1 277 15:43 31.03.2022
2294 Clouds 17 1011 80 10000 9.75 282 15:19 31.03.2022
2295 Clouds 16 1011 80 10000 9.75 282 14:35 31.03.2022
2296 Clouds 17 1012 88 10000 11.61 259 11:43 31.03.2022
2297 Clouds 17 1012 85 10000 11.08 251 11:20 31.03.2022
2298 Clouds 16 1012 85 10000 10 259 09:44 31.03.2022
2299 Clouds 15 1011 87 10000 8.3 275 07:55 31.03.2022
2300 Clouds 15 1011 87 10000 7.65 285 04:46 31.03.2022
2301 Clear 16 1011 80 10000 8.09 295 23:37 30.03.2022
2302 Clear 16 1010 73 10000 9.54 280 22:27 30.03.2022
2303 Clear 17 1010 73 10000 9.54 280 21:38 30.03.2022
2304 Clear 17 1009 76 10000 9.84 264 20:44 30.03.2022
2305 Clouds 17 1009 79 10000 10.28 260 19:59 30.03.2022
2306 Clouds 17 1008 78 10000 10.33 257 18:59 30.03.2022
2307 Clouds 16 1008 73 10000 10.05 259 17:53 30.03.2022
2308 Clouds 16 1008 73 10000 10.05 259 17:34 30.03.2022
2309 Clouds 16 1008 72 10000 9.39 264 16:51 30.03.2022
2310 Clouds 17 1008 72 10000 9.39 264 16:30 30.03.2022
2311 Clouds 17 1009 74 10000 9.45 279 14:56 30.03.2022
2312 Clouds 16 1009 81 10000 8.83 282 13:34 30.03.2022
2313 Clouds 15 1009 83 10000 8.15 284 12:41 30.03.2022
2314 Clouds 14 1009 83 10000 7.49 288 10:54 30.03.2022
2315 Clouds 15 1008 86 10000 6.78 290 09:58 30.03.2022
2316 Clouds 14 1007 89 10000 6.03 293 08:57 30.03.2022
2317 Clouds 15 1007 90 10000 7.59 236 07:31 30.03.2022
2318 Clouds 15 1006 87 10000 6.38 225 05:40 30.03.2022
2319 Clouds 15 1008 88 10000 5.3 227 03:21 30.03.2022
2320 Clouds 16 1009 91 10000 3.73 244 23:32 29.03.2022
2321 Rain 15 1009 93 5820 3.79 274 22:18 29.03.2022
2322 Rain 17 1009 93 5805 3.8 274 21:40 29.03.2022
2323 Clouds 17 1008 92 7722 4.41 277 20:39 29.03.2022
2324 Clouds 18 1007 91 10000 4.68 305 19:35 29.03.2022
2325 Clouds 18 1007 89 10000 4.93 278 18:54 29.03.2022
2326 Clouds 17 1007 88 9912 2.59 245 17:57 29.03.2022
2327 Clouds 18 1007 90 10000 1.12 112 17:20 29.03.2022
2328 Clouds 17 1007 90 10000 1.12 112 16:54 29.03.2022
2329 Clouds 16 1008 91 10000 1.79 105 15:44 29.03.2022
2330 Clouds 16 1009 91 10000 2.5 102 14:43 29.03.2022
2331 Clouds 16 1009 91 10000 2.5 102 14:43 29.03.2022
2332 Clouds 16 1010 91 10000 1.94 107 13:36 29.03.2022
2333 Clouds 15 1010 91 10000 1.94 107 12:39 29.03.2022
2334 Rain 15 1011 90 10000 3.19 98 11:24 29.03.2022
2335 Rain 15 1011 91 10000 3.35 96 10:20 29.03.2022
2336 Rain 15 1010 92 10000 3.73 99 08:52 29.03.2022
2337 Clouds 15 1011 92 10000 4.36 95 06:53 29.03.2022
2338 Clouds 15 1012 92 10000 6.26 100 02:52 29.03.2022
2339 Clouds 16 1014 92 10000 7.8 101 23:37 28.03.2022
2340 Rain 16 1014 91 10000 8.26 100 22:57 28.03.2022
2341 Rain 16 1014 91 10000 8.26 100 22:33 28.03.2022
2342 Rain 16 1013 91 10000 8.82 97 21:43 28.03.2022
2343 Rain 16 1013 92 10000 9.5 91 20:35 28.03.2022
2344 Clouds 16 1013 90 10000 9.86 92 19:48 28.03.2022
2345 Clouds 16 1013 90 10000 9.86 92 19:30 28.03.2022
2346 Rain 16 1013 89 10000 10.47 88 18:50 28.03.2022
2347 Clouds 17 1014 89 10000 11.08 88 17:41 28.03.2022
2348 Clouds 16 1014 89 10000 11.68 86 16:48 28.03.2022
2349 Clouds 16 1015 88 10000 14.18 88 15:22 28.03.2022
2350 Clouds 16 1016 88 10000 14.85 90 14:24 28.03.2022
2351 Clouds 16 1016 87 10000 15.36 92 13:19 28.03.2022
2352 Clouds 16 1016 86 10000 15.98 92 11:52 28.03.2022
2353 Clouds 15 1016 88 10000 16.21 94 09:55 28.03.2022
2354 Clouds 15 1016 89 10000 16.06 94 09:21 28.03.2022
2355 Clouds 15 1016 90 10000 15.99 92 08:23 28.03.2022
2356 Clouds 16 1016 90 10000 15.99 92 07:59 28.03.2022
2357 Clouds 16 1016 90 10000 15.2 90 06:30 28.03.2022
2358 Clouds 16 1020 87 10000 13.15 96 00:19 28.03.2022
2359 Clouds 16 1020 89 10000 12.99 97 22:35 27.03.2022
2360 Clouds 16 1020 88 10000 12.74 97 21:43 27.03.2022
2361 Clouds 16 1019 88 10000 12.66 94 20:58 27.03.2022
2362 Clouds 16 1018 87 10000 12.58 96 20:21 27.03.2022
2363 Clouds 16 1018 87 10000 12.55 96 19:36 27.03.2022
2364 Clouds 16 1017 86 10000 13.46 94 18:30 27.03.2022
2365 Clouds 16 1017 85 10000 13.48 92 17:55 27.03.2022
2366 Clouds 16 1017 85 10000 13.48 92 17:35 27.03.2022
2367 Clouds 16 1017 85 10000 13.48 92 17:35 27.03.2022
2368 Clouds 17 1017 84 10000 14.31 92 15:47 27.03.2022
2369 Clouds 16 1018 86 10000 14.58 93 13:57 27.03.2022
2370 Clouds 17 1018 87 10000 14.73 92 12:58 27.03.2022
2371 Clouds 16 1018 88 10000 14.72 91 11:30 27.03.2022
2372 Clouds 16 1017 89 10000 13.72 90 09:37 27.03.2022
2373 Clouds 14 1016 89 10000 12.61 93 06:54 27.03.2022
2374 Clouds 14 1017 87 10000 10.07 103 01:55 27.03.2022
2375 Clear 15 1017 87 10000 8.76 96 00:25 27.03.2022
2376 Clear 16 1017 86 10000 7.9 93 22:45 26.03.2022
2377 Clear 16 1017 86 10000 6.86 90 21:50 26.03.2022
2378 Clear 16 1016 85 10000 6.66 87 21:28 26.03.2022
2379 Clear 16 1016 83 10000 6.18 90 19:31 26.03.2022
2380 Clear 16 1015 74 10000 6.34 97 18:24 26.03.2022
2381 Clear 17 1015 74 10000 6.34 97 17:33 26.03.2022
2382 Clear 17 1015 72 10000 6.24 93 16:30 26.03.2022
2383 Clear 17 1015 70 10000 6.12 88 15:35 26.03.2022
2384 Clear 16 1015 69 10000 4.89 92 13:55 26.03.2022
2385 Clouds 16 1015 70 10000 4.8 90 13:19 26.03.2022
2386 Clouds 15 1016 72 10000 4.54 90 11:42 26.03.2022
2387 Clouds 14 1015 79 10000 4.02 87 10:32 26.03.2022
2388 Clouds 13 1014 81 10000 3.84 85 08:44 26.03.2022
2389 Clouds 13 1013 82 10000 2.71 85 06:30 26.03.2022
2390 Clouds 13 1013 82 10000 3.68 83 05:28 26.03.2022
2391 Clouds 14 1013 82 10000 5 83 00:30 26.03.2022
2392 Clouds 13 1014 84 10000 5.78 86 21:56 25.03.2022
2393 Clouds 14 1013 84 10000 6.15 90 20:46 25.03.2022
2394 Clouds 14 1013 82 10000 6.31 86 20:20 25.03.2022
2395 Clouds 14 1012 78 10000 4.8 97 18:51 25.03.2022
2396 Clouds 15 1011 74 10000 3.09 95 17:49 25.03.2022
2397 Clouds 15 1011 70 10000 2.32 61 17:27 25.03.2022
2398 Clouds 15 1011 69 10000 2.89 31 16:18 25.03.2022
2399 Clouds 16 1012 65 10000 2.93 49 14:26 25.03.2022
2400 Clouds 15 1012 67 10000 3.47 71 13:24 25.03.2022
2401 Clouds 14 1012 78 10000 2.26 88 10:26 25.03.2022
2402 Clouds 13 1012 80 10000 1.91 89 09:28 25.03.2022
2403 Clouds 11 1011 83 10000 2.24 62 08:24 25.03.2022
2404 Clouds 11 1010 82 10000 2.15 59 07:28 25.03.2022
2405 Clouds 12 1009 81 10000 0.21 83 06:24 25.03.2022
2406 Rain 12 1009 93 4375 4.29 203 01:18 25.03.2022
2407 Rain 13 1008 96 2559 0.11 173 22:51 24.03.2022
2408 Rain 14 1009 94 8792 3.06 350 21:45 24.03.2022
2409 Rain 13 1009 95 5195 2.16 334 20:26 24.03.2022
2410 Rain 13 1009 95 5195 2.16 334 19:47 24.03.2022
2411 Rain 13 1009 93 2678 2.74 242 17:47 24.03.2022
2412 Rain 13 1009 90 8417 4.28 237 17:19 24.03.2022
2413 Clouds 12 1010 89 10000 2.81 247 15:45 24.03.2022
2414 Clouds 12 1011 88 10000 2.69 253 14:48 24.03.2022
2415 Rain 12 1012 87 10000 2.15 238 14:18 24.03.2022
2416 Clouds 12 1012 83 10000 1.64 209 12:52 24.03.2022
2417 Clouds 12 1013 85 10000 0.6 158 11:45 24.03.2022
2418 Clouds 12 1012 87 10000 0.73 193 09:53 24.03.2022
2419 Clouds 12 1012 88 10000 0.22 78 08:42 24.03.2022
2420 Rain 12 1010 74 10000 0.58 154 06:49 24.03.2022
2421 Clouds 12 1010 77 10000 7.44 206 03:57 24.03.2022
2422 Rain 15 1010 96 1593 3.83 138 23:20 23.03.2022
2423 Rain 15 1010 96 1593 3.83 138 23:20 23.03.2022
2424 Rain 16 1010 93 3439 6.04 116 21:39 23.03.2022
2425 Rain 16 1010 92 4473 7.56 110 21:18 23.03.2022
2426 Rain 16 1010 91 9530 7.05 105 19:46 23.03.2022
2427 Rain 16 1010 92 6574 6.95 101 18:45 23.03.2022
2428 Rain 16 1009 93 3582 7.54 120 17:36 23.03.2022
2429 Rain 16 1010 90 6166 6.56 115 16:33 23.03.2022
2430 Rain 17 1011 90 10000 6.78 107 14:51 23.03.2022
2431 Clouds 16 1011 91 10000 8.47 98 14:26 23.03.2022
2432 Clouds 16 1013 92 5237 8.26 97 12:50 23.03.2022
2433 Clouds 16 1014 91 7701 7.53 116 09:42 23.03.2022
2434 Clouds 16 1013 90 10000 6.27 95 06:41 23.03.2022
2435 Clouds 15 1014 89 10000 8.04 98 04:41 23.03.2022
2436 Rain 15 1017 90 10000 9.93 96 00:29 23.03.2022
2437 Rain 15 1018 89 10000 9.38 94 22:46 22.03.2022
2438 Rain 16 1018 87 10000 8.29 88 21:29 22.03.2022
2439 Rain 16 1018 87 10000 8.28 88 20:40 22.03.2022
2440 Rain 16 1018 85 10000 7.88 93 19:41 22.03.2022
2441 Rain 16 1017 85 10000 8.07 90 19:18 22.03.2022
2442 Rain 16 1017 84 10000 7.71 87 18:22 22.03.2022
2443 Rain 16 1017 84 10000 7.23 81 17:29 22.03.2022
2444 Clouds 16 1018 83 10000 7.04 81 15:59 22.03.2022
2445 Clouds 17 1018 83 10000 7.47 86 15:22 22.03.2022
2446 Rain 17 1018 83 10000 7.47 86 14:46 22.03.2022
2447 Clouds 17 1019 83 10000 6.99 92 14:26 22.03.2022
2448 Clouds 16 1019 82 10000 6.11 93 12:55 22.03.2022
2449 Clouds 16 1020 83 10000 5.11 76 11:48 22.03.2022
2450 Clouds 16 1020 84 10000 4.64 78 10:35 22.03.2022
2451 Clouds 14 1019 89 10000 3.52 71 08:24 22.03.2022
2452 Clouds 14 1019 88 10000 2.39 75 05:21 22.03.2022
2453 Clouds 14 1019 87 10000 1.89 78 03:46 22.03.2022
2454 Clouds 13 1020 85 10000 1.8 180 23:59 21.03.2022
2455 Clouds 16 1020 85 10000 2.09 207 22:29 21.03.2022
2456 Clouds 17 1020 85 10000 1.97 221 20:47 21.03.2022
2457 Clouds 17 1019 85 10000 2.62 233 20:27 21.03.2022
2458 Clouds 18 1019 85 10000 2.62 233 19:57 21.03.2022
2459 Clouds 18 1018 83 10000 2.74 252 19:25 21.03.2022
2460 Clouds 18 1017 80 10000 3.91 252 17:53 21.03.2022
2461 Clouds 18 1017 77 10000 4.34 249 17:18 21.03.2022
2462 Clouds 18 1017 77 10000 4.34 249 16:42 21.03.2022
2463 Clouds 18 1017 74 10000 4.56 244 15:48 21.03.2022
2464 Clouds 18 1018 71 10000 4.5 237 14:56 21.03.2022
2465 Clouds 18 1018 68 10000 3.85 232 13:46 21.03.2022
2466 Clear 17 1019 66 10000 1.37 195 12:34 21.03.2022
2467 Clear 16 1019 67 10000 1.9 166 11:44 21.03.2022
2468 Clear 16 1020 70 10000 2.14 151 10:34 21.03.2022
2469 Clear 15 1018 82 10000 1.29 146 08:29 21.03.2022
2470 Clear 16 1018 81 10000 1.5 166 06:37 21.03.2022
2471 Clear 16 1018 83 10000 2.59 185 02:48 21.03.2022
2472 Clouds 15 1018 82 10000 3.59 182 23:41 20.03.2022
2473 Clouds 15 1018 87 10000 3.89 163 22:43 20.03.2022
2474 Rain 15 1017 90 10000 3.8 134 21:51 20.03.2022
2475 Clouds 15 1017 92 10000 3.89 148 21:20 20.03.2022
2476 Clouds 15 1017 92 10000 3.89 148 20:43 20.03.2022
2477 Rain 15 1016 93 3012 5.17 162 19:57 20.03.2022
2478 Rain 16 1016 93 4658 5.9 131 19:26 20.03.2022
2479 Rain 16 1015 91 6452 7.63 122 17:52 20.03.2022
2480 Clouds 16 1015 91 6452 7.63 122 17:30 20.03.2022
2481 Clouds 16 1015 89 7224 10.24 112 16:52 20.03.2022
2482 Clouds 16 1015 86 10000 13.14 101 15:28 20.03.2022
2483 Clouds 16 1015 86 10000 13.77 99 14:23 20.03.2022
2484 Clouds 15 1016 87 10000 14.26 92 12:29 20.03.2022
2485 Clouds 16 1016 88 10000 14.56 91 10:55 20.03.2022
2486 Clouds 15 1016 88 10000 15.44 91 08:42 20.03.2022
2487 Clouds 15 1016 88 10000 14.68 92 06:55 20.03.2022
2488 Clouds 15 1016 89 10000 14.93 92 04:23 20.03.2022
2489 Clouds 15 1018 87 10000 14.13 96 01:29 20.03.2022
2490 Clouds 16 1018 87 10000 13.78 97 00:37 20.03.2022
2491 Clouds 15 1019 84 10000 12.91 98 22:56 19.03.2022
2492 Clouds 16 1019 85 10000 12.19 99 21:27 19.03.2022
2493 Clouds 16 1018 85 10000 11.78 99 20:28 19.03.2022
2494 Clear 16 1018 83 10000 11.82 99 18:44 19.03.2022
2495 Clouds 16 1018 82 10000 12.13 97 18:23 19.03.2022
2496 Clouds 16 1018 82 10000 12.13 97 17:34 19.03.2022
2497 Clear 16 1018 80 10000 12.6 94 15:43 19.03.2022
2498 Clear 16 1019 77 10000 13.18 96 14:21 19.03.2022
2499 Clear 17 1020 76 10000 12.76 100 12:56 19.03.2022
2500 Clear 17 1020 75 10000 12.6 99 12:38 19.03.2022
2501 Clear 17 1020 75 10000 12.53 100 11:49 19.03.2022
2502 Clear 16 1020 76 10000 12.41 100 10:41 19.03.2022
2503 Clouds 15 1019 82 10000 11.64 95 05:59 19.03.2022
2504 Clouds 16 1020 81 10000 11.17 101 02:48 19.03.2022
2505 Clouds 16 1021 79 10000 11 96 01:32 19.03.2022
2506 Clouds 16 1021 79 10000 10.5 93 23:22 18.03.2022
2507 Clouds 16 1022 79 10000 9.26 91 22:23 18.03.2022
2508 Clouds 16 1021 80 10000 7.86 93 20:48 18.03.2022
2509 Clouds 16 1021 80 10000 7.87 93 19:48 18.03.2022
2510 Clouds 16 1020 78 10000 7.8 95 19:19 18.03.2022
2511 Clouds 16 1020 78 10000 7.8 95 19:19 18.03.2022
2512 Clouds 17 1020 69 10000 9.76 98 17:27 18.03.2022
2513 Clouds 17 1020 69 10000 9.76 98 16:42 18.03.2022
2514 Clouds 17 1020 65 10000 9.83 107 14:30 18.03.2022
2515 Clear 17 1020 63 10000 9.33 107 13:41 18.03.2022
2516 Clouds 17 1021 69 10000 9.36 107 12:18 18.03.2022
2517 Clouds 16 1020 78 10000 8.82 106 10:27 18.03.2022
2518 Clouds 16 1020 80 10000 8.08 108 09:20 18.03.2022
2519 Clouds 15 1019 80 10000 7.71 109 07:45 18.03.2022
2520 Clouds 15 1019 84 10000 7.12 111 05:39 18.03.2022
2521 Clouds 11 1019 88 10000 3.94 71 01:55 18.03.2022
2522 Clouds 15 1019 86 10000 4.41 74 00:21 18.03.2022
2523 Clouds 12 1019 84 10000 4.04 68 22:54 17.03.2022
2524 Clouds 16 1018 82 10000 3.89 72 22:21 17.03.2022
2525 Clouds 16 1018 82 10000 3.89 72 21:46 17.03.2022
2526 Clouds 14 1018 78 10000 3.73 80 20:58 17.03.2022
2527 Clouds 16 1016 76 10000 2.67 99 20:29 17.03.2022
2528 Clouds 16 1016 76 10000 2.67 99 19:39 17.03.2022
2529 Clouds 16 1016 74 10000 2.15 131 18:55 17.03.2022
2530 Clouds 16 1016 72 10000 2.11 119 17:47 17.03.2022
2531 Clouds 17 1015 74 10000 2.56 177 16:29 17.03.2022
2532 Clouds 17 1015 74 10000 2.56 177 15:43 17.03.2022
2533 Clouds 17 1015 74 10000 3.45 206 15:21 17.03.2022
2534 Clouds 17 1016 75 10000 3.99 212 13:47 17.03.2022
2535 Clouds 16 1017 69 10000 2.51 230 12:47 17.03.2022
2536 Clouds 15 1017 73 10000 2.68 271 11:40 17.03.2022
2537 Clouds 15 1017 80 10000 4.71 265 10:58 17.03.2022
2538 Clouds 14 1016 85 10000 5.3 262 09:40 17.03.2022
2539 Clouds 14 1015 85 10000 4.92 271 08:20 17.03.2022
2540 Clouds 14 1015 83 10000 4.52 270 06:18 17.03.2022
2541 Clouds 13 1014 81 10000 4.62 266 05:23 17.03.2022
2542 Clouds 14 1015 81 10000 2.16 265 00:27 17.03.2022
2543 Clouds 14 1015 81 10000 1.67 287 22:57 16.03.2022
2544 Clouds 14 1015 81 10000 1.69 287 22:36 16.03.2022
2545 Clouds 14 1015 82 10000 2.14 298 21:56 16.03.2022
2546 Clouds 14 1015 79 10000 2.22 309 20:47 16.03.2022
2547 Clouds 14 1013 75 10000 3.42 272 19:24 16.03.2022
2548 Clouds 15 1013 76 10000 3.86 276 18:43 16.03.2022
2549 Clouds 15 1012 74 10000 4.45 282 17:50 16.03.2022
2550 Clouds 15 1012 74 10000 4.45 282 17:31 16.03.2022
2551 Clouds 15 1012 73 10000 4.59 276 16:35 16.03.2022
2552 Clouds 15 1012 72 10000 5.33 273 15:34 16.03.2022
2553 Clouds 14 1013 72 10000 4.47 264 13:41 16.03.2022
2554 Clouds 14 1013 70 10000 5.05 258 12:56 16.03.2022
2555 Clouds 13 1014 74 10000 3.49 256 11:24 16.03.2022
2556 Clouds 12 1014 74 10000 3.47 256 10:37 16.03.2022
2557 Clouds 12 1013 78 10000 3.66 276 09:57 16.03.2022
2558 Clouds 12 1011 81 10000 3.4 265 08:24 16.03.2022
2559 Clouds 11 1010 87 10000 1.86 69 02:46 16.03.2022
2560 Clouds 10 1010 85 10000 0.67 46 22:58 15.03.2022
2561 Clouds 11 1010 85 10000 0.68 45 22:36 15.03.2022
2562 Clouds 12 1010 90 6535 2.3 316 21:19 15.03.2022
2563 Clouds 12 1009 91 5762 4.35 300 19:46 15.03.2022
2564 Rain 12 1008 93 6979 1.38 260 17:47 15.03.2022
2565 Clouds 13 1007 92 10000 2.13 290 16:41 15.03.2022
2566 Rain 14 1008 92 10000 2.47 322 15:38 15.03.2022
2567 Clouds 14 1008 91 9941 2.29 289 14:54 15.03.2022
2568 Clouds 14 1009 89 10000 2.11 279 13:56 15.03.2022
2569 Clouds 14 1010 86 10000 3.34 233 13:22 15.03.2022
2570 Clouds 13 1010 86 10000 3.42 222 11:33 15.03.2022
2571 Clouds 12 1009 84 10000 3.12 236 10:53 15.03.2022
2572 Clouds 12 1009 86 10000 3.96 224 09:24 15.03.2022
2573 Rain 12 1008 85 10000 6.65 226 08:24 15.03.2022
2574 Rain 12 1008 85 10000 6.65 226 07:36 15.03.2022
2575 Rain 12 1007 88 8146 5.07 245 05:56 15.03.2022
2576 Clouds 13 1008 87 10000 9.03 213 00:31 15.03.2022
2577 Clouds 13 1007 85 10000 4.75 241 23:29 14.03.2022
2578 Clouds 13 1007 85 10000 4.75 241 22:49 14.03.2022
2579 Rain 14 1006 82 10000 3.49 242 21:51 14.03.2022
2580 Rain 13 1006 85 10000 2.58 197 20:55 14.03.2022
2581 Rain 13 1003 83 10000 2.62 100 20:24 14.03.2022
2582 Clouds 14 1004 82 10000 1.66 83 19:24 14.03.2022
2583 Rain 14 1003 83 10000 1.89 74 17:57 14.03.2022
2584 Rain 14 1003 83 10000 1.89 74 17:39 14.03.2022
2585 Clouds 14 1003 88 10000 2.75 68 16:28 14.03.2022
2586 Rain 14 1004 89 10000 4.08 66 14:47 14.03.2022
2587 Clouds 13 1005 90 9277 4.02 86 13:20 14.03.2022
2588 Rain 11 1005 92 10000 3.08 177 10:59 14.03.2022
2589 Clouds 10 1005 92 9780 0.89 124 09:56 14.03.2022
2590 Rain 10 1004 89 7877 1.42 5 09:24 14.03.2022
2591 Rain 11 1004 89 7877 1.42 5 08:57 14.03.2022
2592 Rain 11 1005 91 3902 5.82 2 08:24 14.03.2022
2593 Rain 11 1005 93 4589 3.33 284 05:51 14.03.2022
2594 Rain 11 1007 96 2468 0.73 53 02:58 14.03.2022
2595 Rain 13 1008 96 2972 2.06 48 01:36 14.03.2022
2596 Rain 14 1012 92 8950 3.3 79 23:29 13.03.2022
2597 Clouds 15 1013 92 5480 2.73 128 21:41 13.03.2022
2598 Rain 15 1012 94 7090 2.55 146 21:19 13.03.2022
2599 Rain 15 1012 94 7090 2.55 146 20:46 13.03.2022
2600 Rain 15 1013 90 10000 2.44 209 20:21 13.03.2022
2601 Rain 17 1013 90 10000 2.44 209 19:41 13.03.2022
2602 Rain 17 1013 88 10000 2.05 246 19:20 13.03.2022
2603 Rain 17 1013 88 10000 2.05 246 18:40 13.03.2022
2604 Clouds 18 1013 91 10000 1.05 266 17:48 13.03.2022
2605 Clouds 18 1014 85 10000 3.91 257 17:22 13.03.2022
2606 Clouds 18 1014 85 10000 3.91 257 16:44 13.03.2022
2607 Clouds 18 1014 83 10000 3.87 254 16:20 13.03.2022
2608 Rain 18 1014 83 10000 3.87 254 15:34 13.03.2022
2609 Clouds 18 1015 84 10000 3.83 257 13:53 13.03.2022
2610 Clouds 17 1016 85 10000 3.94 243 13:26 13.03.2022
2611 Clouds 16 1017 86 10000 3.75 248 12:20 13.03.2022
2612 Clouds 15 1017 86 10000 3.75 248 11:36 13.03.2022
2613 Clouds 14 1017 86 10000 3.51 249 10:48 13.03.2022
2614 Clouds 14 1017 84 10000 4.07 253 10:25 13.03.2022
2615 Clouds 14 1017 84 10000 4.07 253 09:41 13.03.2022
2616 Rain 15 1017 88 10000 5.72 260 08:47 13.03.2022
2617 Clouds 15 1016 89 5341 8.37 245 07:47 13.03.2022
2618 Clouds 15 1015 78 10000 9.37 223 05:48 13.03.2022
2619 Clouds 16 1016 79 10000 7.92 228 03:26 13.03.2022
2620 Clouds 16 1018 79 10000 5.39 245 00:30 13.03.2022
2621 Clouds 15 1018 81 10000 4.89 251 22:44 12.03.2022
2622 Clouds 16 1018 78 10000 4.45 271 20:58 12.03.2022
2623 Clouds 16 1018 76 10000 4.18 271 19:57 12.03.2022
2624 Clouds 16 1018 76 10000 4.18 271 19:38 12.03.2022
2625 Clouds 17 1017 70 10000 3.54 276 18:29 12.03.2022
2626 Clouds 17 1017 70 10000 3.54 276 17:39 12.03.2022
2627 Clouds 18 1018 64 10000 4.15 271 16:24 12.03.2022
2628 Clouds 18 1019 65 10000 4.39 279 15:24 12.03.2022
2629 Clouds 18 1019 65 10000 4.39 279 14:51 12.03.2022
2630 Clouds 17 1020 68 10000 4.42 278 13:47 12.03.2022
2631 Clouds 16 1021 72 10000 4.04 277 11:57 12.03.2022
2632 Clouds 16 1021 72 10000 4.04 277 11:38 12.03.2022
2633 Clouds 15 1021 75 10000 3.74 278 10:58 12.03.2022
2634 Clouds 14 1020 78 10000 2.55 277 09:46 12.03.2022
2635 Clouds 14 1020 78 10000 2.55 277 09:46 12.03.2022
2636 Clouds 12 1020 81 10000 2.33 298 08:56 12.03.2022
2637 Clouds 12 1019 81 10000 3.3 322 07:29 12.03.2022
2638 Clouds 13 1019 84 10000 4.16 285 03:54 12.03.2022
2639 Clouds 14 1019 87 10000 4.21 288 23:56 11.03.2022
2640 Clouds 13 1019 87 10000 4.22 288 23:56 11.03.2022
2641 Clouds 14 1019 87 10000 4.21 288 23:56 11.03.2022
2642 Clouds 13 1019 87 10000 4.22 288 23:56 11.03.2022
2643 Clouds 14 1020 89 10000 4.71 292 23:19 11.03.2022
2644 Clouds 15 1019 89 10000 4.96 290 21:41 11.03.2022
2645 Rain 14 1018 89 10000 5.6 266 20:56 11.03.2022
2646 Rain 15 1018 89 10000 5.6 266 20:35 11.03.2022
2647 Rain 14 1018 88 10000 7.07 254 19:52 11.03.2022
2648 Rain 15 1017 90 7729 6.52 238 19:22 11.03.2022
2649 Rain 17 1017 93 2444 8.22 240 17:30 11.03.2022
2650 Rain 17 1016 83 10000 8.64 239 16:36 11.03.2022
2651 Rain 17 1017 77 10000 8.48 235 15:53 11.03.2022
2652 Clouds 18 1019 69 10000 6.26 246 14:19 11.03.2022
2653 Clouds 17 1019 66 10000 5.24 237 12:44 11.03.2022
2654 Clouds 17 1019 68 10000 4.86 233 12:21 11.03.2022
2655 Clouds 16 1019 68 10000 4.86 233 11:51 11.03.2022
2656 Clouds 13 1020 80 10000 2.69 244 09:50 11.03.2022
2657 Clouds 15 1019 83 10000 2.46 238 08:56 11.03.2022
2658 Clouds 13 1018 87 10000 2.61 221 08:21 11.03.2022
2659 Clouds 13 1018 87 10000 2.61 221 07:40 11.03.2022
2660 Clouds 13 1018 88 10000 3.32 218 05:44 11.03.2022
2661 Clouds 13 1019 87 10000 3.36 219 03:41 11.03.2022
2662 Clouds 14 1020 87 10000 1.89 136 23:31 10.03.2022
2663 Clouds 15 1021 87 10000 2.25 101 22:29 10.03.2022
2664 Clouds 15 1020 87 10000 3.69 101 21:27 10.03.2022
2665 Clouds 16 1020 87 10000 3.69 101 20:49 10.03.2022
2666 Clouds 16 1020 83 10000 3.98 85 19:23 10.03.2022
2667 Clouds 16 1020 82 10000 4.02 87 18:40 10.03.2022
2668 Clouds 17 1019 78 10000 5.35 87 16:54 10.03.2022
2669 Clouds 17 1020 76 10000 5.32 76 15:49 10.03.2022
2670 Clouds 17 1020 77 10000 6.48 87 14:24 10.03.2022
2671 Clouds 16 1021 75 10000 5.62 89 12:50 10.03.2022
2672 Clouds 16 1021 77 10000 5.12 89 11:39 10.03.2022
2673 Clouds 16 1021 81 10000 4.47 78 10:19 10.03.2022
2674 Clouds 14 1021 83 10000 4.34 77 08:48 10.03.2022
2675 Clouds 15 1020 87 10000 4.67 81 06:36 10.03.2022
2676 Clouds 15 1019 89 10000 5.64 81 03:42 10.03.2022
2677 Clouds 15 1020 89 10000 6.03 80 00:23 10.03.2022
2678 Clouds 15 1020 89 10000 5.99 80 22:45 09.03.2022
2679 Clouds 15 1020 88 10000 5.63 79 21:48 09.03.2022
2680 Clouds 15 1020 87 10000 5.41 79 20:59 09.03.2022
2681 Clouds 16 1019 83 10000 6.42 87 19:28 09.03.2022
2682 Clouds 16 1018 77 10000 6.62 85 17:57 09.03.2022
2683 Clouds 17 1018 75 10000 7.28 86 17:23 09.03.2022
2684 Clouds 18 1019 73 10000 7.09 88 16:23 09.03.2022
2685 Clouds 17 1020 72 10000 6.77 85 14:27 09.03.2022
2686 Clouds 17 1020 72 10000 6.77 85 14:27 09.03.2022
2687 Clouds 17 1020 72 10000 6.77 85 13:51 09.03.2022
2688 Clouds 15 1021 75 10000 6.19 86 12:27 09.03.2022
2689 Clouds 15 1021 76 10000 6.2 86 11:48 09.03.2022
2690 Clouds 15 1021 80 10000 5.39 79 10:59 09.03.2022
2691 Clouds 13 1021 84 10000 4.77 74 09:40 09.03.2022
2692 Clouds 10 1021 87 10000 4.09 72 08:45 09.03.2022
2693 Clouds 10 1020 86 10000 2.31 81 06:25 09.03.2022
2694 Clouds 11 1021 82 10000 1.1 243 00:59 09.03.2022
2695 Clear 13 1022 84 10000 1.09 256 23:48 08.03.2022
2696 Clear 14 1022 83 10000 0.86 249 22:46 08.03.2022
2697 Clear 13 1022 83 10000 1.31 269 21:51 08.03.2022
2698 Clear 15 1021 84 10000 2.3 270 21:21 08.03.2022
2699 Clear 15 1021 84 10000 2.98 266 20:21 08.03.2022
2700 Clouds 15 1020 84 10000 4.24 260 19:21 08.03.2022
2701 Clouds 16 1020 77 10000 5.68 259 18:22 08.03.2022
2702 Clouds 15 1019 82 10000 7.35 244 16:42 08.03.2022
2703 Clouds 15 1020 80 10000 8.85 235 14:55 08.03.2022
2704 Clouds 16 1020 78 10000 8.69 230 13:39 08.03.2022
2705 Clouds 17 1020 72 10000 7.59 226 12:20 08.03.2022
2706 Clouds 16 1020 72 10000 7.59 226 11:42 08.03.2022
2707 Clouds 15 1020 78 10000 5.78 218 10:28 08.03.2022
2708 Clouds 13 1020 80 10000 5.73 222 08:56 08.03.2022
2709 Clouds 13 1018 77 10000 5.83 235 05:51 08.03.2022
2710 Clouds 15 1018 72 10000 6.49 251 01:53 08.03.2022
2711 Clouds 15 1018 72 10000 6.5 248 22:41 07.03.2022
2712 Clouds 15 1017 71 10000 6.62 251 21:36 07.03.2022
2713 Clouds 15 1017 71 10000 6.35 249 20:55 07.03.2022
2714 Clouds 15 1016 70 10000 6.59 251 20:29 07.03.2022
2715 Clouds 15 1016 70 10000 6.59 251 19:48 07.03.2022
2716 Clouds 16 1015 68 10000 7.15 250 18:50 07.03.2022
2717 Clouds 16 1015 66 10000 7.65 256 18:28 07.03.2022
2718 Clouds 16 1014 63 10000 8.11 253 16:56 07.03.2022
2719 Clouds 16 1014 63 10000 8.11 253 16:37 07.03.2022
2720 Clouds 17 1015 58 10000 8.94 254 14:41 07.03.2022
2721 Clouds 16 1015 56 10000 8.65 252 12:34 07.03.2022
2722 Clouds 12 1015 70 10000 8.16 235 11:21 07.03.2022
2723 Clouds 11 1015 77 10000 7.02 226 10:26 07.03.2022
2724 Clouds 10 1014 84 10000 4.99 216 07:42 07.03.2022
2725 Clouds 13 1014 79 10000 1.04 257 00:37 07.03.2022
2726 Clouds 10 1014 77 10000 0.56 248 00:19 07.03.2022
2727 Clouds 10 1014 76 10000 0.26 282 23:19 06.03.2022
2728 Clouds 13 1014 75 10000 0.26 140 22:25 06.03.2022
2729 Clouds 13 1013 76 10000 0.39 103 21:22 06.03.2022
2730 Clouds 15 1013 75 10000 0.41 65 20:29 06.03.2022
2731 Clouds 15 1013 75 10000 0.42 67 19:35 06.03.2022
2732 Clouds 16 1012 72 10000 1.77 79 18:40 06.03.2022
2733 Clouds 15 1011 67 10000 1.86 71 17:36 06.03.2022
2734 Clouds 16 1011 66 10000 2.6 83 17:18 06.03.2022
2735 Clouds 16 1011 66 10000 3.36 86 16:24 06.03.2022
2736 Clouds 15 1011 68 10000 3.59 80 15:23 06.03.2022
2737 Clouds 15 1011 68 10000 3.59 80 14:41 06.03.2022
2738 Clouds 15 1012 72 10000 3.89 80 13:48 06.03.2022
2739 Clouds 15 1012 69 10000 2.52 90 12:36 06.03.2022
2740 Clouds 14 1012 69 10000 2.54 82 11:39 06.03.2022
2741 Clouds 12 1012 72 10000 2.49 75 10:33 06.03.2022
2742 Clouds 11 1012 77 10000 2.27 74 08:51 06.03.2022
2743 Clouds 11 1011 78 10000 2.34 70 08:27 06.03.2022
2744 Clouds 11 1011 79 10000 2.42 76 07:18 06.03.2022
2745 Clouds 12 1012 82 10000 4.05 165 01:37 06.03.2022
2746 Clouds 12 1013 84 10000 5.38 212 00:34 06.03.2022
2747 Clouds 12 1014 82 10000 5.16 231 23:46 05.03.2022
2748 Clouds 12 1014 74 10000 3.89 228 23:18 05.03.2022
2749 Clouds 13 1014 74 10000 3.89 228 22:31 05.03.2022
2750 Clouds 13 1014 74 10000 3.89 228 22:31 05.03.2022
2751 Clouds 13 1014 71 10000 3.43 245 21:24 05.03.2022
2752 Clouds 14 1014 72 10000 5.21 254 19:59 05.03.2022
2753 Clouds 15 1014 70 10000 6.15 256 18:57 05.03.2022
2754 Clouds 15 1015 69 10000 5.96 257 18:36 05.03.2022
2755 Clouds 16 1015 64 10000 5.8 269 16:58 05.03.2022
2756 Clouds 16 1016 63 10000 5.83 272 15:49 05.03.2022
2757 Clouds 16 1017 63 10000 6.57 273 14:53 05.03.2022
2758 Clouds 16 1017 63 10000 6.57 273 14:34 05.03.2022
2759 Clouds 16 1018 64 10000 6.93 270 13:35 05.03.2022
2760 Rain 15 1019 68 10000 7.47 253 11:55 05.03.2022
2761 Clouds 15 1020 74 10000 7.86 249 11:20 05.03.2022
2762 Clouds 14 1020 74 10000 7.04 243 10:23 05.03.2022
2763 Clouds 14 1019 75 10000 6.55 238 09:28 05.03.2022
2764 Clouds 12 1019 78 10000 7.3 241 07:58 05.03.2022
2765 Clouds 13 1018 77 10000 6.08 226 05:47 05.03.2022
2766 Clouds 13 1018 78 10000 5.55 222 04:38 05.03.2022
2767 Clouds 14 1020 73 10000 5.23 225 23:39 04.03.2022
2768 Clouds 14 1021 72 10000 4.71 227 22:44 04.03.2022
2769 Clouds 14 1021 69 10000 4.4 244 22:23 04.03.2022
2770 Clouds 15 1020 67 10000 4.39 260 21:24 04.03.2022
2771 Clouds 15 1020 65 10000 5.1 270 20:28 04.03.2022
2772 Clouds 15 1020 65 10000 5.1 270 19:36 04.03.2022
2773 Clouds 16 1019 63 10000 5.72 277 18:46 04.03.2022
2774 Clouds 17 1019 60 10000 6.56 273 18:20 04.03.2022
2775 Clouds 17 1018 57 10000 7.87 278 17:28 04.03.2022
2776 Clouds 16 1018 56 10000 7.91 279 15:31 04.03.2022
2777 Clouds 15 1018 53 10000 7.17 286 14:33 04.03.2022
2778 Clouds 15 1020 55 10000 7.91 300 13:27 04.03.2022
2779 Clouds 13 1020 58 10000 7.33 294 11:54 04.03.2022
2780 Clouds 12 1020 62 10000 7.01 300 10:55 04.03.2022
2781 Clouds 11 1021 70 10000 7.04 308 10:18 04.03.2022
2782 Clouds 11 1020 76 10000 6.9 311 08:40 04.03.2022
2783 Clouds 11 1020 76 10000 6.9 311 08:40 04.03.2022
2784 Clouds 11 1019 79 10000 7.12 312 07:38 04.03.2022
2785 Clear 12 1018 77 10000 9.36 306 04:31 04.03.2022
2786 Clear 13 1019 73 10000 8.27 303 00:41 04.03.2022
2787 Clear 15 1020 70 10000 8.32 304 22:39 03.03.2022
2788 Clear 15 1019 70 10000 7.72 308 21:50 03.03.2022
2789 Clear 15 1019 72 10000 7.78 300 21:29 03.03.2022
2790 Clouds 15 1018 77 10000 7.77 296 20:18 03.03.2022
2791 Clouds 14 1018 81 10000 6.74 297 18:55 03.03.2022
2792 Rain 14 1017 88 9745 7.9 306 18:24 03.03.2022
2793 Rain 17 1017 88 9745 7.9 306 17:31 03.03.2022
2794 Clouds 18 1018 77 10000 10.07 258 16:26 03.03.2022
2795 Clouds 19 1018 76 10000 10.1 258 15:32 03.03.2022
2796 Clouds 18 1019 74 10000 9.61 253 14:43 03.03.2022
2797 Clouds 18 1020 77 10000 9.58 256 14:24 03.03.2022
2798 Clouds 18 1021 72 10000 8.56 252 12:27 03.03.2022
2799 Clouds 16 1022 73 10000 7.91 254 10:49 03.03.2022
2800 Clouds 14 1022 75 10000 6.93 257 09:45 03.03.2022
2801 Clouds 14 1022 80 10000 5.76 263 08:19 03.03.2022
2802 Clouds 14 1021 78 10000 4.95 261 06:38 03.03.2022
2803 Clouds 15 1021 80 10000 4.59 251 04:46 03.03.2022
2804 Clouds 16 1023 86 10000 3.95 281 23:41 02.03.2022
2805 Clouds 15 1024 85 10000 3.78 282 22:53 02.03.2022
2806 Clouds 15 1024 85 10000 3.78 282 22:53 02.03.2022
2807 Clouds 17 1023 83 10000 3.76 282 21:36 02.03.2022
2808 Clear 17 1023 81 10000 3.57 279 20:57 02.03.2022
2809 Clear 18 1023 80 10000 3.69 280 20:25 02.03.2022
2810 Clear 18 1023 80 10000 3.69 280 19:37 02.03.2022
2811 Clear 20 1022 74 10000 4.07 277 18:57 02.03.2022
2812 Clear 20 1022 63 10000 4.21 278 18:26 02.03.2022
2813 Clear 19 1022 63 10000 4.21 278 17:36 02.03.2022
2814 Clear 20 1022 54 10000 2.92 279 16:51 02.03.2022
2815 Clear 18 1023 54 10000 0.97 80 15:20 02.03.2022
2816 Clear 18 1024 55 10000 2.02 105 13:35 02.03.2022
2817 Clear 17 1024 55 10000 2.15 106 12:45 02.03.2022
2818 Clear 17 1025 55 10000 2.11 81 12:21 02.03.2022
2819 Clear 14 1025 58 10000 2.52 82 11:26 02.03.2022
2820 Clear 13 1025 58 10000 2.52 82 10:30 02.03.2022
2821 Clear 13 1025 58 10000 2.52 82 10:30 02.03.2022
2822 Clear 10 1025 63 10000 2.75 64 09:31 02.03.2022
2823 Clear 10 1024 72 10000 3.58 56 08:28 02.03.2022
2824 Clouds 10 1024 72 10000 3.86 63 07:23 02.03.2022
2825 Clouds 11 1024 73 10000 4.86 66 03:56 02.03.2022
2826 Clouds 15 1025 72 10000 5.1 67 00:40 02.03.2022
2827 Clouds 14 1025 72 10000 5.8 72 22:53 01.03.2022
2828 Clouds 14 1025 72 10000 5.8 72 22:35 01.03.2022
2829 Clouds 16 1025 72 10000 6.26 78 21:37 01.03.2022
2830 Clouds 16 1025 71 10000 6.59 79 20:38 01.03.2022
2831 Clear 16 1025 69 10000 6.57 74 20:19 01.03.2022
2832 Clear 17 1024 67 10000 6.95 72 18:52 01.03.2022
2833 Clear 17 1023 64 10000 7.84 79 18:21 01.03.2022
2834 Clear 18 1023 64 10000 7.84 79 17:39 01.03.2022
2835 Clear 17 1023 61 10000 8.65 83 16:36 01.03.2022
2836 Clear 17 1024 60 10000 8.62 82 15:47 01.03.2022
2837 Clear 17 1024 61 10000 8.85 82 14:42 01.03.2022
2838 Clear 17 1025 62 10000 8.63 81 14:23 01.03.2022
2839 Clear 16 1026 64 10000 8.49 80 13:26 01.03.2022
2840 Clear 16 1026 64 10000 8.43 80 12:35 01.03.2022
2841 Clear 15 1026 67 10000 8.93 79 10:52 01.03.2022
2842 Clear 14 1025 72 10000 9 76 09:27 01.03.2022
2843 Clear 14 1025 72 10000 9.89 78 08:20 01.03.2022
2844 Clear 14 1025 72 10000 10.26 79 06:47 01.03.2022
2845 Clear 14 1026 75 10000 11.4 92 02:57 01.03.2022
2846 Clear 15 1026 75 10000 11.71 91 00:47 01.03.2022
2847 Clear 15 1026 75 10000 11.82 87 23:39 28.02.2022
2848 Clear 15 1027 74 10000 11.84 84 22:38 28.02.2022
2849 Clear 15 1027 73 10000 11.18 84 21:43 28.02.2022
2850 Clear 15 1027 73 10000 10.77 85 20:34 28.02.2022
2851 Clear 15 1026 73 10000 10.64 85 19:51 28.02.2022
2852 Clouds 16 1026 73 10000 10.52 84 18:50 28.02.2022
2853 Clouds 16 1025 73 10000 10.63 84 17:37 28.02.2022
2854 Clouds 16 1025 72 10000 10.8 87 17:18 28.02.2022
2855 Clouds 17 1024 71 10000 10.89 90 16:21 28.02.2022
2856 Clouds 16 1025 71 10000 10.99 93 14:32 28.02.2022
2857 Clouds 16 1025 73 10000 11.06 94 13:53 28.02.2022
2858 Clouds 16 1026 73 10000 11.33 94 13:19 28.02.2022
2859 Clouds 16 1025 75 10000 10.89 94 11:59 28.02.2022
2860 Clouds 15 1025 76 10000 11.01 92 11:19 28.02.2022
2861 Clouds 15 1025 78 10000 10.49 91 10:22 28.02.2022
2862 Clouds 15 1025 78 10000 10.49 91 09:44 28.02.2022
2863 Clouds 14 1024 80 10000 9.43 89 08:52 28.02.2022
2864 Clouds 14 1023 81 10000 8 86 07:58 28.02.2022
2865 Clouds 14 1022 82 10000 7.91 81 05:54 28.02.2022
2866 Clouds 15 1022 82 10000 7.96 78 04:30 28.02.2022
2867 Clouds 14 1022 81 10000 9.67 84 00:52 28.02.2022
2868 Clouds 15 1023 82 10000 8.53 83 22:44 27.02.2022
2869 Clouds 15 1022 83 10000 8.41 84 22:26 27.02.2022
2870 Clouds 15 1022 83 10000 8.41 84 21:37 27.02.2022
2871 Clouds 15 1022 82 10000 8.29 87 20:43 27.02.2022
2872 Clouds 15 1022 83 10000 8.27 83 20:18 27.02.2022
2873 Clouds 15 1022 83 10000 8.27 83 19:43 27.02.2022
2874 Clouds 15 1021 84 10000 8.39 80 19:21 27.02.2022
2875 Clouds 15 1020 81 10000 9.21 79 18:24 27.02.2022
2876 Clouds 15 1020 81 10000 9.21 79 17:45 27.02.2022
2877 Clouds 14 1020 81 10000 9.56 86 16:23 27.02.2022
2878 Clouds 15 1021 84 10000 9.76 88 14:29 27.02.2022
2879 Clouds 14 1022 82 10000 9.04 83 12:36 27.02.2022
2880 Clouds 14 1021 83 10000 9.58 84 11:46 27.02.2022
2881 Clouds 13 1021 87 10000 9.5 81 10:36 27.02.2022
2882 Clouds 13 1021 87 10000 9.37 80 09:58 27.02.2022
2883 Rain 14 1020 87 10000 9.3 80 09:23 27.02.2022
2884 Rain 14 1020 87 10000 9.3 80 08:45 27.02.2022
2885 Clouds 13 1019 87 10000 9.82 80 05:45 27.02.2022
2886 Clouds 13 1019 87 10000 9.81 88 03:35 27.02.2022
2887 Clouds 15 1019 85 10000 11.74 91 23:52 26.02.2022
2888 Clouds 15 1019 86 10000 12.06 88 22:42 26.02.2022
2889 Clouds 15 1018 88 10000 11.86 89 21:27 26.02.2022
2890 Clouds 15 1018 88 10000 11.84 89 20:41 26.02.2022
2891 Clouds 16 1017 88 10000 11.75 86 19:56 26.02.2022
2892 Clouds 15 1017 88 10000 11.75 86 19:33 26.02.2022
2893 Clouds 16 1017 89 10000 10.58 86 18:33 26.02.2022
2894 Clouds 16 1017 90 10000 10.65 88 17:36 26.02.2022
2895 Clouds 16 1016 90 10000 11.37 90 16:39 26.02.2022
2896 Clouds 16 1016 91 10000 11.45 90 15:38 26.02.2022
2897 Clouds 16 1017 91 10000 11.5 90 15:19 26.02.2022
2898 Clouds 16 1017 91 10000 11.5 90 14:42 26.02.2022
2899 Clouds 16 1017 90 10000 12.05 90 13:53 26.02.2022
2900 Clouds 16 1018 89 10000 12.64 90 12:53 26.02.2022
2901 Clouds 16 1018 89 10000 13.31 90 11:52 26.02.2022
2902 Clouds 16 1018 90 10000 13.08 89 11:25 26.02.2022
2903 Clouds 16 1017 90 10000 12.9 90 09:44 26.02.2022
2904 Clouds 15 1016 91 10000 12.79 90 08:28 26.02.2022
2905 Clouds 15 1016 92 10000 12.78 88 06:31 26.02.2022
2906 Clouds 15 1018 88 10000 13.46 89 23:52 25.02.2022
2907 Clouds 16 1018 88 10000 13.29 90 22:34 25.02.2022
2908 Clouds 16 1018 88 10000 13.52 92 21:32 25.02.2022
2909 Clouds 16 1018 88 10000 13.98 89 20:51 25.02.2022
2910 Clouds 16 1018 89 10000 13.79 91 20:25 25.02.2022
2911 Clouds 16 1017 85 10000 13.16 90 17:57 25.02.2022
2912 Clouds 16 1017 85 10000 13.02 89 16:59 25.02.2022
2913 Clouds 16 1017 85 10000 12.91 87 15:56 25.02.2022
2914 Clouds 16 1018 86 10000 13.29 87 15:23 25.02.2022
2915 Clouds 16 1018 86 10000 13.29 87 14:55 25.02.2022
2916 Clouds 16 1018 86 10000 13.31 87 14:27 25.02.2022
2917 Clouds 16 1018 86 10000 13.31 87 13:30 25.02.2022
2918 Clouds 16 1020 86 10000 12.23 89 12:21 25.02.2022
2919 Clouds 16 1019 84 10000 10.49 81 11:22 25.02.2022
2920 Clouds 16 1019 86 10000 10.54 79 10:23 25.02.2022
2921 Clouds 16 1019 86 10000 10.54 79 10:23 25.02.2022
2922 Clouds 16 1019 86 10000 10.54 79 09:46 25.02.2022
2923 Clouds 15 1019 85 10000 8.78 84 08:41 25.02.2022
2924 Clouds 15 1018 86 10000 7.68 80 07:31 25.02.2022
2925 Clouds 15 1018 87 10000 7.34 74 05:42 25.02.2022
2926 Clouds 15 1019 91 10000 5.97 69 02:48 25.02.2022
2927 Clouds 15 1020 91 10000 5.52 85 22:48 24.02.2022
2928 Clouds 15 1019 90 10000 5.5 76 21:51 24.02.2022
2929 Clouds 15 1019 90 10000 5.51 76 21:51 24.02.2022
2930 Clouds 15 1019 90 10000 5.51 76 21:30 24.02.2022
2931 Clouds 15 1020 90 10000 5.29 90 20:47 24.02.2022
2932 Clouds 15 1020 88 10000 4.28 81 19:32 24.02.2022
2933 Clouds 15 1017 77 10000 5.42 90 18:21 24.02.2022
2934 Rain 15 1017 77 10000 5.42 90 17:58 24.02.2022
2935 Rain 15 1017 77 10000 5.42 90 17:33 24.02.2022
2936 Rain 15 1019 74 10000 3.26 67 16:28 24.02.2022
2937 Rain 16 1019 74 10000 3.29 67 15:44 24.02.2022
2938 Rain 17 1019 75 10000 4.86 71 14:51 24.02.2022
2939 Rain 17 1019 73 10000 5.51 76 14:19 24.02.2022
2940 Rain 17 1019 73 10000 5.51 76 13:39 24.02.2022
2941 Rain 17 1019 73 10000 5.51 76 13:39 24.02.2022
2942 Clouds 17 1021 72 10000 4.28 80 12:27 24.02.2022
2943 Clouds 16 1021 74 10000 5.06 86 10:39 24.02.2022
2944 Clouds 14 1020 78 10000 6.09 85 08:46 24.02.2022
2945 Clouds 14 1019 81 10000 6.15 81 08:22 24.02.2022
2946 Clouds 15 1021 86 10000 3.04 74 05:50 24.02.2022
2947 Clouds 15 1020 87 10000 6.59 72 00:32 24.02.2022
2948 Clouds 16 1021 86 10000 6.47 81 22:29 23.02.2022
2949 Clouds 16 1021 86 10000 6.47 81 21:34 23.02.2022
2950 Clouds 16 1021 85 10000 6.79 81 20:30 23.02.2022
2951 Clouds 16 1021 84 10000 7.25 84 19:44 23.02.2022
2952 Clouds 18 1020 76 10000 7.68 85 18:32 23.02.2022
2953 Clouds 18 1020 72 10000 8.14 84 17:21 23.02.2022
2954 Clouds 18 1021 69 10000 8.2 83 14:34 23.02.2022
2955 Clouds 18 1023 68 10000 7.91 84 12:37 23.02.2022
2956 Clouds 17 1023 70 10000 8.22 82 11:23 23.02.2022
2957 Clouds 16 1023 70 10000 8.22 82 10:30 23.02.2022
2958 Clouds 16 1022 79 10000 8.01 81 08:57 23.02.2022
2959 Clouds 16 1022 78 10000 8.5 79 07:57 23.02.2022
2960 Clouds 15 1022 79 10000 9.04 78 03:48 23.02.2022
2961 Clouds 16 1024 82 10000 8.46 83 00:19 23.02.2022
2962 Clouds 16 1024 80 10000 8.02 81 23:35 22.02.2022
2963 Clouds 16 1024 80 10000 8.03 81 22:31 22.02.2022
2964 Clouds 16 1024 77 10000 7.84 80 21:48 22.02.2022
2965 Clouds 16 1024 79 10000 7.28 82 21:25 22.02.2022
2966 Clouds 16 1024 79 10000 7.28 82 20:49 22.02.2022
2967 Clouds 16 1024 82 10000 6.8 83 20:29 22.02.2022
2968 Clouds 16 1024 82 10000 6.8 83 19:34 22.02.2022
2969 Clouds 19 1024 78 10000 6.86 80 18:58 22.02.2022
2970 Clouds 18 1023 71 10000 6.97 78 17:36 22.02.2022
2971 Clouds 18 1024 66 10000 7.44 78 17:18 22.02.2022
2972 Clouds 18 1024 66 10000 7.44 78 16:36 22.02.2022
2973 Clouds 17 1024 65 10000 7.04 83 15:37 22.02.2022
2974 Clear 18 1024 65 10000 7.11 84 14:42 22.02.2022
2975 Clear 17 1026 67 10000 6.42 86 11:41 22.02.2022
2976 Clear 15 1026 78 10000 5.55 77 10:24 22.02.2022
2977 Clear 13 1025 87 10000 5.42 77 07:43 22.02.2022
2978 Clouds 13 1025 87 10000 5.59 75 07:25 22.02.2022
2979 Clouds 15 1026 88 10000 5.63 74 02:51 22.02.2022
2980 Clear 14 1026 89 10000 5.58 64 00:44 22.02.2022
2981 Clear 15 1026 88 10000 4.38 75 22:38 21.02.2022
2982 Clear 15 1026 86 10000 4.44 89 21:25 21.02.2022
2983 Clear 15 1025 84 10000 4.56 83 20:19 21.02.2022
2984 Clear 16 1024 81 10000 4.57 79 18:40 21.02.2022
2985 Clear 18 1024 74 10000 5.83 74 16:40 21.02.2022
2986 Clouds 18 1026 74 10000 7.84 82 14:24 21.02.2022
2987 Clouds 17 1026 74 10000 7.84 82 13:56 21.02.2022
2988 Clouds 17 1026 75 10000 8.48 91 12:58 21.02.2022
2989 Clouds 17 1027 75 10000 7.9 92 12:22 21.02.2022
2990 Clouds 16 1027 77 10000 7.67 83 10:35 21.02.2022
2991 Clouds 15 1026 82 10000 7.5 71 08:31 21.02.2022
2992 Clouds 15 1026 84 10000 9.87 87 00:56 21.02.2022
2993 Clouds 15 1027 85 10000 10.4 82 22:40 20.02.2022
2994 Clouds 15 1027 85 10000 9.46 85 21:54 20.02.2022
2995 Clouds 15 1027 84 10000 9.93 79 21:25 20.02.2022
2996 Clouds 15 1027 84 10000 9.91 79 20:50 20.02.2022
2997 Clouds 15 1026 83 10000 10.26 76 20:21 20.02.2022
2998 Clouds 15 1026 83 10000 10.85 75 19:21 20.02.2022
2999 Clouds 16 1025 82 10000 10.84 78 18:42 20.02.2022
3000 Clouds 16 1025 82 10000 11.29 77 18:23 20.02.2022
3001 Clouds 16 1025 82 10000 11.29 77 17:30 20.02.2022
3002 Clouds 16 1025 81 10000 12.21 88 15:29 20.02.2022
3003 Clouds 16 1026 83 10000 12.08 87 14:20 20.02.2022
3004 Clouds 16 1026 83 10000 11.46 90 12:51 20.02.2022
3005 Clouds 16 1026 84 10000 10.78 89 11:56 20.02.2022
3006 Clouds 15 1025 86 10000 9.39 90 10:21 20.02.2022
3007 Clouds 15 1025 86 10000 9.37 90 09:51 20.02.2022
3008 Clouds 15 1024 88 10000 3.69 76 06:30 20.02.2022
3009 Clouds 13 1024 79 10000 1.94 262 00:33 20.02.2022
3010 Clouds 13 1024 81 10000 2.6 250 23:39 19.02.2022
3011 Clouds 14 1022 81 10000 3.91 236 22:25 19.02.2022
3012 Clouds 12 1022 81 10000 3.91 236 21:52 19.02.2022
3013 Clouds 15 1022 81 10000 4.23 242 20:45 19.02.2022
3014 Clouds 15 1021 80 10000 4.55 250 19:36 19.02.2022
3015 Clouds 16 1020 77 10000 5.08 256 18:41 19.02.2022
3016 Clouds 16 1020 74 10000 5.63 265 17:59 19.02.2022
3017 Clouds 16 1020 74 10000 5.66 265 17:32 19.02.2022
3018 Clouds 18 1019 72 10000 6.55 269 15:59 19.02.2022
3019 Clouds 17 1019 71 10000 6.79 265 14:55 19.02.2022
3020 Clouds 17 1020 71 10000 6.84 265 13:58 19.02.2022
3021 Clouds 17 1020 72 10000 6.69 261 11:58 19.02.2022
3022 Clouds 15 1020 75 10000 6.19 262 11:24 19.02.2022
3023 Clouds 13 1019 83 10000 5.61 284 09:00 19.02.2022
3024 Clouds 15 1018 86 10000 5.99 289 06:49 19.02.2022
3025 Clouds 15 1018 89 10000 5.21 256 00:50 19.02.2022
3026 Clouds 16 1019 90 10000 4.82 250 22:33 18.02.2022
3027 Clouds 16 1019 89 10000 4.33 256 21:26 18.02.2022
3028 Clouds 16 1019 89 10000 4.27 261 20:24 18.02.2022
3029 Clouds 16 1019 89 10000 4.27 261 19:50 18.02.2022
3030 Clouds 17 1018 86 10000 4.77 265 18:37 18.02.2022
3031 Clouds 18 1017 80 10000 4.74 273 18:18 18.02.2022
3032 Clouds 18 1018 76 10000 5.01 272 17:18 18.02.2022
3033 Clear 19 1019 73 10000 4.87 273 14:30 18.02.2022
3034 Clear 19 1019 68 10000 3.88 267 13:46 18.02.2022
3035 Clouds 17 1020 66 10000 2.71 249 12:50 18.02.2022
3036 Clouds 14 1021 67 10000 2.07 240 11:57 18.02.2022
3037 Clouds 13 1021 69 10000 1.3 228 10:45 18.02.2022
3038 Clear 12 1021 81 10000 0.91 113 08:47 18.02.2022
3039 Clear 12 1020 85 10000 2.95 72 06:35 18.02.2022
3040 Clear 11 1020 85 10000 3.08 74 05:34 18.02.2022
3041 Clouds 15 1022 78 10000 3.14 75 22:20 17.02.2022
3042 Clouds 15 1022 78 10000 3.13 75 21:38 17.02.2022
3043 Clouds 16 1023 77 10000 2.08 65 20:43 17.02.2022
3044 Clouds 17 1023 77 10000 0.59 32 19:55 17.02.2022
3045 Clear 17 1023 77 10000 1.42 293 19:22 17.02.2022
3046 Clouds 19 1022 75 10000 2.3 257 18:29 17.02.2022
3047 Clouds 18 1022 75 10000 2.32 257 17:42 17.02.2022
3048 Clear 18 1023 72 10000 2.87 264 15:57 17.02.2022
3049 Clear 17 1026 70 10000 4.22 257 14:29 17.02.2022
3050 Clear 17 1026 70 10000 4.22 257 13:31 17.02.2022
3051 Clouds 16 1027 71 10000 5.21 249 11:48 17.02.2022
3052 Clouds 13 1027 74 10000 4.37 249 10:20 17.02.2022
3053 Clouds 13 1027 80 10000 4.6 251 07:45 17.02.2022
3054 Clouds 15 1029 72 10000 4.75 273 23:23 16.02.2022
3055 Clouds 15 1029 68 10000 4.99 267 22:28 16.02.2022
3056 Clouds 16 1029 69 10000 5.27 260 20:22 16.02.2022
3057 Clouds 18 1028 69 10000 5.67 263 18:56 16.02.2022
3058 Clouds 19 1028 64 10000 6.01 264 17:56 16.02.2022
3059 Clouds 19 1028 60 10000 6.57 267 17:22 16.02.2022
3060 Clear 19 1028 53 10000 6.53 270 15:22 16.02.2022
3061 Clear 18 1029 51 10000 6.38 268 13:40 16.02.2022
3062 Clouds 18 1030 49 10000 5.67 268 12:24 16.02.2022
3063 Clouds 17 1030 49 10000 5.67 268 11:45 16.02.2022
3064 Clouds 15 1030 48 10000 5.18 272 10:34 16.02.2022
3065 Clouds 13 1030 51 10000 4.62 281 09:34 16.02.2022
3066 Clouds 9 1028 55 10000 3 285 06:43 16.02.2022
3067 Clouds 14 1029 57 10000 0.63 319 00:37 16.02.2022
3068 Clear 15 1029 56 10000 1.84 353 22:34 15.02.2022
3069 Clear 13 1029 54 10000 1.9 346 21:50 15.02.2022
3070 Clear 16 1028 52 10000 1.02 333 21:29 15.02.2022
3071 Clear 13 1028 52 10000 1.02 333 20:57 15.02.2022
3072 Clear 16 1028 50 10000 0.38 277 20:19 15.02.2022
3073 Clear 17 1028 50 10000 0.38 277 19:33 15.02.2022
3074 Clear 18 1027 48 10000 0.72 255 18:24 15.02.2022
3075 Clear 18 1027 48 10000 0.72 255 17:52 15.02.2022
3076 Clear 18 1027 43 10000 0.1 270 17:28 15.02.2022
3077 Clear 19 1027 44 10000 0.51 118 15:36 15.02.2022
3078 Clear 17 1028 46 10000 0.77 55 13:49 15.02.2022
3079 Clouds 17 1028 46 10000 0.76 75 13:25 15.02.2022
3080 Clouds 15 1029 46 10000 1.21 93 11:41 15.02.2022
3081 Clouds 15 1029 46 10000 1.21 93 11:41 15.02.2022
3082 Clouds 11 1028 54 10000 0.38 77 09:54 15.02.2022
3083 Clouds 10 1027 61 10000 0.67 5 07:41 15.02.2022
3084 Clear 10 1026 61 10000 1.01 354 06:36 15.02.2022
3085 Clouds 14 1026 64 10000 3.06 324 23:34 14.02.2022
3086 Clouds 15 1025 67 10000 3.74 307 21:55 14.02.2022
3087 Clouds 14 1024 68 10000 4.33 306 20:51 14.02.2022
3088 Clouds 16 1024 68 10000 5.22 304 19:46 14.02.2022
3089 Clouds 16 1023 66 10000 5.95 292 19:26 14.02.2022
3090 Clouds 17 1022 62 10000 6.75 284 18:23 14.02.2022
3091 Clouds 18 1022 55 10000 7.2 281 17:27 14.02.2022
3092 Clouds 18 1022 52 10000 7.38 276 16:26 14.02.2022
3093 Clear 18 1022 53 10000 6.82 273 14:43 14.02.2022
3094 Clear 16 1022 57 10000 6.07 281 13:34 14.02.2022
3095 Clouds 16 1023 64 10000 5.88 296 12:56 14.02.2022
3096 Clouds 15 1023 76 10000 5.1 299 11:55 14.02.2022
3097 Clouds 15 1023 82 10000 4.72 274 11:18 14.02.2022
3098 Clouds 15 1022 85 10000 5.26 242 09:19 14.02.2022
3099 Clouds 14 1021 84 10000 4.93 256 07:33 14.02.2022
3100 Clouds 14 1021 84 10000 4.93 256 07:33 14.02.2022
3101 Clouds 14 1021 81 10000 4.86 259 06:32 14.02.2022
3102 Clouds 14 1022 82 10000 1.62 333 22:43 13.02.2022
3103 Clouds 14 1022 82 10000 0.83 112 22:25 13.02.2022
3104 Clouds 14 1022 82 10000 0.83 113 21:36 13.02.2022
3105 Clouds 14 1022 83 10000 2.32 102 20:42 13.02.2022
3106 Clouds 15 1022 83 10000 2.81 93 19:51 13.02.2022
3107 Clouds 15 1020 83 10000 2.71 100 18:54 13.02.2022
3108 Clouds 15 1020 83 10000 2.71 100 18:35 13.02.2022
3109 Clouds 16 1020 74 10000 3.58 80 16:39 13.02.2022
3110 Clouds 16 1021 71 10000 4.57 80 15:27 13.02.2022
3111 Clouds 16 1021 71 10000 4.57 80 14:37 13.02.2022
3112 Clouds 16 1023 70 10000 4.98 90 12:52 13.02.2022
3113 Clouds 16 1024 69 10000 4.85 90 12:18 13.02.2022
3114 Clouds 15 1023 71 10000 4.98 92 10:38 13.02.2022
3115 Clouds 15 1023 74 10000 4.94 89 09:49 13.02.2022
3116 Clouds 11 1023 80 10000 5.27 86 07:52 13.02.2022
3117 Clouds 15 1024 82 10000 5.4 82 00:36 13.02.2022
3118 Clouds 12 1024 81 10000 5.3 82 23:54 12.02.2022
3119 Clouds 15 1025 80 10000 5.35 83 22:33 12.02.2022
3120 Clouds 15 1025 78 10000 5.47 84 21:36 12.02.2022
3121 Clouds 14 1024 77 10000 5.77 87 20:52 12.02.2022
3122 Clouds 15 1024 77 10000 5.85 85 19:48 12.02.2022
3123 Clouds 15 1024 76 10000 5.91 83 18:53 12.02.2022
3124 Clouds 15 1023 75 10000 5.87 81 18:35 12.02.2022
3125 Clouds 16 1023 71 10000 5.99 79 17:37 12.02.2022
3126 Clouds 16 1023 69 10000 6.38 79 16:43 12.02.2022
3127 Clouds 16 1023 68 10000 6.89 85 15:52 12.02.2022
3128 Clouds 16 1024 68 10000 6.94 86 14:55 12.02.2022
3129 Clouds 16 1025 67 10000 6.9 86 14:25 12.02.2022
3130 Clouds 15 1025 71 10000 7.24 93 11:20 12.02.2022
3131 Clouds 15 1025 74 10000 6.74 90 10:28 12.02.2022
3132 Clouds 15 1025 74 10000 6.74 90 09:33 12.02.2022
3133 Clouds 14 1025 78 10000 6.28 87 08:45 12.02.2022
3134 Clouds 14 1024 79 10000 6.11 87 05:41 12.02.2022
3135 Clouds 15 1024 79 10000 6.14 87 04:36 12.02.2022
3136 Clouds 12 1024 81 10000 5.84 82 02:19 12.02.2022
3137 Clear 12 1025 83 10000 4.6 78 22:57 11.02.2022
3138 Clear 15 1025 83 10000 4.71 80 22:20 11.02.2022
3139 Clear 15 1025 83 10000 4.47 81 20:52 11.02.2022
3140 Clear 15 1024 82 10000 4.35 84 20:21 11.02.2022
3141 Clear 15 1024 80 10000 4.36 82 19:27 11.02.2022
3142 Clear 16 1023 74 10000 4.38 89 18:29 11.02.2022
3143 Clear 16 1023 72 10000 4.55 92 17:26 11.02.2022
3144 Clear 16 1024 71 10000 4.68 90 16:26 11.02.2022
3145 Clear 16 1024 71 10000 4.76 86 14:59 11.02.2022
3146 Clear 16 1024 71 10000 4.76 86 14:37 11.02.2022
3147 Clear 16 1025 71 10000 4.64 85 14:18 11.02.2022
3148 Clear 16 1025 71 10000 4.64 85 13:39 11.02.2022
3149 Clouds 15 1026 72 10000 4.51 82 12:20 11.02.2022
3150 Clouds 14 1026 77 10000 4.8 81 10:29 11.02.2022
3151 Clouds 14 1025 79 10000 4.96 80 09:22 11.02.2022
3152 Clouds 14 1025 79 10000 4.94 79 08:28 11.02.2022
3153 Clouds 14 1025 81 10000 4.33 80 07:39 11.02.2022
3154 Clouds 14 1025 82 10000 4.58 78 02:40 11.02.2022
3155 Clouds 14 1026 81 10000 4.68 75 02:20 11.02.2022
3156 Clouds 14 1026 80 10000 4.91 80 23:36 10.02.2022
3157 Clouds 14 1026 80 10000 5.15 83 21:53 10.02.2022
3158 Clouds 15 1026 80 10000 5.35 83 21:26 10.02.2022
3159 Clouds 15 1026 80 10000 5.35 83 20:48 10.02.2022
3160 Clouds 15 1026 79 10000 5.36 79 19:37 10.02.2022
3161 Clouds 15 1026 77 10000 5.66 79 19:18 10.02.2022
3162 Clouds 16 1025 74 10000 5.96 83 17:39 10.02.2022
3163 Clouds 16 1025 71 10000 6.47 83 17:19 10.02.2022
3164 Clouds 16 1026 70 10000 6.88 83 16:20 10.02.2022
3165 Clouds 16 1026 70 10000 6.88 83 15:33 10.02.2022
3166 Clouds 17 1026 68 10000 7.01 86 14:49 10.02.2022
3167 Clouds 17 1027 68 10000 6.99 86 14:29 10.02.2022
3168 Clouds 16 1027 68 10000 6.99 86 13:33 10.02.2022
3169 Clouds 16 1028 69 10000 6.9 87 12:51 10.02.2022
3170 Clouds 16 1028 70 10000 7.14 88 11:44 10.02.2022
3171 Clouds 15 1028 71 10000 7.12 87 11:25 10.02.2022
3172 Clouds 15 1028 73 10000 6.69 86 10:19 10.02.2022
3173 Clouds 14 1027 74 10000 6.85 86 09:25 10.02.2022
3174 Clouds 14 1027 75 10000 6.98 85 07:40 10.02.2022
3175 Clouds 14 1027 76 10000 7.26 86 05:52 10.02.2022
3176 Clouds 14 1027 76 10000 8.38 85 01:57 10.02.2022
3177 Clouds 14 1028 77 10000 8.06 83 00:50 10.02.2022
3178 Clouds 14 1028 77 10000 8.06 83 00:50 10.02.2022
3179 Clouds 14 1028 76 10000 8.14 83 00:29 10.02.2022
3180 Clouds 14 1028 75 10000 8.19 83 23:26 09.02.2022
3181 Clouds 15 1028 75 10000 8.19 83 22:37 09.02.2022
3182 Clouds 14 1028 74 10000 8.4 85 21:52 09.02.2022
3183 Clouds 15 1028 74 10000 8.4 85 21:30 09.02.2022
3184 Clouds 15 1028 74 10000 8.24 85 20:51 09.02.2022
3185 Clouds 15 1028 74 10000 8.24 85 20:31 09.02.2022
3186 Clouds 15 1028 74 10000 8.3 85 19:56 09.02.2022
3187 Clouds 15 1028 74 10000 8.49 87 19:32 09.02.2022
3188 Clouds 15 1027 74 10000 8.66 86 17:38 09.02.2022
3189 Clouds 16 1027 74 10000 9.05 87 16:52 09.02.2022
3190 Clouds 17 1028 73 10000 9.24 88 15:51 09.02.2022
3191 Clouds 16 1028 73 10000 9.4 88 14:42 09.02.2022
3192 Clouds 15 1029 76 10000 10.23 89 12:28 09.02.2022
3193 Clouds 15 1029 77 10000 10.34 90 10:55 09.02.2022
3194 Clouds 15 1029 77 10000 10.34 90 10:30 09.02.2022
3195 Clouds 15 1029 77 10000 10.39 90 09:40 09.02.2022
3196 Clouds 15 1029 75 10000 10.58 91 09:19 09.02.2022
3197 Clouds 15 1028 75 10000 11.13 92 07:55 09.02.2022
3198 Clouds 15 1028 76 10000 11.46 90 05:30 09.02.2022
3199 Clouds 15 1028 76 10000 11.46 90 05:30 09.02.2022
3200 Clouds 15 1028 76 10000 11.4 90 03:50 09.02.2022
3201 Clouds 15 1028 80 10000 11.9 90 00:44 09.02.2022
3202 Clouds 15 1028 80 10000 12.18 92 23:32 08.02.2022
3203 Clouds 15 1028 80 10000 12.18 92 23:32 08.02.2022
3204 Clouds 15 1028 80 10000 12.18 92 23:32 08.02.2022
3205 Clouds 15 1028 80 10000 12.18 92 23:32 08.02.2022
3206 Clouds 15 1028 80 10000 12.24 92 22:46 08.02.2022
3207 Clouds 15 1028 80 10000 11.63 91 22:21 08.02.2022
3208 Clouds 15 1028 80 10000 11.63 91 21:39 08.02.2022
3209 Clouds 15 1028 79 10000 11.22 91 21:20 08.02.2022
3210 Clouds 15 1028 79 10000 11.22 91 20:43 08.02.2022
3211 Clouds 15 1027 80 10000 11.44 91 19:46 08.02.2022
3212 Clouds 15 1026 80 10000 11.4 90 18:38 08.02.2022
3213 Clouds 15 1026 79 10000 11.47 91 17:40 08.02.2022
3214 Clouds 16 1026 78 10000 12.45 90 16:29 08.02.2022
3215 Clear 16 1027 78 10000 12.08 90 15:29 08.02.2022
3216 Clear 16 1027 78 10000 12.08 90 14:31 08.02.2022
3217 Clouds 16 1028 76 10000 12.13 93 13:20 08.02.2022
3218 Clouds 16 1027 76 10000 12.13 93 11:33 08.02.2022
3219 Clouds 15 1027 80 10000 12.54 90 10:23 08.02.2022
3220 Clouds 15 1027 80 10000 12.54 90 09:44 08.02.2022
3221 Clouds 15 1026 80 10000 10.66 88 07:46 08.02.2022
3222 Clouds 14 1025 80 10000 10.11 85 05:37 08.02.2022
3223 Clouds 15 1025 81 10000 10.19 85 04:39 08.02.2022
3224 Clouds 15 1025 81 10000 10.08 85 04:21 08.02.2022
3225 Clouds 15 1025 81 10000 10.08 85 03:36 08.02.2022
3226 Clouds 15 1025 81 10000 9.69 87 03:18 08.02.2022
3227 Clouds 15 1025 81 10000 9.69 87 02:58 08.02.2022
3228 Clouds 15 1025 81 10000 9.69 87 02:36 08.02.2022
3229 Clouds 15 1025 81 10000 9.55 88 02:18 08.02.2022
3230 Clouds 15 1025 81 10000 9.55 88 01:43 08.02.2022
3231 Clouds 15 1025 82 10000 9.31 87 01:24 08.02.2022
3232 Clouds 15 1025 82 10000 9.31 87 00:49 08.02.2022
3233 Clouds 15 1025 82 10000 9.04 87 23:45 07.02.2022
3234 Clouds 15 1025 83 10000 8.57 86 23:19 07.02.2022
3235 Clouds 14 1025 83 10000 8.57 86 23:00 07.02.2022
3236 Clouds 15 1025 83 10000 8.25 87 22:19 07.02.2022
3237 Clouds 15 1025 83 10000 8.25 87 21:52 07.02.2022
3238 Clouds 15 1025 83 10000 8.18 86 21:29 07.02.2022
3239 Clouds 15 1025 83 10000 8.18 86 21:29 07.02.2022
3240 Clouds 15 1025 83 10000 8.18 86 20:56 07.02.2022
3241 Clouds 15 1025 83 10000 8.18 86 20:38 07.02.2022
3242 Clouds 15 1025 82 10000 8.25 84 19:47 07.02.2022
3243 Clouds 15 1024 82 10000 8.37 83 19:20 07.02.2022
3244 Clouds 16 1024 80 10000 8.21 82 17:39 07.02.2022
3245 Clouds 16 1024 77 10000 9.05 83 16:52 07.02.2022
3246 Clouds 16 1024 76 10000 9.47 84 15:49 07.02.2022
3247 Clouds 16 1024 76 10000 9.56 85 14:41 07.02.2022
3248 Clouds 16 1026 77 10000 9.84 84 13:27 07.02.2022
3249 Clouds 16 1026 77 10000 9.84 84 12:37 07.02.2022
3250 Clouds 16 1027 77 10000 10.35 85 11:55 07.02.2022
3251 Clouds 16 1026 78 10000 10.47 87 11:26 07.02.2022
3252 Clouds 16 1026 78 10000 10.47 87 10:45 07.02.2022
3253 Clouds 15 1026 80 10000 11.08 87 10:26 07.02.2022
3254 Clouds 15 1026 80 10000 11.09 87 09:52 07.02.2022
3255 Clouds 15 1026 81 10000 11.09 87 09:18 07.02.2022
3256 Clouds 14 1025 81 10000 11.05 87 07:59 07.02.2022
3257 Clouds 15 1025 81 10000 10.22 85 06:35 07.02.2022
3258 Clouds 15 1025 83 10000 10.55 88 05:26 07.02.2022
3259 Clouds 15 1026 83 10000 11.07 84 02:56 07.02.2022
3260 Clouds 15 1026 84 10000 10.84 85 00:29 07.02.2022
3261 Clouds 15 1026 84 10000 10.84 85 23:33 06.02.2022
3262 Clouds 15 1026 84 10000 11.05 86 22:45 06.02.2022
3263 Clouds 15 1026 85 10000 11.05 86 21:47 06.02.2022
3264 Clouds 15 1026 84 10000 10.64 85 21:21 06.02.2022
3265 Clouds 15 1026 84 10000 10.64 85 21:21 06.02.2022
3266 Clouds 15 1026 84 10000 10.64 85 21:21 06.02.2022
3267 Clouds 15 1026 84 10000 10.64 85 20:48 06.02.2022
3268 Clouds 15 1025 84 10000 10.71 83 20:24 06.02.2022
3269 Clouds 15 1025 85 10000 10.83 81 19:22 06.02.2022
3270 Clouds 15 1025 84 10000 10.87 80 18:34 06.02.2022
3271 Clouds 16 1024 82 10000 10.86 79 17:39 06.02.2022
3272 Clouds 16 1024 82 10000 11.22 82 16:52 06.02.2022
3273 Clouds 16 1024 81 10000 11.6 87 16:29 06.02.2022
3274 Clouds 16 1024 81 10000 11.6 87 15:47 06.02.2022
3275 Clouds 16 1024 81 10000 11.6 87 15:47 06.02.2022
3276 Clouds 16 1024 80 10000 11.48 86 15:25 06.02.2022
3277 Clouds 16 1025 80 10000 11.27 84 14:23 06.02.2022
3278 Clouds 16 1026 80 10000 11.07 86 13:23 06.02.2022
3279 Clouds 16 1026 80 10000 10.63 84 12:33 06.02.2022
3280 Clouds 15 1025 82 10000 10.26 90 10:37 06.02.2022
3281 Clouds 15 1025 84 10000 10.02 89 09:48 06.02.2022
3282 Clouds 15 1025 84 10000 9.52 86 08:41 06.02.2022
3283 Clouds 15 1024 85 10000 8.83 86 07:31 06.02.2022
3284 Clouds 15 1023 86 10000 8.19 79 05:28 06.02.2022
3285 Clouds 14 1024 88 10000 6.94 68 02:25 06.02.2022
3286 Clouds 14 1024 89 10000 6.27 66 00:49 06.02.2022
3287 Clouds 14 1024 89 10000 5.43 60 00:22 06.02.2022
3288 Clouds 15 1024 84 10000 3.08 64 21:48 05.02.2022
3289 Clouds 16 1024 80 10000 1.88 50 20:47 05.02.2022
3290 Clouds 16 1023 77 10000 0.94 355 20:22 05.02.2022
3291 Clouds 17 1023 77 10000 0.95 355 19:42 05.02.2022
3292 Clouds 18 1023 78 10000 1.79 285 18:45 05.02.2022
3293 Clouds 19 1022 74 10000 2.97 265 17:36 05.02.2022
3294 Clouds 19 1022 67 10000 3.87 254 16:24 05.02.2022
3295 Clouds 19 1022 67 10000 3.86 254 15:31 05.02.2022
3296 Clouds 19 1023 65 10000 3.81 260 13:55 05.02.2022
3297 Clouds 18 1024 66 10000 3.76 261 12:46 05.02.2022
3298 Clouds 17 1024 68 10000 3.92 261 11:47 05.02.2022
3299 Clouds 16 1024 72 10000 3.66 265 10:44 05.02.2022
3300 Clouds 14 1024 76 10000 3.72 271 09:51 05.02.2022
3301 Clouds 8 1023 80 10000 3.84 276 08:51 05.02.2022
3302 Clouds 14 1023 79 10000 4.58 287 07:27 05.02.2022
3303 Clouds 9 1023 82 10000 4.48 290 06:55 05.02.2022
3304 Clouds 15 1023 83 10000 4.59 260 02:43 05.02.2022
3305 Clouds 15 1023 80 10000 3.93 283 01:18 05.02.2022
3306 Clouds 15 1023 81 10000 4.29 281 00:36 05.02.2022
3307 Clouds 15 1024 75 10000 4.35 296 23:33 04.02.2022
3308 Clouds 15 1024 72 10000 5.23 313 22:50 04.02.2022
3309 Clouds 15 1024 68 10000 5.76 308 21:36 04.02.2022
3310 Clouds 15 1023 66 10000 5.55 298 21:18 04.02.2022
3311 Clouds 16 1023 66 10000 5.55 298 20:37 04.02.2022
3312 Clouds 17 1022 63 10000 4.91 276 19:19 04.02.2022
3313 Clouds 18 1022 58 10000 4.3 270 16:44 04.02.2022
3314 Clouds 18 1023 61 10000 5.71 282 15:19 04.02.2022
3315 Clouds 18 1023 61 10000 5.71 282 14:40 04.02.2022
3316 Clouds 18 1024 58 10000 4.94 258 12:43 04.02.2022
3317 Clouds 18 1024 69 10000 4.78 280 11:45 04.02.2022
3318 Clouds 17 1024 68 10000 4.81 273 10:55 04.02.2022
3319 Clouds 15 1024 71 10000 4.89 269 09:56 04.02.2022
3320 Clouds 12 1022 63 10000 3.78 272 07:56 04.02.2022
3321 Clouds 15 1022 66 10000 2.96 255 03:31 04.02.2022
3322 Clouds 14 1023 67 10000 3.37 264 02:34 04.02.2022
3323 Clouds 15 1023 73 10000 3.53 262 23:35 03.02.2022
3324 Clear 15 1023 73 10000 3.3 268 22:50 03.02.2022
3325 Clear 15 1023 73 10000 3.19 270 21:51 03.02.2022
3326 Clear 16 1023 74 10000 3.51 274 21:22 03.02.2022
3327 Clear 17 1023 74 10000 3.71 275 20:21 03.02.2022
3328 Clear 18 1023 74 10000 3.71 275 19:36 03.02.2022
3329 Clouds 19 1022 73 10000 3.59 269 18:56 03.02.2022
3330 Clouds 21 1022 69 10000 3.59 271 17:55 03.02.2022
3331 Clouds 21 1021 61 10000 3.78 269 16:48 03.02.2022
3332 Clouds 20 1022 55 10000 2.97 273 14:59 03.02.2022
3333 Clouds 17 1024 53 10000 1.37 241 13:19 03.02.2022
3334 Clouds 14 1024 54 10000 1.06 275 11:44 03.02.2022
3335 Clouds 9 1024 65 10000 0.66 86 08:55 03.02.2022
3336 Clouds 10 1023 69 10000 1.52 75 07:40 03.02.2022
3337 Clouds 13 1024 78 10000 3.84 74 00:34 03.02.2022
3338 Clouds 13 1024 78 10000 3.89 78 23:47 02.02.2022
3339 Clouds 14 1024 79 10000 4.52 81 22:38 02.02.2022
3340 Clouds 15 1024 80 10000 4.88 84 21:42 02.02.2022
3341 Clouds 15 1024 80 10000 4.8 87 21:24 02.02.2022
3342 Clouds 15 1024 80 10000 5.24 83 20:19 02.02.2022
3343 Clouds 15 1024 80 10000 5.24 83 19:45 02.02.2022
3344 Clouds 15 1024 78 10000 5.24 83 18:53 02.02.2022
3345 Clear 16 1024 72 10000 4.91 86 18:22 02.02.2022
3346 Clear 16 1024 68 10000 5.53 83 17:20 02.02.2022
3347 Clear 16 1024 68 10000 5.53 83 16:47 02.02.2022
3348 Clear 16 1026 67 10000 6.96 82 14:18 02.02.2022
3349 Clear 16 1027 68 10000 6.66 83 12:26 02.02.2022
3350 Clear 15 1027 68 10000 6.66 83 11:40 02.02.2022
3351 Clear 15 1027 71 10000 6.96 84 10:38 02.02.2022
3352 Clear 14 1026 76 10000 8.65 88 07:42 02.02.2022
3353 Clouds 15 1027 78 10000 8.03 86 01:36 02.02.2022
3354 Clouds 13 1027 80 10000 6.79 83 21:59 01.02.2022
3355 Clouds 15 1027 80 10000 6.71 86 20:49 01.02.2022
3356 Clear 16 1026 72 10000 4.74 80 18:35 01.02.2022
3357 Clear 17 1025 61 10000 2.19 82 16:43 01.02.2022
3358 Clear 19 1025 50 10000 3.44 236 14:56 01.02.2022
3359 Clear 19 1026 52 10000 4.95 261 12:49 01.02.2022
3360 Clear 17 1026 53 10000 4.85 260 11:48 01.02.2022
3361 Clear 7 1025 60 10000 4.58 271 06:57 01.02.2022
3362 Clear 15 1026 60 10000 2.99 282 23:54 31.01.2022
3363 Clear 15 1026 60 10000 2.99 282 23:54 31.01.2022
3364 Clear 15 1026 60 10000 3 282 23:36 31.01.2022
3365 Clear 15 1026 60 10000 3 282 23:36 31.01.2022
3366 Clear 16 1027 62 10000 2.66 284 22:27 31.01.2022
3367 Clear 18 1027 62 10000 2.66 284 21:34 31.01.2022
3368 Clear 18 1026 63 10000 2.51 280 20:34 31.01.2022
3369 Clear 17 1025 64 10000 2.5 265 19:46 31.01.2022
3370 Clear 19 1025 63 10000 3.3 252 18:31 31.01.2022
3371 Clear 19 1025 64 10000 3.35 248 18:31 31.01.2022
3372 Clear 20 1024 60 10000 3.67 247 17:53 31.01.2022
3373 Clear 20 1024 54 10000 3.35 249 16:58 31.01.2022
3374 Clear 19 1025 50 10000 3.58 249 15:44 31.01.2022
3375 Clear 18 1026 46 10000 3.49 251 14:25 31.01.2022
3376 Clear 17 1027 46 10000 2.81 273 12:51 31.01.2022
3377 Clear 14 1027 47 10000 2.11 281 11:59 31.01.2022
3378 Clear 12 1027 51 10000 1.46 294 10:54 31.01.2022
3379 Clear 11 1027 51 10000 1.46 294 10:36 31.01.2022
3380 Clear 11 1027 58 10000 0.69 316 09:34 31.01.2022
3381 Clear 13 1026 64 10000 0.68 37 08:52 31.01.2022
3382 Clear 10 1026 69 10000 1.09 58 08:20 31.01.2022
3383 Clouds 11 1026 71 10000 1.5 65 06:36 31.01.2022
3384 Clouds 11 1025 76 10000 2.98 64 05:20 31.01.2022
3385 Clear 15 1026 79 10000 5.1 79 23:20 30.01.2022
3386 Clear 15 1026 79 10000 5.1 79 22:30 30.01.2022
3387 Clear 15 1026 79 10000 5.1 79 22:30 30.01.2022
3388 Clear 15 1026 79 10000 5.34 81 21:43 30.01.2022
3389 Clear 15 1026 79 10000 5.65 81 21:20 30.01.2022
3390 Clear 15 1026 78 10000 5.5 80 20:50 30.01.2022
3391 Clear 15 1026 78 10000 5.77 81 20:29 30.01.2022
3392 Clear 15 1026 78 10000 5.77 81 19:53 30.01.2022
3393 Clear 16 1025 76 10000 6.35 82 18:44 30.01.2022
3394 Clear 16 1025 72 10000 7.05 83 18:20 30.01.2022
3395 Clear 16 1025 70 10000 7.63 80 17:28 30.01.2022
3396 Clear 17 1025 70 10000 7.63 80 16:41 30.01.2022
3397 Clear 17 1025 69 10000 8.14 82 16:22 30.01.2022
3398 Clear 17 1025 69 10000 8.14 82 15:52 30.01.2022
3399 Clear 17 1025 69 10000 8.14 82 15:32 30.01.2022
3400 Clear 17 1025 68 10000 8.59 85 14:46 30.01.2022
3401 Clouds 17 1027 68 10000 9.6 85 12:54 30.01.2022
3402 Clouds 17 1027 68 10000 9.6 85 12:33 30.01.2022
3403 Clouds 16 1027 70 10000 10.24 90 10:36 30.01.2022
3404 Clouds 15 1027 72 10000 10.32 90 09:56 30.01.2022
3405 Clouds 14 1027 73 10000 10.26 89 08:58 30.01.2022
3406 Clouds 15 1026 73 10000 10.4 90 07:55 30.01.2022
3407 Clouds 15 1027 70 10000 12.29 92 02:29 30.01.2022
3408 Clouds 15 1027 70 10000 12.29 92 01:39 30.01.2022
3409 Clear 15 1027 73 10000 12.41 93 23:21 29.01.2022
3410 Clear 15 1027 74 10000 12.32 95 21:59 29.01.2022
3411 Clouds 15 1027 75 10000 12.57 96 21:26 29.01.2022
3412 Clouds 15 1027 75 10000 12.57 96 20:38 29.01.2022
3413 Clouds 15 1027 75 10000 12.75 97 19:36 29.01.2022
3414 Clear 16 1027 74 10000 12.76 95 19:00 29.01.2022
3415 Clear 16 1027 76 10000 12.16 96 18:30 29.01.2022
3416 Clear 16 1027 74 10000 12.67 95 17:41 29.01.2022
3417 Clear 16 1027 73 10000 13.17 96 16:42 29.01.2022
3418 Clouds 16 1027 73 10000 13.55 96 14:33 29.01.2022
3419 Clouds 16 1027 74 10000 13.59 95 13:45 29.01.2022
3420 Clouds 16 1028 74 10000 13.94 94 13:25 29.01.2022
3421 Clouds 16 1028 74 10000 13.94 94 12:36 29.01.2022
3422 Clouds 16 1028 75 10000 14.01 95 11:38 29.01.2022
3423 Clouds 15 1027 77 10000 13.64 97 09:49 29.01.2022
3424 Clouds 15 1026 79 10000 13.86 99 06:55 29.01.2022
3425 Clear 15 1026 78 10000 13.15 100 00:49 29.01.2022
3426 Clear 15 1026 78 10000 13.15 100 00:31 29.01.2022
3427 Clear 15 1026 80 10000 13.06 102 22:51 28.01.2022
3428 Clear 15 1026 80 10000 12.97 101 22:26 28.01.2022
3429 Clear 15 1026 80 10000 12.97 101 21:52 28.01.2022
3430 Clear 15 1025 81 10000 13.03 99 20:30 28.01.2022
3431 Clear 15 1025 81 10000 13.03 99 20:30 28.01.2022
3432 Clouds 15 1025 81 10000 12.91 96 19:33 28.01.2022
3433 Clouds 15 1025 80 10000 12.83 95 18:46 28.01.2022
3434 Clouds 15 1024 78 10000 12.73 96 17:31 28.01.2022
3435 Clouds 15 1025 76 10000 13.35 96 15:20 28.01.2022
3436 Clouds 15 1025 77 10000 13.75 96 13:52 28.01.2022
3437 Clouds 15 1025 78 10000 13.81 94 12:30 28.01.2022
3438 Clouds 15 1025 80 10000 13.64 91 11:24 28.01.2022
3439 Clouds 15 1025 80 10000 13.54 91 09:52 28.01.2022
3440 Clouds 15 1024 79 10000 13.29 94 08:22 28.01.2022
3441 Clouds 15 1024 79 10000 13.29 94 07:34 28.01.2022
3442 Clouds 14 1024 79 10000 13.07 100 03:57 28.01.2022
3443 Clear 15 1024 76 10000 13.25 102 03:20 28.01.2022
3444 Clear 15 1024 74 10000 13.45 102 02:22 28.01.2022
3445 Clear 15 1024 74 10000 13.45 102 01:31 28.01.2022
3446 Clear 15 1024 72 10000 13.31 100 22:48 27.01.2022
3447 Clear 15 1024 71 10000 13.15 100 21:46 27.01.2022
3448 Clear 15 1023 71 10000 12.67 99 21:28 27.01.2022
3449 Clear 15 1023 71 10000 12.08 96 20:24 27.01.2022
3450 Clouds 15 1023 71 10000 12.27 93 18:26 27.01.2022
3451 Clouds 15 1023 71 10000 12.27 93 17:34 27.01.2022
3452 Clouds 16 1023 71 10000 12.95 89 14:35 27.01.2022
3453 Clouds 16 1024 70 10000 12.29 88 13:24 27.01.2022
3454 Clouds 15 1024 69 10000 12.22 88 12:39 27.01.2022
3455 Clouds 15 1023 72 10000 11.88 87 09:56 27.01.2022
3456 Clouds 15 1023 75 10000 12.45 87 08:41 27.01.2022
3457 Clouds 15 1022 76 10000 12.72 86 08:18 27.01.2022
3458 Clouds 15 1022 78 10000 13.26 88 03:37 27.01.2022
3459 Clouds 15 1021 72 10000 13.59 84 00:25 27.01.2022
3460 Clouds 15 1021 72 10000 13.59 84 00:25 27.01.2022
3461 Clouds 15 1021 79 10000 14.15 80 22:38 26.01.2022
3462 Clouds 15 1021 78 10000 14.55 85 21:45 26.01.2022
3463 Clouds 15 1021 79 10000 15.18 85 20:59 26.01.2022
3464 Clouds 15 1021 79 10000 15.18 85 20:35 26.01.2022
3465 Clouds 15 1021 80 10000 14.95 82 19:52 26.01.2022
3466 Clouds 15 1021 82 10000 14.54 80 18:52 26.01.2022
3467 Clouds 15 1021 82 10000 14.35 80 18:24 26.01.2022
3468 Clouds 15 1021 82 10000 14.35 80 17:39 26.01.2022
3469 Clouds 15 1021 84 10000 14.37 78 17:19 26.01.2022
3470 Clouds 15 1021 78 10000 13.8 79 16:25 26.01.2022
3471 Clouds 15 1021 78 10000 13.77 81 15:23 26.01.2022
3472 Rain 15 1022 80 10000 14.32 80 12:44 26.01.2022
3473 Rain 15 1023 84 10000 14.64 87 10:56 26.01.2022
3474 Rain 14 1023 83 10000 14.36 90 09:58 26.01.2022
3475 Rain 14 1023 83 10000 14.36 90 09:39 26.01.2022
3476 Clouds 15 1022 83 10000 14.11 92 07:28 26.01.2022
3477 Clouds 15 1024 85 10000 14.97 92 00:42 26.01.2022
3478 Clouds 15 1024 85 10000 15.22 93 23:43 25.01.2022
3479 Clouds 15 1024 84 10000 15.26 93 22:49 25.01.2022
3480 Clouds 15 1025 83 10000 15.04 94 22:19 25.01.2022
3481 Clouds 15 1025 84 10000 15.04 94 21:34 25.01.2022
3482 Clouds 15 1024 83 10000 15.19 94 20:45 25.01.2022
3483 Clouds 15 1024 82 10000 15.18 93 19:58 25.01.2022
3484 Clouds 15 1024 82 10000 15.21 93 19:58 25.01.2022
3485 Clouds 15 1024 82 10000 15.21 93 19:32 25.01.2022
3486 Clouds 15 1023 81 10000 15.03 91 17:56 25.01.2022
3487 Clouds 15 1023 81 10000 15.03 91 17:37 25.01.2022
3488 Clouds 15 1023 81 10000 14.95 90 16:35 25.01.2022
3489 Clouds 15 1023 81 10000 14.94 89 15:39 25.01.2022
3490 Clouds 15 1023 81 10000 14.88 90 15:19 25.01.2022
3491 Clouds 15 1023 81 10000 14.88 90 14:56 25.01.2022
3492 Clouds 14 1026 79 10000 14.59 90 12:21 25.01.2022
3493 Clouds 14 1025 79 10000 13.33 98 09:35 25.01.2022
3494 Clouds 14 1025 83 10000 13.57 94 07:52 25.01.2022
3495 Clouds 14 1024 83 10000 13.35 92 07:21 25.01.2022
3496 Clouds 14 1024 83 10000 13.18 93 05:26 25.01.2022
3497 Clouds 13 1024 81 10000 13.26 96 00:35 25.01.2022
3498 Clouds 14 1024 81 10000 13.37 96 23:36 24.01.2022
3499 Clouds 14 1024 82 10000 13.13 95 23:18 24.01.2022
3500 Clouds 14 1024 82 10000 13.13 95 22:42 24.01.2022
3501 Clouds 14 1024 82 10000 12.76 93 22:19 24.01.2022
3502 Clouds 14 1024 82 10000 12.76 93 21:40 24.01.2022
3503 Clouds 14 1024 81 10000 12.75 92 21:19 24.01.2022
3504 Clouds 14 1024 82 10000 12.57 90 20:26 24.01.2022
3505 Clouds 14 1024 82 10000 12.57 90 20:26 24.01.2022
3506 Clouds 14 1024 82 10000 12.57 90 19:38 24.01.2022
3507 Clouds 14 1024 86 10000 11.72 84 18:50 24.01.2022
3508 Clouds 14 1023 85 10000 11.63 83 17:39 24.01.2022
3509 Clouds 14 1023 84 10000 11.65 85 17:21 24.01.2022
3510 Clouds 13 1023 84 10000 11.65 85 16:31 24.01.2022
3511 Clouds 13 1023 80 10000 11.73 88 15:25 24.01.2022
3512 Clouds 13 1024 79 10000 12.03 88 13:58 24.01.2022
3513 Clouds 13 1024 82 10000 12.08 85 12:34 24.01.2022
3514 Clouds 13 1024 84 10000 12.22 87 11:41 24.01.2022
3515 Clouds 14 1023 85 10000 11.69 91 10:19 24.01.2022
3516 Rain 14 1023 85 10000 11.69 91 09:44 24.01.2022
3517 Clouds 14 1023 86 10000 11.66 91 07:45 24.01.2022
3518 Clouds 14 1023 76 10000 11.94 93 01:38 24.01.2022
3519 Clouds 14 1023 75 10000 11.89 93 00:50 24.01.2022
3520 Clouds 14 1023 76 10000 12.31 93 00:29 24.01.2022
3521 Clouds 14 1023 75 10000 12.31 94 22:58 23.01.2022
3522 Clouds 14 1023 75 10000 11.95 94 21:52 23.01.2022
3523 Clouds 14 1023 76 10000 11.8 93 21:27 23.01.2022
3524 Clouds 14 1023 76 10000 11.8 93 20:55 23.01.2022
3525 Clouds 15 1023 77 10000 11.96 92 20:21 23.01.2022
3526 Clouds 15 1022 78 10000 12.21 92 18:53 23.01.2022
3527 Clouds 15 1022 78 10000 11.94 93 18:22 23.01.2022
3528 Clouds 15 1022 77 10000 11.06 93 16:55 23.01.2022
3529 Clouds 15 1022 77 10000 11.32 92 15:46 23.01.2022
3530 Clouds 15 1022 76 10000 11.66 88 14:50 23.01.2022
3531 Clouds 15 1023 76 10000 12.25 90 14:18 23.01.2022
3532 Clouds 15 1024 74 10000 12.41 90 12:44 23.01.2022
3533 Clouds 15 1024 75 10000 12.32 91 12:19 23.01.2022
3534 Clouds 15 1024 75 10000 12.67 93 11:26 23.01.2022
3535 Clouds 15 1024 75 10000 12.67 93 10:57 23.01.2022
3536 Rain 15 1024 74 10000 12.82 95 10:25 23.01.2022
3537 Clouds 14 1024 74 10000 12.82 95 09:31 23.01.2022
3538 Clouds 14 1023 73 10000 12.79 92 08:33 23.01.2022
3539 Clouds 14 1022 73 10000 13.14 91 03:34 23.01.2022
3540 Clouds 14 1023 73 10000 13.33 89 01:36 23.01.2022
3541 Clouds 14 1024 72 10000 12.78 91 00:46 23.01.2022
3542 Clouds 14 1024 72 10000 12.74 93 23:59 22.01.2022
3543 Clouds 14 1024 71 10000 12.97 93 22:49 22.01.2022
3544 Clouds 14 1024 71 10000 13 93 22:19 22.01.2022
3545 Clouds 14 1024 71 10000 12.89 93 20:33 22.01.2022
3546 Clouds 15 1024 71 10000 13.05 92 19:41 22.01.2022
3547 Clouds 15 1023 73 10000 12.69 91 18:37 22.01.2022
3548 Clouds 15 1023 73 10000 12.84 92 17:45 22.01.2022
3549 Clouds 15 1023 71 10000 13.11 92 17:19 22.01.2022
3550 Clouds 15 1023 71 10000 13.11 92 16:54 22.01.2022
3551 Clouds 15 1023 70 10000 13.2 93 15:45 22.01.2022
3552 Clouds 16 1023 70 10000 13.52 93 14:42 22.01.2022
3553 Clouds 16 1024 71 10000 13.64 93 13:30 22.01.2022
3554 Clouds 15 1024 70 10000 13.31 93 12:37 22.01.2022
3555 Clouds 15 1025 72 10000 13.35 93 12:19 22.01.2022
3556 Clouds 15 1024 72 10000 13.23 93 10:54 22.01.2022
3557 Clouds 15 1024 72 10000 13.15 94 10:23 22.01.2022
3558 Clouds 12 1024 69 10000 12.89 95 08:56 22.01.2022
3559 Clouds 14 1024 69 10000 12.89 95 08:38 22.01.2022
3560 Clouds 14 1023 70 10000 12.72 93 06:46 22.01.2022
3561 Clouds 14 1023 71 10000 12.71 95 02:40 22.01.2022
3562 Clouds 13 1024 70 10000 11.67 96 23:50 21.01.2022
3563 Clouds 14 1023 69 10000 11.29 94 23:20 21.01.2022
3564 Clouds 14 1023 70 10000 10.84 91 21:34 21.01.2022
3565 Clouds 14 1023 73 10000 10.28 88 19:35 21.01.2022
3566 Clouds 14 1022 72 10000 9.26 89 17:51 21.01.2022
3567 Clouds 15 1022 67 10000 8.6 89 15:56 21.01.2022
3568 Clouds 15 1022 67 10000 8.37 90 14:58 21.01.2022
3569 Clouds 16 1023 69 10000 7.86 87 12:43 21.01.2022
3570 Clouds 15 1023 69 10000 7.7 87 11:29 21.01.2022
3571 Clouds 14 1023 69 10000 7.69 87 10:33 21.01.2022
3572 Clouds 10 1022 71 10000 6.55 85 08:58 21.01.2022
3573 Clouds 10 1022 69 10000 6.7 89 07:58 21.01.2022
3574 Clouds 12 1023 70 10000 8.12 88 01:51 21.01.2022
3575 Clouds 14 1024 72 10000 6.66 84 22:47 20.01.2022
3576 Clear 14 1024 72 10000 6.4 83 21:49 20.01.2022
3577 Clear 14 1024 71 10000 6.27 81 21:25 20.01.2022
3578 Clouds 14 1024 70 10000 6.32 81 19:47 20.01.2022
3579 Clouds 14 1024 70 10000 6.44 84 19:18 20.01.2022
3580 Clouds 15 1023 68 10000 6.55 83 17:37 20.01.2022
3581 Clouds 15 1024 66 10000 7.32 79 16:19 20.01.2022
3582 Clouds 15 1024 65 10000 7.37 83 15:29 20.01.2022
3583 Clouds 15 1025 65 10000 7.64 90 14:19 20.01.2022
3584 Clouds 15 1026 65 10000 7.69 88 12:48 20.01.2022
3585 Clouds 15 1027 65 10000 7.67 88 12:27 20.01.2022
3586 Clouds 15 1027 66 10000 7.59 93 10:59 20.01.2022
3587 Clouds 14 1026 68 10000 7.01 88 09:44 20.01.2022
3588 Clouds 13 1026 69 10000 6.63 83 08:37 20.01.2022
3589 Clouds 13 1026 72 10000 6.15 83 06:49 20.01.2022
3590 Clouds 14 1028 72 10000 6.62 87 00:30 20.01.2022
3591 Clouds 13 1028 74 10000 6.44 85 22:38 19.01.2022
3592 Clouds 14 1028 74 10000 6.4 86 21:33 19.01.2022
3593 Clouds 14 1028 74 10000 6.25 85 20:55 19.01.2022
3594 Clouds 14 1028 74 10000 6.25 85 20:30 19.01.2022
3595 Clouds 14 1027 71 10000 5.82 83 18:49 19.01.2022
3596 Clouds 14 1027 70 10000 6.05 83 17:50 19.01.2022
3597 Clouds 14 1027 69 10000 6.5 83 17:18 19.01.2022
3598 Clouds 15 1028 65 10000 7.26 84 14:55 19.01.2022
3599 Clouds 15 1030 66 10000 8.06 89 13:20 19.01.2022
3600 Clouds 15 1030 66 10000 8.02 89 11:58 19.01.2022
3601 Clouds 15 1030 67 10000 7.85 89 11:22 19.01.2022
3602 Clouds 14 1030 70 10000 7.28 87 09:35 19.01.2022
3603 Clouds 14 1029 73 10000 7.07 85 08:20 19.01.2022
3604 Clouds 12 1029 75 10000 6.33 84 05:19 19.01.2022
3605 Clouds 11 1030 72 10000 6.74 87 23:53 18.01.2022
3606 Clouds 14 1030 72 10000 6.98 88 23:18 18.01.2022
3607 Clouds 14 1030 72 10000 7.2 87 21:43 18.01.2022
3608 Clouds 14 1029 73 10000 7.06 87 20:21 18.01.2022
3609 Clouds 14 1029 72 10000 7.16 88 19:39 18.01.2022
3610 Clouds 14 1029 72 10000 7.07 90 19:21 18.01.2022
3611 Clouds 14 1028 71 10000 7.3 88 18:18 18.01.2022
3612 Clouds 14 1028 69 10000 7.31 89 17:29 18.01.2022
3613 Clouds 15 1028 68 10000 7.74 88 15:56 18.01.2022
3614 Clouds 15 1028 67 10000 8.19 89 15:24 18.01.2022
3615 Clouds 14 1028 67 10000 8.63 88 13:32 18.01.2022
3616 Clouds 15 1029 68 10000 9.2 90 11:20 18.01.2022
3617 Clouds 14 1029 70 10000 9.19 90 09:58 18.01.2022
3618 Clouds 14 1028 72 10000 9.09 87 08:19 18.01.2022
3619 Clouds 14 1028 72 10000 9.09 87 07:31 18.01.2022
3620 Clouds 14 1030 70 10000 10.81 90 00:22 18.01.2022
3621 Clouds 14 1030 70 10000 10.41 90 22:31 17.01.2022
3622 Clouds 14 1030 71 10000 9.72 90 21:36 17.01.2022
3623 Clouds 14 1030 70 10000 10.18 89 20:33 17.01.2022
3624 Clear 14 1028 69 10000 9.29 89 18:42 17.01.2022
3625 Clear 15 1028 67 10000 10.07 92 17:55 17.01.2022
3626 Clear 15 1028 66 10000 10.23 91 16:53 17.01.2022
3627 Clear 15 1029 65 10000 10.91 91 15:24 17.01.2022
3628 Clear 18 1029 65 10000 10.91 91 14:57 17.01.2022
3629 Clear 15 1029 65 10000 10.49 93 13:30 17.01.2022
3630 Clouds 16 1030 66 10000 10.39 89 12:57 17.01.2022
3631 Clouds 15 1031 67 10000 10.66 90 11:50 17.01.2022
3632 Clouds 15 1031 69 10000 10.25 89 10:38 17.01.2022
3633 Clouds 14 1030 70 10000 10.07 89 09:35 17.01.2022
3634 Clouds 14 1029 71 10000 9.65 95 07:47 17.01.2022
3635 Clouds 14 1029 71 10000 8.67 91 07:19 17.01.2022
3636 Clouds 13 1030 77 10000 6.82 81 00:57 17.01.2022
3637 Clouds 14 1030 79 10000 6.16 81 22:31 16.01.2022
3638 Clouds 15 1030 80 10000 5.82 83 20:38 16.01.2022
3639 Clouds 15 1029 83 10000 5.41 81 18:53 16.01.2022
3640 Clouds 15 1028 80 10000 5.05 83 18:18 16.01.2022
3641 Clouds 16 1028 78 10000 5.14 79 17:25 16.01.2022
3642 Clouds 15 1028 78 10000 5.13 79 16:45 16.01.2022
3643 Clouds 15 1028 78 10000 5.14 80 14:50 16.01.2022
3644 Clouds 15 1029 78 10000 4.94 83 14:27 16.01.2022
3645 Clouds 14 1029 77 10000 4.95 88 12:49 16.01.2022
3646 Clouds 15 1030 78 10000 5.4 88 11:43 16.01.2022
3647 Clouds 14 1029 79 10000 5.24 92 10:55 16.01.2022
3648 Clouds 14 1029 81 10000 5.12 95 10:26 16.01.2022
3649 Clouds 14 1029 81 10000 5.12 95 09:52 16.01.2022
3650 Clouds 13 1028 83 10000 5.21 93 09:22 16.01.2022
3651 Clouds 13 1028 83 10000 5.21 93 08:37 16.01.2022
3652 Clouds 13 1027 81 10000 4.48 94 02:36 16.01.2022
3653 Clouds 13 1027 79 10000 4.83 95 23:49 15.01.2022
3654 Clouds 14 1027 77 10000 4.93 95 21:46 15.01.2022
3655 Clouds 14 1027 77 10000 4.97 92 21:19 15.01.2022
3656 Clouds 14 1027 77 10000 4.97 92 20:40 15.01.2022
3657 Clouds 14 1026 77 10000 5.08 89 19:29 15.01.2022
3658 Clouds 14 1026 76 10000 5.17 87 18:44 15.01.2022
3659 Clouds 14 1026 72 10000 5.68 90 17:25 15.01.2022
3660 Clouds 16 1025 71 10000 5.93 93 15:42 15.01.2022
3661 Clouds 15 1026 69 10000 6.39 100 13:52 15.01.2022
3662 Clouds 15 1028 69 10000 7.47 100 11:46 15.01.2022
3663 Clouds 14 1027 73 10000 8.26 99 10:25 15.01.2022
3664 Clouds 13 1026 69 10000 8.15 97 06:40 15.01.2022
3665 Clouds 14 1028 67 10000 10.08 100 23:49 14.01.2022
3666 Clouds 14 1028 67 10000 10.8 99 21:41 14.01.2022
3667 Clouds 14 1028 68 10000 10.77 100 20:37 14.01.2022
3668 Clouds 14 1028 68 10000 10.83 99 19:58 14.01.2022
3669 Clouds 14 1027 68 10000 10.99 96 18:46 14.01.2022
3670 Clouds 14 1027 69 10000 11.42 95 17:54 14.01.2022
3671 Clouds 14 1026 68 10000 11.58 95 16:47 14.01.2022
3672 Clouds 14 1026 65 10000 11.84 96 15:33 14.01.2022
3673 Clouds 14 1027 64 10000 11.98 97 14:30 14.01.2022
3674 Clouds 14 1028 64 10000 12.25 98 13:27 14.01.2022
3675 Clouds 14 1028 64 10000 12.13 98 12:20 14.01.2022
3676 Clouds 13 1028 66 10000 12.27 97 10:46 14.01.2022
3677 Clouds 10 1027 68 10000 12.64 97 08:54 14.01.2022
3678 Clouds 14 1027 68 10000 12.9 96 07:46 14.01.2022
3679 Clouds 14 1027 67 10000 13.49 99 03:19 14.01.2022
3680 Clouds 14 1028 63 10000 13.69 100 00:35 14.01.2022
3681 Clouds 13 1028 62 10000 14.55 100 21:57 13.01.2022
3682 Clouds 14 1028 62 10000 14.55 100 21:30 13.01.2022
3683 Clouds 14 1028 63 10000 14.6 99 20:33 13.01.2022
3684 Clouds 14 1028 63 10000 14.49 97 19:32 13.01.2022
3685 Clouds 15 1027 63 10000 14.73 96 18:50 13.01.2022
3686 Clouds 15 1026 62 10000 14.7 96 16:58 13.01.2022
3687 Clouds 15 1026 61 10000 14.9 96 15:49 13.01.2022
3688 Clouds 15 1026 61 10000 15.02 96 15:26 13.01.2022
3689 Clouds 15 1027 61 10000 15.29 97 13:42 13.01.2022
3690 Clouds 15 1028 62 10000 15.51 98 11:43 13.01.2022
3691 Clouds 15 1027 63 10000 15.34 100 09:37 13.01.2022
3692 Clouds 13 1026 63 10000 15.4 98 08:52 13.01.2022
3693 Clouds 14 1026 63 10000 15.41 97 08:18 13.01.2022
3694 Clouds 14 1025 63 10000 15.35 98 07:20 13.01.2022
3695 Clouds 14 1025 66 10000 15.19 96 05:21 13.01.2022
3696 Clouds 13 1025 66 10000 15.19 96 04:55 13.01.2022
3697 Clear 14 1025 66 10000 14.98 98 01:41 13.01.2022
3698 Clear 13 1026 64 10000 15.07 98 23:54 12.01.2022
3699 Clear 14 1026 63 10000 14.82 98 23:34 12.01.2022
3700 Clear 14 1026 63 10000 14.83 98 22:35 12.01.2022
3701 Clear 14 1025 62 10000 14.54 98 21:49 12.01.2022
3702 Clear 14 1025 61 10000 14.28 97 21:20 12.01.2022
3703 Clear 14 1025 61 10000 14.28 97 20:49 12.01.2022
3704 Clouds 14 1025 65 10000 13.62 93 19:24 12.01.2022
3705 Clouds 15 1024 66 10000 13.35 91 18:27 12.01.2022
3706 Clouds 15 1024 66 10000 13.25 90 16:58 12.01.2022
3707 Clouds 15 1024 69 10000 13.25 90 15:49 12.01.2022
3708 Clouds 15 1024 70 10000 13.08 91 14:45 12.01.2022
3709 Clouds 15 1025 72 10000 12.6 91 12:58 12.01.2022
3710 Clouds 15 1024 76 10000 11.67 92 09:58 12.01.2022
3711 Clouds 14 1024 78 10000 11.32 90 07:59 12.01.2022
3712 Clouds 15 1024 78 10000 11.32 90 07:33 12.01.2022
3713 Clouds 14 1023 77 10000 11.14 85 04:54 12.01.2022
3714 Clouds 15 1023 81 10000 10.91 89 23:27 11.01.2022
3715 Clouds 15 1023 81 10000 10.89 89 22:40 11.01.2022
3716 Clouds 15 1023 82 10000 10.83 87 22:18 11.01.2022
3717 Clouds 15 1023 84 10000 10.75 83 20:40 11.01.2022
3718 Clouds 16 1023 85 10000 10.75 80 19:40 11.01.2022
3719 Clouds 16 1021 86 10000 11.41 79 17:55 11.01.2022
3720 Clouds 16 1021 86 10000 11.28 79 16:47 11.01.2022
3721 Clouds 16 1021 84 10000 11.39 78 16:28 11.01.2022
3722 Clouds 16 1021 82 10000 11.31 79 14:57 11.01.2022
3723 Clouds 16 1021 82 10000 11.31 79 14:38 11.01.2022
3724 Clouds 16 1021 82 10000 11.32 83 13:53 11.01.2022
3725 Clouds 16 1022 81 10000 11.41 83 13:28 11.01.2022
3726 Clouds 16 1021 80 10000 11.01 83 12:36 11.01.2022
3727 Clouds 16 1021 84 10000 9.37 83 10:40 11.01.2022
3728 Clouds 11 1020 83 10000 3.58 78 08:26 11.01.2022
3729 Clouds 14 1019 86 10000 1.24 167 04:30 11.01.2022
3730 Clear 15 1020 84 10000 3.83 228 00:28 11.01.2022
3731 Clear 15 1020 84 10000 3.79 228 23:40 10.01.2022
3732 Clear 15 1020 83 10000 4.21 228 22:43 10.01.2022
3733 Clear 16 1020 82 10000 4.2 238 22:18 10.01.2022
3734 Clear 16 1020 82 10000 4.2 238 21:42 10.01.2022
3735 Clear 15 1019 81 10000 3.59 261 21:18 10.01.2022
3736 Clear 16 1019 81 10000 3.59 261 20:55 10.01.2022
3737 Clear 16 1019 80 10000 3.83 274 20:23 10.01.2022
3738 Clear 17 1019 80 10000 3.81 275 19:39 10.01.2022
3739 Clear 17 1019 80 10000 4.82 274 19:19 10.01.2022
3740 Clear 17 1019 80 10000 4.82 274 18:47 10.01.2022
3741 Clear 18 1019 73 10000 5.48 269 16:51 10.01.2022
3742 Clear 18 1019 73 10000 5.48 269 16:33 10.01.2022
3743 Clear 18 1019 69 10000 5.91 271 14:50 10.01.2022
3744 Clear 17 1020 70 10000 6.05 273 13:35 10.01.2022
3745 Clear 16 1022 72 10000 5.75 281 11:57 10.01.2022
3746 Clear 15 1022 75 10000 5.46 285 11:24 10.01.2022
3747 Clear 13 1022 79 10000 5.29 284 09:40 10.01.2022
3748 Clear 9 1022 77 10000 4.44 275 05:52 10.01.2022
3749 Clear 12 1022 74 10000 4.36 280 04:48 10.01.2022
3750 Clear 13 1024 71 10000 4.37 274 01:22 10.01.2022
3751 Clear 14 1025 72 10000 4.45 277 00:22 10.01.2022
3752 Clear 13 1025 69 10000 4.97 272 22:48 09.01.2022
3753 Clear 13 1026 65 10000 5.24 268 22:21 09.01.2022
3754 Clear 13 1026 65 10000 5.24 268 21:42 09.01.2022
3755 Clear 13 1026 63 10000 5.28 266 21:22 09.01.2022
3756 Clear 14 1026 63 10000 5.28 266 20:47 09.01.2022
3757 Clear 14 1026 61 10000 5.42 267 20:29 09.01.2022
3758 Clear 14 1026 61 10000 5.42 267 19:42 09.01.2022
3759 Clear 14 1026 61 10000 5.79 273 19:21 09.01.2022
3760 Clear 15 1025 60 10000 5.61 271 18:47 09.01.2022
3761 Clear 16 1025 58 10000 5.87 271 18:28 09.01.2022
3762 Clear 16 1025 58 10000 5.87 271 17:30 09.01.2022
3763 Clear 17 1025 55 10000 6.16 267 16:50 09.01.2022
3764 Clear 17 1025 52 10000 6.13 270 15:52 09.01.2022
3765 Clear 17 1025 52 10000 6.13 270 15:33 09.01.2022
3766 Clear 17 1025 52 10000 6.26 274 14:39 09.01.2022
3767 Clear 17 1026 53 10000 6.31 274 13:49 09.01.2022
3768 Clear 15 1027 54 10000 6.4 269 12:31 09.01.2022
3769 Clear 15 1027 55 10000 6.26 268 11:47 09.01.2022
3770 Clear 12 1027 60 10000 5.89 270 09:56 09.01.2022
3771 Clear 12 1027 60 10000 5.81 273 09:29 09.01.2022
3772 Clear 12 1026 58 10000 5.55 275 08:25 09.01.2022
3773 Clouds 12 1026 61 10000 3.36 282 01:43 09.01.2022
3774 Clouds 12 1027 66 10000 3.06 275 01:19 09.01.2022
3775 Clouds 12 1027 67 10000 2.82 289 23:38 08.01.2022
3776 Clouds 11 1027 66 10000 2.09 289 22:58 08.01.2022
3777 Clouds 13 1027 66 10000 0.86 271 21:33 08.01.2022
3778 Clouds 14 1027 68 10000 0.27 11 20:45 08.01.2022
3779 Clouds 14 1027 68 10000 0.96 77 20:23 08.01.2022
3780 Clouds 13 1027 68 10000 0.96 77 19:55 08.01.2022
3781 Clear 16 1026 68 10000 2.06 68 17:49 08.01.2022
3782 Clear 16 1026 64 10000 2.65 83 17:21 08.01.2022
3783 Clear 16 1027 62 10000 3.07 89 15:47 08.01.2022
3784 Clear 15 1027 61 10000 3.89 71 14:40 08.01.2022
3785 Clear 15 1028 63 10000 4.34 76 12:36 08.01.2022
3786 Clear 11 1029 72 10000 4.76 62 10:49 08.01.2022
3787 Clear 10 1028 77 10000 4.64 61 10:24 08.01.2022
3788 Clear 10 1028 77 10000 4.64 61 09:34 08.01.2022
3789 Clouds 11 1027 81 10000 5.05 59 07:18 08.01.2022
3790 Clear 13 1027 78 10000 6 76 02:33 08.01.2022
3791 Clear 13 1027 74 10000 5.7 78 00:40 08.01.2022
3792 Clear 13 1027 69 10000 4.78 90 22:40 07.01.2022
3793 Clear 9 1027 67 10000 3.99 73 20:56 07.01.2022
3794 Clear 13 1027 65 10000 2.69 62 19:39 07.01.2022
3795 Clear 13 1026 65 10000 2.43 64 18:53 07.01.2022
3796 Clear 15 1026 65 10000 2.43 64 18:30 07.01.2022
3797 Clear 16 1024 60 10000 1.09 60 17:25 07.01.2022
3798 Clear 16 1024 58 10000 0.12 31 16:22 07.01.2022
3799 Clouds 15 1024 60 10000 1.62 237 13:53 07.01.2022
3800 Clouds 15 1025 61 10000 1.94 242 13:18 07.01.2022
3801 Clouds 14 1025 60 10000 2.23 246 12:35 07.01.2022
3802 Clear 11 1023 69 10000 3.2 298 07:31 07.01.2022
3803 Clear 7 1023 70 10000 3.27 286 02:54 07.01.2022
3804 Clear 11 1023 69 10000 3.51 298 01:52 07.01.2022
3805 Clear 11 1023 68 10000 4.35 303 01:27 07.01.2022
3806 Clear 8 1023 68 10000 4.35 303 00:55 07.01.2022
3807 Clear 13 1023 65 10000 4.82 280 22:42 06.01.2022
3808 Clear 13 1023 66 10000 4.42 271 21:23 06.01.2022
3809 Clear 14 1022 65 10000 4.42 275 20:20 06.01.2022
3810 Clear 14 1022 65 10000 4.42 275 19:40 06.01.2022
3811 Clear 16 1020 63 10000 3.85 268 17:53 06.01.2022
3812 Clear 16 1020 63 10000 3.85 268 17:32 06.01.2022
3813 Clear 17 1020 61 10000 4.21 260 16:40 06.01.2022
3814 Clear 17 1020 62 10000 4.12 252 15:45 06.01.2022
3815 Clear 16 1019 64 10000 3.29 256 15:23 06.01.2022
3816 Clear 16 1020 66 10000 3.29 280 14:21 06.01.2022
3817 Clear 15 1020 66 10000 3.3 280 13:46 06.01.2022
3818 Clear 14 1020 70 10000 4.16 292 12:41 06.01.2022
3819 Clear 13 1021 73 10000 4.53 293 11:41 06.01.2022
3820 Clear 12 1020 76 10000 4.78 295 11:20 06.01.2022
3821 Clouds 11 1019 83 10000 5.13 309 08:31 06.01.2022
3822 Clouds 15 1019 71 10000 8.96 268 00:39 06.01.2022
3823 Clouds 15 1020 73 10000 6.35 275 23:35 05.01.2022
3824 Clouds 15 1020 73 10000 6.35 275 23:35 05.01.2022
3825 Clouds 14 1021 75 10000 6.68 286 22:51 05.01.2022
3826 Clouds 14 1021 77 10000 6.61 274 22:29 05.01.2022
3827 Clouds 14 1021 77 10000 6.61 274 21:45 05.01.2022
3828 Clouds 14 1022 77 10000 5.9 278 20:45 05.01.2022
3829 Clouds 14 1022 78 10000 5.87 282 19:53 05.01.2022
3830 Clouds 15 1021 74 10000 6.69 296 18:27 05.01.2022
3831 Clear 15 1022 72 10000 7.62 296 16:59 05.01.2022
3832 Clear 16 1021 70 10000 8.15 291 16:24 05.01.2022
3833 Clear 15 1022 68 10000 7.72 291 15:20 05.01.2022
3834 Clear 14 1022 66 10000 7.45 290 13:38 05.01.2022
3835 Clouds 14 1024 68 10000 7.29 297 12:49 05.01.2022
3836 Clouds 13 1024 78 10000 5.69 303 08:57 05.01.2022
3837 Clouds 11 1023 79 10000 5.57 305 07:31 05.01.2022
3838 Clouds 14 1023 79 10000 6.8 309 01:59 05.01.2022
3839 Clouds 15 1023 76 10000 5.98 306 23:50 04.01.2022
3840 Clouds 14 1023 75 10000 6.3 308 23:26 04.01.2022
3841 Clouds 15 1023 76 10000 7.07 306 22:27 04.01.2022
3842 Clouds 15 1022 75 10000 7.28 306 20:50 04.01.2022
3843 Clouds 15 1020 77 10000 10.36 296 19:19 04.01.2022
3844 Clouds 17 1019 81 10000 9.9 303 17:38 04.01.2022
3845 Clouds 18 1018 82 10000 9.65 278 16:40 04.01.2022
3846 Clouds 18 1018 82 10000 9.65 278 16:40 04.01.2022
3847 Clouds 17 1018 78 10000 9.93 246 16:21 04.01.2022
3848 Clouds 17 1018 77 10000 10.17 236 14:51 04.01.2022
3849 Clouds 17 1018 77 10000 10.17 236 14:33 04.01.2022
3850 Clouds 18 1020 72 10000 7.68 245 13:26 04.01.2022
3851 Clouds 15 1021 79 10000 6.1 242 10:40 04.01.2022
3852 Clouds 11 1021 84 10000 5.18 249 08:59 04.01.2022
3853 Clouds 13 1021 81 10000 4.65 251 08:23 04.01.2022
3854 Clouds 11 1023 70 10000 1.78 257 01:19 04.01.2022
3855 Clouds 12 1023 70 10000 1.78 257 00:40 04.01.2022
3856 Clouds 12 1024 68 10000 0.42 317 22:41 03.01.2022
3857 Clear 12 1024 70 10000 0.73 19 21:41 03.01.2022
3858 Clear 12 1024 72 10000 0.89 32 21:23 03.01.2022
3859 Clear 13 1024 73 10000 1.14 56 19:46 03.01.2022
3860 Clear 14 1024 73 10000 1.1 86 18:33 03.01.2022
3861 Clear 14 1023 72 10000 1.92 105 17:40 03.01.2022
3862 Clear 14 1024 68 10000 1.78 90 16:56 03.01.2022
3863 Clear 14 1025 63 10000 2.61 76 14:54 03.01.2022
3864 Clear 14 1025 64 10000 3.1 77 13:53 03.01.2022
3865 Clear 14 1026 62 10000 2.68 76 12:33 03.01.2022
3866 Clear 13 1027 63 10000 2.75 81 11:31 03.01.2022
3867 Clear 10 1027 71 10000 2.99 82 09:42 03.01.2022
3868 Clear 10 1026 74 10000 3.19 70 08:28 03.01.2022
3869 Clouds 12 1026 74 10000 3.14 73 06:31 03.01.2022
3870 Clouds 11 1028 71 10000 3.15 74 23:45 02.01.2022
3871 Clouds 11 1028 70 10000 3.14 73 23:18 02.01.2022
3872 Clouds 12 1028 70 10000 3.15 73 22:42 02.01.2022
3873 Clouds 13 1028 71 10000 3.31 78 21:32 02.01.2022
3874 -273 0 0 0 0 0 20:31 02.01.2022
3875 Clouds 13 1028 71 10000 3.32 78 20:30 02.01.2022
3876 Clouds 14 1028 73 10000 3.29 78 19:31 02.01.2022
3877 Clouds 14 1028 75 10000 3.25 77 18:56 02.01.2022
3878 Clouds 14 1027 73 10000 3.33 81 17:58 02.01.2022
3879 Clouds 14 1027 73 10000 3.33 81 17:39 02.01.2022
3880 Clouds 14 1027 69 10000 3.42 82 17:21 02.01.2022
3881 Clouds 14 1027 65 10000 3.71 84 16:28 02.01.2022
3882 Clouds 15 1027 64 10000 3.67 79 14:44 02.01.2022
3883 Clouds 14 1028 65 10000 3.71 76 13:37 02.01.2022
3884 Clouds 14 1029 65 10000 3.34 70 12:32 02.01.2022
3885 Clouds 14 1029 69 10000 3.49 69 11:49 02.01.2022
3886 Clouds 14 1029 74 10000 3.78 75 10:54 02.01.2022
3887 Clouds 14 1029 79 10000 3.66 71 09:57 02.01.2022
3888 Clouds 13 1028 83 10000 3.73 69 07:34 02.01.2022
3889 Clouds 10 1028 86 10000 4.46 74 02:56 02.01.2022
3890 Clouds 14 1028 88 10000 4.43 73 23:42 01.01.2022
3891 Clouds 14 1028 88 10000 4.6 77 23:24 01.01.2022
3892 Clouds 14 1028 88 10000 4.72 81 22:25 01.01.2022
3893 Clouds 15 1028 88 10000 4.72 81 21:46 01.01.2022
3894 Clouds 15 1028 88 10000 4.97 84 21:28 01.01.2022
3895 Clouds 15 1027 87 10000 5.22 84 20:25 01.01.2022
3896 Clouds 15 1027 87 10000 5.22 84 19:34 01.01.2022
3897 Clouds 15 1027 82 10000 5.23 83 18:51 01.01.2022
3898 Clouds 15 1026 79 10000 5.48 83 17:38 01.01.2022
3899 Clouds 16 1026 74 10000 5.54 83 16:34 01.01.2022
3900 Clouds 16 1026 74 10000 5.54 83 16:34 01.01.2022
3901 Clouds 16 1026 70 10000 5.86 84 15:33 01.01.2022
3902 Clouds 16 1027 70 10000 6.08 83 14:25 01.01.2022
3903 Clouds 16 1027 70 10000 6.08 83 13:36 01.01.2022
3904 Clear 15 1028 73 10000 5.27 84 12:18 01.01.2022
3905 Clear 14 1027 77 10000 5.99 85 11:25 01.01.2022
3906 Clear 15 1027 77 10000 5.99 85 10:52 01.01.2022
3907 Clear 14 1027 82 10000 5.99 83 09:47 01.01.2022
3908 Clear 14 1026 84 10000 5.75 81 08:27 01.01.2022
3909 Clear 12 1026 84 10000 5.75 81 07:56 01.01.2022
3910 Clear 14 1026 84 10000 5.75 81 07:37 01.01.2022
3911 Clear 14 1025 84 10000 5.69 80 06:43 01.01.2022
3912 Clear 14 1025 84 10000 5.79 79 04:39 01.01.2022
3913 Clear 13 1026 84 10000 5.82 80 03:50 01.01.2022
3914 Clear 15 1026 84 10000 5.84 79 23:53 31.12.2021
3915 Clear 14 1026 82 10000 6.09 78 21:57 31.12.2021
3916 Clear 14 1026 82 10000 6.09 78 21:39 31.12.2021
3917 Clear 14 1025 82 10000 6.32 79 19:43 31.12.2021
3918 Clear 14 1025 82 10000 5.66 78 18:50 31.12.2021
3919 Clear 15 1024 79 10000 5.47 77 17:49 31.12.2021
3920 Clear 15 1024 74 10000 5.41 76 17:24 31.12.2021
3921 Clear 15 1024 74 10000 5.41 76 16:52 31.12.2021
3922 Clear 16 1024 69 10000 5.66 77 16:18 31.12.2021
3923 Clear 16 1024 69 10000 5.67 77 15:45 31.12.2021
3924 Clear 16 1024 68 10000 5.52 76 15:26 31.12.2021
3925 Clear 14 1024 68 10000 5.52 76 14:38 31.12.2021
3926 Clear 15 1025 67 10000 5.35 75 13:45 31.12.2021
3927 Clear 15 1025 67 10000 5.2 74 12:50 31.12.2021
3928 Clear 15 1025 67 10000 4.53 71 12:20 31.12.2021
3929 Clear 15 1025 67 10000 4.53 71 11:41 31.12.2021
3930 Clear 14 1025 69 10000 4.28 68 10:50 31.12.2021
3931 Clear 14 1025 71 10000 4.21 71 10:28 31.12.2021
3932 Clear 13 1025 71 10000 4.21 71 09:34 31.12.2021
3933 Clear 12 1025 72 10000 3.97 74 08:50 31.12.2021
3934 Clear 10 1025 71 10000 3.65 73 07:53 31.12.2021
3935 Clear 13 1024 70 10000 3.32 65 02:36 31.12.2021
3936 Clear 13 1025 69 10000 2.78 84 23:18 30.12.2021
3937 Clear 15 1025 69 10000 2.37 78 22:27 30.12.2021
3938 Clear 15 1025 69 10000 2.37 78 21:39 30.12.2021
3939 Clear 13 1025 70 10000 2.64 76 20:59 30.12.2021
3940 Clear 16 1025 70 10000 2.64 76 20:38 30.12.2021
3941 Clear 16 1024 71 10000 2.78 76 19:53 30.12.2021
3942 Clear 16 1024 72 10000 3.02 78 19:28 30.12.2021
3943 Clear 17 1023 70 10000 2.86 79 18:26 30.12.2021
3944 Clear 17 1023 69 10000 2.97 81 16:50 30.12.2021
3945 Clear 18 1022 64 10000 3.46 84 15:53 30.12.2021
3946 Clear 18 1022 64 10000 3.46 84 15:53 30.12.2021
3947 Clear 17 1022 64 10000 3.26 80 14:54 30.12.2021
3948 Clear 17 1022 63 10000 3.25 80 14:35 30.12.2021
3949 Rain 17 1023 67 10000 3.13 82 13:25 30.12.2021
3950 Clear 14 1024 69 10000 3.13 83 11:53 30.12.2021
3951 Clear 12 1023 77 10000 3.16 78 10:28 30.12.2021
3952 Clear 12 1023 77 10000 3.16 78 09:44 30.12.2021
3953 Clear 9 1022 80 10000 3.43 74 06:56 30.12.2021
3954 Clear 15 1022 78 10000 3.59 73 05:20 30.12.2021
3955 Clear 14 1022 77 10000 3.5 72 03:40 30.12.2021
3956 Clear 14 1022 76 10000 2.82 76 02:27 30.12.2021
3957 Clear 15 1023 72 10000 1.41 84 23:37 29.12.2021
3958 Clear 16 1023 72 10000 1.11 106 22:35 29.12.2021
3959 Clear 12 1023 72 10000 0.88 154 21:56 29.12.2021
3960 Clear 16 1023 73 10000 0.78 205 20:57 29.12.2021
3961 Clear 17 1022 74 10000 1.03 231 20:29 29.12.2021
3962 Clear 18 1022 74 10000 1.03 231 19:31 29.12.2021
3963 Clear 19 1022 75 10000 0.86 220 18:36 29.12.2021
3964 Clear 19 1022 75 10000 1.23 237 17:42 29.12.2021
3965 Clear 19 1021 72 10000 1.82 256 17:23 29.12.2021
3966 Clear 20 1022 68 10000 1.56 261 16:21 29.12.2021
3967 Clear 20 1022 69 10000 2.07 270 15:21 29.12.2021
3968 Clear 18 1024 72 10000 2.32 248 12:57 29.12.2021
3969 Clear 18 1024 72 10000 2.43 255 12:33 29.12.2021
3970 Clear 15 1024 78 10000 2.86 247 11:23 29.12.2021
3971 Clear 13 1024 82 10000 2.97 252 09:30 29.12.2021
3972 Clear 14 1023 86 10000 3.2 248 07:30 29.12.2021
3973 Clear 15 1023 87 10000 3.5 263 06:32 29.12.2021
3974 Clear 13 1023 87 10000 3.46 260 05:55 29.12.2021
3975 Clear 15 1023 87 10000 3.52 262 04:57 29.12.2021
3976 Clouds 17 1025 90 10000 4.47 268 00:43 29.12.2021
3977 Clouds 17 1025 90 10000 4.05 264 23:58 28.12.2021
3978 Clear 16 1025 90 10000 3.68 262 22:57 28.12.2021
3979 Clear 17 1025 90 10000 3.69 264 22:25 28.12.2021
3980 Clear 17 1025 90 10000 3.69 264 22:25 28.12.2021
3981 Clear 17 1025 90 10000 3.69 264 22:25 28.12.2021
3982 Clear 16 1025 90 10000 3.69 264 21:54 28.12.2021
3983 Clear 16 1025 90 10000 3.69 264 21:54 28.12.2021
3984 Clear 18 1025 90 10000 3.69 264 21:34 28.12.2021
3985 Clear 18 1025 91 10000 3.7 277 19:53 28.12.2021
3986 Clouds 18 1024 91 10000 3.98 275 18:54 28.12.2021
3987 Clouds 19 1024 89 10000 4.27 266 18:25 28.12.2021
3988 Clouds 19 1024 89 10000 4.27 266 17:34 28.12.2021
3989 Clouds 20 1024 83 10000 4.38 270 15:53 28.12.2021
3990 Clouds 20 1024 84 10000 4.34 277 15:29 28.12.2021
3991 Clouds 19 1024 84 10000 4.34 277 14:55 28.12.2021
3992 Clouds 19 1024 83 10000 4.33 277 14:37 28.12.2021
3993 Clouds 19 1024 85 10000 4.06 275 14:18 28.12.2021
3994 Clouds 19 1024 85 10000 4.06 275 13:37 28.12.2021
3995 Clouds 19 1025 86 10000 3.72 270 12:56 28.12.2021
3996 Clouds 18 1026 87 10000 3.63 252 12:20 28.12.2021
3997 Clouds 17 1025 93 10000 2.82 246 10:19 28.12.2021
3998 Clouds 16 1025 94 10000 2.55 269 07:33 28.12.2021
3999 Clouds 17 1024 93 10000 3.11 262 03:35 28.12.2021
4000 Clouds 18 1024 93 10000 3.55 252 23:39 27.12.2021
4001 Clouds 18 1024 92 10000 3.53 250 22:21 27.12.2021
4002 Clouds 18 1024 92 10000 3.53 250 21:30 27.12.2021
4003 Clouds 18 1023 92 10000 3.44 253 20:39 27.12.2021
4004 Clear 18 1023 91 10000 3.49 252 19:48 27.12.2021
4005 Clouds 18 1022 91 10000 3.56 259 19:27 27.12.2021
4006 Clouds 19 1021 89 10000 4.31 253 17:51 27.12.2021
4007 Clouds 20 1021 86 10000 4.83 262 17:28 27.12.2021
4008 Clouds 20 1021 84 10000 5.2 259 15:56 27.12.2021
4009 Clouds 20 1021 84 10000 5.47 258 15:19 27.12.2021
4010 Clouds 19 1021 86 10000 6 253 14:22 27.12.2021
4011 Clouds 18 1022 86 10000 6.24 244 12:52 27.12.2021
4012 Clouds 17 1022 90 10000 5.73 238 10:40 27.12.2021
4013 Clouds 17 1021 90 10000 5.52 234 10:22 27.12.2021
4014 Clouds 17 1021 91 10000 5.82 234 08:43 27.12.2021
4015 Clouds 17 1020 92 10000 6.7 229 07:34 27.12.2021
4016 Clouds 17 1019 92 10000 6.78 244 06:27 27.12.2021
4017 Clouds 17 1018 92 10000 6.73 224 01:51 27.12.2021
4018 Clouds 16 1019 91 10000 7.11 234 23:49 26.12.2021
4019 Clouds 16 1019 90 10000 7.21 228 23:19 26.12.2021
4020 Clouds 17 1019 89 10000 6.96 225 21:33 26.12.2021
4021 Clouds 18 1018 90 10000 7.94 226 19:55 26.12.2021
4022 Clouds 18 1018 89 10000 7.73 230 18:39 26.12.2021
4023 Clouds 18 1017 90 10000 8.06 233 18:19 26.12.2021
4024 Clouds 18 1017 89 10000 8.55 240 15:35 26.12.2021
4025 Clouds 18 1017 87 10000 8.91 235 13:43 26.12.2021
4026 Clouds 18 1018 88 10000 8.3 234 13:21 26.12.2021
4027 Clouds 18 1018 88 10000 8.56 232 12:35 26.12.2021
4028 Clouds 17 1018 91 10000 7.11 229 11:20 26.12.2021
4029 Clouds 16 1017 92 10000 6.47 230 09:31 26.12.2021
4030 Clouds 16 1017 93 10000 5.71 232 08:45 26.12.2021
4031 Clouds 16 1016 93 10000 5.63 234 08:26 26.12.2021
4032 Clouds 16 1014 92 10000 6.71 250 01:50 26.12.2021
4033 Clouds 16 1015 92 10000 6.68 245 00:39 26.12.2021
4034 Clouds 17 1014 91 10000 6.63 247 23:35 25.12.2021
4035 Clouds 17 1014 92 10000 6.21 259 22:29 25.12.2021
4036 Clouds 17 1014 92 10000 6.21 259 21:30 25.12.2021
4037 Clouds 17 1012 92 10000 7.2 259 20:26 25.12.2021
4038 Clouds 17 1011 90 10000 7.8 251 19:19 25.12.2021
4039 Clouds 16 1012 89 10000 10.04 242 18:37 25.12.2021
4040 Clouds 16 1010 94 5865 13.2 228 16:50 25.12.2021
4041 Clouds 17 1010 94 4163 12.56 227 15:34 25.12.2021
4042 Clouds 17 1010 88 10000 12.95 213 14:23 25.12.2021
4043 Clouds 16 1012 83 10000 11.81 209 12:21 25.12.2021
4044 Clouds 15 1012 87 10000 11.48 208 10:46 25.12.2021
4045 Clouds 17 1012 88 10000 9.93 209 09:49 25.12.2021
4046 Clouds 15 1012 86 7800 9.23 248 07:27 25.12.2021
4047 Clouds 16 1012 90 10000 5.91 227 01:40 25.12.2021
4048 Clouds 16 1014 89 10000 4.24 220 00:21 25.12.2021
4049 Clouds 15 1014 91 10000 3.82 222 21:57 24.12.2021
4050 Clouds 15 1014 89 10000 5.45 233 19:27 24.12.2021
4051 Clouds 16 1014 89 10000 5.45 233 18:56 24.12.2021
4052 Rain 14 1014 89 10000 7.78 225 16:44 24.12.2021
4053 Clouds 14 1014 90 10000 7.78 230 15:50 24.12.2021
4054 Clouds 14 1014 90 10000 7.78 230 15:50 24.12.2021
4055 Clouds 14 1014 91 5008 8.63 226 15:20 24.12.2021
4056 Clouds 14 1014 91 5017 8.61 226 14:34 24.12.2021
4057 Rain 14 1015 94 3232 6.48 212 13:54 24.12.2021
4058 Rain 14 1015 94 3232 6.48 212 13:32 24.12.2021
4059 Rain 14 1015 93 5095 7.03 235 12:40 24.12.2021
4060 Rain 14 1017 88 10000 5.72 228 11:43 24.12.2021
4061 Clouds 14 1016 87 10000 5.02 220 11:24 24.12.2021
4062 Clouds 15 1016 87 10000 5.02 220 10:35 24.12.2021
4063 Clouds 16 1016 92 8588 2.97 171 08:58 24.12.2021
4064 Clouds 15 1016 93 9850 2.26 124 07:58 24.12.2021
4065 Clouds 15 1016 93 9850 2.26 124 07:31 24.12.2021
4066 Clouds 16 1018 95 7694 2.68 112 00:47 24.12.2021
4067 Clouds 16 1019 93 10000 3.56 102 23:50 23.12.2021
4068 Clouds 17 1019 94 7576 2.71 100 22:53 23.12.2021
4069 Clouds 16 1020 94 7187 2.57 102 22:24 23.12.2021
4070 Clouds 16 1020 94 7187 2.57 102 21:41 23.12.2021
4071 Clouds 15 1020 94 9342 2.8 104 20:31 23.12.2021
4072 Clouds 15 1019 94 10000 2.62 105 20:31 23.12.2021
4073 Clouds 15 1019 94 10000 2.62 105 19:30 23.12.2021
4074 Clouds 15 1019 96 6770 1.74 123 18:27 23.12.2021
4075 Clouds 15 1019 96 6770 1.74 123 17:46 23.12.2021
4076 Clouds 16 1018 93 8161 2.88 102 16:27 23.12.2021
4077 Clouds 16 1018 93 8161 2.88 102 15:48 23.12.2021
4078 Clouds 16 1018 93 8161 2.88 102 15:30 23.12.2021
4079 Clouds 15 1019 93 10000 3.14 106 14:42 23.12.2021
4080 Clouds 15 1020 94 8181 3.07 103 13:43 23.12.2021
4081 Rain 16 1021 94 5303 3.25 112 11:59 23.12.2021
4082 Rain 15 1021 85 10000 2.07 104 09:55 23.12.2021
4083 Rain 15 1021 85 10000 2.07 104 09:34 23.12.2021
4084 Clouds 15 1020 85 10000 1.83 116 08:41 23.12.2021
4085 Clouds 15 1020 86 10000 1.05 181 05:43 23.12.2021
4086 Clouds 15 1020 87 10000 0.81 97 03:22 23.12.2021
4087 Clouds 15 1021 91 10000 2.4 98 22:53 22.12.2021
4088 Clouds 15 1021 90 10000 1.96 110 22:22 22.12.2021
4089 Clouds 15 1021 90 10000 1.96 110 21:37 22.12.2021
4090 Clouds 15 1021 90 10000 2.2 137 21:19 22.12.2021
4091 Clouds 15 1021 90 10000 2.2 137 20:40 22.12.2021
4092 Clouds 15 1020 90 10000 2.44 172 19:57 22.12.2021
4093 Clouds 15 1020 93 5983 3.32 185 18:55 22.12.2021
4094 Clouds 16 1019 91 3721 2.2 173 17:38 22.12.2021
4095 Rain 16 1019 88 4912 2.15 140 16:25 22.12.2021
4096 Clouds 17 1019 89 7349 1.58 150 14:33 22.12.2021
4097 Clouds 17 1021 86 10000 2.57 133 12:55 22.12.2021
4098 Clouds 16 1022 87 10000 3.46 140 11:48 22.12.2021
4099 Clouds 16 1021 90 10000 3.11 182 09:52 22.12.2021
4100 Clouds 15 1020 91 10000 4.31 163 08:23 22.12.2021
4101 Clouds 16 1019 87 10000 4.46 202 05:54 22.12.2021
4102 Rain 15 1019 87 10000 4.46 202 05:36 22.12.2021
4103 Clouds 15 1019 82 10000 4.35 212 05:18 22.12.2021
4104 Clouds 15 1019 82 10000 4.35 212 04:37 22.12.2021
4105 Clouds 17 1019 81 10000 6.69 213 03:52 22.12.2021
4106 Clouds 14 1019 81 10000 6.69 213 03:31 22.12.2021
4107 Rain 15 1021 95 2391 3.55 214 23:48 21.12.2021
4108 Clouds 15 1020 89 8775 2.95 149 22:41 21.12.2021
4109 Clouds 15 1020 88 10000 3.31 89 21:57 21.12.2021
4110 Clouds 15 1020 88 10000 3.31 89 21:33 21.12.2021
4111 Clouds 15 1019 89 10000 4.21 76 20:39 21.12.2021
4112 Clouds 15 1019 89 10000 4.15 82 20:18 21.12.2021
4113 Clouds 15 1019 89 10000 4.15 82 19:34 21.12.2021
4114 Clouds 16 1019 84 10000 4.44 92 18:23 21.12.2021
4115 Clouds 16 1019 84 10000 4.44 92 17:58 21.12.2021
4116 Clouds 17 1018 81 10000 4.62 86 17:29 21.12.2021
4117 Clouds 17 1018 79 10000 5.42 84 15:34 21.12.2021
4118 Clouds 16 1019 79 10000 5.88 82 14:20 21.12.2021
4119 Clouds 17 1019 79 10000 5.89 82 13:41 21.12.2021
4120 Clouds 16 1021 82 10000 5.82 80 12:26 21.12.2021
4121 Clouds 15 1021 85 10000 5.86 79 10:38 21.12.2021
4122 Clouds 14 1021 88 10000 5.55 80 09:50 21.12.2021
4123 Clouds 14 1020 90 10000 5.35 81 08:55 21.12.2021
4124 Clouds 14 1020 91 10000 5.32 79 07:43 21.12.2021
4125 Clouds 14 1020 91 10000 5.55 81 07:20 21.12.2021
4126 Clouds 14 1021 90 10000 5.29 84 03:24 21.12.2021
4127 Clouds 15 1021 90 10000 5.35 87 01:20 21.12.2021
4128 Clouds 14 1022 89 10000 5.01 85 23:54 20.12.2021
4129 Clouds 15 1022 89 10000 4.62 86 22:35 20.12.2021
4130 Clouds 15 1022 89 10000 4.79 84 21:51 20.12.2021
4131 Clouds 15 1022 89 10000 5.44 82 21:24 20.12.2021
4132 Clouds 15 1022 89 10000 5.43 82 20:51 20.12.2021
4133 Clouds 15 1021 88 10000 5.58 82 20:19 20.12.2021
4134 Clouds 15 1021 88 10000 5.58 82 19:36 20.12.2021
4135 Clouds 15 1021 87 10000 5.89 82 19:18 20.12.2021
4136 Clouds 16 1021 87 10000 5.52 82 18:30 20.12.2021
4137 Clouds 16 1020 86 10000 5.85 82 17:49 20.12.2021
4138 Clouds 17 1021 84 10000 6.11 81 16:46 20.12.2021
4139 Clouds 16 1021 83 10000 6.21 80 15:57 20.12.2021
4140 Clouds 17 1021 83 10000 6.21 80 15:31 20.12.2021
4141 Clouds 17 1022 81 10000 6.46 82 13:31 20.12.2021
4142 Clouds 16 1023 83 10000 6.34 83 11:47 20.12.2021
4143 Clouds 16 1023 83 10000 6.39 84 10:35 20.12.2021
4144 Clouds 15 1022 83 10000 6.54 84 09:38 20.12.2021
4145 Clouds 15 1022 85 10000 6.55 87 08:44 20.12.2021
4146 Clouds 14 1022 85 10000 6.66 86 08:00 20.12.2021
4147 Clouds 15 1022 85 10000 6.66 86 07:32 20.12.2021
4148 Clouds 15 1021 85 10000 6.42 86 06:32 20.12.2021
4149 Clouds 15 1021 85 10000 6.42 86 06:32 20.12.2021
4150 Clouds 16 1023 85 10000 7.76 91 00:19 20.12.2021
4151 Clouds 15 1022 85 10000 7.89 92 22:56 19.12.2021
4152 Clouds 15 1022 85 10000 8.67 92 21:58 19.12.2021
4153 Clouds 16 1022 85 10000 8.67 92 21:32 19.12.2021
4154 Clouds 16 1023 86 10000 8.89 97 20:35 19.12.2021
4155 Clouds 16 1022 87 10000 9.53 95 19:53 19.12.2021
4156 Clouds 16 1022 87 10000 9.53 95 19:34 19.12.2021
4157 Clouds 16 1021 86 10000 10.02 90 18:35 19.12.2021
4158 Clouds 16 1021 85 10000 10.39 90 17:53 19.12.2021
4159 Clouds 16 1021 85 10000 10.72 89 17:28 19.12.2021
4160 Clouds 16 1020 83 10000 11.31 87 16:27 19.12.2021
4161 Clouds 16 1020 83 10000 11.32 87 16:27 19.12.2021
4162 Clouds 16 1020 83 10000 11.31 87 15:51 19.12.2021
4163 Clouds 16 1020 85 10000 12.1 88 15:23 19.12.2021
4164 Clouds 16 1020 84 10000 12.1 88 14:45 19.12.2021
4165 Clouds 16 1022 84 10000 13.28 90 13:26 19.12.2021
4166 Clouds 16 1022 84 10000 13.28 90 12:50 19.12.2021
4167 Clouds 16 1022 86 10000 13.43 91 12:28 19.12.2021
4168 Clouds 16 1022 86 10000 13.43 91 11:30 19.12.2021
4169 Clouds 16 1022 86 10000 13.62 91 10:30 19.12.2021
4170 Clouds 16 1022 86 10000 13.66 92 09:53 19.12.2021
4171 Clouds 16 1022 87 10000 13.7 93 08:45 19.12.2021
4172 Clouds 15 1022 87 10000 13.37 93 04:45 19.12.2021
4173 Clouds 16 1022 86 10000 13.19 94 01:39 19.12.2021
4174 Clouds 15 1023 87 10000 13.09 94 00:53 19.12.2021
4175 Clouds 16 1023 88 10000 12.98 95 22:50 18.12.2021
4176 Clouds 16 1024 88 10000 12.9 96 22:20 18.12.2021
4177 Clouds 16 1024 88 10000 12.9 96 22:20 18.12.2021
4178 Clouds 15 1024 88 10000 12.9 96 21:41 18.12.2021
4179 Clouds 15 1024 88 10000 12.9 96 21:41 18.12.2021
4180 Clouds 15 1024 87 10000 12.48 98 21:22 18.12.2021
4181 Clouds 15 1023 86 10000 12.17 97 20:20 18.12.2021
4182 Clouds 15 1023 86 10000 11.94 95 19:25 18.12.2021
4183 Clouds 16 1023 85 10000 12.04 96 18:22 18.12.2021
4184 Clouds 16 1023 85 10000 12.04 96 17:48 18.12.2021
4185 Clouds 16 1022 83 10000 12.16 94 16:26 18.12.2021
4186 Clouds 16 1023 82 10000 12.18 95 15:28 18.12.2021
4187 Clouds 16 1023 82 10000 12.18 95 14:51 18.12.2021
4188 Clouds 16 1024 82 10000 12 96 13:28 18.12.2021
4189 Clouds 16 1024 81 10000 11.64 97 11:23 18.12.2021
4190 Clouds 15 1024 81 10000 11.74 97 09:40 18.12.2021
4191 Clouds 15 1024 82 10000 11.93 95 08:47 18.12.2021
4192 Clouds 15 1023 82 10000 11.93 95 08:24 18.12.2021
4193 Clouds 14 1022 82 10000 11.41 96 05:56 18.12.2021
4194 Clouds 15 1024 81 10000 11.07 99 00:30 18.12.2021
4195 Clouds 15 1024 81 10000 11.11 98 23:46 17.12.2021
4196 Clouds 15 1024 81 10000 11.36 97 21:58 17.12.2021
4197 Clouds 15 1024 81 10000 11.4 96 21:20 17.12.2021
4198 Clouds 15 1024 81 10000 11.41 96 20:41 17.12.2021
4199 Clouds 16 1023 81 10000 11.47 97 19:28 17.12.2021
4200 Clouds 16 1023 81 10000 11.13 97 18:39 17.12.2021
4201 Clouds 16 1022 81 10000 11.52 96 17:33 17.12.2021
4202 Clouds 16 1022 79 10000 11.53 97 16:49 17.12.2021
4203 Clouds 16 1022 78 10000 11.8 96 16:22 17.12.2021
4204 Clouds 16 1022 78 10000 12.11 97 15:25 17.12.2021
4205 Clouds 16 1022 78 10000 12.11 97 14:40 17.12.2021
4206 Clouds 16 1023 78 10000 12.67 94 13:21 17.12.2021
4207 Clouds 17 1024 78 10000 12.53 95 11:50 17.12.2021
4208 Clouds 16 1023 80 10000 12.48 95 10:37 17.12.2021
4209 Clouds 15 1023 80 10000 12.57 94 09:33 17.12.2021
4210 Clouds 15 1023 81 10000 12.77 94 08:30 17.12.2021
4211 Clouds 15 1022 81 10000 12.73 92 06:47 17.12.2021
4212 Clouds 14 1022 80 10000 13.08 96 02:54 17.12.2021
4213 Clouds 16 1022 77 10000 13.23 100 23:40 16.12.2021
4214 Clouds 16 1022 81 10000 13.89 98 22:24 16.12.2021
4215 Clouds 16 1022 81 10000 13.89 98 22:24 16.12.2021
4216 Clouds 16 1022 81 10000 13.89 98 22:24 16.12.2021
4217 Clouds 16 1022 81 10000 13.89 98 22:23 16.12.2021
4218 Clouds 16 1022 81 10000 13.89 98 22:23 16.12.2021
4219 Clouds 16 1022 81 10000 13.89 98 21:44 16.12.2021
4220 Clouds 16 1022 80 10000 13.87 99 20:55 16.12.2021
4221 Clouds 16 1021 78 10000 13.48 101 20:27 16.12.2021
4222 Clouds 16 1021 78 10000 13.49 101 19:33 16.12.2021
4223 Clouds 16 1021 76 10000 13.18 101 18:37 16.12.2021
4224 Clouds 15 1020 77 10000 13.06 101 17:48 16.12.2021
4225 Clouds 15 1020 76 10000 13.27 101 16:44 16.12.2021
4226 Clouds 16 1020 77 10000 13.37 100 16:18 16.12.2021
4227 Clouds 16 1020 75 10000 13.18 100 14:23 16.12.2021
4228 Clouds 16 1022 74 10000 13.73 102 12:30 16.12.2021
4229 Clouds 16 1021 76 10000 13.66 100 11:19 16.12.2021
4230 Clouds 16 1021 76 10000 13.66 100 10:44 16.12.2021
4231 Clouds 15 1021 77 10000 13.7 99 09:50 16.12.2021
4232 Clouds 15 1020 74 10000 14.38 96 07:18 16.12.2021
4233 Clouds 15 1020 74 10000 14.37 96 06:18 16.12.2021
4234 Clouds 16 1021 78 10000 14.2 95 00:35 16.12.2021
4235 Clouds 15 1021 79 10000 14.08 96 23:20 15.12.2021
4236 Clouds 15 1021 79 10000 14.25 94 22:21 15.12.2021
4237 Clouds 15 1021 79 10000 14.25 94 21:45 15.12.2021
4238 Clouds 15 1021 79 10000 14.04 93 21:24 15.12.2021
4239 Clouds 15 1021 79 10000 13.97 93 19:54 15.12.2021
4240 Clouds 15 1020 81 10000 13.79 92 19:19 15.12.2021
4241 Clouds 15 1020 80 10000 13.4 91 18:24 15.12.2021
4242 Clouds 16 1020 80 10000 13.4 91 17:46 15.12.2021
4243 Clouds 16 1020 78 10000 13.4 92 17:21 15.12.2021
4244 Clouds 16 1020 78 10000 13.34 92 15:49 15.12.2021
4245 Clouds 16 1020 78 10000 13.34 92 15:31 15.12.2021
4246 Clouds 16 1020 77 10000 13.33 93 14:59 15.12.2021
4247 Clouds 16 1020 75 10000 13.06 93 13:45 15.12.2021
4248 Clouds 16 1021 78 10000 12.98 94 11:52 15.12.2021
4249 Clouds 15 1021 80 10000 13.06 95 10:22 15.12.2021
4250 Clouds 15 1021 80 10000 12.95 94 08:26 15.12.2021
4251 Clouds 14 1020 78 10000 11.84 94 05:53 15.12.2021
4252 Clouds 15 1021 80 10000 11.41 92 00:37 15.12.2021
4253 Clouds 15 1021 81 10000 11.21 91 23:27 14.12.2021
4254 Clouds 15 1021 81 10000 11.23 91 22:44 14.12.2021
4255 Clouds 15 1022 81 10000 11.04 90 21:43 14.12.2021
4256 Clouds 15 1022 81 10000 11.04 90 21:43 14.12.2021
4257 Clouds 15 1022 82 10000 10.31 90 20:22 14.12.2021
4258 Clouds 15 1022 82 10000 10.31 90 19:34 14.12.2021
4259 Clouds 15 1021 82 10000 9.7 89 18:38 14.12.2021
4260 Clouds 15 1021 81 10000 9.76 89 17:55 14.12.2021
4261 Clouds 16 1021 79 10000 9.72 89 16:47 14.12.2021
4262 Clouds 16 1021 78 10000 9.81 91 16:28 14.12.2021
4263 Clouds 16 1021 79 10000 9.63 91 14:32 14.12.2021
4264 Clouds 16 1023 79 10000 9.65 95 12:58 14.12.2021
4265 Clouds 16 1023 79 10000 9.43 91 11:44 14.12.2021
4266 Clouds 16 1023 79 10000 9.35 90 11:20 14.12.2021
4267 Clouds 15 1023 78 10000 9.21 90 09:55 14.12.2021
4268 Clouds 13 1022 80 10000 8.96 87 08:58 14.12.2021
4269 Clouds 15 1022 80 10000 9.18 85 08:21 14.12.2021
4270 Clouds 15 1022 81 10000 9.02 86 07:23 14.12.2021
4271 Clouds 13 1023 81 10000 8.29 87 23:52 13.12.2021
4272 Clouds 15 1023 82 10000 8.33 86 22:26 13.12.2021
4273 Clouds 15 1023 82 10000 8.33 86 21:39 13.12.2021
4274 Clouds 14 1023 83 10000 8.53 86 20:54 13.12.2021
4275 Clouds 15 1023 83 10000 8.5 86 20:22 13.12.2021
4276 Clouds 15 1023 83 10000 8.5 86 19:49 13.12.2021
4277 Clouds 15 1023 83 10000 8.49 86 19:49 13.12.2021
4278 Clouds 16 1022 83 10000 8.16 85 17:28 13.12.2021
4279 Clouds 16 1022 83 10000 8.16 85 16:43 13.12.2021
4280 Clouds 16 1022 81 10000 8.63 86 15:43 13.12.2021
4281 Clouds 17 1022 80 10000 8.84 86 14:42 13.12.2021
4282 Clouds 16 1022 79 10000 8.98 86 13:37 13.12.2021
4283 Clouds 16 1023 80 10000 9.05 87 12:40 13.12.2021
4284 Clouds 18 1024 80 10000 9.16 88 11:53 13.12.2021
4285 Clouds 16 1024 80 10000 9.16 88 11:34 13.12.2021
4286 Clouds 16 1024 80 10000 9.27 89 10:37 13.12.2021
4287 Clouds 15 1023 83 10000 9.36 89 08:44 13.12.2021
4288 Clouds 15 1022 85 10000 8.63 87 06:55 13.12.2021
4289 Clouds 15 1022 86 10000 8.7 83 05:19 13.12.2021
4290 Clear 15 1023 87 10000 8.87 84 00:27 13.12.2021
4291 Clear 17 1024 82 10000 9.37 84 21:59 12.12.2021
4292 Clear 16 1024 80 10000 9.31 84 21:24 12.12.2021
4293 Clear 16 1023 78 10000 9.31 84 19:35 12.12.2021
4294 Clear 16 1022 76 10000 8.3 79 18:23 12.12.2021
4295 Clear 18 1022 72 10000 8.8 79 16:40 12.12.2021
4296 Clear 18 1022 69 10000 9.06 81 15:58 12.12.2021
4297 Clear 18 1022 67 10000 9.53 82 15:28 12.12.2021
4298 Clear 18 1022 67 10000 9.53 82 14:51 12.12.2021
4299 Clear 18 1022 66 10000 9.8 82 14:18 12.12.2021
4300 Clear 17 1023 64 10000 9.56 81 12:48 12.12.2021
4301 Clear 19 1023 66 10000 9.28 79 11:59 12.12.2021
4302 Clear 16 1023 66 10000 9.28 79 11:32 12.12.2021
4303 Clear 15 1023 70 10000 8.32 78 10:44 12.12.2021
4304 Clear 15 1023 75 10000 7.04 73 10:20 12.12.2021
4305 Clear 14 1022 81 10000 6.53 72 08:46 12.12.2021
4306 Clear 14 1022 83 10000 6.31 71 07:25 12.12.2021
4307 Clear 13 1022 85 10000 5.59 72 05:29 12.12.2021
4308 Clear 11 1022 85 10000 5.59 72 04:51 12.12.2021
4309 Clear 12 1022 84 10000 4.22 76 00:57 12.12.2021
4310 Clear 11 1022 80 10000 2.99 84 22:56 11.12.2021
4311 Clear 15 1022 76 10000 2.22 88 22:20 11.12.2021
4312 Clear 15 1022 76 10000 2.22 88 21:35 11.12.2021
4313 Clear 16 1022 77 10000 0.58 320 20:18 11.12.2021
4314 Clear 17 1021 79 10000 1.59 280 19:21 11.12.2021
4315 Clear 17 1021 79 10000 1.59 280 18:45 11.12.2021
4316 Clear 16 1021 77 10000 2.44 264 17:54 11.12.2021
4317 Clear 18 1021 70 10000 4.01 256 15:59 11.12.2021
4318 Clear 18 1021 70 10000 4.01 256 15:40 11.12.2021
4319 Clear 18 1021 70 10000 4.54 256 14:35 11.12.2021
4320 Clouds 17 1023 76 10000 5.68 266 12:29 11.12.2021
4321 Clouds 16 1023 79 10000 5.63 264 10:49 11.12.2021
4322 Clouds 14 1023 85 10000 5.66 268 09:40 11.12.2021
4323 Clouds 15 1023 92 10000 6.02 292 03:58 11.12.2021
4324 Clouds 15 1024 88 10000 5.89 286 00:48 11.12.2021
4325 Clouds 16 1024 87 10000 5.98 285 23:44 10.12.2021
4326 Clouds 16 1024 87 10000 6.34 274 22:39 10.12.2021
4327 Clouds 16 1025 87 10000 6.9 270 21:40 10.12.2021
4328 Clouds 16 1025 85 10000 6.6 267 20:26 10.12.2021
4329 Clouds 16 1024 83 10000 6.29 269 19:18 10.12.2021
4330 Clouds 16 1024 79 10000 6.81 271 17:46 10.12.2021
4331 Clouds 16 1024 76 10000 7.54 276 16:37 10.12.2021
4332 Clouds 16 1024 74 10000 8.61 283 15:45 10.12.2021
4333 Clouds 16 1024 73 10000 8.87 282 15:26 10.12.2021
4334 Clouds 16 1024 73 10000 8.87 282 14:35 10.12.2021
4335 Clouds 15 1025 72 10000 8.76 281 13:49 10.12.2021
4336 Clouds 15 1026 72 10000 8.56 287 12:55 10.12.2021
4337 Clouds 15 1026 75 10000 7.54 287 11:41 10.12.2021
4338 Clear 14 1026 78 10000 6.84 290 10:56 10.12.2021
4339 Clouds 13 1026 82 10000 6.65 288 09:46 10.12.2021
4340 Clear 13 1025 85 10000 6.56 288 07:28 10.12.2021
4341 Clear 15 1025 83 10000 6.72 293 04:57 10.12.2021
4342 Clear 14 1025 82 10000 6.63 303 02:39 10.12.2021
4343 Clear 14 1026 77 10000 5.04 294 23:40 09.12.2021
4344 Clear 14 1026 77 10000 5.04 294 23:40 09.12.2021
4345 Clear 14 1027 77 10000 4.55 304 22:41 09.12.2021
4346 Clear 14 1027 77 10000 4.5 308 22:21 09.12.2021
4347 Clear 14 1027 77 10000 4.5 308 21:39 09.12.2021
4348 Clear 15 1027 77 10000 5.03 316 20:34 09.12.2021
4349 Clear 15 1027 78 10000 4.94 297 19:38 09.12.2021
4350 Clear 15 1027 75 10000 4.76 292 19:19 09.12.2021
4351 Clear 16 1026 71 10000 5.43 296 18:18 09.12.2021
4352 Clear 16 1026 71 10000 5.43 296 17:47 09.12.2021
4353 Clear 16 1026 65 10000 6.45 299 17:24 09.12.2021
4354 Clear 17 1026 62 10000 7.32 297 16:25 09.12.2021
4355 Clear 16 1026 59 10000 7.05 289 14:59 09.12.2021
4356 Clear 15 1026 56 10000 6.23 287 13:52 09.12.2021
4357 Clouds 14 1027 59 10000 5.61 287 12:47 09.12.2021
4358 Clouds 13 1028 70 10000 5.33 285 11:29 09.12.2021
4359 Clouds 12 1028 77 10000 4.92 294 10:20 09.12.2021
4360 Clouds 14 1026 83 10000 5.63 314 06:59 09.12.2021
4361 Clouds 14 1026 79 10000 5.16 310 03:55 09.12.2021
4362 Clouds 13 1026 70 10000 5.8 308 00:25 09.12.2021
4363 Clouds 14 1026 70 10000 5.8 308 23:36 08.12.2021
4364 Clouds 15 1026 69 10000 5.86 309 22:57 08.12.2021
4365 Clouds 14 1025 70 10000 6.07 304 21:50 08.12.2021
4366 Clouds 14 1025 70 10000 6.07 304 21:32 08.12.2021
4367 Clouds 14 1025 71 10000 6.43 301 20:31 08.12.2021
4368 Clouds 15 1024 69 10000 6.2 299 19:55 08.12.2021
4369 Clouds 14 1023 68 10000 6.86 291 18:57 08.12.2021
4370 Clear 16 1023 63 10000 8.15 294 18:22 08.12.2021
4371 Clear 16 1022 62 10000 8.81 293 16:44 08.12.2021
4372 Clear 17 1022 63 10000 9.22 293 15:40 08.12.2021
4373 Clouds 16 1022 62 10000 9.66 293 15:21 08.12.2021
4374 Clouds 16 1022 64 10000 7.58 288 13:21 08.12.2021
4375 Clouds 14 1023 65 10000 7.11 307 10:42 08.12.2021
4376 Clouds 13 1022 74 10000 7.19 305 09:32 08.12.2021
4377 Clouds 13 1020 90 6316 9.46 256 07:50 08.12.2021
4378 Clouds 15 1021 84 10000 10.93 236 05:22 08.12.2021
4379 Clouds 16 1022 83 10000 8.85 221 00:21 08.12.2021
4380 Clouds 14 1023 81 10000 7.73 243 22:48 07.12.2021
4381 Clouds 14 1023 83 10000 7 260 21:24 07.12.2021
4382 Clouds 15 1023 79 10000 6.59 265 20:25 07.12.2021
4383 Clear 16 1022 77 10000 6.15 266 18:57 07.12.2021
4384 Clear 16 1022 73 10000 6.15 269 18:19 07.12.2021
4385 Clear 17 1022 69 10000 6.23 264 17:20 07.12.2021
4386 Clear 17 1022 69 10000 6.23 264 16:37 07.12.2021
4387 Clear 17 1022 65 10000 6.52 271 15:37 07.12.2021
4388 Clear 18 1022 63 10000 6.47 271 14:37 07.12.2021
4389 Clear 17 1024 61 10000 5.88 264 13:19 07.12.2021
4390 Clear 16 1025 61 10000 5.57 259 12:21 07.12.2021
4391 Clear 13 1025 62 10000 5 261 10:45 07.12.2021
4392 Clear 11 1024 68 10000 4.22 270 09:19 07.12.2021
4393 Clear 11 1024 68 10000 3.86 265 06:39 07.12.2021
4394 Clear 12 1024 67 10000 3.31 269 05:45 07.12.2021
4395 Clear 12 1025 65 10000 2.99 262 01:43 07.12.2021
4396 Clear 13 1026 64 10000 3.93 267 23:18 06.12.2021
4397 Clear 13 1026 64 10000 3.93 267 22:39 06.12.2021
4398 Clear 11 1026 63 10000 3.98 269 21:58 06.12.2021
4399 Clear 14 1027 62 10000 4.15 276 21:20 06.12.2021
4400 Clear 14 1027 62 10000 4.15 276 20:30 06.12.2021
4401 Clear 15 1026 62 10000 5.16 273 19:24 06.12.2021
4402 Clear 15 1025 62 10000 5.39 269 18:29 06.12.2021
4403 Clear 16 1025 62 10000 5.39 269 17:52 06.12.2021
4404 Clear 16 1025 58 10000 5.83 268 17:20 06.12.2021
4405 Clear 16 1025 53 10000 6.74 280 15:49 06.12.2021
4406 Clear 15 1026 55 10000 6.6 279 13:47 06.12.2021
4407 Clear 15 1027 58 10000 6.23 276 12:40 06.12.2021
4408 Clear 14 1028 61 10000 5.7 272 11:54 06.12.2021
4409 Clear 12 1028 70 10000 4.91 278 09:35 06.12.2021
4410 Clear 12 1027 79 10000 4.32 287 06:43 06.12.2021
4411 Clear 14 1027 71 10000 5.54 308 00:33 06.12.2021
4412 Clear 15 1027 66 10000 6.48 301 21:53 05.12.2021
4413 Clear 14 1027 66 10000 6.85 301 21:25 05.12.2021
4414 Clear 14 1026 63 10000 7.29 292 20:20 05.12.2021
4415 Clear 14 1026 63 10000 7.31 292 19:49 05.12.2021
4416 Clouds 14 1026 61 10000 7.44 285 19:21 05.12.2021
4417 Clear 15 1025 59 10000 7.62 285 18:20 05.12.2021
4418 Clear 15 1025 59 10000 7.62 285 17:49 05.12.2021
4419 Clear 16 1025 57 10000 8.38 282 16:52 05.12.2021
4420 Clear 16 1025 57 10000 8.64 285 16:27 05.12.2021
4421 Clear 16 1025 57 10000 8.64 285 15:58 05.12.2021
4422 Clear 16 1025 60 10000 8.87 283 14:45 05.12.2021
4423 Clear 15 1025 62 10000 8.98 285 14:26 05.12.2021
4424 Clear 15 1026 63 10000 8.52 284 13:27 05.12.2021
4425 Clear 14 1026 63 10000 7.99 282 12:40 05.12.2021
4426 Clear 14 1027 66 10000 8.07 290 12:18 05.12.2021
4427 Clear 14 1027 66 10000 8.07 290 11:34 05.12.2021
4428 Clear 13 1027 78 10000 7.61 299 10:18 05.12.2021
4429 Clouds 13 1026 80 10000 6.86 306 08:29 05.12.2021
4430 Clouds 16 1026 89 10000 5.65 303 03:39 05.12.2021
4431 Clouds 16 1026 87 10000 5.36 275 00:48 05.12.2021
4432 Clear 15 1027 84 10000 5.26 289 22:18 04.12.2021
4433 Clear 15 1027 83 10000 5.06 287 21:18 04.12.2021
4434 Clear 15 1027 80 10000 5.31 289 20:27 04.12.2021
4435 Clear 15 1027 80 10000 5.31 289 19:32 04.12.2021
4436 Clear 16 1026 70 10000 6.05 285 18:21 04.12.2021
4437 Clear 16 1026 70 10000 6.05 285 17:40 04.12.2021
4438 Clear 17 1026 63 10000 6.94 283 16:52 04.12.2021
4439 Clear 17 1026 63 10000 6.96 282 16:31 04.12.2021
4440 Clear 17 1025 60 10000 6.44 277 15:57 04.12.2021
4441 Clear 16 1027 59 10000 5.99 270 11:54 04.12.2021
4442 Clear 16 1027 59 10000 5.99 270 11:32 04.12.2021
4443 Clear 15 1028 57 10000 5.75 270 10:56 04.12.2021
4444 Clear 11 1027 62 10000 4.75 270 08:49 04.12.2021
4445 Clear 10 1026 62 10000 4.37 288 07:22 04.12.2021
4446 Clear 11 1025 62 10000 3.94 272 04:42 04.12.2021
4447 Clear 12 1025 59 10000 3.73 284 00:47 04.12.2021
4448 Clear 12 1026 56 10000 4.14 288 23:27 03.12.2021
4449 Clear 13 1026 56 10000 4.15 288 22:48 03.12.2021
4450 Clear 13 1025 54 10000 4.17 287 21:42 03.12.2021
4451 Clear 10 1025 52 10000 4.22 281 20:55 03.12.2021
4452 Clear 13 1025 52 10000 4.46 283 20:26 03.12.2021
4453 Clear 15 1024 51 10000 4.83 287 18:49 03.12.2021
4454 Clear 16 1023 50 10000 5.58 289 18:20 03.12.2021
4455 Clear 17 1023 47 10000 6.24 288 16:43 03.12.2021
4456 Clear 16 1024 50 10000 5.59 281 13:27 03.12.2021
4457 Clear 15 1025 51 10000 5.36 281 12:20 03.12.2021
4458 Clear 12 1025 52 10000 5.01 286 10:56 03.12.2021
4459 Clear 9 1023 58 10000 3.6 294 08:29 03.12.2021
4460 Clear 9 1023 58 10000 3.6 294 07:43 03.12.2021
4461 Clear 9 1023 58 10000 3.6 294 07:43 03.12.2021
4462 Clear 9 1022 55 10000 2.14 291 05:42 03.12.2021
4463 Clear 12 1021 59 10000 2.75 354 00:48 03.12.2021
4464 Clear 13 1021 59 10000 3.13 348 23:47 02.12.2021
4465 Clear 13 1021 59 10000 3.53 345 22:38 02.12.2021
4466 Clear 13 1020 59 10000 3.88 345 21:41 02.12.2021
4467 Clear 14 1020 58 10000 2.97 330 20:44 02.12.2021
4468 Clear 14 1019 57 10000 2.93 342 20:22 02.12.2021
4469 Clouds 15 1017 59 10000 3.96 351 18:36 02.12.2021
4470 Clouds 16 1015 54 10000 5.8 345 16:33 02.12.2021
4471 Clouds 16 1015 55 10000 6.88 337 15:37 02.12.2021
4472 Clouds 15 1014 57 10000 6.51 331 14:51 02.12.2021
4473 Clouds 15 1015 63 10000 6.36 334 13:36 02.12.2021
4474 Clouds 14 1016 75 10000 5.56 315 12:23 02.12.2021
4475 Clouds 13 1016 83 10000 4.81 299 10:42 02.12.2021
4476 Clouds 13 1016 82 10000 7.32 314 09:26 02.12.2021
4477 Clouds 15 1016 75 10000 9.39 309 06:59 02.12.2021
4478 Clouds 14 1020 72 10000 9.56 246 00:59 02.12.2021
4479 Clouds 15 1021 68 10000 8.87 249 23:34 01.12.2021
4480 Clear 15 1023 70 10000 6.82 267 22:25 01.12.2021
4481 Clear 14 1023 70 10000 6.79 267 21:43 01.12.2021
4482 Clear 14 1023 71 10000 6.85 281 20:18 01.12.2021
4483 Clear 14 1023 71 10000 6.85 281 19:37 01.12.2021
4484 Clouds 14 1023 70 10000 6.87 276 18:42 01.12.2021
4485 Clear 16 1023 67 10000 8.61 286 16:59 01.12.2021
4486 Clear 16 1023 65 10000 8.1 278 15:47 01.12.2021
4487 Clear 16 1023 64 10000 6.63 270 14:30 01.12.2021
4488 Clear 15 1024 63 10000 5.93 268 13:36 01.12.2021
4489 Clear 13 1026 64 10000 4.28 275 10:44 01.12.2021
4490 Clear 11 1026 67 10000 3.84 280 10:20 01.12.2021
4491 Clear 7 1026 70 10000 3.26 283 08:51 01.12.2021
4492 Clear 8 1026 68 10000 2.84 284 07:58 01.12.2021
4493 Clouds 10 1025 65 10000 2.05 276 07:27 01.12.2021
4494 Clear 8 1025 63 10000 1.38 329 03:55 01.12.2021
4495 Clear 11 1025 62 10000 1.31 331 03:20 01.12.2021
4496 Clear 12 1026 61 10000 1.17 326 00:20 01.12.2021
4497 Clear 12 1026 61 10000 1.17 326 00:20 01.12.2021
4498 Clear 13 1027 61 10000 1.29 318 23:29 30.11.2021
4499 Clear 13 1027 61 10000 1.29 318 22:31 30.11.2021
4500 Clear 14 1027 63 10000 1.86 301 20:47 30.11.2021
4501 Clear 14 1026 63 10000 2.22 292 20:24 30.11.2021
4502 Clear 15 1026 63 10000 2.22 292 19:39 30.11.2021
4503 Clear 16 1026 64 10000 2.45 288 18:53 30.11.2021
4504 Clear 16 1025 66 10000 2.7 286 17:45 30.11.2021
4505 Clear 17 1025 60 10000 3.3 268 15:57 30.11.2021
4506 Clear 17 1025 59 10000 3.17 264 14:33 30.11.2021
4507 Clear 16 1025 57 10000 3.01 266 13:41 30.11.2021
4508 Clear 16 1026 57 10000 2.76 278 12:54 30.11.2021
4509 Clear 15 1027 60 10000 2.75 292 11:55 30.11.2021
4510 Clear 14 1027 64 10000 2.55 308 11:25 30.11.2021
4511 Clear 13 1027 64 10000 2.55 308 10:36 30.11.2021
4512 Clouds 13 1026 73 10000 2.65 318 08:56 30.11.2021
4513 Clouds 12 1026 73 10000 2.65 318 08:32 30.11.2021
4514 Clouds 13 1026 74 10000 2.66 319 07:50 30.11.2021
4515 Clouds 13 1025 74 10000 2.92 325 06:36 30.11.2021
4516 Clouds 14 1025 74 10000 4.58 256 01:47 30.11.2021
4517 Clouds 14 1025 73 10000 4.81 257 01:27 30.11.2021
4518 Clear 14 1025 73 10000 5.49 243 23:32 29.11.2021
4519 Clear 14 1025 71 10000 5.98 250 22:59 29.11.2021
4520 Clear 14 1025 71 10000 5.98 250 22:37 29.11.2021
4521 Clear 14 1025 69 10000 6.21 252 21:52 29.11.2021
4522 Clear 15 1025 68 10000 6.02 254 21:20 29.11.2021
4523 Clear 15 1025 68 10000 6.02 254 20:45 29.11.2021
4524 Clear 15 1025 67 10000 5.73 262 19:58 29.11.2021
4525 Clear 15 1025 67 10000 5.71 262 19:39 29.11.2021
4526 Clear 15 1024 69 10000 5.88 274 18:58 29.11.2021
4527 Clear 15 1024 69 10000 5.88 274 18:39 29.11.2021
4528 Clear 16 1024 65 10000 8.08 285 17:21 29.11.2021
4529 Clear 16 1024 65 10000 8.08 285 16:40 29.11.2021
4530 Clear 16 1023 63 10000 8.74 283 16:22 29.11.2021
4531 Clouds 16 1024 62 10000 8.93 282 14:45 29.11.2021
4532 Clouds 16 1024 63 10000 8.97 283 13:52 29.11.2021
4533 Clouds 16 1025 64 10000 8.87 283 12:56 29.11.2021
4534 Clouds 16 1026 66 10000 8.38 288 11:54 29.11.2021
4535 Clouds 15 1026 71 10000 7.25 294 10:59 29.11.2021
4536 Clouds 12 1026 78 10000 6.71 299 09:57 29.11.2021
4537 Clouds 14 1024 79 10000 6.95 288 06:44 29.11.2021
4538 Clouds 13 1025 75 10000 6.83 277 04:53 29.11.2021
4539 Clear 13 1025 68 10000 6.75 293 00:44 29.11.2021
4540 Clear 13 1026 64 10000 5.87 295 23:47 28.11.2021
4541 Clear 13 1026 59 10000 5.38 300 23:29 28.11.2021
4542 Clear 13 1025 54 10000 5.75 308 21:53 28.11.2021
4543 Clear 13 1025 54 10000 5.75 308 21:34 28.11.2021
4544 Clear 13 1025 50 10000 6.04 290 20:36 28.11.2021
4545 Clear 13 1024 59 10000 6.05 287 19:29 28.11.2021
4546 Clear 13 1024 55 10000 5.91 281 18:40 28.11.2021
4547 Clear 14 1023 57 10000 6.97 286 17:57 28.11.2021
4548 Clear 14 1023 57 10000 6.97 286 17:32 28.11.2021
4549 Clear 14 1023 55 10000 7.72 285 16:44 28.11.2021
4550 Clear 14 1023 50 10000 7.98 284 16:26 28.11.2021
4551 Clear 14 1023 50 10000 7.98 284 15:43 28.11.2021
4552 Clear 13 1023 46 10000 7.62 286 14:50 28.11.2021
4553 Clear 13 1022 45 10000 7.21 286 13:49 28.11.2021
4554 Clear 12 1023 46 10000 6.49 287 12:54 28.11.2021
4555 Clear 10 1023 50 10000 5.1 294 11:19 28.11.2021
4556 Clear 10 1022 53 10000 4.54 306 10:22 28.11.2021
4557 Clear 9 1022 53 10000 4.54 306 09:40 28.11.2021
4558 Clear 9 1021 60 10000 4.94 316 08:19 28.11.2021
4559 Clouds 12 1017 58 10000 6.07 327 00:40 28.11.2021
4560 Clouds 15 1015 63 10000 6.68 322 21:45 27.11.2021
4561 Clouds 15 1014 56 10000 7.11 307 19:50 27.11.2021
4562 Clouds 15 1013 73 10000 8.94 280 18:20 27.11.2021
4563 Clouds 15 1012 72 10000 8.94 279 15:59 27.11.2021
4564 Clouds 15 1012 69 10000 9.25 273 14:30 27.11.2021
4565 Clear 14 1014 63 10000 8.38 276 12:58 27.11.2021
4566 Clouds 12 1014 62 10000 7.86 284 10:52 27.11.2021
4567 Clouds 12 1014 67 10000 6.06 289 09:53 27.11.2021
4568 Clouds 11 1014 73 10000 5.02 301 08:45 27.11.2021
4569 Clouds 12 1013 73 10000 5.25 307 06:35 27.11.2021
4570 Clouds 12 1013 70 10000 4.78 299 02:25 27.11.2021
4571 Clear 12 1014 68 10000 5.07 279 23:40 26.11.2021
4572 Clear 12 1014 65 10000 4.47 288 22:26 26.11.2021
4573 Clear 12 1014 65 10000 4.47 288 21:41 26.11.2021
4574 Clear 12 1014 65 10000 4.49 291 21:22 26.11.2021
4575 Clear 12 1014 65 10000 4.49 291 20:40 26.11.2021
4576 Clear 13 1014 65 10000 4.79 299 19:55 26.11.2021
4577 Clear 13 1013 64 10000 5.16 300 18:44 26.11.2021
4578 Clear 14 1012 60 10000 6.03 289 17:24 26.11.2021
4579 Clear 14 1012 60 10000 6.03 289 16:45 26.11.2021
4580 Clear 14 1012 58 10000 5.58 281 14:50 26.11.2021
4581 Clear 15 1012 58 10000 4.97 280 13:34 26.11.2021
4582 Clear 11 1013 64 10000 3.06 301 10:44 26.11.2021
4583 Clear 10 1013 69 10000 3 312 09:49 26.11.2021
4584 Clear 11 1012 74 10000 2.81 304 08:50 26.11.2021
4585 Clear 9 1011 75 10000 1.75 313 08:19 26.11.2021
4586 Clouds 10 1011 77 10000 2.57 345 06:30 26.11.2021
4587 Clouds 12 1011 80 10000 2.63 308 04:52 26.11.2021
4588 Clouds 11 1011 79 10000 2.85 293 03:39 26.11.2021
4589 Clouds 13 1012 76 10000 2.93 324 23:43 25.11.2021
4590 Clouds 12 1012 84 10000 4.67 317 22:25 25.11.2021
4591 Rain 14 1012 80 5912 7.5 272 20:43 25.11.2021
4592 Rain 16 1011 75 10000 7.25 253 19:21 25.11.2021
4593 Rain 16 1011 75 10000 7.25 253 18:31 25.11.2021
4594 Clear 16 1011 66 10000 6.34 269 17:28 25.11.2021
4595 Clear 17 1011 66 10000 6.34 269 16:45 25.11.2021
4596 Clear 17 1011 63 10000 7.41 277 16:00 25.11.2021
4597 Clear 16 1011 61 10000 8.17 277 14:31 25.11.2021
4598 Clouds 15 1012 64 10000 8.81 275 12:57 25.11.2021
4599 Clouds 14 1013 68 10000 8.21 276 11:56 25.11.2021
4600 Clouds 13 1013 74 10000 7.57 279 10:43 25.11.2021
4601 Clouds 12 1013 75 10000 6.87 274 08:28 25.11.2021
4602 Clouds 14 1014 68 10000 8.33 273 03:18 25.11.2021
4603 Clouds 13 1014 73 10000 5.3 276 01:26 25.11.2021
4604 Clouds 14 1015 73 10000 5.04 290 22:33 24.11.2021
4605 Clouds 14 1015 74 10000 4.89 287 21:48 24.11.2021
4606 Clouds 14 1015 73 10000 5.02 286 21:22 24.11.2021
4607 Clouds 15 1015 71 10000 4.96 290 20:27 24.11.2021
4608 Clouds 15 1015 71 10000 4.96 290 19:40 24.11.2021
4609 Clouds 16 1015 73 10000 4.38 254 18:19 24.11.2021
4610 Clouds 17 1016 66 10000 4.81 271 16:47 24.11.2021
4611 Clear 16 1017 65 10000 4.71 274 14:58 24.11.2021
4612 Clear 16 1017 62 10000 4.46 274 14:22 24.11.2021
4613 Clear 16 1017 62 10000 4.46 274 13:35 24.11.2021
4614 Clear 14 1018 63 10000 3.4 286 11:34 24.11.2021
4615 Clear 13 1019 66 10000 3.26 300 10:58 24.11.2021
4616 Clear 11 1019 67 10000 3.2 301 10:36 24.11.2021
4617 Clear 11 1019 69 10000 3.51 302 09:35 24.11.2021
4618 Clear 9 1018 70 10000 4.12 305 07:41 24.11.2021
4619 Clear 11 1017 72 10000 5.11 304 05:41 24.11.2021
4620 Clouds 11 1016 72 10000 5.21 299 03:44 24.11.2021
4621 Clouds 13 1015 69 10000 5.76 322 23:33 23.11.2021
4622 Clouds 13 1015 67 10000 7.68 285 22:39 23.11.2021
4623 Clouds 13 1015 63 10000 9.43 274 21:45 23.11.2021
4624 Clouds 16 1014 65 10000 9.08 266 20:36 23.11.2021
4625 Clear 15 1014 62 10000 8.88 269 19:34 23.11.2021
4626 Clouds 15 1014 65 10000 7.97 271 18:34 23.11.2021
4627 Clouds 16 1013 66 10000 7.3 279 17:41 23.11.2021
4628 Clouds 16 1013 66 10000 7.3 279 17:41 23.11.2021
4629 Clouds 16 1013 63 10000 7.53 284 16:37 23.11.2021
4630 Clouds 16 1013 70 10000 8.5 279 15:27 23.11.2021
4631 Clouds 16 1013 68 10000 8.54 278 14:56 23.11.2021
4632 Clouds 15 1014 57 10000 6.69 267 13:29 23.11.2021
4633 Clear 13 1015 59 10000 4.51 288 10:28 23.11.2021
4634 Clear 12 1015 59 10000 4.51 288 09:48 23.11.2021
4635 Clear 12 1015 62 10000 4.14 299 08:41 23.11.2021
4636 Clouds 14 1013 64 10000 5.73 310 04:53 23.11.2021
4637 Clouds 14 1013 65 10000 5.88 307 03:35 23.11.2021
4638 Clouds 16 1013 68 10000 9.06 296 23:42 22.11.2021
4639 Clouds 16 1012 74 10000 8.46 298 23:20 22.11.2021
4640 Clouds 15 1012 74 10000 8.46 298 22:30 22.11.2021
4641 Clouds 16 1012 80 10000 7.74 284 21:45 22.11.2021
4642 Clouds 16 1012 82 8455 8.8 267 21:19 22.11.2021
4643 Rain 16 1012 82 8455 8.8 267 20:42 22.11.2021
4644 Clear 16 1012 80 10000 8 256 19:21 22.11.2021
4645 Clear 16 1011 81 10000 9.65 250 18:41 22.11.2021
4646 Clear 16 1011 80 10000 9.2 251 18:21 22.11.2021
4647 Clear 17 1011 75 10000 8.92 255 16:41 22.11.2021
4648 Clear 19 1012 71 10000 8.23 261 15:29 22.11.2021
4649 Clear 18 1013 67 10000 7.55 264 12:51 22.11.2021
4650 Clear 17 1014 70 10000 6.86 264 11:34 22.11.2021
4651 Clear 16 1014 76 10000 5.02 261 10:26 22.11.2021
4652 Clear 15 1013 80 10000 5.13 261 08:43 22.11.2021
4653 Clear 15 1013 83 10000 4.93 257 08:23 22.11.2021
4654 Clear 15 1014 85 10000 3.19 276 01:39 22.11.2021
4655 Clouds 16 1015 85 10000 3.64 276 23:21 21.11.2021
4656 Clouds 16 1015 85 10000 3.64 276 22:43 21.11.2021
4657 Clear 17 1015 85 10000 3.92 267 20:55 21.11.2021
4658 Clear 17 1015 85 10000 3.92 267 20:34 21.11.2021
4659 Rain 18 1015 84 10000 4.19 267 18:55 21.11.2021
4660 Clouds 18 1014 81 10000 4.6 259 17:56 21.11.2021
4661 Clouds 18 1014 81 10000 4.6 259 17:35 21.11.2021
4662 Clouds 19 1015 75 10000 6.74 245 14:50 21.11.2021
4663 Clouds 18 1015 75 10000 6.74 245 14:31 21.11.2021
4664 Clouds 17 1016 78 10000 6.68 238 12:58 21.11.2021
4665 Clouds 16 1017 80 10000 6.25 233 12:20 21.11.2021
4666 Clouds 16 1017 81 10000 5.31 230 11:37 21.11.2021
4667 Clouds 15 1017 82 10000 5.12 227 10:19 21.11.2021
4668 Clouds 14 1017 82 10000 5.12 227 09:45 21.11.2021
4669 Clouds 13 1017 83 10000 3.26 223 08:32 21.11.2021
4670 Clouds 15 1017 83 10000 3.26 224 07:52 21.11.2021
4671 Clouds 13 1017 82 10000 3.11 224 06:26 21.11.2021
4672 Clouds 14 1017 82 10000 3.11 224 05:41 21.11.2021
4673 Rain 12 1017 82 10000 2.65 215 03:22 21.11.2021
4674 Rain 16 1017 82 10000 2.65 215 02:55 21.11.2021
4675 Clouds 15 1018 80 10000 1.83 170 01:28 21.11.2021
4676 Clouds 15 1018 80 10000 1.83 170 00:42 21.11.2021
4677 Clouds 16 1018 78 10000 2.23 136 22:30 20.11.2021
4678 Clouds 16 1018 78 10000 1.9 139 21:32 20.11.2021
4679 Clouds 16 1018 79 10000 1.17 141 19:58 20.11.2021
4680 Clouds 16 1018 80 10000 0.94 139 18:45 20.11.2021
4681 Clouds 16 1017 79 10000 0.4 113 18:23 20.11.2021
4682 Clouds 16 1017 76 10000 0.18 338 17:22 20.11.2021
4683 Clouds 17 1018 71 10000 1.22 260 14:57 20.11.2021
4684 Clouds 17 1019 71 9253 1.83 249 14:28 20.11.2021
4685 Clouds 17 1019 71 9253 1.83 249 13:53 20.11.2021
4686 Clouds 18 1020 76 10000 2.67 92 11:46 20.11.2021
4687 Clouds 18 1020 83 10000 3.01 95 09:57 20.11.2021
4688 Clouds 18 1019 85 10000 3.43 88 08:40 20.11.2021
4689 Clouds 18 1019 87 10000 4.43 79 06:50 20.11.2021
4690 Clouds 18 1018 85 10000 3.65 93 05:18 20.11.2021
4691 Clouds 18 1018 85 10000 3.65 93 05:18 20.11.2021
4692 Clouds 18 1018 85 10000 3.65 93 04:49 20.11.2021
4693 Clouds 18 1019 84 7914 5.14 97 00:43 20.11.2021
4694 Clouds 19 1019 79 6595 7.61 100 23:57 19.11.2021
4695 Clouds 19 1018 73 10000 10.31 92 22:53 19.11.2021
4696 Clouds 18 1017 74 10000 12.14 78 21:28 19.11.2021
4697 Clouds 18 1017 74 10000 12.14 78 20:42 19.11.2021
4698 Clouds 18 1017 73 10000 12.29 78 20:23 19.11.2021
4699 Clouds 18 1017 73 10000 12.29 78 19:44 19.11.2021
4700 Clouds 18 1017 73 10000 12.55 76 18:46 19.11.2021
4701 Clouds 18 1016 71 10000 12.77 75 17:44 19.11.2021
4702 Clouds 18 1016 70 10000 12.94 77 16:43 19.11.2021
4703 Clouds 18 1016 70 10000 12.94 77 16:43 19.11.2021
4704 Clear 19 1016 73 10000 13.61 78 14:52 19.11.2021
4705 Clouds 18 1019 76 10000 15.45 91 11:43 19.11.2021
4706 Clouds 17 1019 79 10000 14.75 90 10:24 19.11.2021
4707 Clouds 17 1018 81 10000 14.98 93 08:35 19.11.2021
4708 Clouds 16 1018 83 10000 15.03 92 06:29 19.11.2021
4709 Clouds 16 1018 83 10000 15.36 91 04:19 19.11.2021
4710 Clouds 18 1020 82 10000 15.68 94 23:54 18.11.2021
4711 Clouds 18 1020 82 10000 15.65 95 23:18 18.11.2021
4712 Clouds 17 1019 82 10000 15.43 94 21:18 18.11.2021
4713 Clouds 17 1019 82 10000 15.43 94 20:44 18.11.2021
4714 Clear 17 1019 82 10000 15.31 93 20:23 18.11.2021
4715 Clear 17 1019 82 10000 15.31 93 19:36 18.11.2021
4716 Clouds 17 1018 81 10000 14.87 93 18:38 18.11.2021
4717 Clouds 17 1018 81 10000 14.65 93 17:52 18.11.2021
4718 Clouds 16 1018 80 10000 14.88 92 17:22 18.11.2021
4719 Clouds 17 1018 80 10000 14.88 92 16:42 18.11.2021
4720 Clouds 17 1017 77 10000 15.02 93 14:57 18.11.2021
4721 Clouds 16 1018 76 10000 14.84 93 12:56 18.11.2021
4722 Clouds 17 1019 77 10000 14.31 92 11:44 18.11.2021
4723 Clouds 17 1018 79 10000 14.19 92 11:26 18.11.2021
4724 Clouds 17 1018 79 10000 14.19 92 10:35 18.11.2021
4725 Rain 17 1017 81 10000 13.8 92 08:44 18.11.2021
4726 Rain 17 1017 81 10000 13.22 92 06:49 18.11.2021
4727 Clouds 17 1017 81 10000 12.59 92 05:46 18.11.2021
4728 Clear 17 1018 78 10000 11.52 89 01:27 18.11.2021
4729 Clear 17 1018 76 10000 11.4 90 23:46 17.11.2021
4730 Clear 17 1018 75 10000 11.41 92 22:40 17.11.2021
4731 Clear 17 1018 75 10000 11.29 93 22:19 17.11.2021
4732 Clear 17 1018 75 10000 11.29 93 21:36 17.11.2021
4733 Clouds 17 1017 75 10000 11.2 92 20:18 17.11.2021
4734 Clouds 17 1016 72 10000 10.98 88 17:36 17.11.2021
4735 Clear 17 1016 71 10000 11.35 90 16:28 17.11.2021
4736 Clouds 17 1016 68 10000 10.94 90 13:41 17.11.2021
4737 Clouds 18 1017 63 10000 10.4 87 12:38 17.11.2021
4738 Clouds 18 1017 64 10000 9.79 88 10:54 17.11.2021
4739 Clouds 17 1017 65 10000 9.59 89 09:44 17.11.2021
4740 Clouds 17 1016 67 10000 9.44 88 08:30 17.11.2021
4741 Clouds 16 1016 68 10000 9.17 86 07:41 17.11.2021
4742 Clear 16 1015 67 10000 7.65 85 02:49 17.11.2021
4743 Clear 16 1015 68 10000 6.95 81 00:35 17.11.2021
4744 Clear 17 1016 71 10000 5.52 74 22:32 16.11.2021
4745 Clear 17 1016 70 10000 4.53 78 20:19 16.11.2021
4746 Clear 17 1016 70 10000 4.53 78 19:55 16.11.2021
4747 Clouds 18 1015 70 10000 4.62 74 18:52 16.11.2021
4748 Clouds 18 1015 69 10000 5.16 74 18:29 16.11.2021
4749 Clouds 18 1015 67 10000 6.18 71 17:26 16.11.2021
4750 Clouds 18 1015 65 10000 6.71 67 16:21 16.11.2021
4751 Clouds 18 1015 65 10000 6.71 67 15:44 16.11.2021
4752 Clouds 18 1015 63 10000 6.07 67 13:49 16.11.2021
4753 Clouds 17 1017 68 10000 4.57 56 10:39 16.11.2021
4754 Clouds 14 1017 72 10000 4.11 49 09:42 16.11.2021
4755 Clouds 13 1017 80 10000 4.13 50 08:23 16.11.2021
4756 Clear 13 1016 79 10000 3.76 52 07:29 16.11.2021
4757 Clear 14 1018 67 10000 1.53 77 23:54 15.11.2021
4758 Clear 17 1018 65 10000 0.35 169 22:43 15.11.2021
4759 Clear 17 1018 65 10000 1.76 241 22:20 15.11.2021
4760 Clear 17 1018 65 10000 1.76 241 21:46 15.11.2021
4761 Clear 17 1018 65 10000 2.9 256 21:21 15.11.2021
4762 Clear 18 1017 64 10000 3.84 258 19:39 15.11.2021
4763 Clear 21 1016 61 10000 4.73 265 17:36 15.11.2021
4764 Clear 22 1016 55 10000 4.84 265 15:57 15.11.2021
4765 Clear 22 1016 55 10000 4.85 266 15:39 15.11.2021
4766 Clear 22 1016 56 10000 5.2 263 15:19 15.11.2021
4767 Clear 20 1017 60 10000 5.73 262 12:43 15.11.2021
4768 Clear 18 1018 67 10000 6.03 252 10:53 15.11.2021
4769 Clear 17 1017 76 10000 5.33 252 09:24 15.11.2021
4770 Clear 16 1016 78 10000 4.74 250 07:26 15.11.2021
4771 Clear 16 1016 64 10000 3.33 274 02:34 15.11.2021
4772 Clear 18 1017 70 10000 2.46 278 22:47 14.11.2021
4773 Clear 17 1017 71 10000 2.15 269 22:27 14.11.2021
4774 Clear 18 1017 72 10000 0.94 287 19:36 14.11.2021
4775 Clouds 18 1016 75 10000 0.87 73 19:18 14.11.2021
4776 Clouds 18 1016 75 10000 0.87 73 18:54 14.11.2021
4777 Clouds 18 1016 75 10000 0.87 73 18:36 14.11.2021
4778 Clouds 19 1015 73 10000 1.96 90 18:18 14.11.2021
4779 Clouds 20 1015 73 10000 1.96 90 17:54 14.11.2021
4780 Clouds 20 1015 73 10000 1.96 90 17:36 14.11.2021
4781 Clouds 20 1016 67 10000 2.89 89 17:18 14.11.2021
4782 Clouds 20 1016 67 10000 2.9 89 16:42 14.11.2021
4783 Clear 20 1016 65 10000 3.82 87 16:19 14.11.2021
4784 Clear 19 1016 66 10000 4.58 84 15:20 14.11.2021
4785 Clear 19 1016 66 10000 4.58 84 14:45 14.11.2021
4786 Clear 19 1016 67 10000 5.12 84 14:22 14.11.2021
4787 Clear 20 1016 67 10000 5.12 84 13:52 14.11.2021
4788 Clouds 20 1017 68 10000 5.83 81 13:28 14.11.2021
4789 Clouds 19 1017 70 10000 6.25 81 12:23 14.11.2021
4790 Clouds 18 1018 72 10000 6.5 81 11:28 14.11.2021
4791 Clouds 18 1018 72 10000 6.48 81 10:39 14.11.2021
4792 Clouds 17 1018 75 10000 6.58 75 09:41 14.11.2021
4793 Clouds 17 1017 79 10000 6.53 72 08:51 14.11.2021
4794 Clear 17 1016 80 10000 7.21 80 04:47 14.11.2021
4795 Clear 17 1017 80 10000 7.75 81 23:20 13.11.2021
4796 Clear 17 1017 80 10000 7.19 80 22:20 13.11.2021
4797 Clear 17 1017 80 10000 7.19 80 21:36 13.11.2021
4798 Clear 17 1017 80 10000 6.83 78 20:46 13.11.2021
4799 Clear 17 1017 80 10000 7 79 19:32 13.11.2021
4800 Clear 17 1017 78 10000 8.35 81 18:32 13.11.2021
4801 Clear 18 1016 77 10000 8.57 81 17:41 13.11.2021
4802 Clear 19 1016 71 10000 9.45 83 15:55 13.11.2021
4803 Clear 19 1016 69 10000 9.13 83 14:45 13.11.2021
4804 Clear 19 1016 69 10000 9.26 84 13:56 13.11.2021
4805 Clear 19 1016 69 10000 9.4 85 12:43 13.11.2021
4806 Clouds 18 1017 70 10000 9.17 88 11:51 13.11.2021
4807 Clouds 18 1017 71 10000 9.07 87 11:22 13.11.2021
4808 Clouds 18 1017 71 10000 9.05 87 10:34 13.11.2021
4809 Clouds 17 1017 74 10000 8.05 83 09:47 13.11.2021
4810 Clouds 16 1016 78 10000 7.09 79 09:28 13.11.2021
4811 Clouds 15 1016 78 10000 7.09 79 08:49 13.11.2021
4812 Clouds 14 1016 80 10000 6.75 77 07:51 13.11.2021
4813 Clear 15 1016 79 10000 6.19 72 04:43 13.11.2021
4814 Clear 15 1016 75 10000 6.89 76 04:20 13.11.2021
4815 Clear 15 1016 72 10000 5.69 78 23:35 12.11.2021
4816 -273 0 0 0 0 0 22:33 12.11.2021
4817 Clear 16 1017 68 10000 3.99 71 20:47 12.11.2021
4818 Clear 17 1016 69 10000 3.13 60 19:32 12.11.2021
4819 Clear 17 1016 69 10000 3.13 60 19:32 12.11.2021
4820 Clouds 18 1015 69 10000 1.51 27 18:57 12.11.2021
4821 Clouds 18 1014 67 10000 1.31 266 18:19 12.11.2021
4822 Clouds 19 1014 59 10000 2.8 258 15:55 12.11.2021
4823 Clear 21 1015 58 10000 3.2 286 13:46 12.11.2021
4824 Clear 17 1017 57 10000 2.28 268 11:26 12.11.2021
4825 Clear 16 1017 57 10000 2.28 268 10:40 12.11.2021
4826 Clear 13 1017 66 10000 1.96 271 08:56 12.11.2021
4827 Clear 14 1017 70 10000 1.71 288 07:49 12.11.2021
4828 Clouds 16 1018 83 10000 2.76 300 00:21 12.11.2021
4829 Clouds 17 1018 83 10000 2.76 300 23:30 11.11.2021
4830 Clouds 17 1018 85 10000 3 283 22:21 11.11.2021
4831 Clouds 17 1018 86 10000 3.44 281 21:26 11.11.2021
4832 Clouds 19 1018 85 10000 3.91 285 19:56 11.11.2021
4833 Clouds 19 1017 74 10000 4.11 276 18:40 11.11.2021
4834 Clouds 20 1017 70 10000 4.09 268 17:41 11.11.2021
4835 Clouds 21 1017 59 10000 4.7 270 15:41 11.11.2021
4836 Clouds 21 1017 53 10000 4.52 263 14:39 11.11.2021
4837 Clouds 21 1017 48 10000 3.7 260 14:21 11.11.2021
4838 Clouds 21 1017 48 10000 3.7 260 13:35 11.11.2021
4839 Clear 19 1019 47 10000 1.7 282 12:27 11.11.2021
4840 Clear 13 1019 57 10000 1.02 243 09:58 11.11.2021
4841 Clear 12 1019 62 10000 0.36 226 09:22 11.11.2021
4842 Clear 12 1018 65 10000 0.16 271 07:33 11.11.2021
4843 Clear 14 1018 80 10000 2.26 69 00:40 11.11.2021
4844 Clear 17 1019 79 10000 2.46 81 22:46 10.11.2021
4845 Clear 14 1019 78 10000 2.38 71 21:53 10.11.2021
4846 Clear 15 1018 78 10000 1.92 69 20:55 10.11.2021
4847 Clear 17 1018 76 10000 1.85 55 20:18 10.11.2021
4848 Clear 17 1018 78 10000 2.66 66 19:39 10.11.2021
4849 Clouds 19 1016 69 10000 3.4 86 17:22 10.11.2021
4850 Clouds 20 1017 66 10000 3.92 88 15:46 10.11.2021
4851 Clouds 18 1017 66 10000 3.65 81 14:24 10.11.2021
4852 Clouds 18 1017 66 10000 3.65 81 13:36 10.11.2021
4853 Clouds 18 1018 69 10000 3.65 77 12:23 10.11.2021
4854 Clouds 12 1018 81 10000 3.06 70 09:18 10.11.2021
4855 Clouds 12 1018 81 10000 3.06 70 08:41 10.11.2021
4856 Clouds 13 1017 83 10000 3.05 71 06:45 10.11.2021
4857 Clear 12 1017 83 10000 2.93 72 05:58 10.11.2021
4858 Clear 13 1017 80 10000 2.7 59 01:56 10.11.2021
4859 Clear 16 1017 70 10000 0.19 19 22:29 09.11.2021
4860 Clear 18 1017 69 10000 1.23 270 20:42 09.11.2021
4861 Clear 18 1016 68 10000 1.91 262 19:29 09.11.2021
4862 Clear 18 1016 68 10000 1.91 262 18:49 09.11.2021
4863 Clear 20 1015 60 10000 2.91 243 16:53 09.11.2021
4864 Clear 20 1015 62 10000 4 246 15:20 09.11.2021
4865 Clear 20 1016 65 10000 5.21 253 13:31 09.11.2021
4866 Clear 19 1016 61 10000 5.51 257 12:47 09.11.2021
4867 Clear 17 1017 67 10000 6.51 241 10:58 09.11.2021
4868 Clear 16 1017 69 10000 6.31 237 09:59 09.11.2021
4869 Clear 14 1016 72 10000 6.37 235 08:54 09.11.2021
4870 Clear 15 1016 74 10000 6.19 232 07:28 09.11.2021
4871 Clear 14 1017 71 10000 5.14 238 02:35 09.11.2021
4872 Clear 10 1017 69 10000 4.44 244 01:51 09.11.2021
4873 Clear 15 1017 68 10000 4.07 252 00:30 09.11.2021
4874 Clear 15 1018 66 10000 4.22 251 00:30 09.11.2021
4875 Clear 15 1017 68 10000 4.07 252 00:30 09.11.2021
4876 Clear 15 1018 66 10000 4.26 251 23:30 08.11.2021
4877 Clear 15 1018 66 10000 4.74 245 22:37 08.11.2021
4878 Clear 16 1018 65 10000 5.2 242 21:31 08.11.2021
4879 Clear 17 1018 65 10000 4.33 226 20:33 08.11.2021
4880 Clear 17 1018 59 10000 4.92 233 19:27 08.11.2021
4881 Clear 19 1017 55 10000 4.96 239 17:41 08.11.2021
4882 Clear 20 1017 48 10000 4.96 253 15:49 08.11.2021
4883 Clear 19 1017 48 10000 5.21 258 14:56 08.11.2021
4884 Clear 18 1018 47 10000 5.01 255 14:24 08.11.2021
4885 Clear 18 1018 46 10000 4.49 258 12:59 08.11.2021
4886 Clear 16 1019 46 10000 4.16 248 11:54 08.11.2021
4887 Clouds 13 1019 47 10000 3.75 238 10:41 08.11.2021
4888 Clouds 8 1018 50 10000 2.67 245 08:56 08.11.2021
4889 Clouds 7 1018 51 10000 2.51 255 07:56 08.11.2021
4890 Clear 7 1018 49 10000 2.9 265 06:55 08.11.2021
4891 Clear 11 1019 49 10000 2.58 284 03:35 08.11.2021
4892 Clear 12 1020 52 10000 1.04 262 00:18 08.11.2021
4893 Clear 11 1021 53 10000 0.49 297 22:57 07.11.2021
4894 Clear 14 1021 54 10000 0.18 332 21:25 07.11.2021
4895 Clear 15 1021 54 10000 0.46 34 20:18 07.11.2021
4896 Clear 17 1020 46 10000 1.74 86 18:30 07.11.2021
4897 Clear 17 1019 44 10000 2.59 99 17:40 07.11.2021
4898 Clear 17 1020 42 10000 4.27 69 16:22 07.11.2021
4899 Clear 17 1020 44 10000 4.37 69 14:54 07.11.2021
4900 Clear 17 1020 47 10000 4.52 90 14:27 07.11.2021
4901 Clear 17 1021 50 10000 4.78 83 12:48 07.11.2021
4902 Clear 15 1022 48 10000 3.97 84 11:31 07.11.2021
4903 Clear 8 1022 48 10000 2.76 63 08:59 07.11.2021
4904 Clear 11 1022 63 10000 1.01 20 02:55 07.11.2021
4905 Clear 11 1022 64 10000 0.74 56 02:18 07.11.2021
4906 Clear 14 1024 66 10000 2.01 84 22:55 06.11.2021
4907 Clear 13 1024 68 10000 2.94 50 21:53 06.11.2021
4908 Clear 15 1024 66 10000 3 63 20:56 06.11.2021
4909 Clear 15 1024 66 10000 3.06 74 19:42 06.11.2021
4910 Clear 17 1022 60 10000 6.54 91 17:31 06.11.2021
4911 Clear 17 1022 60 10000 6.55 91 16:32 06.11.2021
4912 Clear 17 1022 56 10000 7.52 83 13:39 06.11.2021
4913 Clear 17 1022 56 10000 6.82 86 12:55 06.11.2021
4914 Clear 16 1022 49 10000 4.58 69 10:35 06.11.2021
4915 Clear 12 1022 52 10000 2.72 34 08:36 06.11.2021
4916 Clear 13 1020 53 10000 3.15 12 04:50 06.11.2021
4917 Clear 15 1021 51 10000 3.29 8 23:49 05.11.2021
4918 Clear 15 1021 51 10000 3.52 12 23:28 05.11.2021
4919 Clear 15 1021 51 10000 3.52 12 22:33 05.11.2021
4920 Clear 17 1020 50 10000 4.06 21 20:26 05.11.2021
4921 Clear 17 1020 48 10000 3.46 18 19:51 05.11.2021
4922 Clear 18 1020 46 10000 2.82 353 18:43 05.11.2021
4923 Clear 19 1019 42 10000 2.15 307 17:52 05.11.2021
4924 Clear 19 1019 38 10000 2.88 269 16:37 05.11.2021
4925 Clear 19 1020 41 10000 1.94 249 14:21 05.11.2021
4926 Clear 18 1021 44 10000 1.16 273 12:26 05.11.2021
4927 Clear 12 1020 55 10000 0.34 319 09:29 05.11.2021
4928 Clear 12 1020 59 10000 0.92 4 08:28 05.11.2021
4929 Clear 12 1018 62 10000 2.79 346 05:40 05.11.2021
4930 Clear 13 1018 58 10000 3.89 318 02:37 05.11.2021
4931 Clear 13 1018 56 10000 3.41 317 02:18 05.11.2021
4932 Clear 12 1018 56 10000 2.98 331 23:56 04.11.2021
4933 Clear 15 1018 52 10000 3.21 312 22:21 04.11.2021
4934 Clear 12 1018 52 10000 3.21 312 21:54 04.11.2021
4935 Clear 15 1018 50 10000 3.13 308 21:22 04.11.2021
4936 Clear 16 1017 50 10000 3.69 320 20:25 04.11.2021
4937 Clear 16 1017 50 10000 3.69 320 19:49 04.11.2021
4938 Clear 17 1017 50 10000 4.62 316 19:25 04.11.2021
4939 Clear 18 1016 51 10000 5.88 294 18:23 04.11.2021
4940 Clear 18 1015 49 10000 6.53 291 17:26 04.11.2021
4941 Clear 18 1015 48 10000 6.8 288 15:36 04.11.2021
4942 Clear 17 1015 49 10000 6.85 287 13:45 04.11.2021
4943 Clear 14 1016 60 10000 4.88 303 10:22 04.11.2021
4944 Clear 13 1016 66 10000 4.81 309 08:31 04.11.2021
4945 Clear 13 1015 69 10000 4.6 308 07:36 04.11.2021
4946 Clouds 13 1014 68 10000 4.39 313 06:40 04.11.2021
4947 Clouds 17 1014 64 10000 4.74 299 22:59 03.11.2021
4948 Clouds 16 1014 69 10000 5.83 287 22:19 03.11.2021
4949 Clouds 17 1014 69 10000 5.83 287 21:36 03.11.2021
4950 Clouds 17 1014 71 10000 5.71 279 20:39 03.11.2021
4951 Clouds 17 1014 66 10000 5.73 276 20:21 03.11.2021
4952 Clouds 17 1014 62 10000 6.53 279 19:28 03.11.2021
4953 Clouds 18 1013 60 10000 7.39 284 18:26 03.11.2021
4954 Clouds 18 1013 60 10000 7.39 284 17:41 03.11.2021
4955 Clouds 19 1013 60 10000 8.34 288 16:42 03.11.2021
4956 Clouds 18 1013 59 10000 8.71 288 15:47 03.11.2021
4957 Clouds 18 1013 58 10000 8.94 286 15:29 03.11.2021
4958 Clouds 18 1014 55 10000 8.57 295 12:42 03.11.2021
4959 Clouds 17 1014 63 10000 8.68 306 11:28 03.11.2021
4960 Clouds 17 1014 63 10000 8.68 306 10:49 03.11.2021
4961 Clouds 17 1013 73 10000 8.44 311 09:34 03.11.2021
4962 Clouds 17 1012 80 10000 8.43 312 08:41 03.11.2021
4963 Clouds 17 1011 84 10000 8.26 315 07:40 03.11.2021
4964 Clouds 18 1010 90 10000 6.5 332 05:45 03.11.2021
4965 Rain 18 1010 93 7782 9.54 239 04:21 03.11.2021
4966 Rain 18 1013 86 10000 6.28 267 00:54 03.11.2021
4967 Clouds 17 1014 88 10000 5.96 277 22:52 02.11.2021
4968 Clouds 18 1014 89 10000 4.86 270 21:47 02.11.2021
4969 Clouds 18 1014 86 10000 4.44 278 20:34 02.11.2021
4970 Clouds 18 1014 85 10000 4.83 282 19:55 02.11.2021
4971 Clouds 18 1014 85 10000 4.64 282 19:20 02.11.2021
4972 Clouds 18 1014 81 10000 5.1 281 18:26 02.11.2021
4973 Clouds 18 1014 81 10000 5.1 281 17:43 02.11.2021
4974 Clouds 19 1014 78 10000 4.95 280 16:33 02.11.2021
4975 Clouds 19 1014 82 10000 4.28 287 15:48 02.11.2021
4976 Clouds 19 1015 86 10000 4.05 285 14:31 02.11.2021
4977 Clouds 20 1016 87 10000 4.59 297 13:28 02.11.2021
4978 Clouds 19 1016 90 10000 4.94 283 12:45 02.11.2021
4979 Clouds 19 1016 88 10000 5.69 267 11:38 02.11.2021
4980 Clouds 19 1017 89 10000 5.95 254 10:54 02.11.2021
4981 Clouds 19 1017 90 10000 5.42 247 10:30 02.11.2021
4982 Clouds 20 1017 91 10000 4.6 246 08:45 02.11.2021
4983 Clouds 20 1016 91 10000 4.05 251 07:36 02.11.2021
4984 Clouds 20 1016 93 10000 5.66 252 03:51 02.11.2021
4985 Clouds 21 1016 94 10000 5.7 248 02:35 02.11.2021
4986 Clouds 21 1018 93 10000 5.42 253 23:20 01.11.2021
4987 Clouds 22 1018 93 10000 5.12 252 21:27 01.11.2021
4988 Clouds 22 1018 93 10000 5.14 252 20:39 01.11.2021
4989 Clouds 21 1018 93 10000 5 255 19:57 01.11.2021
4990 Clouds 22 1018 93 10000 5 255 19:30 01.11.2021
4991 Clouds 22 1017 90 10000 6.26 260 18:22 01.11.2021
4992 Clouds 22 1017 90 10000 6.26 260 17:35 01.11.2021
4993 Clouds 21 1017 88 10000 7.06 260 16:50 01.11.2021
4994 Clouds 21 1017 85 10000 8.04 257 15:55 01.11.2021
4995 Clouds 21 1017 83 10000 8.51 256 15:26 01.11.2021
4996 Clouds 22 1017 83 10000 8.51 256 14:43 01.11.2021
4997 Clouds 22 1018 83 10000 8.72 254 14:22 01.11.2021
4998 Clouds 22 1018 82 10000 8.83 255 13:49 01.11.2021
4999 Clouds 22 1019 84 10000 9.19 245 12:27 01.11.2021
5000 Clouds 22 1019 87 10000 9.01 237 10:33 01.11.2021
5001 Clouds 22 1019 91 10000 8.3 233 09:25 01.11.2021
5002 Clouds 21 1018 93 10000 7.81 233 07:49 01.11.2021
5003 Clouds 20 1018 91 10000 7.91 235 05:57 01.11.2021
5004 Clouds 21 1018 91 10000 7.31 235 03:44 01.11.2021
5005 Clouds 21 1020 89 10000 6.74 234 00:27 01.11.2021
5006 Clouds 21 1020 91 10000 6.45 230 21:55 31.10.2021
5007 Clouds 21 1020 92 10000 6.61 229 20:36 31.10.2021
5008 Clouds 21 1019 91 10000 7.17 238 18:54 31.10.2021
5009 Clouds 21 1019 91 10000 7.17 238 18:32 31.10.2021
5010 Clouds 21 1019 88 10000 9.17 242 16:49 31.10.2021
5011 Clouds 21 1019 85 10000 9.89 240 15:29 31.10.2021
5012 Clouds 22 1020 83 10000 10.3 233 13:27 31.10.2021
5013 Clouds 21 1020 83 10000 10.1 233 12:37 31.10.2021
5014 Clouds 20 1021 84 10000 9.2 233 10:53 31.10.2021
5015 Clouds 20 1020 86 10000 9 228 09:54 31.10.2021
5016 Clouds 21 1020 88 10000 9.01 224 09:19 31.10.2021
5017 Clouds 22 1018 89 10000 8.79 229 04:55 31.10.2021
5018 Clouds 21 1019 90 10000 7.97 228 00:48 31.10.2021
5019 Clouds 21 1019 91 10000 8.11 230 22:31 30.10.2021
5020 Clouds 22 1019 91 10000 8.16 231 21:33 30.10.2021
5021 Clouds 22 1017 90 10000 8.43 236 20:19 30.10.2021
5022 Clouds 22 1016 80 10000 10.02 234 18:21 30.10.2021
5023 Clouds 22 1016 77 10000 10.57 233 16:20 30.10.2021
5024 Clouds 22 1016 75 10000 11 228 14:25 30.10.2021
5025 Clouds 21 1017 76 10000 10.95 227 13:38 30.10.2021
5026 Clouds 21 1017 77 10000 10.55 225 13:20 30.10.2021
5027 Clouds 21 1017 79 10000 10.4 223 11:50 30.10.2021
5028 Clouds 21 1017 81 10000 9.92 222 11:26 30.10.2021
5029 Clouds 20 1016 82 10000 8.95 223 09:53 30.10.2021
5030 Clouds 20 1015 84 10000 8.89 223 08:31 30.10.2021
5031 Clouds 20 1015 81 10000 8.53 221 05:49 30.10.2021
5032 Clouds 20 1015 81 10000 8.06 224 04:54 30.10.2021
5033 Clouds 21 1016 86 10000 6.47 228 23:33 29.10.2021
5034 Clouds 21 1016 86 10000 6.21 228 22:35 29.10.2021
5035 Clouds 20 1016 85 10000 6.21 234 21:20 29.10.2021
5036 Clouds 21 1016 85 10000 6.21 234 20:34 29.10.2021
5037 Clouds 21 1015 84 10000 5.94 247 19:38 29.10.2021
5038 Clouds 23 1015 73 10000 7.22 254 18:23 29.10.2021
5039 Clouds 23 1015 72 10000 7.78 257 16:34 29.10.2021
5040 Clouds 21 1016 69 10000 6.22 250 13:34 29.10.2021
5041 Clouds 18 1017 80 10000 5.38 227 10:50 29.10.2021
5042 Clouds 18 1017 80 10000 5.38 227 10:31 29.10.2021
5043 Clouds 18 1015 84 10000 2.15 109 05:43 29.10.2021
5044 Clouds 19 1016 84 10000 4.15 78 00:35 29.10.2021
5045 Clouds 19 1017 83 10000 4.45 84 22:40 28.10.2021
5046 Clear 19 1016 82 10000 4.72 85 21:20 28.10.2021
5047 Clouds 20 1016 83 10000 4.96 83 20:19 28.10.2021
5048 Clouds 20 1016 77 10000 5.45 82 18:47 28.10.2021
5049 Clouds 20 1016 74 10000 5.99 84 17:57 28.10.2021
5050 Clouds 21 1016 72 10000 6.58 86 16:54 28.10.2021
5051 Clouds 21 1016 71 10000 7.07 88 14:59 28.10.2021
5052 Clouds 21 1017 71 10000 7.78 84 13:35 28.10.2021
5053 Clouds 21 1017 72 10000 8.22 84 12:50 28.10.2021
5054 Clouds 20 1017 74 10000 8.55 85 11:51 28.10.2021
5055 Clouds 20 1017 77 10000 8.38 87 10:47 28.10.2021
5056 Clouds 20 1017 80 10000 8.22 87 09:37 28.10.2021
5057 Clouds 19 1017 82 10000 8.54 88 08:37 28.10.2021
5058 Clouds 19 1017 85 10000 7.8 87 07:41 28.10.2021
5059 Clouds 20 1017 85 10000 9.36 85 03:51 28.10.2021
5060 Clear 20 1018 85 10000 9.31 84 22:57 27.10.2021
5061 Clear 20 1018 85 10000 8.73 83 22:29 27.10.2021
5062 Clear 20 1018 85 10000 8.14 80 21:32 27.10.2021
5063 Clear 20 1018 85 10000 8.15 80 20:48 27.10.2021
5064 Clouds 20 1018 85 10000 8.85 78 19:49 27.10.2021
5065 Clouds 20 1017 82 10000 8.84 80 18:56 27.10.2021
5066 Clouds 20 1017 82 10000 8.84 80 18:37 27.10.2021
5067 Clouds 21 1018 76 10000 10.61 90 16:26 27.10.2021
5068 Clouds 21 1018 76 10000 10.95 89 15:29 27.10.2021
5069 Clouds 21 1018 76 10000 10.95 89 14:38 27.10.2021
5070 Clouds 20 1019 80 10000 10.81 93 11:19 27.10.2021
5071 Clouds 20 1019 80 10000 10.81 93 10:56 27.10.2021
5072 Clouds 20 1018 83 10000 10.13 87 09:28 27.10.2021
5073 Clouds 20 1018 85 10000 9.78 85 07:47 27.10.2021
5074 Clouds 20 1018 86 10000 9.42 84 06:34 27.10.2021
5075 Clouds 20 1019 86 10000 10.21 89 01:26 27.10.2021
5076 Clouds 20 1019 86 10000 10.21 89 00:55 27.10.2021
5077 Clouds 20 1019 85 10000 10.37 92 23:56 26.10.2021
5078 Clouds 20 1019 85 10000 10.27 91 22:50 26.10.2021
5079 Clouds 20 1019 85 10000 10.02 87 22:27 26.10.2021
5080 Clouds 21 1019 85 10000 10.02 87 21:51 26.10.2021
5081 Clouds 20 1018 85 10000 10.34 82 19:59 26.10.2021
5082 Clouds 20 1018 84 10000 10.51 82 19:22 26.10.2021
5083 Clouds 21 1018 81 10000 10.74 84 18:25 26.10.2021
5084 Clouds 21 1018 75 10000 10.55 91 15:51 26.10.2021
5085 Clouds 21 1019 74 10000 10.63 91 13:45 26.10.2021
5086 Clouds 21 1019 76 10000 10.29 87 11:18 26.10.2021
5087 Clouds 20 1018 80 10000 9.67 84 09:26 26.10.2021
5088 Clouds 19 1017 83 10000 8.68 80 07:22 26.10.2021
5089 Clouds 20 1019 83 10000 6.9 77 00:29 26.10.2021
5090 Clouds 20 1019 83 10000 6.9 77 00:29 26.10.2021
5091 Clouds 20 1019 83 10000 6.92 77 23:37 25.10.2021
5092 Clouds 20 1019 84 10000 6.84 76 22:34 25.10.2021
5093 Clouds 20 1019 84 10000 6.39 75 21:45 25.10.2021
5094 Clouds 20 1019 85 10000 6.53 74 20:38 25.10.2021
5095 Clouds 20 1018 84 10000 6.53 79 19:44 25.10.2021
5096 Clouds 20 1018 80 10000 6.77 79 19:23 25.10.2021
5097 Clouds 20 1018 80 10000 6.77 79 18:40 25.10.2021
5098 Clouds 21 1018 76 10000 7.42 79 17:35 25.10.2021
5099 Clouds 21 1018 73 10000 7.91 80 15:18 25.10.2021
5100 Clouds 20 1020 74 10000 8.03 78 12:33 25.10.2021
5101 Clouds 20 1020 79 10000 8.02 82 11:25 25.10.2021
5102 Clouds 19 1019 84 10000 7.24 78 08:59 25.10.2021
5103 Clouds 19 1019 85 10000 6.84 76 07:20 25.10.2021
5104 Clouds 18 1019 87 10000 6.36 74 05:21 25.10.2021
5105 Clouds 20 1021 88 10000 6.59 76 00:52 25.10.2021
5106 Clouds 19 1021 88 10000 6.59 76 00:33 25.10.2021
5107 Clouds 20 1021 87 10000 6.07 79 23:41 24.10.2021
5108 Clouds 20 1021 87 10000 6.35 77 22:39 24.10.2021
5109 Clouds 20 1021 87 10000 6.34 79 22:19 24.10.2021
5110 Clouds 20 1021 86 10000 6.67 79 21:18 24.10.2021
5111 Clouds 20 1021 88 10000 6.62 78 20:36 24.10.2021
5112 Clouds 20 1020 86 10000 7.15 76 19:40 24.10.2021
5113 Clouds 21 1020 78 10000 8.49 79 18:29 24.10.2021
5114 Clouds 21 1020 78 10000 8.5 79 17:44 24.10.2021
5115 Clouds 21 1020 73 10000 9.39 82 15:56 24.10.2021
5116 Clouds 21 1021 73 10000 9.54 84 14:42 24.10.2021
5117 Clouds 21 1022 74 10000 10.19 85 12:58 24.10.2021
5118 Clouds 20 1022 76 10000 9.93 82 11:45 24.10.2021
5119 Clouds 20 1022 78 10000 9.66 83 11:25 24.10.2021
5120 Clouds 20 1021 80 10000 9.16 79 10:27 24.10.2021
5121 Clear 19 1021 82 10000 8.91 78 07:59 24.10.2021
5122 Clouds 19 1021 80 10000 9.06 88 01:25 24.10.2021
5123 Clouds 19 1021 81 10000 9.05 88 23:49 23.10.2021
5124 Clouds 19 1021 81 10000 8.8 86 22:29 23.10.2021
5125 Clear 20 1021 80 10000 8.64 84 20:37 23.10.2021
5126 Clear 21 1019 75 10000 8.01 85 18:59 23.10.2021
5127 Clear 21 1019 75 10000 8.01 85 18:30 23.10.2021
5128 Clear 21 1019 71 10000 8.8 87 17:43 23.10.2021
5129 Clear 21 1019 70 10000 8.89 85 16:35 23.10.2021
5130 Clear 21 1019 67 10000 7.91 79 14:35 23.10.2021
5131 Clear 18 1019 80 10000 3.16 56 09:45 23.10.2021
5132 Clear 18 1018 73 10000 3.63 251 00:22 23.10.2021
5133 Clear 18 1018 73 10000 4 250 23:22 22.10.2021
5134 Clear 20 1017 74 10000 4.46 256 20:50 22.10.2021
5135 Clear 21 1016 69 10000 5.16 264 18:45 22.10.2021
5136 Clear 21 1016 66 10000 5.5 266 17:44 22.10.2021
5137 Clear 21 1016 65 10000 5.98 267 15:37 22.10.2021
5138 Clear 21 1017 64 10000 6.36 263 13:54 22.10.2021
5139 Clear 19 1018 66 10000 6.39 264 11:33 22.10.2021
5140 Clear 18 1017 68 10000 6.26 266 10:48 22.10.2021
5141 Clear 16 1017 71 10000 5.41 266 09:56 22.10.2021
5142 Clear 17 1017 74 10000 5.17 282 08:36 22.10.2021
5143 Clear 18 1016 67 10000 5.32 294 07:23 22.10.2021
5144 Clear 20 1016 64 10000 4.85 294 03:32 22.10.2021
5145 Clear 19 1018 86 10000 5.49 264 23:57 21.10.2021
5146 Clear 20 1018 86 10000 5.49 264 23:38 21.10.2021
5147 Clear 21 1018 79 10000 5.4 268 22:21 21.10.2021
5148 Clear 22 1018 75 10000 5.59 269 20:42 21.10.2021
5149 Clouds 22 1017 71 10000 5.53 267 20:19 21.10.2021
5150 Clouds 24 1017 66 10000 5.76 263 19:29 21.10.2021
5151 Clouds 24 1017 66 10000 5.76 263 18:46 21.10.2021
5152 Clouds 25 1017 62 10000 6.1 268 18:18 21.10.2021
5153 Clouds 25 1017 62 10000 6.1 268 17:37 21.10.2021
5154 Clouds 24 1018 64 10000 6.22 267 15:54 21.10.2021
5155 Clouds 25 1018 66 10000 5.84 263 15:20 21.10.2021
5156 Clouds 25 1018 66 10000 5.84 263 14:38 21.10.2021
5157 Clouds 25 1019 67 10000 5.76 269 13:19 21.10.2021
5158 Clouds 20 1019 73 10000 3.97 249 11:24 21.10.2021
5159 Clouds 16 1019 75 10000 2.99 249 08:34 21.10.2021
5160 Clouds 16 1019 73 10000 1.66 268 07:28 21.10.2021
5161 Clouds 17 1019 78 10000 1.1 97 03:30 21.10.2021
5162 Clouds 20 1021 88 10000 3.43 69 23:29 20.10.2021
5163 Clouds 20 1021 89 10000 3.93 74 21:52 20.10.2021
5164 Clouds 20 1021 89 10000 3.93 74 21:30 20.10.2021
5165 Clouds 20 1021 89 10000 4.29 78 20:54 20.10.2021
5166 Clouds 20 1020 86 10000 4.67 79 20:28 20.10.2021
5167 Clouds 21 1020 86 10000 4.45 80 19:51 20.10.2021
5168 Clouds 21 1020 80 10000 5.23 79 18:54 20.10.2021
5169 Clouds 22 1019 76 10000 6.03 76 17:45 20.10.2021
5170 Clouds 23 1021 73 10000 7.77 82 15:26 20.10.2021
5171 Clouds 21 1022 80 10000 8.54 85 10:25 20.10.2021
5172 Clouds 20 1021 82 10000 9.15 86 08:37 20.10.2021
5173 Clouds 22 1021 85 10000 10.35 86 02:59 20.10.2021
5174 Clouds 20 1021 85 10000 10.72 87 00:43 20.10.2021
5175 Clouds 20 1022 85 10000 10.37 86 23:45 19.10.2021
5176 Clouds 20 1022 86 10000 10.3 84 21:41 19.10.2021
5177 Clouds 20 1022 85 10000 10.44 84 20:48 19.10.2021
5178 Clouds 21 1021 86 10000 10.38 86 20:22 19.10.2021
5179 Clouds 21 1021 86 10000 10.38 86 19:40 19.10.2021
5180 Clouds 22 1020 84 10000 10.82 87 18:53 19.10.2021
5181 Clouds 22 1020 81 10000 11.62 89 17:58 19.10.2021
5182 Clouds 22 1021 80 10000 12.7 90 15:38 19.10.2021
5183 Clouds 22 1021 79 10000 12.93 91 15:19 19.10.2021
5184 Clouds 22 1022 79 10000 13.21 91 14:23 19.10.2021
5185 Clouds 22 1022 79 10000 13.45 89 12:38 19.10.2021
5186 Clouds 21 1022 80 10000 13.5 89 11:31 19.10.2021
5187 Clouds 20 1022 85 10000 12.89 86 10:19 19.10.2021
5188 Clouds 22 1021 87 10000 12.46 84 08:57 19.10.2021
5189 Clouds 20 1021 88 10000 11.78 82 05:23 19.10.2021
5190 Clouds 20 1021 86 10000 9.14 78 00:23 19.10.2021
5191 Clouds 20 1021 86 10000 9.12 78 23:49 18.10.2021
5192 Clouds 20 1021 85 10000 8.6 78 23:19 18.10.2021
5193 Clouds 23 1021 85 10000 8.6 78 22:51 18.10.2021
5194 Clouds 20 1021 85 10000 7.91 79 20:57 18.10.2021
5195 Clouds 20 1021 85 10000 7.91 79 20:33 18.10.2021
5196 Clouds 21 1020 85 10000 7.62 78 19:50 18.10.2021
5197 Clouds 22 1020 79 10000 7.9 79 19:28 18.10.2021
5198 Clouds 22 1020 79 10000 7.9 79 18:50 18.10.2021
5199 Clouds 22 1020 69 10000 8.78 79 14:59 18.10.2021
5200 Clouds 22 1021 70 10000 7.81 76 12:53 18.10.2021
5201 Clouds 20 1021 77 10000 6.42 73 10:35 18.10.2021
5202 Clouds 20 1020 89 10000 5.15 68 09:27 18.10.2021
5203 Clouds 20 1020 65 10000 2.99 58 02:28 18.10.2021
5204 Clouds 20 1019 67 10000 0.36 58 23:20 17.10.2021
5205 Clouds 21 1019 67 10000 1.35 301 21:46 17.10.2021
5206 Clouds 20 1019 68 10000 2.31 290 20:59 17.10.2021
5207 Clouds 21 1019 68 10000 2.31 290 20:35 17.10.2021
5208 Clouds 21 1018 65 10000 1.83 285 19:39 17.10.2021
5209 Clouds 23 1017 60 10000 1.99 262 18:57 17.10.2021
5210 Clouds 22 1017 56 10000 2.47 261 17:32 17.10.2021
5211 Clouds 21 1017 58 10000 3.27 258 15:19 17.10.2021
5212 Clouds 22 1018 56 10000 3 256 14:24 17.10.2021
5213 Clouds 22 1018 56 10000 3 256 13:38 17.10.2021
5214 Clouds 23 1018 58 10000 3.11 248 11:55 17.10.2021
5215 Clouds 20 1018 61 10000 2.89 261 10:34 17.10.2021
5216 Clouds 20 1018 61 10000 2.89 261 10:34 17.10.2021
5217 Clouds 19 1018 64 10000 3.19 255 09:30 17.10.2021
5218 Clouds 19 1016 69 10000 3.64 246 07:19 17.10.2021
5219 Clouds 17 1018 66 10000 3.88 271 00:53 17.10.2021
5220 Clouds 21 1018 64 10000 3.4 267 00:22 17.10.2021
5221 Clouds 23 1017 62 10000 3.11 255 21:38 16.10.2021
5222 Clouds 23 1018 65 10000 3.68 270 20:31 16.10.2021
5223 Clouds 24 1017 65 10000 3.48 263 19:45 16.10.2021
5224 Clouds 24 1016 60 10000 3.77 261 19:22 16.10.2021
5225 Clouds 24 1016 60 10000 3.77 261 18:55 16.10.2021
5226 Clouds 24 1016 60 10000 3.77 261 18:36 16.10.2021
5227 Clouds 24 1016 58 10000 3.98 257 18:18 16.10.2021
5228 Clouds 25 1016 60 10000 4.23 261 17:23 16.10.2021
5229 Clouds 25 1017 58 10000 4.65 260 14:52 16.10.2021
5230 Clouds 22 1018 53 10000 1.88 259 11:55 16.10.2021
5231 Clouds 17 1018 56 10000 0.93 256 10:43 16.10.2021
5232 Clouds 16 1017 67 10000 0.55 182 08:20 16.10.2021
5233 Clouds 18 1018 80 10000 1.32 69 01:25 16.10.2021
5234 Clouds 19 1019 81 10000 1.94 79 23:55 15.10.2021
5235 Clouds 19 1019 82 10000 2.44 76 23:20 15.10.2021
5236 Clouds 20 1019 82 10000 2.68 67 22:19 15.10.2021
5237 Clouds 20 1018 82 10000 2.91 75 21:26 15.10.2021
5238 Clouds 20 1018 82 10000 2.91 75 20:47 15.10.2021
5239 Clouds 21 1018 79 10000 3.31 83 19:31 15.10.2021
5240 Clouds 21 1017 72 10000 4.23 84 18:40 15.10.2021
5241 Clouds 22 1018 68 10000 6.2 82 16:28 15.10.2021
5242 Clouds 22 1018 68 10000 6.2 82 15:36 15.10.2021
5243 Clouds 23 1020 70 10000 8.04 84 13:29 15.10.2021
5244 Clouds 21 1020 72 10000 8.34 85 11:36 15.10.2021
5245 Clouds 21 1020 75 10000 8.46 84 10:46 15.10.2021
5246 Clouds 20 1019 77 10000 8.39 82 09:46 15.10.2021
5247 Clouds 20 1019 80 10000 7.87 76 05:32 15.10.2021
5248 Clouds 20 1019 81 10000 9.35 79 01:45 15.10.2021
5249 Clouds 20 1020 81 10000 9.56 79 00:21 15.10.2021
5250 Clouds 22 1020 80 10000 9.85 80 22:52 14.10.2021
5251 Clouds 20 1020 80 10000 9.36 79 21:44 14.10.2021
5252 Clouds 20 1020 80 10000 9.81 83 20:48 14.10.2021
5253 Clouds 20 1019 80 10000 10.28 84 20:18 14.10.2021
5254 Clouds 21 1019 80 10000 10.28 84 19:33 14.10.2021
5255 Clear 22 1018 75 10000 11.24 85 17:30 14.10.2021
5256 Clear 22 1018 73 10000 11.7 86 16:49 14.10.2021
5257 Clear 22 1019 71 10000 12.11 86 15:35 14.10.2021
5258 Clear 22 1019 70 10000 12.06 86 14:41 14.10.2021
5259 Clear 22 1020 71 10000 12.04 86 13:37 14.10.2021
5260 Clear 21 1020 71 10000 11.65 87 11:44 14.10.2021
5261 Clouds 20 1019 77 10000 11.08 86 09:55 14.10.2021
5262 Clouds 20 1018 81 10000 9.85 83 06:55 14.10.2021
5263 Clear 20 1018 88 10000 7.09 76 00:58 14.10.2021
5264 Clear 19 1018 88 10000 6.4 73 00:22 14.10.2021
5265 Clear 21 1018 86 10000 5.33 73 21:58 13.10.2021
5266 Clear 21 1018 86 10000 5.33 73 21:32 13.10.2021
5267 Clear 21 1017 82 10000 4.97 77 19:58 13.10.2021
5268 Clear 21 1016 76 10000 5.06 78 18:49 13.10.2021
5269 Clear 24 1016 71 10000 5.28 81 17:55 13.10.2021
5270 Clear 22 1016 69 10000 5.62 84 15:32 13.10.2021
5271 Clear 22 1016 69 10000 5.68 82 14:45 13.10.2021
5272 Clouds 22 1017 71 10000 4.36 83 12:58 13.10.2021
5273 Clouds 21 1017 74 10000 4.24 78 11:59 13.10.2021
5274 Clouds 21 1017 78 10000 3.8 78 10:47 13.10.2021
5275 Clouds 19 1016 89 10000 3.6 72 08:29 13.10.2021
5276 Clouds 19 1016 89 10000 3.83 71 06:41 13.10.2021
5277 Clear 20 1016 88 10000 5.53 80 02:26 13.10.2021
5278 Clear 20 1017 86 10000 5.64 79 00:18 13.10.2021
5279 Clear 20 1016 86 10000 5.61 81 23:29 12.10.2021
5280 Clear 20 1016 86 10000 5.61 81 22:44 12.10.2021
5281 Clear 20 1016 86 10000 5.74 82 21:30 12.10.2021
5282 Clear 20 1016 85 10000 5.95 80 20:34 12.10.2021
5283 Clouds 20 1015 82 10000 6.56 84 19:52 12.10.2021
5284 Clouds 21 1015 74 10000 7.87 83 18:27 12.10.2021
5285 Clouds 22 1015 74 10000 7.87 83 17:38 12.10.2021
5286 Clouds 22 1015 73 10000 8.3 84 16:38 12.10.2021
5287 Clouds 22 1015 73 10000 8.3 84 16:38 12.10.2021
5288 Clouds 22 1015 72 10000 8.47 87 15:44 12.10.2021
5289 Clouds 22 1016 73 10000 7.9 90 14:38 12.10.2021
5290 Clouds 22 1016 74 10000 9.11 85 13:42 12.10.2021
5291 Clouds 21 1017 77 10000 9.9 85 11:36 12.10.2021
5292 Clouds 20 1016 84 10000 10.16 89 09:41 12.10.2021
5293 Clouds 20 1016 87 10000 11.21 90 08:42 12.10.2021
5294 Clouds 22 1016 86 10000 10.9 94 06:53 12.10.2021
5295 Clouds 20 1015 86 10000 11.69 89 05:29 12.10.2021
5296 Clouds 20 1015 86 10000 11.69 89 04:31 12.10.2021
5297 Clouds 20 1016 84 10000 13.84 92 00:18 12.10.2021
5298 Clouds 20 1016 84 10000 13.84 92 23:39 11.10.2021
5299 Clouds 23 1016 84 10000 13.58 92 22:56 11.10.2021
5300 Clouds 20 1016 84 10000 13.48 93 21:43 11.10.2021
5301 Clouds 20 1016 84 10000 13.64 93 20:32 11.10.2021
5302 Clouds 21 1015 84 10000 13.61 94 19:38 11.10.2021
5303 Clouds 22 1015 81 10000 13.77 90 18:24 11.10.2021
5304 Clouds 23 1015 79 10000 14.1 90 16:49 11.10.2021
5305 Clouds 22 1015 79 10000 14.1 90 16:31 11.10.2021
5306 Clouds 23 1015 77 10000 14.3 91 15:46 11.10.2021
5307 Clouds 23 1016 77 10000 14.4 91 14:54 11.10.2021
5308 Clouds 23 1016 77 10000 14.36 92 14:22 11.10.2021
5309 Clouds 22 1016 77 10000 14.3 94 13:36 11.10.2021
5310 Clouds 21 1016 80 10000 13.79 94 11:25 11.10.2021
5311 Clouds 22 1016 81 10000 13.46 94 09:55 11.10.2021
5312 Clouds 19 1015 81 10000 13.29 94 08:41 11.10.2021
5313 Clouds 20 1015 84 10000 12.62 92 03:47 11.10.2021
5314 Clouds 20 1016 83 10000 12.49 93 01:34 11.10.2021
5315 Clouds 20 1016 83 10000 12.39 92 00:43 11.10.2021
5316 Clouds 20 1016 83 10000 12.05 92 23:35 10.10.2021
5317 Clouds 22 1016 83 10000 11.55 91 21:51 10.10.2021
5318 Clouds 20 1016 83 10000 11.57 90 21:28 10.10.2021
5319 Clouds 20 1016 83 10000 11.57 90 20:41 10.10.2021
5320 Clouds 20 1015 83 10000 11.72 90 20:20 10.10.2021
5321 Clouds 20 1015 83 10000 11.72 90 19:51 10.10.2021
5322 Clouds 21 1015 83 10000 11.72 90 19:31 10.10.2021
5323 Clouds 22 1015 79 10000 12.36 88 18:24 10.10.2021
5324 Clouds 22 1015 76 10000 12.95 90 15:54 10.10.2021
5325 Clouds 22 1015 76 10000 12.95 90 15:36 10.10.2021
5326 Clouds 22 1016 76 10000 13.3 91 13:42 10.10.2021
5327 Clouds 22 1017 76 10000 13.2 92 12:44 10.10.2021
5328 Clouds 22 1017 77 10000 13.21 90 12:22 10.10.2021
5329 Clouds 21 1017 79 10000 12.86 88 10:33 10.10.2021
5330 Clouds 20 1016 84 10000 12.03 88 09:22 10.10.2021
5331 Clouds 20 1016 84 10000 12.01 88 08:51 10.10.2021
5332 Clouds 20 1016 86 10000 11.35 87 06:19 10.10.2021
5333 Clouds 20 1017 89 10000 9.61 81 02:20 10.10.2021
5334 Clouds 23 1017 89 10000 8.96 80 00:52 10.10.2021
5335 Clouds 20 1018 89 10000 8.46 80 23:46 09.10.2021
5336 Clouds 20 1018 88 10000 7.49 79 22:21 09.10.2021
5337 Clouds 23 1018 88 10000 7.49 79 21:30 09.10.2021
5338 Clouds 23 1017 87 10000 7.3 80 20:42 09.10.2021
5339 Clouds 22 1017 85 10000 7.29 80 19:41 09.10.2021
5340 Clouds 23 1016 80 10000 7.7 83 18:51 09.10.2021
5341 Clouds 23 1016 77 10000 8.13 82 18:27 09.10.2021
5342 Clouds 22 1017 75 10000 8.09 84 16:26 09.10.2021
5343 Clouds 22 1017 75 10000 8.28 85 14:48 09.10.2021
5344 Clouds 23 1018 75 10000 8.24 84 13:40 09.10.2021
5345 Clouds 23 1018 76 10000 7.99 84 12:35 09.10.2021
5346 Clouds 21 1018 81 10000 7.51 83 10:47 09.10.2021
5347 Clouds 21 1018 84 10000 7.16 82 10:21 09.10.2021
5348 Clouds 20 1017 87 10000 6.9 81 09:23 09.10.2021
5349 Clouds 20 1017 90 10000 6.51 81 08:20 09.10.2021
5350 Clouds 20 1017 90 10000 6.51 81 08:20 09.10.2021
5351 Clouds 20 1017 90 10000 6.63 82 06:46 09.10.2021
5352 Clouds 21 1016 91 10000 6.32 75 04:55 09.10.2021
5353 Clouds 20 1017 92 10000 5.92 73 02:46 09.10.2021
5354 Clear 20 1018 92 10000 5.3 74 00:30 09.10.2021
5355 Clear 20 1018 92 10000 4.9 74 23:33 08.10.2021
5356 Clear 21 1018 91 10000 4.52 73 22:46 08.10.2021
5357 Clear 21 1018 89 10000 4.16 72 21:44 08.10.2021
5358 Clouds 21 1017 89 10000 4.79 75 20:30 08.10.2021
5359 Clear 22 1016 75 10000 5.65 84 18:23 08.10.2021
5360 Clear 23 1016 72 10000 5.89 82 17:18 08.10.2021
5361 Clear 23 1016 72 10000 5.9 81 16:43 08.10.2021
5362 Clear 23 1017 72 10000 6.28 80 16:21 08.10.2021
5363 Clouds 21 1018 73 10000 6.25 81 13:47 08.10.2021
5364 Clouds 21 1018 77 10000 5.87 80 11:56 08.10.2021
5365 Clouds 20 1018 83 10000 5.7 77 10:43 08.10.2021
5366 Clouds 20 1018 87 10000 5.13 74 09:47 08.10.2021
5367 Clouds 20 1017 92 10000 5.23 72 04:20 08.10.2021
5368 Clouds 20 1018 91 10000 5.52 75 23:26 07.10.2021
5369 Clouds 23 1018 91 10000 5.52 75 22:54 07.10.2021
5370 Clouds 20 1017 90 10000 5.62 78 21:29 07.10.2021
5371 Clouds 21 1017 90 10000 5.73 80 20:41 07.10.2021
5372 Clouds 21 1017 88 10000 6.24 80 19:34 07.10.2021
5373 Clouds 22 1017 81 10000 7.1 81 18:41 07.10.2021
5374 Clouds 22 1017 78 10000 7.61 81 17:33 07.10.2021
5375 Clouds 23 1017 78 10000 8.09 82 16:42 07.10.2021
5376 Clouds 23 1018 78 10000 8.88 82 14:56 07.10.2021
5377 Clouds 23 1018 75 10000 9.07 83 13:44 07.10.2021
5378 Clouds 22 1019 76 10000 9.38 82 12:54 07.10.2021
5379 Clouds 22 1019 78 10000 9.7 82 11:21 07.10.2021
5380 Clouds 22 1019 78 10000 9.7 82 10:46 07.10.2021
5381 Clouds 20 1018 82 10000 9.05 80 09:47 07.10.2021
5382 Clouds 20 1018 85 10000 8.77 80 08:54 07.10.2021
5383 Clouds 22 1018 86 10000 8.74 79 07:58 07.10.2021
5384 Clouds 20 1018 86 10000 8.74 79 07:38 07.10.2021
5385 Clouds 20 1018 86 10000 8.83 79 06:38 07.10.2021
5386 Clouds 21 1019 74 10000 9.01 78 00:48 07.10.2021
5387 Clouds 22 1020 74 10000 9.1 79 23:18 06.10.2021
5388 Clouds 22 1020 73 10000 8.93 80 22:24 06.10.2021
5389 Clouds 22 1019 72 10000 8.6 81 21:24 06.10.2021
5390 Clouds 22 1019 70 10000 8.07 79 20:28 06.10.2021
5391 Clouds 23 1019 65 10000 8.03 77 18:43 06.10.2021
5392 Clouds 23 1019 58 10000 8.5 79 17:26 06.10.2021
5393 Clouds 23 1019 58 10000 8.29 81 15:37 06.10.2021
5394 Clouds 23 1019 58 10000 8.09 83 14:41 06.10.2021
5395 Clouds 22 1020 59 10000 7.14 79 13:24 06.10.2021
5396 Clouds 22 1020 59 10000 7.14 79 12:46 06.10.2021
5397 Clouds 21 1020 61 10000 6.39 78 12:24 06.10.2021
5398 Clouds 21 1020 64 10000 5.98 79 10:37 06.10.2021
5399 Clouds 18 1020 70 10000 6.05 81 09:39 06.10.2021
5400 Clouds 18 1019 74 10000 5.5 73 08:57 06.10.2021
5401 Clouds 18 1019 76 10000 5.64 76 08:30 06.10.2021
5402 Clouds 18 1019 75 10000 4.97 59 05:38 06.10.2021
5403 Clouds 20 1020 72 10000 4.1 70 01:38 06.10.2021
5404 Clouds 20 1021 72 10000 4.13 73 00:20 06.10.2021
5405 Clouds 21 1021 72 10000 4.13 73 23:50 05.10.2021
5406 Clouds 20 1020 71 10000 4.01 70 23:29 05.10.2021
5407 Clouds 20 1020 71 10000 4.02 70 23:29 05.10.2021
5408 Clouds 20 1020 71 10000 4.02 70 22:30 05.10.2021
5409 Clouds 20 1020 71 10000 4.02 70 22:30 05.10.2021
5410 Clouds 21 1020 71 10000 4.08 73 21:51 05.10.2021
5411 Clouds 22 1020 70 10000 3.94 73 20:51 05.10.2021
5412 Clouds 21 1019 68 10000 4 83 20:25 05.10.2021
5413 Clouds 21 1019 68 10000 4.01 83 19:50 05.10.2021
5414 Clouds 21 1018 62 10000 4.21 85 19:22 05.10.2021
5415 Clouds 23 1018 60 10000 4.53 87 17:40 05.10.2021
5416 Clouds 22 1020 60 10000 5.18 78 15:27 05.10.2021
5417 Clouds 22 1020 56 10000 4.69 80 13:44 05.10.2021
5418 Clouds 21 1021 54 10000 4.29 70 12:57 05.10.2021
5419 Clouds 21 1021 54 10000 4.29 70 12:32 05.10.2021
5420 Clouds 21 1021 55 10000 4.32 59 11:22 05.10.2021
5421 Clouds 18 1021 56 10000 3.86 64 10:21 05.10.2021
5422 Clear 15 1020 50 10000 2.73 61 05:56 05.10.2021
5423 Clear 19 1020 58 10000 2.32 63 00:37 05.10.2021
5424 Clear 20 1020 55 10000 2.28 42 22:49 04.10.2021
5425 Clear 22 1019 53 10000 3.12 299 20:45 04.10.2021
5426 Clouds 22 1018 48 10000 5.48 260 18:47 04.10.2021
5427 Clouds 23 1018 41 10000 6.19 259 16:44 04.10.2021
5428 Clouds 24 1018 39 10000 6.16 258 15:32 04.10.2021
5429 Clouds 24 1019 37 10000 4.31 256 14:44 04.10.2021
5430 Clouds 22 1020 36 10000 3.67 276 13:58 04.10.2021
5431 Clouds 22 1020 36 10000 3.67 276 13:30 04.10.2021
5432 Clouds 21 1020 36 10000 3.21 299 12:30 04.10.2021
5433 Clouds 20 1021 39 10000 4.32 316 11:31 04.10.2021
5434 Clouds 17 1021 46 10000 4.41 315 10:41 04.10.2021
5435 Clouds 16 1020 57 10000 5.01 314 09:25 04.10.2021
5436 Clouds 14 1020 59 10000 4.52 307 07:52 04.10.2021
5437 Clouds 18 1019 57 10000 3.07 307 03:34 04.10.2021
5438 Clouds 21 1019 80 10000 5.63 285 22:44 03.10.2021
5439 Clouds 21 1018 79 10000 5.76 287 21:43 03.10.2021
5440 Clouds 21 1017 79 10000 5.15 281 21:24 03.10.2021
5441 Clouds 21 1016 83 10000 5.65 297 20:25 03.10.2021
5442 Clouds 20 1016 83 10000 5.65 297 19:31 03.10.2021
5443 Rain 23 1014 78 10000 9.71 254 18:28 03.10.2021
5444 Clouds 24 1014 78 10000 9.71 254 17:30 03.10.2021
5445 Clouds 24 1015 71 10000 7.7 252 14:49 03.10.2021
5446 Clouds 24 1016 73 10000 7.8 257 14:27 03.10.2021
5447 Clouds 24 1016 72 10000 8.22 259 13:34 03.10.2021
5448 Clouds 24 1016 75 10000 8.18 257 12:41 03.10.2021
5449 Clouds 22 1016 79 10000 8.14 252 10:52 03.10.2021
5450 Clouds 20 1015 84 10000 7.68 258 08:53 03.10.2021
5451 Clouds 20 1015 81 10000 5.33 250 03:36 03.10.2021
5452 Clouds 23 1016 79 10000 3.12 249 22:46 02.10.2021
5453 Clouds 22 1016 77 10000 2.84 258 21:30 02.10.2021
5454 Clouds 24 1015 70 10000 3.35 269 19:51 02.10.2021
5455 Clouds 26 1014 62 10000 3.7 264 18:55 02.10.2021
5456 Clouds 26 1014 59 10000 3.76 265 17:57 02.10.2021
5457 Clouds 26 1015 58 10000 3.54 258 17:26 02.10.2021
5458 Clouds 25 1016 58 10000 2.98 260 15:38 02.10.2021
5459 Clouds 21 1019 93 10000 5.47 73 06:59 01.10.2021
5460 Clear 25 1021 77 10000 8.86 80 15:37 30.09.2021
5461 Clouds 25 1022 77 10000 9.25 82 13:51 30.09.2021
5462 Clouds 23 1022 79 10000 9.53 81 11:38 30.09.2021
5463 Clouds 22 1022 82 10000 9.69 81 10:44 30.09.2021
5464 Clouds 21 1022 86 10000 9.04 77 09:41 30.09.2021
5465 Clear 21 1021 90 10000 8.32 76 08:29 30.09.2021
5466 Clear 21 1021 89 10000 8.3 76 07:33 30.09.2021
5467 Clear 23 1021 83 10000 8.14 75 04:58 30.09.2021
5468 Clear 21 1022 85 10000 6.35 71 01:20 30.09.2021
5469 Clear 22 1022 85 10000 5.87 71 00:18 30.09.2021
5470 Clear 22 1022 85 10000 5.46 71 22:31 29.09.2021
5471 Clear 22 1021 81 10000 5.21 73 21:24 29.09.2021
5472 Clear 22 1021 74 10000 5.29 77 20:26 29.09.2021
5473 Clear 23 1021 74 10000 5.28 77 19:50 29.09.2021
5474 Clear 23 1020 65 10000 6.06 81 18:29 29.09.2021
5475 Clear 25 1020 65 10000 6.06 81 17:38 29.09.2021
5476 Clear 24 1020 64 10000 6.45 82 16:47 29.09.2021
5477 Clear 24 1020 62 10000 6.6 84 15:55 29.09.2021
5478 Clear 24 1021 61 10000 6.4 81 14:39 29.09.2021
5479 Clear 24 1021 61 10000 5.6 80 13:42 29.09.2021
5480 Clear 23 1022 61 10000 4.69 79 12:50 29.09.2021
5481 Clear 22 1022 63 10000 4.03 77 11:54 29.09.2021
5482 Clear 21 1022 65 10000 3.48 75 10:44 29.09.2021
5483 Clear 21 1021 67 10000 3.16 71 09:49 29.09.2021
5484 Clear 19 1021 71 10000 2.63 67 08:49 29.09.2021
5485 Clear 19 1021 70 10000 1.94 73 07:31 29.09.2021
5486 Clear 21 1021 76 10000 0.41 265 03:29 29.09.2021
5487 Clear 23 1022 78 10000 1.85 248 23:23 28.09.2021
5488 Clear 23 1021 78 10000 2.23 270 22:22 28.09.2021
5489 Clear 24 1021 79 10000 2.24 270 21:33 28.09.2021
5490 Clouds 25 1020 75 10000 2.85 254 20:27 28.09.2021
5491 Clouds 25 1020 75 10000 2.87 256 19:42 28.09.2021
5492 Clouds 26 1020 68 10000 3.29 256 18:44 28.09.2021
5493 Clouds 26 1020 65 10000 3.62 256 17:53 28.09.2021
5494 Clouds 25 1021 60 10000 4.4 263 15:22 28.09.2021
5495 Clouds 24 1021 58 10000 4.08 264 13:30 28.09.2021
5496 Clouds 23 1022 60 10000 3.84 261 12:30 28.09.2021
5497 Clouds 23 1021 63 10000 3.41 244 12:30 28.09.2021
5498 Clouds 21 1021 63 10000 3.43 244 11:59 28.09.2021
5499 Clouds 21 1021 63 10000 3.43 244 11:40 28.09.2021
5500 Clouds 19 1021 66 10000 2.94 241 10:49 28.09.2021
5501 Clouds 18 1021 71 10000 2.56 248 09:45 28.09.2021
5502 Clouds 18 1021 77 10000 2.25 252 08:49 28.09.2021
5503 Clouds 18 1020 78 10000 1.91 246 08:28 28.09.2021
5504 Clouds 19 1020 76 10000 2.36 252 06:47 28.09.2021
5505 Clouds 19 1020 75 10000 1.89 266 05:22 28.09.2021
5506 Clouds 21 1021 73 10000 0.96 290 01:22 28.09.2021
5507 Clouds 21 1021 74 10000 1.4 296 00:20 28.09.2021
5508 Clouds 21 1021 74 10000 1.4 296 23:30 27.09.2021
5509 Clouds 22 1021 74 10000 1.92 288 22:45 27.09.2021
5510 Clouds 24 1020 75 10000 2.25 277 21:41 27.09.2021
5511 Clouds 24 1020 76 10000 2.55 266 20:38 27.09.2021
5512 Clouds 24 1020 71 10000 3.01 261 19:43 27.09.2021
5513 Clouds 24 1019 63 10000 3.13 260 19:23 27.09.2021
5514 Clouds 25 1020 59 10000 3.25 261 18:28 27.09.2021
5515 Clouds 25 1020 57 10000 3.37 262 17:22 27.09.2021
5516 Clouds 25 1020 57 10000 3.37 262 16:41 27.09.2021
5517 Clouds 26 1020 56 10000 3.13 259 15:42 27.09.2021
5518 Clouds 24 1021 57 10000 2.36 256 14:32 27.09.2021
5519 Clouds 23 1022 59 10000 2.64 252 12:59 27.09.2021
5520 Clouds 20 1022 67 10000 2.38 262 10:52 27.09.2021
5521 Clouds 18 1022 71 10000 2.05 265 09:53 27.09.2021
5522 Clouds 18 1021 76 10000 2 273 08:38 27.09.2021
5523 Clouds 19 1020 77 10000 2.02 286 05:21 27.09.2021
5524 Clouds 21 1021 78 10000 1.58 287 01:48 27.09.2021
5525 Clouds 22 1020 75 10000 2.36 273 22:28 26.09.2021
5526 Clouds 23 1020 75 10000 2.36 273 21:49 26.09.2021
5527 Clouds 21 1019 75 10000 2.71 265 20:52 26.09.2021
5528 Clouds 25 1019 71 10000 3.03 258 20:20 26.09.2021
5529 Clouds 25 1019 71 10000 3.03 258 20:20 26.09.2021
5530 Clouds 25 1019 71 10000 3.03 258 19:38 26.09.2021
5531 Clouds 25 1019 63 10000 3.27 259 18:45 26.09.2021
5532 Clouds 25 1019 58 10000 3.7 264 17:50 26.09.2021
5533 Clouds 25 1019 56 10000 3.86 264 17:21 26.09.2021
5534 Clouds 25 1019 56 10000 3.86 264 16:30 26.09.2021
5535 Clouds 25 1019 55 10000 3.78 259 15:57 26.09.2021
5536 Clouds 25 1020 55 10000 3.91 258 14:45 26.09.2021
5537 Clouds 23 1021 56 10000 3.36 262 13:45 26.09.2021
5538 Clouds 24 1021 59 10000 2.94 255 12:33 26.09.2021
5539 Clouds 21 1021 63 10000 2.46 254 11:59 26.09.2021
5540 Clouds 21 1021 63 10000 2.46 254 11:37 26.09.2021
5541 Clouds 20 1021 76 10000 2.45 276 10:23 26.09.2021
5542 Clouds 17 1020 82 10000 2.31 276 08:55 26.09.2021
5543 Clear 20 1020 86 10000 3.56 296 03:26 26.09.2021
5544 Clear 21 1021 80 10000 3.61 283 00:20 26.09.2021
5545 Clear 22 1020 79 10000 3.58 285 23:23 25.09.2021
5546 Clear 22 1020 79 10000 3.58 285 22:37 25.09.2021
5547 Clear 21 1020 80 10000 3.85 282 21:55 25.09.2021
5548 Clear 23 1020 80 10000 3.85 282 21:30 25.09.2021
5549 Clear 24 1019 81 10000 4.09 277 20:37 25.09.2021
5550 Clear 26 1018 73 10000 4.13 273 18:40 25.09.2021
5551 Clear 26 1018 70 10000 4.56 272 17:47 25.09.2021
5552 Clear 25 1018 66 10000 4.39 269 15:35 25.09.2021
5553 Clear 25 1019 67 10000 4.25 267 13:57 25.09.2021
5554 Clear 24 1019 69 10000 4.17 265 12:48 25.09.2021
5555 Clear 22 1019 72 10000 3.93 258 11:40 25.09.2021
5556 Clear 20 1018 79 10000 3.28 243 10:24 25.09.2021
5557 Clear 18 1018 83 10000 3.11 241 09:25 25.09.2021
5558 Clear 18 1018 83 10000 3.46 243 07:52 25.09.2021
5559 Clouds 20 1017 80 10000 4.08 257 01:34 25.09.2021
5560 Clouds 21 1017 79 10000 3.71 257 23:33 24.09.2021
5561 Clouds 21 1017 77 10000 3.84 266 21:41 24.09.2021
5562 Clouds 21 1016 78 10000 4.04 270 20:33 24.09.2021
5563 Clouds 22 1015 78 10000 3.63 266 19:44 24.09.2021
5564 Clouds 22 1015 75 10000 2.96 265 18:30 24.09.2021
5565 Rain 24 1014 77 10000 2.93 259 17:53 24.09.2021
5566 Rain 24 1014 77 10000 2.93 259 17:35 24.09.2021
5567 Rain 25 1014 79 10000 2.77 266 16:35 24.09.2021
5568 Clouds 23 1015 80 10000 2.51 259 13:41 24.09.2021
5569 Clouds 21 1015 81 10000 1.97 261 12:44 24.09.2021
5570 Clouds 21 1015 83 10000 1.83 268 12:26 24.09.2021
5571 Rain 21 1015 87 10000 1.66 279 11:28 24.09.2021
5572 Clouds 20 1014 88 10000 1.67 271 10:00 24.09.2021
5573 Rain 21 1013 87 10000 0.81 269 08:24 24.09.2021
5574 Clouds 21 1013 87 10000 0.81 269 07:32 24.09.2021
5575 Clouds 21 1013 89 10000 1.62 262 06:32 24.09.2021
5576 Clouds 22 1013 88 10000 2.17 266 04:53 24.09.2021
5577 Clouds 21 1014 92 10000 1.81 115 22:45 23.09.2021
5578 Clouds 23 1013 91 10000 2.56 110 21:59 23.09.2021
5579 Clouds 22 1013 91 10000 2.56 110 21:38 23.09.2021
5580 Clouds 21 1013 90 10000 2.77 115 20:32 23.09.2021
5581 Clouds 22 1012 85 10000 4.35 108 18:56 23.09.2021
5582 Clouds 23 1012 82 10000 7.15 103 16:49 23.09.2021
5583 Clouds 24 1012 82 10000 8.47 107 15:20 23.09.2021
5584 Clouds 23 1012 82 10000 8.47 107 14:58 23.09.2021
5585 Clouds 22 1013 81 10000 8.73 107 13:36 23.09.2021
5586 Clouds 22 1013 82 10000 8.61 105 13:18 23.09.2021
5587 Clouds 22 1013 82 10000 8.61 105 12:45 23.09.2021
5588 Clouds 22 1013 83 10000 8.76 104 12:21 23.09.2021
5589 Clouds 22 1013 86 10000 8.63 99 10:42 23.09.2021
5590 Clouds 22 1012 88 10000 9.11 96 10:19 23.09.2021
5591 Clouds 22 1012 88 10000 9.12 96 10:19 23.09.2021
5592 Clouds 20 1012 88 10000 9.11 96 09:47 23.09.2021
5593 Clouds 20 1011 89 10000 8 86 06:25 23.09.2021
5594 Clouds 21 1013 89 10000 8.31 90 00:25 23.09.2021
5595 Clouds 23 1014 89 10000 7.33 85 22:54 22.09.2021
5596 Clouds 21 1013 89 10000 6.89 85 22:20 22.09.2021
5597 Clouds 21 1013 89 10000 6.89 85 21:44 22.09.2021
5598 Clouds 24 1013 89 10000 7.81 92 20:58 22.09.2021
5599 Clouds 22 1012 86 10000 8.46 90 19:53 22.09.2021
5600 Clouds 22 1012 82 10000 8.73 92 19:27 22.09.2021
5601 Clouds 22 1012 82 10000 8.73 92 18:34 22.09.2021
5602 Clouds 23 1012 80 10000 9.01 89 17:33 22.09.2021
5603 Clouds 23 1013 78 10000 9.28 87 15:51 22.09.2021
5604 Clouds 22 1015 78 10000 9.76 87 14:28 22.09.2021
5605 Clouds 24 1014 77 10000 10.15 87 13:19 22.09.2021
5606 Clouds 24 1014 77 10000 10.15 87 13:19 22.09.2021
5607 Clouds 22 1014 79 10000 9.87 91 11:20 22.09.2021
5608 Clouds 21 1014 81 10000 10.01 93 09:30 22.09.2021
5609 Clouds 21 1013 83 10000 9.94 93 08:45 22.09.2021
5610 Clouds 21 1013 86 10000 10.51 92 07:33 22.09.2021
5611 Clouds 20 1013 85 10000 11.37 93 06:31 22.09.2021
5612 Clouds 21 1013 84 10000 11.82 95 05:48 22.09.2021
5613 Clouds 21 1014 82 10000 12.77 98 04:20 22.09.2021
5614 Clouds 24 1014 83 10000 13.44 97 02:56 22.09.2021
5615 Clouds 21 1015 84 10000 11.12 90 23:42 21.09.2021
5616 Clouds 21 1015 86 10000 10.92 85 22:26 21.09.2021
5617 Clouds 22 1014 87 10000 10.9 87 20:31 21.09.2021
5618 Clouds 27 1013 85 10000 11.34 88 19:25 21.09.2021
5619 Clouds 22 1013 85 10000 11.34 88 18:35 21.09.2021
5620 Clouds 23 1013 82 10000 11.37 85 16:47 21.09.2021
5621 Clouds 23 1014 79 10000 11.29 88 15:56 21.09.2021
5622 Clouds 24 1015 77 10000 10.87 89 14:59 21.09.2021
5623 Clouds 24 1015 77 10000 10.68 89 13:58 21.09.2021
5624 Clouds 25 1015 77 10000 10.14 88 13:39 21.09.2021
5625 Clouds 24 1016 76 10000 9.54 83 12:44 21.09.2021
5626 Clouds 20 1016 79 10000 6.91 84 10:42 21.09.2021
5627 Clouds 20 1015 90 10000 5.17 58 08:57 21.09.2021
5628 Clouds 20 1015 92 10000 4.79 67 07:37 21.09.2021
5629 Clouds 20 1015 92 10000 4.03 81 05:18 21.09.2021
5630 Clouds 23 1017 91 10000 2.54 73 22:54 20.09.2021
5631 Clouds 23 1017 90 10000 2.21 65 21:43 20.09.2021
5632 Clouds 23 1016 89 10000 2.09 57 21:25 20.09.2021
5633 Clear 23 1016 84 10000 2.34 60 19:47 20.09.2021
5634 Clear 25 1015 77 10000 4.41 83 17:55 20.09.2021
5635 Clear 25 1015 77 10000 4.41 83 17:55 20.09.2021
5636 Clear 26 1016 74 10000 5 86 17:19 20.09.2021
5637 Clear 25 1016 73 10000 5.23 82 16:23 20.09.2021
5638 Clear 25 1016 73 10000 5.24 81 15:36 20.09.2021
5639 Clouds 24 1018 75 10000 4.84 86 14:27 20.09.2021
5640 Clouds 24 1018 76 10000 4.4 84 12:44 20.09.2021
5641 Clouds 23 1018 80 10000 3.95 73 12:24 20.09.2021
5642 Clouds 23 1018 85 10000 3.75 65 10:52 20.09.2021
5643 Clouds 22 1018 88 10000 3.75 65 09:51 20.09.2021
5644 Clouds 21 1018 88 10000 3.76 65 09:31 20.09.2021
5645 Clouds 21 1017 92 10000 3.28 61 08:35 20.09.2021
5646 Clouds 22 1017 93 10000 3.93 70 06:22 20.09.2021
5647 Clouds 22 1017 93 10000 3.93 70 06:22 20.09.2021
5648 Clouds 22 1017 93 10000 3.93 70 06:22 20.09.2021
5649 Clear 21 1018 77 10000 2.71 75 22:58 19.09.2021
5650 Clear 21 1017 70 10000 2.58 53 21:50 19.09.2021
5651 Clear 21 1016 66 10000 1.54 48 20:59 19.09.2021
5652 Clear 23 1016 63 10000 1.27 326 19:59 19.09.2021
5653 Clear 29 1015 55 10000 1.46 274 18:53 19.09.2021
5654 Clear 29 1015 55 10000 1.46 274 18:53 19.09.2021
5655 Clear 27 1015 55 10000 2.63 269 17:42 19.09.2021
5656 Clear 28 1015 55 10000 3.08 247 16:35 19.09.2021
5657 Clear 27 1016 57 10000 3.51 244 15:31 19.09.2021
5658 Clear 27 1016 58 10000 3.63 256 14:49 19.09.2021
5659 Clear 26 1017 56 10000 3.74 267 13:52 19.09.2021
5660 Clear 25 1017 55 10000 3.33 266 12:55 19.09.2021
5661 Clear 24 1017 56 10000 3.2 257 11:46 19.09.2021
5662 Clear 24 1017 59 10000 3.25 253 11:22 19.09.2021
5663 Clear 20 1017 64 10000 3.23 244 09:51 19.09.2021
5664 Clear 20 1016 70 10000 3.34 244 09:23 19.09.2021
5665 Clear 19 1015 69 10000 3.42 241 06:48 19.09.2021
5666 Clear 19 1015 69 10000 3.41 242 06:48 19.09.2021
5667 Clear 23 1015 66 10000 3.61 267 00:48 19.09.2021
5668 Clear 20 1016 64 10000 4.01 265 22:58 18.09.2021
5669 Clear 22 1015 64 10000 4 267 21:56 18.09.2021
5670 Clear 25 1015 65 10000 4.13 268 20:46 18.09.2021
5671 Clear 27 1015 59 10000 4.51 268 19:42 18.09.2021
5672 Clear 27 1014 58 10000 5.22 272 19:22 18.09.2021
5673 Clear 28 1014 58 10000 5.22 272 18:52 18.09.2021
5674 Clear 27 1014 59 10000 5.47 269 18:29 18.09.2021
5675 Clear 28 1014 61 10000 5.65 271 16:34 18.09.2021
5676 Clear 28 1014 61 10000 5.65 271 16:34 18.09.2021
5677 Clear 25 1015 62 10000 5.28 267 13:51 18.09.2021
5678 Clear 23 1015 62 10000 5.29 267 13:31 18.09.2021
5679 Clear 22 1016 61 10000 4.59 262 12:51 18.09.2021
5680 Clear 21 1016 64 10000 4.03 259 11:42 18.09.2021
5681 Clear 21 1016 69 10000 3.59 253 10:37 18.09.2021
5682 Clear 20 1015 74 10000 3.03 247 09:55 18.09.2021
5683 Clear 20 1015 80 10000 2.76 242 09:22 18.09.2021
5684 Clear 21 1014 83 10000 3.01 244 07:36 18.09.2021
5685 Clear 23 1015 74 10000 2.78 274 00:42 18.09.2021
5686 Clear 23 1015 74 10000 2.62 269 23:53 17.09.2021
5687 Clear 23 1015 74 10000 2.18 262 22:42 17.09.2021
5688 Clear 23 1015 74 10000 2.2 271 22:21 17.09.2021
5689 Clear 24 1014 74 10000 2.23 280 21:24 17.09.2021
5690 Clear 25 1014 66 10000 1.92 285 19:29 17.09.2021
5691 Clear 25 1014 64 10000 1 301 17:55 17.09.2021
5692 Clear 25 1015 65 10000 2.93 89 16:27 17.09.2021
5693 Clear 23 1016 65 10000 3.59 89 14:24 17.09.2021
5694 Clear 22 1017 65 10000 2.2 83 11:30 17.09.2021
5695 Clear 20 1016 77 10000 2.11 79 09:24 17.09.2021
5696 Clear 20 1015 79 10000 1.32 90 07:35 17.09.2021
5697 Clear 21 1016 80 10000 0.68 11 03:58 17.09.2021
5698 Clear 24 1017 80 10000 2.04 276 23:36 16.09.2021
5699 Clear 25 1017 81 10000 2.28 267 22:33 16.09.2021
5700 Clear 24 1017 81 10000 2.59 261 21:52 16.09.2021
5701 Clear 24 1016 81 10000 2.91 262 21:26 16.09.2021
5702 Clear 25 1016 76 10000 3.18 258 20:19 16.09.2021
5703 Clear 26 1015 68 10000 3.96 267 18:21 16.09.2021
5704 Clear 25 1015 68 10000 3.96 267 17:54 16.09.2021
5705 Clear 24 1017 64 10000 3.81 249 14:59 16.09.2021
5706 Clear 24 1017 64 10000 3.24 256 14:26 16.09.2021
5707 Clear 26 1017 67 10000 3.21 271 12:51 16.09.2021
5708 Clear 25 1018 70 10000 2.95 268 12:29 16.09.2021
5709 Clear 23 1017 74 10000 2.63 257 11:28 16.09.2021
5710 Clear 22 1017 74 10000 2.63 257 10:34 16.09.2021
5711 Clear 21 1017 79 10000 2.33 262 09:58 16.09.2021
5712 Clear 20 1017 84 10000 2.05 266 08:42 16.09.2021
5713 Clear 20 1016 87 10000 2.7 271 07:36 16.09.2021
5714 Clear 20 1016 87 10000 3.01 271 06:47 16.09.2021
5715 Clear 21 1016 86 10000 3.08 267 05:40 16.09.2021
5716 Clear 21 1017 88 10000 2.6 263 01:41 16.09.2021
5717 Clear 22 1017 87 10000 2.46 270 23:47 15.09.2021
5718 Clear 24 1017 86 10000 2.75 283 22:47 15.09.2021
5719 Clouds 23 1017 85 10000 2.86 278 21:48 15.09.2021
5720 Clouds 23 1016 83 10000 2.8 277 21:29 15.09.2021
5721 Clouds 23 1015 78 10000 3.64 283 20:22 15.09.2021
5722 Clouds 25 1015 77 10000 4.56 267 19:27 15.09.2021
5723 Clouds 25 1015 75 10000 5.52 272 18:20 15.09.2021
5724 Clouds 25 1015 73 10000 7 265 16:59 15.09.2021
5725 Clouds 25 1015 72 10000 7.44 263 15:46 15.09.2021
5726 Clear 25 1015 71 10000 7.26 260 14:45 15.09.2021
5727 Clear 25 1015 71 10000 7.26 260 14:45 15.09.2021
5728 Clouds 23 1015 71 10000 7.06 253 13:52 15.09.2021
5729 Clouds 23 1015 71 10000 7.07 253 13:30 15.09.2021
5730 Clouds 24 1016 74 10000 5.81 245 12:48 15.09.2021
5731 Clouds 23 1016 77 10000 4.98 236 11:52 15.09.2021
5732 Clouds 23 1016 77 10000 4.99 237 11:52 15.09.2021
5733 Clouds 23 1016 77 10000 4.99 237 11:31 15.09.2021
5734 Clouds 23 1016 81 10000 5.19 225 10:55 15.09.2021
5735 Clear 22 1015 87 10000 4.82 224 09:29 15.09.2021
5736 Clear 21 1014 88 10000 5.04 223 08:20 15.09.2021
5737 Clear 22 1013 87 10000 5.09 230 04:55 15.09.2021
5738 Clouds 23 1014 88 10000 2.33 184 23:45 14.09.2021
5739 Clouds 24 1014 89 10000 1.81 149 21:41 14.09.2021
5740 Clouds 25 1013 88 10000 1.01 162 20:39 14.09.2021
5741 Clouds 26 1013 84 10000 1.19 69 19:42 14.09.2021
5742 Clouds 25 1012 83 10000 1.05 167 17:40 14.09.2021
5743 Clouds 25 1012 83 10000 1.04 166 17:40 14.09.2021
5744 Clouds 25 1011 82 7614 1.58 186 16:59 14.09.2021
5745 Clouds 24 1011 77 10000 1.05 264 15:33 14.09.2021
5746 Clouds 25 1011 76 10000 2.49 282 14:31 14.09.2021
5747 Clouds 23 1012 80 10000 1.85 6 12:45 14.09.2021
5748 Clouds 21 1013 83 10000 2.16 59 10:54 14.09.2021
5749 Clouds 19 1013 88 10000 0.85 38 09:50 14.09.2021
5750 Clouds 20 1013 87 10000 1.26 207 08:41 14.09.2021
5751 Rain 21 1013 88 10000 3.21 79 06:24 14.09.2021
5752 Rain 21 1015 84 10000 4.51 237 00:31 14.09.2021
5753 Clouds 22 1013 84 10000 4.55 63 22:48 13.09.2021
5754 Clouds 22 1013 88 10000 3.48 73 22:24 13.09.2021
5755 Clouds 23 1013 88 10000 3.48 74 21:45 13.09.2021
5756 Clouds 24 1012 86 10000 5.58 70 20:50 13.09.2021
5757 Clouds 24 1011 78 10000 8.54 88 18:46 13.09.2021
5758 Clouds 24 1011 75 10000 10.51 89 17:49 13.09.2021
5759 Clouds 23 1012 70 10000 8.39 83 16:50 13.09.2021
5760 Rain 23 1013 66 10000 6.94 77 15:30 13.09.2021
5761 Clouds 24 1014 77 10000 4.91 74 12:26 13.09.2021
5762 Clouds 24 1013 78 10000 5.37 71 10:58 13.09.2021
5763 Clouds 22 1013 87 10000 6.06 74 09:36 13.09.2021
5764 Clouds 30 1014 85 10000 4.12 70 04:57 13.09.2021
5765 Clouds 23 1015 83 10000 2.34 127 23:32 12.09.2021
5766 Clouds 23 1013 84 10000 4.39 92 22:25 12.09.2021
5767 Clouds 24 1013 84 10000 4.39 92 21:37 12.09.2021
5768 Clouds 24 1012 75 10000 5.35 80 20:29 12.09.2021
5769 Clouds 24 1012 74 10000 5.35 83 19:50 12.09.2021
5770 Clouds 25 1012 67 10000 5.87 83 19:19 12.09.2021
5771 Clouds 25 1012 64 10000 6.44 81 18:20 12.09.2021
5772 Clouds 26 1012 61 10000 6.65 80 16:30 12.09.2021
5773 Clouds 26 1012 61 10000 6.65 80 16:30 12.09.2021
5774 Clouds 26 1012 61 10000 6.65 80 16:30 12.09.2021
5775 Clouds 26 1013 60 10000 6.58 78 14:52 12.09.2021
5776 Clouds 25 1014 61 10000 6.14 81 12:48 12.09.2021
5777 Clouds 22 1015 65 10000 5.08 78 10:44 12.09.2021
5778 Clear 19 1015 74 10000 4.05 69 08:59 12.09.2021
5779 Clear 19 1015 74 10000 4.05 69 08:36 12.09.2021
5780 Clouds 23 1016 68 10000 2.14 75 00:56 12.09.2021
5781 Clouds 22 1016 68 10000 1.89 54 23:19 11.09.2021
5782 Clear 22 1016 69 10000 1.38 40 21:41 11.09.2021
5783 Clear 23 1016 64 10000 0.54 29 20:18 11.09.2021
5784 Clear 23 1016 64 10000 0.54 29 20:18 11.09.2021
5785 Clear 24 1016 59 10000 0.64 58 18:35 11.09.2021
5786 Clear 24 1015 55 10000 1.5 76 17:29 11.09.2021
5787 Clear 25 1016 54 10000 1.75 85 15:39 11.09.2021
5788 Clear 23 1017 56 10000 0.91 251 13:30 11.09.2021
5789 Clouds 23 1018 59 10000 1.56 247 11:47 11.09.2021
5790 Clouds 23 1018 62 10000 1.66 254 10:51 11.09.2021
5791 Clouds 21 1018 67 10000 1.8 250 09:30 11.09.2021
5792 Clouds 21 1017 78 10000 2.36 261 07:44 11.09.2021
5793 Clouds 21 1017 76 10000 2.37 252 06:31 11.09.2021
5794 Clouds 25 1018 74 10000 3.14 272 22:48 10.09.2021
5795 Clear 25 1018 76 10000 4 271 22:22 10.09.2021
5796 Clear 24 1018 76 10000 4.02 270 21:43 10.09.2021
5797 Clouds 26 1017 70 10000 4.35 261 19:33 10.09.2021
5798 Clouds 27 1017 66 10000 4.84 262 18:20 10.09.2021
5799 Clear 27 1017 65 10000 5.38 260 16:34 10.09.2021
5800 Clear 27 1018 65 10000 4.99 259 13:52 10.09.2021
5801 Clear 26 1019 68 10000 5.15 263 11:38 10.09.2021
5802 Clear 22 1018 90 10000 4.19 240 08:27 10.09.2021
5803 Clouds 22 1018 91 10000 4.15 233 07:44 10.09.2021
5804 Clouds 23 1019 90 10000 4.54 265 00:41 10.09.2021
5805 Clouds 24 1018 87 10000 5.24 273 21:56 09.09.2021
5806 Clouds 25 1017 85 10000 5.24 272 20:48 09.09.2021
5807 Clear 25 1017 79 10000 5.04 269 20:29 09.09.2021
5808 Clear 26 1016 75 10000 5.38 268 18:50 09.09.2021
5809 Clear 27 1017 73 10000 6.14 271 17:51 09.09.2021
5810 Clear 28 1017 71 10000 6.81 270 16:39 09.09.2021
5811 Clear 27 1018 70 10000 6.64 269 15:26 09.09.2021
5812 Clear 24 1018 70 10000 6.45 265 12:33 09.09.2021
5813 Clear 23 1018 74 10000 5.12 276 11:23 09.09.2021
5814 Clear 22 1018 78 10000 4.8 285 09:39 09.09.2021
5815 Clouds 21 1017 88 10000 4.73 284 07:56 09.09.2021
5816 Clouds 22 1017 90 10000 5.09 272 06:20 09.09.2021
5817 Clouds 22 1019 87 10000 6.11 254 00:43 09.09.2021
5818 Clouds 23 1017 84 10000 5.74 277 21:49 08.09.2021
5819 Clouds 25 1016 81 10000 5.88 277 20:54 08.09.2021
5820 Clear 26 1016 75 10000 6.04 276 19:46 08.09.2021
5821 Clear 27 1016 71 10000 6.66 277 18:49 08.09.2021
5822 Clear 26 1016 71 10000 7.15 276 18:25 08.09.2021
5823 Clear 28 1016 71 10000 7.15 276 17:40 08.09.2021
5824 Clear 27 1017 71 10000 6.97 271 15:49 08.09.2021
5825 Clear 26 1017 72 10000 6.51 266 13:45 08.09.2021
5826 Clear 25 1018 73 10000 6.06 266 12:41 08.09.2021
5827 Clouds 25 1018 75 10000 5.51 269 12:23 08.09.2021
5828 Clouds 23 1018 78 10000 4.68 278 11:26 08.09.2021
5829 Clouds 23 1018 78 10000 4.68 278 10:31 08.09.2021
5830 Clouds 23 1018 84 10000 4.32 281 09:56 08.09.2021
5831 Clouds 22 1017 92 10000 3.83 281 07:46 08.09.2021
5832 Clouds 22 1016 91 10000 3.78 284 07:19 08.09.2021
5833 Clouds 24 1018 88 10000 3.94 268 23:28 07.09.2021
5834 Clouds 24 1017 85 10000 3.65 269 22:19 07.09.2021
5835 Clear 26 1016 81 10000 3.46 260 20:42 07.09.2021
5836 Clouds 27 1015 72 10000 3.05 253 18:53 07.09.2021
5837 Clouds 27 1015 71 10000 2.36 268 18:28 07.09.2021
5838 Clouds 28 1015 71 10000 2.36 269 17:35 07.09.2021
5839 Clouds 28 1016 69 10000 1.04 123 15:57 07.09.2021
5840 Clouds 27 1016 67 10000 1.78 106 14:53 07.09.2021
5841 Clouds 27 1016 69 10000 2.98 84 13:52 07.09.2021
5842 Clouds 27 1016 67 10000 2.39 80 13:52 07.09.2021
5843 Clouds 26 1017 73 10000 2.82 88 11:58 07.09.2021
5844 Clouds 25 1017 76 10000 2.95 84 10:50 07.09.2021
5845 Clouds 23 1017 81 10000 3.29 80 09:40 07.09.2021
5846 Clouds 23 1016 87 10000 3.62 86 07:46 07.09.2021
5847 Clouds 23 1016 85 10000 4.18 83 06:19 07.09.2021
5848 Clouds 24 1017 86 10000 5.28 76 02:38 07.09.2021
5849 Clouds 26 1018 87 10000 5.96 85 00:55 07.09.2021
5850 Clouds 23 1018 86 10000 6.3 83 23:46 06.09.2021
5851 Clouds 24 1017 87 10000 6.92 82 23:28 06.09.2021
5852 Clouds 24 1017 87 10000 6.92 82 22:49 06.09.2021
5853 Clouds 24 1017 88 10000 7.06 77 21:52 06.09.2021
5854 Clouds 25 1015 86 10000 7.42 78 19:44 06.09.2021
5855 Clouds 25 1015 81 10000 8.3 80 19:18 06.09.2021
5856 Clouds 26 1015 81 10000 8.3 80 18:33 06.09.2021
5857 Clouds 26 1014 77 10000 8.61 78 17:37 06.09.2021
5858 Clouds 26 1015 76 10000 9.37 80 16:20 06.09.2021
5859 Clouds 26 1015 76 10000 9.37 80 16:19 06.09.2021
5860 Clouds 26 1016 76 10000 9.63 81 14:37 06.09.2021
5861 Clouds 25 1016 78 10000 9.83 81 12:48 06.09.2021
5862 Clouds 24 1017 82 10000 8.54 80 11:43 06.09.2021
5863 Clouds 23 1016 89 10000 7.89 78 09:59 06.09.2021
5864 Clouds 23 1016 92 10000 6.73 82 07:34 06.09.2021
5865 Clouds 24 1015 92 10000 9.89 74 01:32 06.09.2021
5866 Clouds 23 1015 92 10000 8.86 77 23:20 05.09.2021
5867 Clouds 24 1015 92 10000 8.86 77 22:31 05.09.2021
5868 Clouds 24 1015 93 10000 8.76 80 21:55 05.09.2021
5869 Clouds 24 1014 92 10000 8.74 82 21:19 05.09.2021
5870 Clouds 26 1014 80 10000 8.19 83 19:22 05.09.2021
5871 Clear 26 1014 78 10000 8.31 81 17:37 05.09.2021
5872 Clear 27 1015 75 10000 8.2 79 15:40 05.09.2021
5873 Clear 27 1016 75 10000 8.02 79 14:45 05.09.2021
5874 Clouds 26 1016 77 10000 7.33 80 12:34 05.09.2021
5875 Clouds 24 1016 80 10000 6.95 80 10:59 05.09.2021
5876 Clouds 23 1016 80 10000 6.95 80 10:34 05.09.2021
5877 Clouds 22 1015 91 10000 5.65 78 09:25 05.09.2021
5878 Clouds 22 1015 92 10000 5.57 77 08:23 05.09.2021
5879 Clouds 22 1015 87 10000 4.91 78 03:20 05.09.2021
5880 Clouds 22 1015 83 10000 4.4 72 00:32 05.09.2021
5881 Clear 22 1015 82 10000 4.27 71 23:46 04.09.2021
5882 Clear 22 1015 81 10000 4.1 67 22:36 04.09.2021
5883 Clear 22 1014 79 10000 4.08 68 21:59 04.09.2021
5884 Clear 25 1013 68 10000 4.87 79 19:54 04.09.2021
5885 Clear 25 1013 64 10000 5.66 88 19:29 04.09.2021
5886 Clear 26 1013 63 10000 6.21 83 16:27 04.09.2021
5887 Clear 24 1015 64 10000 5.31 84 13:36 04.09.2021
5888 Clear 22 1015 65 10000 3.04 82 11:20 04.09.2021
5889 Clear 21 1015 75 10000 2.06 78 09:26 04.09.2021
5890 Clear 19 1014 81 10000 0.49 190 06:55 04.09.2021
5891 Clear 24 1015 80 10000 2.45 264 00:27 04.09.2021
5892 Clear 23 1015 80 10000 2.45 264 23:32 03.09.2021
5893 Clear 24 1016 80 10000 2.44 264 22:39 03.09.2021
5894 Clear 24 1015 80 10000 2.64 261 21:35 03.09.2021
5895 Clear 26 1014 79 10000 3.13 262 20:43 03.09.2021
5896 Clouds 27 1014 73 10000 3.72 262 19:55 03.09.2021
5897 Clouds 28 1014 67 10000 4.05 256 19:20 03.09.2021
5898 Clouds 28 1015 63 10000 4.23 256 17:53 03.09.2021
5899 Clouds 27 1015 63 10000 4.45 255 16:37 03.09.2021
5900 Clouds 26 1016 63 10000 4.47 254 14:59 03.09.2021
5901 Clear 25 1017 64 10000 3.62 254 12:24 03.09.2021
5902 Clear 23 1017 67 10000 3.18 249 10:31 03.09.2021
5903 Clear 19 1017 81 10000 2.86 243 08:59 03.09.2021
5904 Clear 22 1017 84 10000 3.12 240 07:44 03.09.2021
5905 Clear 22 1018 85 10000 3.5 271 01:40 03.09.2021
5906 Clear 25 1018 84 10000 3.6 269 23:20 02.09.2021
5907 Clear 25 1017 84 10000 3.73 266 21:35 02.09.2021
5908 Clear 28 1016 75 10000 4.41 264 19:55 02.09.2021
5909 Clear 29 1016 70 10000 4.85 267 17:32 02.09.2021
5910 Clear 29 1017 68 10000 4.98 262 15:52 02.09.2021
5911 Clear 26 1017 67 10000 4.81 265 13:57 02.09.2021
5912 Clear 25 1018 69 10000 4.45 269 12:48 02.09.2021
5913 Clear 25 1018 70 10000 4.13 264 11:35 02.09.2021
5914 Clear 21 1017 79 10000 3.61 264 09:44 02.09.2021
5915 Clouds 22 1016 90 10000 2.82 264 07:57 02.09.2021
5916 Clouds 22 1016 90 10000 3.01 267 07:18 02.09.2021
5917 Clear 22 1017 91 10000 3.49 272 02:56 02.09.2021
5918 Clear 23 1017 91 10000 3.83 273 01:56 02.09.2021
5919 Clear 22 1017 92 10000 3.75 270 01:25 02.09.2021
5920 Clear 23 1017 91 10000 3.88 272 23:39 01.09.2021
5921 Clear 24 1017 90 10000 4.03 274 22:40 01.09.2021
5922 Clear 24 1016 87 10000 4.05 274 21:39 01.09.2021
5923 Clear 26 1014 76 10000 4.82 264 20:29 01.09.2021
5924 Clear 26 1014 69 10000 4.82 259 18:33 01.09.2021
5925 Clear 28 1014 67 10000 4.8 260 17:38 01.09.2021
5926 Clouds 28 1014 67 10000 4.99 261 16:47 01.09.2021
5927 Clouds 28 1015 69 10000 4.43 251 15:27 01.09.2021
5928 Clouds 25 1016 72 10000 2.24 254 12:19 01.09.2021
5929 Clouds 25 1016 72 10000 2.23 254 11:44 01.09.2021
5930 Clouds 21 1015 83 10000 1.38 217 08:47 01.09.2021
5931 Clouds 22 1014 86 10000 1.38 201 07:51 01.09.2021
5932 Clouds 22 1015 89 10000 0.57 84 03:27 01.09.2021
5933 Clouds 23 1015 87 10000 2.48 50 22:38 31.08.2021
5934 Clouds 23 1013 84 10000 2.28 69 21:23 31.08.2021
5935 Clouds 25 1012 76 10000 2.5 58 19:45 31.08.2021
5936 Clouds 25 1012 67 10000 5.19 77 18:28 31.08.2021
5937 Clouds 25 1012 67 10000 5.19 77 17:36 31.08.2021
5938 Clouds 24 1013 68 10000 5.58 78 16:52 31.08.2021
5939 Clouds 25 1013 68 10000 5.52 80 16:24 31.08.2021
5940 Clouds 24 1014 65 10000 3.8 78 12:57 31.08.2021
5941 Clear 22 1014 70 10000 2.63 71 11:27 31.08.2021
5942 Clear 21 1014 70 10000 2.63 71 10:52 31.08.2021
5943 Clear 21 1014 75 10000 2.19 76 09:44 31.08.2021
5944 Clear 20 1014 80 10000 1.32 87 08:38 31.08.2021
5945 Clear 19 1013 88 10000 1.74 241 05:58 31.08.2021
5946 Clear 23 1014 89 10000 3.58 268 01:36 31.08.2021
5947 Clear 25 1014 86 10000 4.05 252 23:35 30.08.2021
5948 Clear 24 1012 81 10000 4.33 265 21:43 30.08.2021
5949 Clear 26 1012 78 10000 4.77 262 20:42 30.08.2021
5950 Clouds 26 1011 71 10000 5.2 266 20:19 30.08.2021
5951 Clouds 25 1011 68 10000 5.51 266 19:29 30.08.2021
5952 Clouds 25 1011 68 10000 5.51 266 18:30 30.08.2021
5953 Clear 25 1012 65 10000 5.61 262 17:44 30.08.2021
5954 Clear 26 1013 61 10000 5.81 260 16:19 30.08.2021
5955 Clear 26 1013 60 10000 5.62 258 15:23 30.08.2021
5956 Clear 27 1014 60 10000 5.04 265 13:28 30.08.2021
5957 Clear 26 1014 61 10000 4.81 270 12:24 30.08.2021
5958 Clear 21 1014 81 10000 4.27 273 08:27 30.08.2021
5959 Clear 23 1015 81 10000 5.59 271 22:26 29.08.2021
5960 Clear 24 1015 81 10000 5.59 271 21:32 29.08.2021
5961 Clear 26 1014 73 10000 5.93 268 19:33 29.08.2021
5962 Clear 27 1014 69 10000 6.1 270 18:47 29.08.2021
5963 Clear 27 1014 67 10000 6.33 269 17:41 29.08.2021
5964 Clear 26 1016 66 10000 6.37 270 15:30 29.08.2021
5965 Clear 26 1016 66 10000 6.59 268 13:57 29.08.2021
5966 Clear 26 1016 65 10000 6.47 266 12:58 29.08.2021
5967 Clear 26 1016 65 10000 6.47 266 12:31 29.08.2021
5968 Clear 25 1016 67 10000 6.41 263 11:41 29.08.2021
5969 Clear 23 1016 70 10000 6.41 260 10:49 29.08.2021
5970 Clear 23 1016 70 10000 6.41 260 10:30 29.08.2021
5971 Clear 23 1016 70 10000 6.41 260 10:30 29.08.2021
5972 Clear 23 1016 74 10000 6.23 255 09:44 29.08.2021
5973 Clear 22 1015 85 10000 5.29 263 06:38 29.08.2021
5974 Clear 23 1017 92 10000 5.04 268 23:33 28.08.2021
5975 Clear 26 1016 84 10000 5.71 274 20:52 28.08.2021
5976 Clear 27 1016 77 10000 5.73 272 19:43 28.08.2021
5977 Clear 28 1016 68 10000 6.28 271 18:27 28.08.2021
5978 Clear 28 1016 68 10000 6.28 271 17:47 28.08.2021
5979 Clear 29 1016 66 10000 6.54 271 16:57 28.08.2021
5980 Clear 29 1017 67 10000 6.57 268 15:27 28.08.2021
5981 Clear 28 1017 67 10000 6.44 267 13:59 28.08.2021
5982 Clear 28 1017 66 10000 6.47 269 13:41 28.08.2021
5983 Clear 26 1018 65 10000 6.34 267 12:40 28.08.2021
5984 Clear 25 1018 64 10000 6.1 265 11:48 28.08.2021
5985 Clouds 22 1018 75 10000 5.81 267 10:18 28.08.2021
5986 Clouds 22 1017 84 10000 5.62 263 07:57 28.08.2021
5987 Clear 22 1017 83 10000 6.17 268 02:36 28.08.2021
5988 Clear 24 1016 81 10000 5.52 266 21:45 27.08.2021
5989 Clear 26 1015 78 10000 5.56 267 20:53 27.08.2021
5990 Clouds 27 1015 73 10000 5.38 265 19:43 27.08.2021
5991 Clouds 27 1015 71 10000 5.53 260 18:39 27.08.2021
5992 Clouds 27 1015 70 10000 5.6 264 17:54 27.08.2021
5993 Clouds 27 1015 71 10000 6.11 265 16:41 27.08.2021
5994 Clouds 27 1016 72 10000 5.82 263 14:50 27.08.2021
5995 Clouds 27 1016 72 10000 5.83 263 14:31 27.08.2021
5996 Clear 25 1016 72 10000 2.57 255 12:27 27.08.2021
5997 Clear 23 1016 77 10000 2 258 10:58 27.08.2021
5998 Clear 23 1016 77 10000 2 258 10:36 27.08.2021
5999 Clear 23 1015 86 10000 0.96 302 08:57 27.08.2021
6000 Clear 21 1015 86 10000 0.96 302 08:35 27.08.2021
6001 Clear 22 1014 90 10000 1.38 38 05:37 27.08.2021
6002 Clouds 24 1015 92 10000 1.88 55 00:48 27.08.2021
6003 Clouds 24 1015 92 10000 1.89 45 00:28 27.08.2021
6004 Clear 25 1014 90 10000 2.94 66 22:27 26.08.2021
6005 Clear 25 1014 90 10000 2.93 66 21:48 26.08.2021
6006 Clear 26 1013 79 10000 4.08 79 19:42 26.08.2021
6007 Clear 26 1013 73 10000 6.02 84 18:26 26.08.2021
6008 Clear 27 1013 72 10000 6.4 82 17:25 26.08.2021
6009 Clear 27 1014 73 10000 6.62 81 16:27 26.08.2021
6010 Clear 27 1014 73 10000 6.22 81 14:46 26.08.2021
6011 Clouds 26 1014 78 10000 5.59 82 13:20 26.08.2021
6012 Clouds 26 1014 78 10000 5.59 82 12:33 26.08.2021
6013 Clouds 24 1015 80 10000 4.89 80 11:38 26.08.2021
6014 Clouds 21 1013 90 10000 4.32 77 08:50 26.08.2021
6015 Clouds 23 1013 95 10000 4.64 75 08:19 26.08.2021
6016 Clear 24 1014 89 10000 0.67 192 23:39 25.08.2021
6017 Clear 24 1014 89 10000 1.16 276 22:38 25.08.2021
6018 Clear 24 1013 88 10000 1.61 286 22:19 25.08.2021
6019 Clear 26 1012 87 10000 1.52 289 20:57 25.08.2021
6020 Clouds 26 1012 80 10000 1.16 291 20:29 25.08.2021
6021 Clouds 27 1011 78 10000 1.28 62 18:46 25.08.2021
6022 Clouds 27 1012 78 10000 1.8 69 17:53 25.08.2021
6023 Clouds 26 1013 77 10000 2.37 64 15:51 25.08.2021
6024 Clouds 26 1013 78 10000 1.74 69 15:26 25.08.2021
6025 Clouds 26 1013 78 10000 1.74 69 14:45 25.08.2021
6026 Clouds 24 1014 79 10000 0.5 24 13:45 25.08.2021
6027 Clouds 24 1014 77 10000 0.35 293 11:37 25.08.2021
6028 Clouds 24 1014 80 10000 0.75 272 10:56 25.08.2021
6029 Clouds 23 1013 83 10000 1.08 271 09:59 25.08.2021
6030 Clouds 23 1013 83 10000 1.08 271 09:30 25.08.2021
6031 Clouds 23 1013 86 10000 1.23 269 08:33 25.08.2021
6032 Clouds 23 1012 87 10000 1.49 257 06:19 25.08.2021
6033 Clouds 23 1014 92 10000 2.12 254 00:55 25.08.2021
6034 Clouds 23 1014 93 10000 1.7 243 22:51 24.08.2021
6035 Clouds 23 1012 93 10000 0.18 156 20:54 24.08.2021
6036 Clouds 24 1011 90 10000 2.41 98 19:54 24.08.2021
6037 Clouds 25 1011 86 10000 3.69 99 18:54 24.08.2021
6038 Clouds 27 1011 82 10000 4.49 95 17:52 24.08.2021
6039 Clouds 27 1011 79 10000 4.99 87 17:21 24.08.2021
6040 Clouds 25 1013 82 10000 6.44 82 14:45 24.08.2021
6041 Clouds 23 1013 89 10000 5.7 80 13:29 24.08.2021
6042 Clouds 23 1013 89 10000 5.7 80 13:29 24.08.2021
6043 Clouds 23 1013 89 10000 5.7 80 12:36 24.08.2021
6044 Clouds 23 1013 89 10000 5.7 80 12:36 24.08.2021
6045 Clouds 24 1013 92 10000 4.99 75 11:19 24.08.2021
6046 Clouds 24 1013 92 10000 4.99 75 10:45 24.08.2021
6047 Clouds 24 1013 94 10000 4.29 76 09:23 24.08.2021
6048 Clouds 25 1012 95 10000 4.54 82 07:28 24.08.2021
6049 Clouds 24 1012 94 10000 4.28 81 05:30 24.08.2021
6050 Clouds 27 1013 91 10000 5.3 78 00:59 24.08.2021
6051 Clouds 24 1013 90 10000 5.73 68 23:26 23.08.2021
6052 Clouds 25 1013 90 10000 5.73 68 22:42 23.08.2021
6053 Clouds 25 1012 90 10000 6.99 81 20:50 23.08.2021
6054 Clouds 27 1011 82 10000 7.9 83 19:30 23.08.2021
6055 Clouds 27 1012 76 10000 7.88 80 16:45 23.08.2021
6056 Clouds 27 1014 78 10000 6.83 77 15:24 23.08.2021
6057 Clouds 27 1014 75 10000 8 82 13:47 23.08.2021
6058 Clouds 25 1014 78 10000 6.28 86 12:29 23.08.2021
6059 Clouds 24 1015 83 10000 5.04 89 10:44 23.08.2021
6060 Clouds 23 1014 87 10000 4.48 87 09:52 23.08.2021
6061 Clouds 26 1014 91 10000 4.2 77 08:34 23.08.2021
6062 Clouds 24 1014 93 10000 3.88 74 06:56 23.08.2021
6063 Clouds 25 1014 93 10000 3.88 74 06:37 23.08.2021
6064 Clouds 26 1016 93 10000 4.7 79 00:57 23.08.2021
6065 Clouds 26 1016 90 10000 3.78 73 22:51 22.08.2021
6066 Clouds 25 1015 87 10000 4.83 73 22:28 22.08.2021
6067 Clouds 28 1014 77 10000 6.74 79 20:23 22.08.2021
6068 Clouds 27 1014 79 10000 6.62 76 19:46 22.08.2021
6069 Clouds 27 1014 76 10000 7.33 67 17:37 22.08.2021
6070 Clouds 28 1016 74 10000 6.61 83 15:32 22.08.2021
6071 Clouds 27 1016 70 10000 6.48 84 14:51 22.08.2021
6072 Clouds 26 1016 74 10000 6.38 72 13:37 22.08.2021
6073 Clouds 26 1017 76 10000 5.81 83 13:18 22.08.2021
6074 Clouds 25 1017 73 10000 3.94 77 12:28 22.08.2021
6075 Rain 26 1017 73 10000 3.93 77 11:43 22.08.2021
6076 Clouds 25 1017 80 10000 3.17 49 10:32 22.08.2021
6077 Clouds 23 1017 92 10000 3 151 08:36 22.08.2021
6078 Rain 24 1016 93 10000 3.99 67 04:58 22.08.2021
6079 Clouds 25 1017 89 10000 4.91 54 00:32 22.08.2021
6080 Clouds 26 1017 85 10000 3.42 60 22:34 21.08.2021
6081 Rain 27 1017 85 10000 2.52 62 20:56 21.08.2021
6082 Clouds 28 1016 79 10000 4.31 82 18:46 21.08.2021
6083 Clouds 29 1015 74 10000 4.88 83 17:59 21.08.2021
6084 Clouds 28 1016 71 10000 5.59 80 16:55 21.08.2021
6085 Clouds 27 1016 70 10000 6.04 83 16:28 21.08.2021
6086 Clouds 27 1016 70 10000 6.04 83 15:36 21.08.2021
6087 Clouds 27 1017 72 10000 6.04 81 14:47 21.08.2021
6088 Clouds 26 1017 75 10000 5.43 83 13:32 21.08.2021
6089 Clouds 26 1017 78 10000 4.66 82 12:38 21.08.2021
6090 Clouds 22 1017 88 10000 3.67 70 09:30 21.08.2021
6091 Clouds 23 1015 94 10000 3.11 64 05:41 21.08.2021
6092 Clouds 23 1015 94 10000 3.1 64 05:41 21.08.2021
6093 Clear 23 1016 89 10000 2.16 42 23:22 20.08.2021
6094 Clear 24 1015 89 10000 2.38 46 21:48 20.08.2021
6095 Clear 28 1013 74 10000 5.69 82 18:26 20.08.2021
6096 Clear 27 1014 73 10000 6.04 84 15:57 20.08.2021
6097 Clouds 25 1015 75 10000 5.76 83 13:47 20.08.2021
6098 Clouds 24 1015 80 10000 4.44 72 11:40 20.08.2021
6099 Clouds 23 1015 83 10000 4.43 77 10:51 20.08.2021
6100 Clouds 22 1014 86 10000 4.33 80 09:42 20.08.2021
6101 Clouds 22 1014 91 10000 4.12 73 08:42 20.08.2021
6102 Clouds 22 1014 94 10000 3.82 75 07:44 20.08.2021
6103 Clouds 22 1014 94 10000 4.37 70 04:22 20.08.2021
6104 Clouds 23 1014 93 10000 3.5 62 00:19 20.08.2021
6105 Clouds 23 1014 92 10000 3.69 66 23:18 19.08.2021
6106 Clouds 23 1014 92 10000 3.69 66 22:31 19.08.2021
6107 Clear 25 1012 88 10000 3.99 68 20:32 19.08.2021
6108 Clear 26 1011 79 10000 4.23 70 19:35 19.08.2021
6109 Clear 27 1012 73 10000 6.26 85 17:25 19.08.2021
6110 Clear 26 1013 72 10000 6.36 83 15:54 19.08.2021
6111 Clouds 24 1014 74 10000 5.26 81 13:29 19.08.2021
6112 Clouds 23 1014 74 10000 5.26 81 12:33 19.08.2021
6113 Clouds 22 1014 79 10000 3.77 83 11:24 19.08.2021
6114 Clouds 22 1014 84 10000 3.39 88 10:23 19.08.2021
6115 Clouds 22 1014 85 10000 3.39 88 09:47 19.08.2021
6116 Clouds 22 1014 91 10000 3.16 80 09:18 19.08.2021
6117 Clouds 23 1013 93 10000 3.04 71 06:53 19.08.2021
6118 Clear 22 1015 92 10000 4.07 74 02:22 19.08.2021
6119 Clear 22 1015 92 10000 4.07 74 01:48 19.08.2021
6120 Clear 26 1015 91 10000 3.7 71 22:55 18.08.2021
6121 Clear 25 1015 90 10000 3.92 74 21:40 18.08.2021
6122 Clear 27 1014 86 10000 4.43 79 20:31 18.08.2021
6123 Clear 27 1013 78 10000 4.84 82 19:32 18.08.2021
6124 Clear 26 1014 75 10000 5.43 86 18:47 18.08.2021
6125 Clear 27 1014 73 10000 5.72 88 17:57 18.08.2021
6126 Clear 26 1015 72 10000 6.08 83 15:46 18.08.2021
6127 Clouds 26 1016 73 10000 6.62 84 15:23 18.08.2021
6128 Clouds 26 1016 73 10000 6.62 84 14:49 18.08.2021
6129 Clouds 24 1017 81 10000 5.75 81 12:42 18.08.2021
6130 Clouds 23 1017 83 10000 5.57 81 12:24 18.08.2021
6131 Clouds 21 1017 89 10000 5.58 81 09:53 18.08.2021
6132 Clouds 22 1017 94 10000 5.1 78 07:42 18.08.2021
6133 Clouds 23 1018 95 10000 5.22 77 00:43 18.08.2021
6134 Clouds 24 1017 94 10000 4.94 79 22:29 17.08.2021
6135 Clouds 25 1016 91 10000 4.95 79 21:26 17.08.2021
6136 Clouds 25 1016 91 10000 4.95 79 20:44 17.08.2021
6137 Clear 26 1016 79 10000 5.72 87 18:57 17.08.2021
6138 Clouds 26 1016 77 10000 5.88 86 17:31 17.08.2021
6139 Clouds 26 1017 76 10000 6.25 84 16:34 17.08.2021
6140 Clouds 27 1017 77 10000 6.91 82 15:36 17.08.2021
6141 Clouds 26 1018 78 10000 6.75 83 14:28 17.08.2021
6142 Clear 25 1018 81 10000 4.67 83 11:48 17.08.2021
6143 Clear 25 1017 87 10000 2.64 75 09:21 17.08.2021
6144 Clear 23 1017 87 10000 2.61 64 07:45 17.08.2021
6145 Clear 29 1015 64 10000 4.53 245 00:21 17.08.2021
6146 Clear 25 1015 65 10000 4.34 251 22:55 16.08.2021
6147 Clear 31 1015 65 10000 4.34 251 22:36 16.08.2021
6148 Clear 25 1014 63 10000 4.43 259 21:53 16.08.2021
6149 Clear 32 1014 60 10000 4.65 248 20:54 16.08.2021
6150 Clear 33 1014 49 10000 5.23 249 19:45 16.08.2021
6151 Clear 33 1013 41 10000 5.41 247 19:22 16.08.2021
6152 Clear 34 1013 39 10000 5.46 249 18:22 16.08.2021
6153 Clear 36 1013 39 10000 5.46 249 17:51 16.08.2021
6154 Clear 29 1014 42 10000 5.48 255 15:30 16.08.2021
6155 Clear 28 1014 43 10000 4.66 256 14:36 16.08.2021
6156 Clear 26 1015 43 10000 3.8 258 13:30 16.08.2021
6157 Clear 25 1015 45 10000 2.35 256 12:31 16.08.2021
6158 Clear 25 1015 48 10000 0.67 120 10:37 16.08.2021
6159 Clear 21 1015 56 10000 1.44 54 08:44 16.08.2021
6160 Clear 22 1015 61 10000 2.32 65 07:33 16.08.2021
6161 Clear 22 1014 50 10000 1.55 62 06:24 16.08.2021
6162 Clear 24 1015 53 10000 1.4 321 02:18 16.08.2021
6163 Clear 26 1015 77 10000 2.38 60 21:51 15.08.2021
6164 Clear 28 1014 67 10000 3.78 70 20:28 15.08.2021
6165 Clear 28 1013 59 10000 4.61 65 18:45 15.08.2021
6166 Clear 27 1013 56 10000 4.97 87 17:54 15.08.2021
6167 Clouds 27 1014 52 10000 5.14 92 17:23 15.08.2021
6168 Clouds 27 1014 54 10000 5.39 86 15:58 15.08.2021
6169 Clouds 27 1015 58 10000 5.61 83 14:42 15.08.2021
6170 Clouds 27 1015 59 10000 5.48 81 13:37 15.08.2021
6171 Clouds 25 1016 76 10000 5.74 79 10:54 15.08.2021
6172 Clouds 22 1016 91 10000 6.21 70 08:45 15.08.2021
6173 Clouds 23 1016 85 10000 4.65 76 01:23 15.08.2021
6174 Clouds 24 1016 85 10000 4.65 76 00:33 15.08.2021
6175 Clouds 25 1016 86 10000 4.76 75 21:38 14.08.2021
6176 Clouds 25 1015 73 10000 5.11 82 20:28 14.08.2021
6177 Clear 26 1015 70 10000 4.53 78 19:33 14.08.2021
6178 Clear 27 1016 65 10000 5.35 74 18:37 14.08.2021
6179 Clear 26 1016 67 10000 6.92 83 16:50 14.08.2021
6180 Clouds 26 1017 66 10000 7.11 83 15:36 14.08.2021
6181 Clouds 26 1018 69 10000 7.57 80 14:22 14.08.2021
6182 Rain 23 1018 80 10000 7.06 77 11:32 14.08.2021
6183 Clouds 27 1018 91 10000 6.72 83 09:53 14.08.2021
6184 Clouds 23 1017 94 10000 6.99 83 05:35 14.08.2021
6185 Rain 23 1018 93 10000 6.4 79 23:52 13.08.2021
6186 Clouds 24 1018 92 10000 6.18 72 22:18 13.08.2021
6187 Clouds 24 1017 79 10000 6.31 80 20:24 13.08.2021
6188 Clouds 26 1017 72 10000 6.87 83 18:46 13.08.2021
6189 Clouds 27 1017 63 10000 7.13 83 17:22 13.08.2021
6190 Clouds 27 1018 60 10000 6.87 83 15:57 13.08.2021
6191 Clear 24 1019 71 10000 5.86 78 11:58 13.08.2021
6192 Clouds 24 1018 75 10000 5.6 75 11:18 13.08.2021
6193 Clouds 22 1018 88 10000 4.45 82 08:41 13.08.2021
6194 Clouds 22 1017 92 10000 4.5 77 08:20 13.08.2021
6195 Clouds 22 1017 93 10000 4.37 84 06:40 13.08.2021
6196 Clouds 22 1017 93 10000 4.5 70 02:27 13.08.2021
6197 Clouds 28 1017 92 10000 4.81 69 21:53 12.08.2021
6198 Clear 25 1016 89 10000 4.76 73 20:43 12.08.2021
6199 Clear 26 1016 83 10000 5.11 75 19:50 12.08.2021
6200 Clear 29 1015 80 10000 5.07 79 18:35 12.08.2021
6201 Clear 28 1016 76 10000 6.17 84 16:51 12.08.2021
6202 Clear 27 1017 76 10000 6.71 84 16:27 12.08.2021
6203 Clouds 25 1018 78 10000 5.69 80 13:52 12.08.2021
6204 Clouds 23 1018 74 10000 3.48 74 11:39 12.08.2021
6205 Clouds 24 1017 80 10000 1.85 76 09:35 12.08.2021
6206 Clouds 22 1017 91 10000 1.31 346 07:51 12.08.2021
6207 Clouds 24 1016 92 10000 1.65 351 23:22 11.08.2021
6208 Clouds 25 1015 92 10000 1.13 13 21:53 11.08.2021
6209 Clouds 25 1014 79 10000 1.35 76 19:25 11.08.2021
6210 Clouds 27 1014 78 10000 0.91 102 18:27 11.08.2021
6211 Clouds 28 1015 76 10000 1.06 86 15:37 11.08.2021
6212 Clouds 28 1015 76 9232 0.52 94 15:19 11.08.2021
6213 Clouds 27 1016 76 4579 1.77 73 13:50 11.08.2021
6214 Clouds 27 1016 78 10000 1.39 114 12:29 11.08.2021
6215 Clouds 26 1016 78 10000 1.39 114 11:45 11.08.2021
6216 Clouds 26 1016 83 10000 1.82 66 11:21 11.08.2021
6217 Clouds 24 1015 85 10000 1.69 113 08:54 11.08.2021
6218 Clouds 24 1014 91 10000 2.95 92 06:58 11.08.2021
6219 Clouds 22 1014 92 10000 4.91 74 22:46 10.08.2021
6220 Clouds 22 1013 90 10000 6.11 86 22:20 10.08.2021
6221 Clouds 28 1012 87 10000 6.15 74 20:55 10.08.2021
6222 Clouds 26 1012 78 10000 7.13 84 19:27 10.08.2021
6223 Clouds 26 1012 76 10000 7.43 82 18:18 10.08.2021
6224 Clouds 26 1013 76 10000 7.97 80 15:37 10.08.2021
6225 Clouds 24 1014 76 10000 7.54 83 14:40 10.08.2021
6226 Clouds 22 1015 86 10000 5.7 75 10:54 10.08.2021
6227 Clouds 21 1015 89 10000 5.1 68 09:33 10.08.2021
6228 Clouds 20 1014 95 10000 4.61 79 05:27 10.08.2021
6229 Clouds 22 1015 94 10000 4.52 75 00:45 10.08.2021
6230 Clouds 21 1015 95 10000 4.38 76 23:34 09.08.2021
6231 Clear 23 1014 93 10000 4.82 87 21:53 09.08.2021
6232 Clear 22 1013 90 10000 5.86 88 21:26 09.08.2021
6233 Clouds 24 1013 78 10000 7.12 89 18:48 09.08.2021
6234 Clouds 26 1013 77 10000 7.5 88 16:57 09.08.2021
6235 Clouds 24 1015 77 10000 7.74 77 14:37 09.08.2021
6236 Clear 23 1015 77 10000 7.3 79 13:31 09.08.2021
6237 Clear 20 1015 72 10000 4.48 75 11:48 09.08.2021
6238 Clear 20 1015 72 10000 4.48 75 11:48 09.08.2021
6239 Clear 21 1015 74 10000 2.91 71 09:44 09.08.2021
6240 Clear 19 1015 71 10000 1.1 41 08:22 09.08.2021
6241 Clear 25 1013 72 10000 4.36 258 21:33 08.08.2021
6242 Clear 25 1013 65 10000 4.91 258 20:54 08.08.2021
6243 Clear 27 1013 55 10000 5.66 265 17:43 08.08.2021
6244 Clear 27 1013 57 10000 5.84 263 16:38 08.08.2021
6245 Clear 28 1014 58 10000 5.87 265 15:29 08.08.2021
6246 Clear 25 1015 59 10000 6.15 268 12:47 08.08.2021
6247 Rain 24 1015 62 10000 5.83 258 10:37 08.08.2021
6248 Clear 22 1013 81 10000 5.44 245 06:42 08.08.2021
6249 Clear 22 1013 84 10000 5.91 244 03:40 08.08.2021
6250 Clear 22 1014 85 10000 6.17 263 00:25 08.08.2021
6251 Clear 23 1013 83 10000 6.07 268 21:47 07.08.2021
6252 Clear 23 1013 83 10000 6.07 268 21:47 07.08.2021
6253 Clear 23 1013 83 10000 6.07 268 21:47 07.08.2021
6254 Clear 23 1013 83 10000 6.07 268 21:47 07.08.2021
6255 Clear 23 1012 77 10000 6.21 270 21:19 07.08.2021
6256 Clear 27 1012 66 10000 6.88 268 18:22 07.08.2021
6257 Clear 27 1012 65 10000 7.13 268 16:52 07.08.2021
6258 Clear 27 1012 65 10000 7.26 268 15:36 07.08.2021
6259 Clear 27 1013 68 10000 7.33 269 13:35 07.08.2021
6260 Clear 24 1012 65 10000 6.51 266 10:37 07.08.2021
6261 Clear 22 1011 84 10000 5.98 262 07:52 07.08.2021
6262 Clear 25 1011 85 10000 6.41 242 02:38 07.08.2021
6263 Clear 27 1010 78 10000 5.49 265 22:23 06.08.2021
6264 Clear 27 1010 69 10000 5.54 261 20:36 06.08.2021
6265 Clear 27 1010 63 10000 5.85 261 19:59 06.08.2021
6266 Clear 27 1010 63 10000 5.85 261 19:37 06.08.2021
6267 Clear 27 1010 63 10000 5.85 261 19:37 06.08.2021
6268 Clear 30 1011 57 10000 5.84 258 17:34 06.08.2021
6269 Clear 28 1013 69 10000 6.09 257 12:25 06.08.2021
6270 Clear 24 1013 68 10000 5.19 254 09:57 06.08.2021
6271 Clear 23 1012 77 10000 4.34 253 08:23 06.08.2021
6272 Clear 26 1014 70 10000 4.6 261 23:35 05.08.2021
6273 Clear 26 1014 69 10000 4.34 261 22:32 05.08.2021
6274 Clear 27 1013 62 10000 4.63 251 20:47 05.08.2021
6275 Clear 28 1013 57 10000 5.13 255 19:29 05.08.2021
6276 Clear 29 1013 60 10000 5.45 262 17:43 05.08.2021
6277 Clear 29 1014 62 10000 5.28 252 15:31 05.08.2021
6278 Clear 27 1016 68 10000 4.09 254 11:39 05.08.2021
6279 Clear 24 1015 82 10000 3.58 257 08:51 05.08.2021
6280 Clear 24 1014 87 10000 4.01 242 05:35 05.08.2021
6281 Clear 23 1016 83 10000 4 242 00:54 05.08.2021
6282 Clear 27 1015 83 10000 4.39 262 21:49 04.08.2021
6283 Clear 28 1015 76 10000 4.81 263 21:21 04.08.2021
6284 Clear 30 1014 64 10000 5 256 18:54 04.08.2021
6285 Clear 29 1015 59 10000 5.23 257 16:42 04.08.2021
6286 Clear 29 1015 58 10000 5.28 265 14:44 04.08.2021
6287 Clouds 25 1016 58 10000 2.37 261 11:49 04.08.2021
6288 Clouds 21 1015 87 10000 2.33 79 04:55 04.08.2021
6289 Clear 25 1015 82 10000 3.9 66 20:35 03.08.2021
6290 Clear 25 1014 75 10000 4.65 65 19:59 03.08.2021
6291 Clear 26 1014 71 10000 6.68 80 17:50 03.08.2021
6292 Clear 26 1015 73 10000 6.97 92 16:23 03.08.2021
6293 Clouds 25 1017 80 10000 6.48 85 12:20 03.08.2021
6294 Clouds 23 1016 82 10000 6.33 83 10:39 03.08.2021
6295 Clear 21 1015 90 10000 4.76 73 06:46 03.08.2021
6296 Clouds 23 1013 57 10000 2.16 76 17:48 02.08.2021
6297 Clouds 24 1014 59 10000 1.5 90 16:38 02.08.2021
6298 Clouds 24 1014 60 10000 1.39 267 14:51 02.08.2021
6299 Clouds 22 1014 62 10000 2.03 266 11:59 02.08.2021
6300 Clouds 22 1014 62 10000 2.03 266 11:34 02.08.2021
6301 Clouds 22 1014 72 10000 2.51 240 09:49 02.08.2021
6302 Clouds 23 1015 76 10000 4.6 247 22:33 01.08.2021
6303 Clouds 24 1015 55 10000 5.37 260 18:19 01.08.2021
6304 Clouds 25 1017 55 10000 6.53 265 13:38 01.08.2021
6305 Clouds 23 1017 58 10000 6.4 266 11:38 01.08.2021
6306 Clouds 19 1017 64 10000 5.35 273 08:36 01.08.2021
6307 Clouds 22 1016 69 10000 5.45 282 03:47 01.08.2021
6308 Clouds 23 1017 78 10000 6.11 245 22:48 31.07.2021
6309 Clouds 25 1015 61 10000 7.25 269 20:28 31.07.2021
6310 Clouds 26 1016 53 10000 8.12 264 17:28 31.07.2021
6311 Clouds 26 1016 54 10000 7.95 266 16:22 31.07.2021
6312 Clear 25 1016 60 10000 7.86 269 12:27 31.07.2021
6313 Clear 21 1014 79 10000 5.36 277 06:56 31.07.2021
6314 Clear 22 1016 73 10000 4.95 239 23:58 30.07.2021
6315 Clouds 29 1013 52 10000 5.63 255 20:28 30.07.2021
6316 Clouds 28 1013 51 10000 6.07 260 16:33 30.07.2021
6317 Clouds 24 1014 92 10000 3.54 80 22:27 29.07.2021
6318 Clouds 23 1014 81 10000 6.75 82 12:34 29.07.2021
6319 Clouds 21 1012 95 10000 6.74 79 05:23 29.07.2021
6320 Clouds 22 1013 93 10000 6.94 80 04:28 29.07.2021
6321 Clear 23 1012 87 10000 6.86 80 20:52 28.07.2021
6322 Clear 24 1012 70 10000 7.49 84 17:19 28.07.2021
6323 Clouds 22 1012 79 10000 5.87 81 10:48 28.07.2021
6324 Clouds 21 1011 92 10000 5.23 71 03:46 28.07.2021
6325 Clear 23 1011 90 10000 5.2 74 21:37 27.07.2021
6326 Clouds 23 1011 78 10000 8.53 80 18:30 27.07.2021
6327 Clouds 23 1013 80 10000 9.16 83 14:51 27.07.2021
6328 Clouds 21 1014 83 10000 8.37 81 10:44 27.07.2021
6329 Clear 21 1014 92 10000 5.72 79 07:31 27.07.2021
6330 Clear 27 1014 72 10000 5.84 266 15:35 26.07.2021
6331 Clouds 25 1015 73 10000 5.82 264 13:43 26.07.2021
6332 Clear 24 1014 90 10000 5.66 256 21:44 25.07.2021
6333 Clear 25 1013 84 10000 6.1 263 20:54 25.07.2021
6334 Clear 28 1013 72 10000 7.32 263 17:45 25.07.2021
6335 Clear 27 1013 63 10000 7.32 259 15:27 25.07.2021
6336 Clear 24 1013 67 10000 6.59 255 10:19 25.07.2021
6337 Clear 23 1013 85 10000 5.12 251 08:18 25.07.2021
6338 Clouds 28 1011 57 10000 5.98 259 20:23 24.07.2021
6339 Clouds 29 1011 57 10000 5.98 259 19:36 24.07.2021
6340 Clear 27 1013 54 10000 5.61 254 11:27 24.07.2021
6341 Clouds 28 1011 59 10000 0.43 205 17:35 23.07.2021
6342 Clouds 28 1013 61 10000 2.26 65 14:35 23.07.2021
6343 Clouds 25 1013 65 10000 3.31 75 12:40 23.07.2021
6344 Clear 26 1015 86 10000 4.31 67 22:51 22.07.2021
6345 Clear 25 1015 61 10000 6.91 80 14:58 22.07.2021
6346 Clear 23 1017 69 10000 4.88 79 11:19 22.07.2021
6347 Clear 19 1016 80 10000 4.36 69 08:34 22.07.2021
6348 Clear 22 1016 73 10000 3.91 67 22:33 21.07.2021
6349 Clear 24 1016 72 10000 3.72 64 21:34 21.07.2021
6350 Clear 26 1015 57 10000 4.89 78 19:27 21.07.2021
6351 Clear 22 1017 53 10000 1.87 78 10:37 21.07.2021
6352 Clear 19 1016 64 10000 0.74 89 09:19 21.07.2021
6353 Clear 19 1016 64 10000 0.74 89 09:19 21.07.2021
6354 Clear 20 1016 84 10000 2.88 268 04:51 21.07.2021
6355 Clear 25 1015 82 10000 3.12 263 21:43 20.07.2021
6356 Clear 26 1014 55 10000 4.11 253 16:36 20.07.2021
6357 Clear 25 1015 58 10000 4.03 263 15:27 20.07.2021
6358 Clear 23 1016 68 10000 3.5 252 11:20 20.07.2021
6359 Clear 19 1015 88 10000 3.98 245 07:37 20.07.2021
6360 Clear 19 1015 86 10000 4.57 252 02:58 20.07.2021
6361 Clear 25 1014 62 10000 5.24 261 18:24 19.07.2021
6362 Clear 26 1015 67 10000 6.47 272 12:47 19.07.2021
6363 Clear 21 1014 86 10000 6.81 244 04:58 19.07.2021
6364 Clear 28 1016 55 10000 6.26 259 15:45 18.07.2021
6365 Clear 24 1017 65 10000 5.41 253 10:19 18.07.2021
6366 Clear 23 1017 79 10000 0.53 270 22:30 17.07.2021
6367 Clear 23 1016 78 10000 0.68 88 21:58 17.07.2021
6368 Clear 26 1016 79 10000 0.7 88 21:40 17.07.2021
6369 Clear 26 1016 79 10000 0.7 88 21:40 17.07.2021
6370 Clear 24 1017 64 10000 5.67 83 12:35 17.07.2021
6371 Clear 23 1017 70 10000 5.38 83 11:30 17.07.2021
6372 Clouds 22 1016 92 10000 5.57 79 04:47 17.07.2021
6373 Clear 23 1016 73 10000 10.4 82 15:34 16.07.2021
6374 Clouds 23 1017 77 10000 10.69 81 11:43 16.07.2021
6375 Clouds 20 1015 90 10000 10.3 80 07:24 16.07.2021
6376 Clear 24 1014 75 10000 11.26 82 18:33 15.07.2021
6377 Clear 25 1015 76 10000 11.4 85 13:49 15.07.2021
6378 Clear 21 1015 84 10000 10.77 80 09:25 15.07.2021
6379 Clouds 21 1015 89 10000 8.26 80 00:31 15.07.2021
6380 Clear 24 1015 76 10000 9.06 84 16:48 14.07.2021
6381 Clouds 22 1017 84 10000 7.37 78 11:59 14.07.2021
6382 Clear 20 1016 81 10000 3.43 67 04:44 14.07.2021
6383 Clear 24 1016 53 10000 3.36 265 20:22 13.07.2021
6384 Clear 25 1016 53 10000 3.34 265 19:50 13.07.2021
6385 Clear 24 1016 52 10000 3.9 260 19:21 13.07.2021
6386 Clear 25 1016 51 10000 3.87 260 18:43 13.07.2021
6387 Clear 25 1016 52 10000 4.21 257 18:23 13.07.2021
6388 Clear 25 1018 51 10000 5.29 255 14:33 13.07.2021
6389 Clear 22 1019 56 10000 4.61 256 09:38 13.07.2021
6390 Clear 24 1019 82 10000 5.79 255 22:45 12.07.2021
6391 Clear 28 1017 49 10000 7.68 262 17:28 12.07.2021
6392 Clear 28 1017 50 10000 7.64 264 14:50 12.07.2021
6393 Clouds 28 1016 86 10000 5.18 259 00:31 12.07.2021
6394 Clouds 24 1014 74 10000 0.67 253 20:53 11.07.2021
6395 Clouds 25 1015 67 10000 5.89 81 15:30 11.07.2021
6396 Clouds 21 1014 93 10000 8.81 78 01:27 11.07.2021
6397 Clouds 26 1014 76 10000 9.5 81 17:19 10.07.2021
6398 Clouds 24 1015 87 10000 9.77 74 07:52 10.07.2021
6399 Clouds 22 1015 88 10000 12.45 76 02:27 10.07.2021
6400 Clouds 23 1014 84 10000 11.93 81 19:47 09.07.2021
6401 Clouds 25 1016 80 10000 14.46 87 14:50 09.07.2021
6402 Clouds 24 1016 82 10000 14.67 82 12:46 09.07.2021
6403 Clouds 25 1018 93 10000 10.34 76 23:53 08.07.2021
6404 Clouds 21 1018 93 10000 10 75 22:49 08.07.2021
6405 Clear 22 1017 81 10000 10.23 76 19:49 08.07.2021
6406 Clear 22 1017 73 10000 9.6 76 17:47 08.07.2021
6407 Clear 23 1018 72 10000 6.64 77 13:48 08.07.2021
6408 Clear 23 1019 63 10000 5.1 75 13:29 08.07.2021
6409 Clear 22 1019 63 10000 5.1 75 12:32 08.07.2021
6410 Clear 23 1019 54 10000 1.51 57 10:54 08.07.2021
6411 Clear 21 1017 81 10000 2.63 250 05:38 08.07.2021
6412 Clear 23 1018 81 10000 4.41 233 02:28 08.07.2021
6413 Clear 20 1018 82 10000 4.77 254 22:57 07.07.2021
6414 Clear 24 1018 79 10000 4.91 259 22:19 07.07.2021
6415 Clear 25 1018 79 10000 4.91 259 21:44 07.07.2021
6416 Clear 25 1018 71 10000 5.48 267 21:24 07.07.2021
6417 Clear 26 1017 67 10000 5.92 269 19:57 07.07.2021
6418 Clear 25 1017 62 10000 6.08 262 19:29 07.07.2021
6419 Clear 24 1017 59 10000 6.23 262 17:36 07.07.2021
6420 Clear 24 1018 57 10000 6.76 262 15:45 07.07.2021
6421 Clouds 25 1018 54 10000 7.13 268 12:27 07.07.2021
6422 Clouds 21 1017 61 10000 5.45 279 08:53 07.07.2021
6423 Clouds 22 1016 73 10000 5.63 282 06:46 07.07.2021
6424 Clouds 22 1016 78 10000 5.69 276 05:48 07.07.2021
6425 Clear 24 1017 90 10000 5.03 250 23:47 06.07.2021
6426 Clear 27 1015 77 10000 5.95 268 19:30 06.07.2021
6427 Clear 27 1015 73 10000 6.27 266 18:48 06.07.2021
6428 Clear 27 1015 73 10000 6.27 266 18:30 06.07.2021
6429 Clear 27 1016 66 10000 6.18 263 14:58 06.07.2021
6430 Clear 26 1016 67 10000 6.18 265 12:58 06.07.2021
6431 Clouds 23 1016 81 10000 6.4 265 09:42 06.07.2021
6432 Clouds 22 1016 87 10000 6.57 254 08:34 06.07.2021
6433 Clouds 22 1015 91 10000 5.85 246 07:34 06.07.2021
6434 Clear 23 1016 91 10000 5.37 251 01:43 06.07.2021
6435 Clear 24 1016 89 10000 5.84 261 22:43 05.07.2021
6436 Clear 29 1014 65 10000 6.27 256 18:52 05.07.2021
6437 Clear 30 1015 62 10000 6.05 262 15:45 05.07.2021
6438 Clear 23 1015 87 10000 5.21 240 07:26 05.07.2021
6439 Clear 23 1015 86 10000 5.06 240 05:46 05.07.2021
6440 Clear 24 1016 86 10000 4.88 245 04:40 05.07.2021
6441 Clear 25 1016 79 10000 5.46 257 23:18 04.07.2021
6442 Clear 26 1015 56 10000 5.53 259 19:24 04.07.2021
6443 Clear 27 1016 58 10000 5.88 257 16:51 04.07.2021
6444 Clear 26 1018 64 10000 5.68 260 13:27 04.07.2021
6445 Clouds 23 1018 85 10000 5.58 258 09:25 04.07.2021
6446 Clouds 25 1018 87 10000 5.26 246 23:34 03.07.2021
6447 Clouds 26 1018 85 10000 5.16 253 22:40 03.07.2021
6448 Clear 30 1018 59 10000 5.84 264 14:58 03.07.2021
6449 Clear 27 1018 62 10000 5.48 262 12:38 03.07.2021
6450 Clear 24 1018 71 10000 5.4 247 09:39 03.07.2021
6451 Clear 23 1018 77 10000 5.08 250 09:20 03.07.2021
6452 Clear 23 1018 78 10000 4.97 247 08:44 03.07.2021
6453 Clear 28 1017 49 10000 4.7 254 17:28 02.07.2021
6454 Clear 20 1017 86 10000 3.04 261 07:41 02.07.2021
6455 Clear 21 1017 87 10000 3.26 254 06:24 02.07.2021
6456 Clear 21 1018 87 10000 1.44 279 22:57 01.07.2021
6457 Clear 23 1017 86 10000 0.18 120 21:56 01.07.2021
6458 Clear 23 1017 86 10000 0.18 120 21:33 01.07.2021
6459 Clear 25 1016 74 10000 0.89 79 19:36 01.07.2021
6460 Clear 25 1016 73 10000 1.52 77 19:18 01.07.2021
6461 Clear 25 1016 73 10000 1.56 77 18:35 01.07.2021
6462 Clear 26 1017 72 10000 4.12 87 17:19 01.07.2021
6463 Clear 24 1017 71 10000 4.66 83 15:31 01.07.2021
6464 Clear 24 1018 70 10000 4.41 77 14:25 01.07.2021
6465 Clear 21 1018 75 10000 3.12 78 10:56 01.07.2021
6466 Clouds 20 1017 89 10000 2.76 68 07:39 01.07.2021
6467 Clouds 20 1017 90 10000 3.25 66 23:23 30.06.2021
6468 Clear 21 1016 88 10000 3.72 67 22:20 30.06.2021
6469 Clear 22 1015 82 10000 4.48 69 21:23 30.06.2021
6470 Clear 22 1015 82 10000 4.49 69 20:58 30.06.2021
6471 Clear 23 1015 78 10000 4.22 72 19:43 30.06.2021
6472 Clear 21 1016 63 10000 6.97 78 14:35 30.06.2021
6473 Clear 21 1016 64 10000 5.4 74 13:24 30.06.2021
6474 Clear 19 1016 70 10000 0.97 49 08:24 30.06.2021
6475 Clear 24 1016 79 10000 3.94 259 22:36 29.06.2021
6476 Clear 24 1015 63 10000 4.82 259 19:28 29.06.2021
6477 Clear 25 1015 64 10000 5.22 259 17:44 29.06.2021
6478 Clear 25 1016 65 10000 5.6 257 17:22 29.06.2021
6479 Clear 25 1016 64 10000 5.55 253 15:50 29.06.2021
6480 Clear 26 1016 63 10000 5.38 250 14:54 29.06.2021
6481 Clear 24 1017 64 10000 5.71 267 13:19 29.06.2021
6482 Clear 20 1018 84 10000 6.14 235 01:24 29.06.2021
6483 Clear 20 1018 84 10000 6.14 235 01:24 29.06.2021
6484 Clear 23 1017 75 10000 5.86 259 21:48 28.06.2021
6485 Clear 25 1016 61 10000 6.44 266 19:53 28.06.2021
6486 Clear 27 1017 52 10000 6.77 262 17:32 28.06.2021
6487 Clear 25 1018 49 10000 7.41 268 15:22 28.06.2021
6488 Clear 24 1018 50 10000 7.38 271 14:24 28.06.2021
6489 Clear 22 1017 61 10000 6.23 268 09:36 28.06.2021
6490 Clear 23 1017 84 10000 4.96 252 23:47 27.06.2021
6491 Clear 23 1016 80 10000 4.99 260 21:54 27.06.2021
6492 Clear 27 1015 64 10000 5.29 262 19:42 27.06.2021
6493 Clear 26 1015 64 10000 6.46 268 16:54 27.06.2021
6494 Clear 26 1017 65 10000 5.75 262 14:23 27.06.2021
6495 Clear 20 1016 77 10000 4.13 252 09:33 27.06.2021
6496 Clear 21 1017 85 10000 1.03 52 23:30 26.06.2021
6497 Clear 22 1015 79 10000 1.21 62 21:24 26.06.2021
6498 Clear 23 1015 79 10000 1.21 62 20:42 26.06.2021
6499 Clear 24 1015 71 10000 1.53 81 19:25 26.06.2021
6500 Clear 26 1016 65 10000 3.6 89 15:33 26.06.2021
6501 Clear 22 1017 68 10000 4.65 84 12:57 26.06.2021
6502 Clear 20 1017 79 10000 4.6 88 09:32 26.06.2021
6503 Clouds 21 1017 92 10000 4.87 81 06:20 26.06.2021
6504 Clear 22 1016 85 10000 8.28 85 21:23 25.06.2021
6505 Clear 24 1015 80 10000 9.47 82 19:56 25.06.2021
6506 Clear 24 1016 76 10000 10.19 82 17:55 25.06.2021
6507 Clear 24 1016 75 10000 10.34 83 16:51 25.06.2021
6508 Clear 24 1017 75 10000 10.51 84 15:47 25.06.2021
6509 Clouds 23 1018 77 10000 10.62 85 13:19 25.06.2021
6510 Clouds 21 1017 85 10000 10.89 83 09:35 25.06.2021
6511 Clouds 19 1016 89 10000 10.66 79 07:21 25.06.2021
6512 Clouds 23 1017 90 10000 10.32 78 03:55 25.06.2021
6513 Clear 21 1017 86 10000 10.13 81 22:48 24.06.2021
6514 Clear 21 1017 86 10000 10.13 81 22:48 24.06.2021
6515 Clear 21 1017 85 10000 9.86 79 21:47 24.06.2021
6516 Clear 22 1016 83 10000 9.72 79 20:41 24.06.2021
6517 Clear 23 1016 76 10000 10.59 84 18:50 24.06.2021
6518 Clear 23 1017 75 10000 10.61 85 16:37 24.06.2021
6519 Clouds 22 1017 77 10000 10.92 84 15:22 24.06.2021
6520 Clouds 22 1017 77 10000 10.9 84 14:49 24.06.2021
6521 Clouds 21 1017 79 10000 10.98 85 11:51 24.06.2021
6522 Clouds 20 1017 84 10000 11.07 83 09:35 24.06.2021
6523 Clouds 20 1018 88 10000 6.17 100 08:24 24.06.2021
6524 Clear 19 1016 86 10000 5.34 64 04:36 24.06.2021
6525 Clouds 20 1017 76 10000 2.35 74 23:28 23.06.2021
6526 Clouds 24 1016 77 10000 0.38 104 21:46 23.06.2021
6527 Clear 25 1014 57 10000 5.66 330 20:47 23.06.2021
6528 Clear 26 1015 60 10000 1.43 276 18:38 23.06.2021
6529 Clear 26 1015 60 10000 2.77 279 17:38 23.06.2021
6530 Clear 25 1015 63 10000 4.16 244 16:34 23.06.2021
6531 Clear 24 1017 70 10000 4.53 272 13:22 23.06.2021
6532 Clear 23 1017 70 10000 4.58 267 11:59 23.06.2021
6533 Clear 21 1017 76 10000 4.32 241 09:55 23.06.2021
6534 Clear 20 1017 80 10000 4.3 235 08:49 23.06.2021
6535 Clear 19 1016 85 10000 4.75 232 07:52 23.06.2021
6536 Clear 19 1016 87 10000 5.07 232 07:25 23.06.2021
6537 Clear 19 1016 86 10000 5.14 232 04:34 23.06.2021
6538 Clear 19 1017 84 10000 5.04 249 00:44 23.06.2021
6539 Clear 19 1017 82 10000 5.17 257 23:56 22.06.2021
6540 Clear 20 1017 78 10000 5.55 266 22:46 22.06.2021
6541 Clear 20 1017 73 10000 5.62 271 22:22 22.06.2021
6542 Clear 22 1017 73 10000 5.62 271 21:37 22.06.2021
6543 Clear 23 1016 66 10000 6.15 275 19:43 22.06.2021
6544 Clear 24 1016 66 10000 5.86 270 18:54 22.06.2021
6545 Clear 24 1016 66 10000 5.99 269 18:24 22.06.2021
6546 Clear 25 1017 66 10000 6.77 270 17:21 22.06.2021
6547 Clear 25 1017 66 10000 6.77 270 16:30 22.06.2021
6548 Clear 25 1017 67 10000 7.81 269 14:36 22.06.2021
6549 Clear 23 1017 67 10000 7.42 266 13:48 22.06.2021
6550 Clear 22 1017 67 10000 7.28 270 12:53 22.06.2021
6551 Clear 21 1017 69 10000 6.56 275 11:18 22.06.2021
6552 Clear 19 1017 71 10000 5.77 279 09:31 22.06.2021
6553 Clouds 19 1015 83 10000 4.58 266 06:41 22.06.2021
6554 Clear 19 1016 80 10000 6.35 269 00:42 22.06.2021
6555 Clear 20 1016 74 10000 6.27 279 23:19 21.06.2021
6556 Clear 21 1016 70 10000 6.59 282 21:54 21.06.2021
6557 Clear 22 1015 65 10000 7.15 284 20:55 21.06.2021
6558 Clear 23 1015 62 10000 7.39 280 20:28 21.06.2021
6559 Clear 24 1015 62 10000 7.39 280 19:50 21.06.2021
6560 Clear 23 1015 58 10000 7.49 276 18:30 21.06.2021
6561 Clear 24 1015 56 10000 7.57 275 16:56 21.06.2021
6562 Clear 24 1015 56 10000 7.57 275 16:38 21.06.2021
6563 Clear 24 1015 56 10000 7.57 275 16:38 21.06.2021
6564 Clear 24 1015 57 10000 7.54 277 16:19 21.06.2021
6565 Clear 24 1015 57 10000 7.54 277 15:40 21.06.2021
6566 Clouds 22 1016 61 10000 7.24 268 13:55 21.06.2021
6567 Clouds 22 1016 59 10000 7.01 267 13:21 21.06.2021
6568 Clouds 22 1016 59 10000 7.01 267 12:35 21.06.2021
6569 Clouds 20 1016 62 10000 4.96 286 11:25 21.06.2021
6570 Clouds 19 1016 67 10000 4.35 294 10:23 21.06.2021
6571 Clouds 19 1015 73 10000 3.66 302 09:18 21.06.2021
6572 Clouds 19 1015 76 10000 3.91 303 08:19 21.06.2021
6573 Clouds 19 1015 76 10000 3.91 303 08:19 21.06.2021
6574 Clouds 20 1014 86 10000 5.39 284 06:24 21.06.2021
6575 Clouds 20 1016 82 10000 5.1 261 23:57 20.06.2021
6576 Clouds 20 1016 82 10000 5.1 261 23:34 20.06.2021
6577 Clouds 20 1016 81 10000 5 267 22:55 20.06.2021
6578 Clouds 21 1016 81 10000 5.27 272 21:48 20.06.2021
6579 Clear 21 1015 71 10000 6.32 277 20:28 20.06.2021
6580 Clear 23 1015 71 10000 6.32 277 19:40 20.06.2021
6581 Clear 23 1015 67 10000 6.56 275 19:20 20.06.2021
6582 Clear 24 1015 65 10000 7.1 273 17:47 20.06.2021
6583 Clear 23 1016 64 10000 7.2 271 16:45 20.06.2021
6584 Clear 23 1016 64 10000 7.25 270 15:44 20.06.2021
6585 Clear 22 1016 64 10000 7.85 267 15:25 20.06.2021
6586 Clear 22 1017 64 10000 7.79 268 14:42 20.06.2021
6587 Clouds 22 1017 65 10000 7.62 263 13:32 20.06.2021
6588 Clouds 21 1017 65 10000 7.64 263 12:34 20.06.2021
6589 Clouds 20 1017 67 10000 7.51 263 11:45 20.06.2021
6590 Clouds 20 1017 67 10000 7.51 263 11:45 20.06.2021
6591 Clouds 19 1017 73 10000 7.1 255 09:55 20.06.2021
6592 Clouds 19 1017 73 10000 7.1 255 09:36 20.06.2021
6593 Clouds 19 1017 78 10000 6.49 255 04:32 20.06.2021
6594 Clear 20 1018 79 10000 5.93 271 23:36 19.06.2021
6595 Clear 19 1018 78 10000 6.19 273 22:52 19.06.2021
6596 Clear 20 1018 76 10000 6.11 275 21:51 19.06.2021
6597 Clear 21 1017 71 10000 6.72 277 20:50 19.06.2021
6598 Clear 23 1016 65 10000 6.7 274 18:50 19.06.2021
6599 Clear 23 1016 63 10000 6.66 270 18:18 19.06.2021
6600 Clear 24 1017 61 10000 7.44 270 17:22 19.06.2021
6601 Clear 25 1017 61 10000 7.66 268 15:56 19.06.2021
6602 Clouds 23 1017 61 10000 7.01 274 14:28 19.06.2021
6603 Clouds 21 1017 62 10000 6.69 275 12:48 19.06.2021
6604 Clouds 20 1017 65 10000 6.4 278 11:53 19.06.2021
6605 Clouds 20 1017 68 10000 5.93 283 10:44 19.06.2021
6606 Clouds 19 1017 69 10000 5.5 287 10:22 19.06.2021
6607 Clouds 18 1017 74 10000 5.41 290 09:23 19.06.2021
6608 Clouds 18 1017 78 10000 4.82 301 07:45 19.06.2021
6609 Clouds 18 1016 78 10000 4.87 291 06:29 19.06.2021
6610 Clouds 19 1018 74 10000 5.35 272 01:46 19.06.2021
6611 Clouds 19 1018 75 10000 5.64 271 00:18 19.06.2021
6612 Clouds 20 1017 75 10000 5.76 272 23:29 18.06.2021
6613 Clouds 19 1017 75 10000 5.76 272 22:50 18.06.2021
6614 Clouds 20 1016 73 10000 5.9 275 22:21 18.06.2021
6615 Clouds 21 1016 70 10000 6.16 274 21:29 18.06.2021
6616 Clouds 21 1016 70 10000 6.81 268 20:58 18.06.2021
6617 Clouds 22 1016 70 10000 7.4 272 19:38 18.06.2021
6618 Clouds 23 1015 70 10000 7.46 266 18:23 18.06.2021
6619 Clouds 24 1015 71 10000 7.35 267 17:29 18.06.2021
6620 Clouds 25 1015 71 10000 8.09 261 16:21 18.06.2021
6621 Clouds 23 1015 70 10000 7.8 256 15:29 18.06.2021
6622 Clouds 23 1014 57 10000 7.2 250 14:32 18.06.2021
6623 Clouds 23 1015 71 10000 7.72 249 13:37 18.06.2021
6624 Clouds 23 1014 73 10000 8.86 244 12:45 18.06.2021
6625 Clouds 23 1014 71 10000 7.72 240 11:57 18.06.2021
6626 Clouds 22 1014 72 10000 6.48 232 11:25 18.06.2021
6627 Clouds 22 1014 72 10000 6.48 232 10:52 18.06.2021
6628 Clouds 21 1014 76 10000 5.36 227 10:21 18.06.2021
6629 Clouds 21 1014 76 10000 5.36 227 09:43 18.06.2021
6630 Clouds 20 1014 80 10000 4.33 231 08:48 18.06.2021
6631 Clouds 20</